<?xml version='1.0' encoding='UTF-8'?><gpx version="1.1" creator="JPX - https://github.com/jenetics/jpx" xmlns="http://www.topografix.com/GPX/1/1"><trk><trkseg><trkpt lat="42.15971635197022" lon="-7.976450608666013"><ele>683.0</ele><time>2026-04-29T09:03:59Z</time></trkpt><trkpt lat="42.15976692361736" lon="-7.976503769485421"><ele>683.0</ele><time>2026-04-29T09:04:54Z</time></trkpt><trkpt lat="42.1597351866708" lon="-7.976425513095411"><ele>683.0</ele><time>2026-04-29T09:05:42.001Z</time></trkpt><trkpt lat="42.15975042572625" lon="-7.9763358271239895"><ele>683.0</ele><time>2026-04-29T09:06:01.001Z</time></trkpt><trkpt lat="42.15972390209584" lon="-7.976242445312284"><ele>683.0</ele><time>2026-04-29T09:06:05.001Z</time></trkpt><trkpt lat="42.15970022771035" lon="-7.9761502034787295"><ele>683.0</ele><time>2026-04-29T09:06:10Z</time></trkpt><trkpt lat="42.15975162403744" lon="-7.976231396144199"><ele>683.0</ele><time>2026-04-29T09:06:13Z</time></trkpt><trkpt lat="42.15973647269205" lon="-7.976346273720479"><ele>683.0</ele><time>2026-04-29T09:06:16Z</time></trkpt><trkpt lat="42.159749032745616" lon="-7.976440417491534"><ele>683.0</ele><time>2026-04-29T09:06:19Z</time></trkpt><trkpt lat="42.15976779279071" lon="-7.976549456464595"><ele>683.0</ele><time>2026-04-29T09:06:23Z</time></trkpt><trkpt lat="42.159766389629404" lon="-7.976640770044905"><ele>683.0</ele><time>2026-04-29T09:06:26Z</time></trkpt><trkpt lat="42.15977763399516" lon="-7.976735091698063"><ele>683.0</ele><time>2026-04-29T09:06:28Z</time></trkpt><trkpt lat="42.159786392332975" lon="-7.976831587334565"><ele>683.0</ele><time>2026-04-29T09:06:30Z</time></trkpt><trkpt lat="42.15976560651039" lon="-7.976934744040897"><ele>683.0</ele><time>2026-04-29T09:06:32Z</time></trkpt><trkpt lat="42.15965816115856" lon="-7.977065272604656"><ele>684.0</ele><time>2026-04-29T09:06:34Z</time></trkpt><trkpt lat="42.15959521506798" lon="-7.977130231456051"><ele>685.0</ele><time>2026-04-29T09:06:35Z</time></trkpt><trkpt lat="42.159530876688656" lon="-7.977228710958537"><ele>686.0</ele><time>2026-04-29T09:06:36Z</time></trkpt><trkpt lat="42.15940276558493" lon="-7.977353129288085"><ele>687.0</ele><time>2026-04-29T09:06:38Z</time></trkpt><trkpt lat="42.15933849640786" lon="-7.977406694819099"><ele>688.0</ele><time>2026-04-29T09:06:39Z</time></trkpt><trkpt lat="42.15935129361602" lon="-7.977696479029401"><ele>689.4</ele><time>2026-04-29T09:06:40Z</time></trkpt><trkpt lat="42.15928560792732" lon="-7.977850811613249"><ele>690.8</ele><time>2026-04-29T09:06:41Z</time></trkpt><trkpt lat="42.15925045064084" lon="-7.9779227962990324"><ele>692.2</ele><time>2026-04-29T09:06:42Z</time></trkpt><trkpt lat="42.159195868127085" lon="-7.9780611817472025"><ele>693.6</ele><time>2026-04-29T09:06:43Z</time></trkpt><trkpt lat="42.15914342636927" lon="-7.978184017814078"><ele>695.0</ele><time>2026-04-29T09:06:44Z</time></trkpt><trkpt lat="42.15900375408848" lon="-7.978427529569706"><ele>698.0</ele><time>2026-04-29T09:06:46Z</time></trkpt><trkpt lat="42.15892967337054" lon="-7.978542259823304"><ele>701.0</ele><time>2026-04-29T09:06:47Z</time></trkpt><trkpt lat="42.15885469979156" lon="-7.978672186681704"><ele>704.0</ele><time>2026-04-29T09:06:48Z</time></trkpt><trkpt lat="42.15879588397078" lon="-7.978821629687897"><ele>707.0</ele><time>2026-04-29T09:06:49Z</time></trkpt><trkpt lat="42.158731145319464" lon="-7.978947711218925"><ele>707.0</ele><time>2026-04-29T09:06:50Z</time></trkpt><trkpt lat="42.158685362650864" lon="-7.979077027473041"><ele>707.0</ele><time>2026-04-29T09:06:51Z</time></trkpt><trkpt lat="42.158614086044686" lon="-7.979195612317039"><ele>707.0</ele><time>2026-04-29T09:06:52Z</time></trkpt><trkpt lat="42.15854161539774" lon="-7.979283380126684"><ele>707.0</ele><time>2026-04-29T09:06:53Z</time></trkpt><trkpt lat="42.15847055235555" lon="-7.979348830136665"><ele>707.0</ele><time>2026-04-29T09:06:54Z</time></trkpt><trkpt lat="42.15838441109357" lon="-7.979407589185264"><ele>707.1666666666666</ele><time>2026-04-29T09:06:55Z</time></trkpt><trkpt lat="42.158299208429916" lon="-7.979450724983521"><ele>707.3333333333333</ele><time>2026-04-29T09:06:56Z</time></trkpt><trkpt lat="42.1582053252177" lon="-7.979589787246505"><ele>707.5</ele><time>2026-04-29T09:06:58Z</time></trkpt><trkpt lat="42.158166713917915" lon="-7.979663046179046"><ele>707.6666666666666</ele><time>2026-04-29T09:06:59Z</time></trkpt><trkpt lat="42.15814506317293" lon="-7.979748691236554"><ele>707.8333333333334</ele><time>2026-04-29T09:07:00Z</time></trkpt><trkpt lat="42.158111774676286" lon="-7.979644931214147"><ele>708.0</ele><time>2026-04-29T09:07:07Z</time></trkpt><trkpt lat="42.15810147145029" lon="-7.979530711506184"><ele>710.0</ele><time>2026-04-29T09:07:11Z</time></trkpt><trkpt lat="42.158092895613756" lon="-7.979421798028985"><ele>712.0</ele><time>2026-04-29T09:07:17.001Z</time></trkpt><trkpt lat="42.157818883230426" lon="-7.978067205477514"><ele>712.0</ele><time>2026-04-29T09:07:21.001Z</time></trkpt><trkpt lat="42.157804526938044" lon="-7.977879424072165"><ele>712.0</ele><time>2026-04-29T09:07:22.001Z</time></trkpt><trkpt lat="42.15780280493085" lon="-7.977764639462879"><ele>712.0</ele><time>2026-04-29T09:07:23.001Z</time></trkpt><trkpt lat="42.15777411539151" lon="-7.977668409940218"><ele>712.0</ele><time>2026-04-29T09:07:25.001Z</time></trkpt><trkpt lat="42.15766496524454" lon="-7.977636503731909"><ele>712.0</ele><time>2026-04-29T09:07:27.001Z</time></trkpt><trkpt lat="42.15753336937195" lon="-7.977645611786394"><ele>712.0</ele><time>2026-04-29T09:07:29.001Z</time></trkpt><trkpt lat="42.157416290309676" lon="-7.977649966425451"><ele>712.0</ele><time>2026-04-29T09:07:30.001Z</time></trkpt><trkpt lat="42.15731506161682" lon="-7.977662312939574"><ele>712.0</ele><time>2026-04-29T09:07:31.001Z</time></trkpt><trkpt lat="42.157212393142544" lon="-7.977669355739321"><ele>712.0</ele><time>2026-04-29T09:07:32.001Z</time></trkpt><trkpt lat="42.15707324423222" lon="-7.977705011751069"><ele>712.5</ele><time>2026-04-29T09:07:33.001Z</time></trkpt><trkpt lat="42.15691349610904" lon="-7.977751103407663"><ele>713.0</ele><time>2026-04-29T09:07:34.001Z</time></trkpt><trkpt lat="42.15678741657472" lon="-7.977812693302784"><ele>713.5</ele><time>2026-04-29T09:07:35.001Z</time></trkpt><trkpt lat="42.15664345570206" lon="-7.977852821042829"><ele>714.0</ele><time>2026-04-29T09:07:36.001Z</time></trkpt><trkpt lat="42.15651149419693" lon="-7.9778767666673245"><ele>714.0</ele><time>2026-04-29T09:07:37.001Z</time></trkpt><trkpt lat="42.156385434398665" lon="-7.977915478670545"><ele>714.0</ele><time>2026-04-29T09:07:38.001Z</time></trkpt><trkpt lat="42.1563518457771" lon="-7.9781700756058695"><ele>714.0</ele><time>2026-04-29T09:07:39.001Z</time></trkpt><trkpt lat="42.156199989922754" lon="-7.978166348861917"><ele>714.0</ele><time>2026-04-29T09:07:40.001Z</time></trkpt><trkpt lat="42.156029203685215" lon="-7.978216182668901"><ele>714.0</ele><time>2026-04-29T09:07:41.001Z</time></trkpt><trkpt lat="42.15584442379721" lon="-7.9782770077721095"><ele>714.0</ele><time>2026-04-29T09:07:42.001Z</time></trkpt><trkpt lat="42.15580179799911" lon="-7.978721290083287"><ele>716.6666666666666</ele><time>2026-04-29T09:07:43.001Z</time></trkpt><trkpt lat="42.15567747765271" lon="-7.978787474185271"><ele>719.3333333333333</ele><time>2026-04-29T09:07:44.001Z</time></trkpt><trkpt lat="42.155531048958764" lon="-7.978866861554246"><ele>722.0</ele><time>2026-04-29T09:07:45.001Z</time></trkpt><trkpt lat="42.155353628436025" lon="-7.978934804095221"><ele>722.0</ele><time>2026-04-29T09:07:46.001Z</time></trkpt><trkpt lat="42.15521878759554" lon="-7.979002405268231"><ele>722.0</ele><time>2026-04-29T09:07:47.001Z</time></trkpt><trkpt lat="42.15508779953328" lon="-7.979077687550166"><ele>722.0</ele><time>2026-04-29T09:07:48.001Z</time></trkpt><trkpt lat="42.15494544410706" lon="-7.979140635680199"><ele>722.0</ele><time>2026-04-29T09:07:49.001Z</time></trkpt><trkpt lat="42.15483489792784" lon="-7.979226897504655"><ele>721.8</ele><time>2026-04-29T09:07:50.001Z</time></trkpt><trkpt lat="42.15475790914292" lon="-7.979275051518388"><ele>721.6</ele><time>2026-04-29T09:07:51.001Z</time></trkpt><trkpt lat="42.15467964994363" lon="-7.979345922921993"><ele>721.4</ele><time>2026-04-29T09:07:52.001Z</time></trkpt><trkpt lat="42.154581116970924" lon="-7.979447149118042"><ele>721.1999999999999</ele><time>2026-04-29T09:07:53.001Z</time></trkpt><trkpt lat="42.15451307844688" lon="-7.97953192555922"><ele>721.0</ele><time>2026-04-29T09:07:54.001Z</time></trkpt><trkpt lat="42.154465144188364" lon="-7.9795921371732845"><ele>721.0</ele><time>2026-04-29T09:07:55.001Z</time></trkpt><trkpt lat="42.15443123693185" lon="-7.979722272392257"><ele>721.0</ele><time>2026-04-29T09:07:57.001Z</time></trkpt><trkpt lat="42.154438296621386" lon="-7.979807667506365"><ele>721.0</ele><time>2026-04-29T09:07:58.001Z</time></trkpt><trkpt lat="42.154435107519134" lon="-7.979922733500455"><ele>721.0</ele><time>2026-04-29T09:07:59.001Z</time></trkpt><trkpt lat="42.1544020154822" lon="-7.979996697480702"><ele>721.0</ele><time>2026-04-29T09:08:01.001Z</time></trkpt><trkpt lat="42.154345928685444" lon="-7.979895143029194"><ele>721.0</ele><time>2026-04-29T09:08:04.001Z</time></trkpt><trkpt lat="42.15430412880319" lon="-7.979786577667029"><ele>721.0</ele><time>2026-04-29T09:08:06.001Z</time></trkpt><trkpt lat="42.15425901009425" lon="-7.979716821342775"><ele>721.0</ele><time>2026-04-29T09:08:07.001Z</time></trkpt><trkpt lat="42.15419751359568" lon="-7.9796661115082985"><ele>721.0</ele><time>2026-04-29T09:08:08.001Z</time></trkpt><trkpt lat="42.15413569079242" lon="-7.979628389726103"><ele>721.0</ele><time>2026-04-29T09:08:09.001Z</time></trkpt><trkpt lat="42.15404401975681" lon="-7.9795015312226045"><ele>721.0</ele><time>2026-04-29T09:08:11.001Z</time></trkpt><trkpt lat="42.153982990172345" lon="-7.979391786602379"><ele>721.0</ele><time>2026-04-29T09:08:12.001Z</time></trkpt><trkpt lat="42.15392312715673" lon="-7.979256369508807"><ele>719.25</ele><time>2026-04-29T09:08:13.001Z</time></trkpt><trkpt lat="42.1538486117186" lon="-7.979116182000756"><ele>717.5</ele><time>2026-04-29T09:08:14.001Z</time></trkpt><trkpt lat="42.153774110122086" lon="-7.978985513755691"><ele>715.75</ele><time>2026-04-29T09:08:15.001Z</time></trkpt><trkpt lat="42.15371418993896" lon="-7.978852329669611"><ele>714.0</ele><time>2026-04-29T09:08:16.001Z</time></trkpt><trkpt lat="42.153664622604964" lon="-7.978712662085349"><ele>714.0</ele><time>2026-04-29T09:08:17Z</time></trkpt><trkpt lat="42.15361080828705" lon="-7.9785645111356605"><ele>714.0</ele><time>2026-04-29T09:08:18Z</time></trkpt><trkpt lat="42.153562858542855" lon="-7.978453812028053"><ele>714.0</ele><time>2026-04-29T09:08:19Z</time></trkpt><trkpt lat="42.15352775269426" lon="-7.9783709143389485"><ele>714.0</ele><time>2026-04-29T09:08:20Z</time></trkpt><trkpt lat="42.15348326477514" lon="-7.978291859074913"><ele>714.0</ele><time>2026-04-29T09:08:22Z</time></trkpt><trkpt lat="42.153388134849465" lon="-7.978274743987742"><ele>714.1666666666666</ele><time>2026-04-29T09:08:25Z</time></trkpt><trkpt lat="42.153295291428044" lon="-7.978275135636718"><ele>714.3333333333334</ele><time>2026-04-29T09:08:26Z</time></trkpt><trkpt lat="42.153200298826434" lon="-7.978270467891524"><ele>714.5</ele><time>2026-04-29T09:08:27Z</time></trkpt><trkpt lat="42.15312002601544" lon="-7.978277126714239"><ele>714.6666666666667</ele><time>2026-04-29T09:08:28Z</time></trkpt><trkpt lat="42.15305244628802" lon="-7.978290649784993"><ele>714.8333333333334</ele><time>2026-04-29T09:08:29Z</time></trkpt><trkpt lat="42.15299162235444" lon="-7.978317984130415"><ele>715.0</ele><time>2026-04-29T09:08:30Z</time></trkpt><trkpt lat="42.15291837352927" lon="-7.978369959317595"><ele>715.0</ele><time>2026-04-29T09:08:32Z</time></trkpt><trkpt lat="42.15287236267336" lon="-7.978475385088772"><ele>715.0</ele><time>2026-04-29T09:08:34Z</time></trkpt><trkpt lat="42.152812678462894" lon="-7.978567817209864"><ele>715.0</ele><time>2026-04-29T09:08:36Z</time></trkpt><trkpt lat="42.15274080870903" lon="-7.978617560503937"><ele>715.0</ele><time>2026-04-29T09:08:37Z</time></trkpt><trkpt lat="42.15263561910048" lon="-7.978659311184378"><ele>715.0</ele><time>2026-04-29T09:08:39Z</time></trkpt><trkpt lat="42.152524206473835" lon="-7.9786461473206725"><ele>715.0</ele><time>2026-04-29T09:08:41Z</time></trkpt><trkpt lat="42.152420607890775" lon="-7.978573750960763"><ele>715.0</ele><time>2026-04-29T09:08:43Z</time></trkpt><trkpt lat="42.15236375589149" lon="-7.978504598307638"><ele>715.0</ele><time>2026-04-29T09:08:44Z</time></trkpt><trkpt lat="42.152268284039955" lon="-7.978440443862161"><ele>715.0</ele><time>2026-04-29T09:08:46Z</time></trkpt><trkpt lat="42.1522058817044" lon="-7.978425258017966"><ele>715.0</ele><time>2026-04-29T09:08:47Z</time></trkpt><trkpt lat="42.15212547763882" lon="-7.978438296910467"><ele>715.0</ele><time>2026-04-29T09:08:48Z</time></trkpt><trkpt lat="42.152051358123884" lon="-7.978439851741327"><ele>715.5</ele><time>2026-04-29T09:08:49Z</time></trkpt><trkpt lat="42.151972541895994" lon="-7.978454492190535"><ele>716.0</ele><time>2026-04-29T09:08:50Z</time></trkpt><trkpt lat="42.151884492339676" lon="-7.9784503165471286"><ele>716.5</ele><time>2026-04-29T09:08:51Z</time></trkpt><trkpt lat="42.15177094625355" lon="-7.9784638456745345"><ele>717.0</ele><time>2026-04-29T09:08:53Z</time></trkpt><trkpt lat="42.15170109800751" lon="-7.978418257966867"><ele>717.5</ele><time>2026-04-29T09:08:54Z</time></trkpt><trkpt lat="42.15163040143929" lon="-7.978353581465269"><ele>718.0</ele><time>2026-04-29T09:08:55Z</time></trkpt><trkpt lat="42.15156732739985" lon="-7.978298494481174"><ele>714.0</ele><time>2026-04-29T09:08:56Z</time></trkpt><trkpt lat="42.15151911218311" lon="-7.978230277771658"><ele>710.0</ele><time>2026-04-29T09:08:57Z</time></trkpt><trkpt lat="42.15148237069561" lon="-7.9781524898433585"><ele>706.0</ele><time>2026-04-29T09:08:58Z</time></trkpt><trkpt lat="42.15142031134549" lon="-7.978073144749111"><ele>702.0</ele><time>2026-04-29T09:09:00Z</time></trkpt><trkpt lat="42.15125994999442" lon="-7.97806526938253"><ele>698.0</ele><time>2026-04-29T09:09:02Z</time></trkpt><trkpt lat="42.15111303687695" lon="-7.978042097595356"><ele>698.0</ele><time>2026-04-29T09:09:03Z</time></trkpt><trkpt lat="42.15095218287129" lon="-7.9780178388508975"><ele>698.0</ele><time>2026-04-29T09:09:04Z</time></trkpt><trkpt lat="42.15081606336273" lon="-7.978007744145349"><ele>698.0</ele><time>2026-04-29T09:09:05Z</time></trkpt><trkpt lat="42.15069610120479" lon="-7.977984007928033"><ele>698.0</ele><time>2026-04-29T09:09:06Z</time></trkpt><trkpt lat="42.15057594845289" lon="-7.977937786834324"><ele>697.3333333333333</ele><time>2026-04-29T09:09:07Z</time></trkpt><trkpt lat="42.15048727743941" lon="-7.97790477793754"><ele>696.6666666666666</ele><time>2026-04-29T09:09:08Z</time></trkpt><trkpt lat="42.150423280889164" lon="-7.977901267747442"><ele>696.0</ele><time>2026-04-29T09:09:09Z</time></trkpt><trkpt lat="42.150359984761025" lon="-7.977923142519493"><ele>695.3333333333334</ele><time>2026-04-29T09:09:10Z</time></trkpt><trkpt lat="42.150263675018756" lon="-7.977968406920098"><ele>694.6666666666667</ele><time>2026-04-29T09:09:11Z</time></trkpt><trkpt lat="42.15016351536261" lon="-7.978014235132865"><ele>694.0</ele><time>2026-04-29T09:09:12Z</time></trkpt><trkpt lat="42.150085466378954" lon="-7.978025981848582"><ele>694.0</ele><time>2026-04-29T09:09:13Z</time></trkpt><trkpt lat="42.150001047051745" lon="-7.977961486383192"><ele>694.0</ele><time>2026-04-29T09:09:15Z</time></trkpt><trkpt lat="42.149929254234124" lon="-7.97783823831163"><ele>694.0</ele><time>2026-04-29T09:09:17Z</time></trkpt><trkpt lat="42.149842012398864" lon="-7.977795153228808"><ele>694.0</ele><time>2026-04-29T09:09:19Z</time></trkpt><trkpt lat="42.149717593387194" lon="-7.97781117001878"><ele>694.0</ele><time>2026-04-29T09:09:21Z</time></trkpt><trkpt lat="42.149652583874015" lon="-7.977786078261964"><ele>693.4000000000001</ele><time>2026-04-29T09:09:22Z</time></trkpt><trkpt lat="42.149521275499616" lon="-7.977786925239456"><ele>692.8</ele><time>2026-04-29T09:09:24Z</time></trkpt><trkpt lat="42.14944040306972" lon="-7.977810622953605"><ele>692.2</ele><time>2026-04-29T09:09:25Z</time></trkpt><trkpt lat="42.14935985383118" lon="-7.9778417799033985"><ele>691.5999999999999</ele><time>2026-04-29T09:09:26Z</time></trkpt><trkpt lat="42.14927953400565" lon="-7.977881764740784"><ele>691.0</ele><time>2026-04-29T09:09:27Z</time></trkpt><trkpt lat="42.14919520913396" lon="-7.977926068500656"><ele>691.0</ele><time>2026-04-29T09:09:28Z</time></trkpt><trkpt lat="42.14911566411918" lon="-7.977965970796638"><ele>691.0</ele><time>2026-04-29T09:09:29Z</time></trkpt><trkpt lat="42.14904668493162" lon="-7.978011205109675"><ele>691.0</ele><time>2026-04-29T09:09:30Z</time></trkpt><trkpt lat="42.14898456708629" lon="-7.978043668945318"><ele>691.0</ele><time>2026-04-29T09:09:31Z</time></trkpt><trkpt lat="42.14887059021844" lon="-7.9781102107172766"><ele>691.0</ele><time>2026-04-29T09:09:33Z</time></trkpt><trkpt lat="42.148821997732476" lon="-7.978189457051445"><ele>691.0</ele><time>2026-04-29T09:09:34Z</time></trkpt><trkpt lat="42.148759759908806" lon="-7.978252446239019"><ele>690.4</ele><time>2026-04-29T09:09:35Z</time></trkpt><trkpt lat="42.14869160284239" lon="-7.978318606124142"><ele>689.8</ele><time>2026-04-29T09:09:36Z</time></trkpt><trkpt lat="42.148611360854325" lon="-7.978366837579676"><ele>689.1999999999999</ele><time>2026-04-29T09:09:37Z</time></trkpt><trkpt lat="42.14853342082299" lon="-7.978438129677288"><ele>688.5999999999999</ele><time>2026-04-29T09:09:38Z</time></trkpt><trkpt lat="42.14845525040569" lon="-7.978505370597344"><ele>688.0</ele><time>2026-04-29T09:09:39Z</time></trkpt><trkpt lat="42.1483723146442" lon="-7.97857143396666"><ele>688.8</ele><time>2026-04-29T09:09:40Z</time></trkpt><trkpt lat="42.14828205486496" lon="-7.978627925286067"><ele>689.5999999999999</ele><time>2026-04-29T09:09:41Z</time></trkpt><trkpt lat="42.14817994153452" lon="-7.9786689464218234"><ele>690.4000000000001</ele><time>2026-04-29T09:09:42Z</time></trkpt><trkpt lat="42.14807563342197" lon="-7.978707315552933"><ele>691.2</ele><time>2026-04-29T09:09:43Z</time></trkpt><trkpt lat="42.147964264402525" lon="-7.978733523161815"><ele>692.0</ele><time>2026-04-29T09:09:44Z</time></trkpt><trkpt lat="42.14785109399389" lon="-7.978757833565426"><ele>692.0</ele><time>2026-04-29T09:09:45Z</time></trkpt><trkpt lat="42.14773582191875" lon="-7.97877911437521"><ele>692.0</ele><time>2026-04-29T09:09:46Z</time></trkpt><trkpt lat="42.14762026981658" lon="-7.978797883408393"><ele>692.0</ele><time>2026-04-29T09:09:47Z</time></trkpt><trkpt lat="42.14750007859211" lon="-7.978818801916062"><ele>692.0</ele><time>2026-04-29T09:09:48Z</time></trkpt><trkpt lat="42.14737912113" lon="-7.978836956458572"><ele>692.25</ele><time>2026-04-29T09:09:49Z</time></trkpt><trkpt lat="42.14726013940705" lon="-7.97885847628582"><ele>692.5</ele><time>2026-04-29T09:09:50Z</time></trkpt><trkpt lat="42.1471384165514" lon="-7.9788739835332745"><ele>692.75</ele><time>2026-04-29T09:09:51Z</time></trkpt><trkpt lat="42.14701739426142" lon="-7.978886504336138"><ele>693.0</ele><time>2026-04-29T09:09:52.001Z</time></trkpt><trkpt lat="42.14689539156779" lon="-7.97890723514842"><ele>693.0</ele><time>2026-04-29T09:09:53.001Z</time></trkpt><trkpt lat="42.146777253394724" lon="-7.978935011049748"><ele>693.0</ele><time>2026-04-29T09:09:54.001Z</time></trkpt><trkpt lat="42.146654080184796" lon="-7.978954404481657"><ele>693.0</ele><time>2026-04-29T09:09:55.001Z</time></trkpt><trkpt lat="42.14653462755534" lon="-7.9789728676392455"><ele>693.0</ele><time>2026-04-29T09:09:56.001Z</time></trkpt><trkpt lat="42.146416419737214" lon="-7.978999478270873"><ele>694.0</ele><time>2026-04-29T09:09:57.001Z</time></trkpt><trkpt lat="42.14629572714811" lon="-7.979040093167375"><ele>695.0</ele><time>2026-04-29T09:09:58.001Z</time></trkpt><trkpt lat="42.146183107372764" lon="-7.97910462562133"><ele>696.0</ele><time>2026-04-29T09:09:59.001Z</time></trkpt><trkpt lat="42.146078144221164" lon="-7.979182376027265"><ele>697.0</ele><time>2026-04-29T09:10:00.001Z</time></trkpt><trkpt lat="42.14598196540475" lon="-7.979284179462176"><ele>698.0</ele><time>2026-04-29T09:10:01.001Z</time></trkpt><trkpt lat="42.145900266411935" lon="-7.979395231837328"><ele>699.0</ele><time>2026-04-29T09:10:02.001Z</time></trkpt><trkpt lat="42.14582579709289" lon="-7.97951778962741"><ele>700.0</ele><time>2026-04-29T09:10:03.001Z</time></trkpt><trkpt lat="42.145765984005635" lon="-7.9796576296458355"><ele>701.0</ele><time>2026-04-29T09:10:04.001Z</time></trkpt><trkpt lat="42.14572040200725" lon="-7.979802950482449"><ele>701.25</ele><time>2026-04-29T09:10:05.001Z</time></trkpt><trkpt lat="42.14568716974934" lon="-7.979955273797223"><ele>701.5</ele><time>2026-04-29T09:10:06.001Z</time></trkpt><trkpt lat="42.145658142497325" lon="-7.9801073161303036"><ele>701.75</ele><time>2026-04-29T09:10:07.001Z</time></trkpt><trkpt lat="42.14563841531437" lon="-7.980262605702224"><ele>702.0</ele><time>2026-04-29T09:10:08.001Z</time></trkpt><trkpt lat="42.145618719571615" lon="-7.980418829425906"><ele>703.0</ele><time>2026-04-29T09:10:09.001Z</time></trkpt><trkpt lat="42.14559598726546" lon="-7.980577597545697"><ele>704.0</ele><time>2026-04-29T09:10:10.001Z</time></trkpt><trkpt lat="42.14557548049204" lon="-7.98073367625627"><ele>705.0</ele><time>2026-04-29T09:10:11.001Z</time></trkpt><trkpt lat="42.14555247122432" lon="-7.980897066970481"><ele>706.0</ele><time>2026-04-29T09:10:12.001Z</time></trkpt><trkpt lat="42.14552638668657" lon="-7.981056997862741"><ele>707.0</ele><time>2026-04-29T09:10:13.001Z</time></trkpt><trkpt lat="42.1454967478163" lon="-7.981215771042767"><ele>708.0</ele><time>2026-04-29T09:10:14.001Z</time></trkpt><trkpt lat="42.14545713356756" lon="-7.981370664963052"><ele>709.0</ele><time>2026-04-29T09:10:15.001Z</time></trkpt><trkpt lat="42.14540735820409" lon="-7.9815197830898175"><ele>710.0</ele><time>2026-04-29T09:10:16.001Z</time></trkpt><trkpt lat="42.145348138905874" lon="-7.981663041865911"><ele>710.75</ele><time>2026-04-29T09:10:17.001Z</time></trkpt><trkpt lat="42.14528059548845" lon="-7.981795295195106"><ele>711.5</ele><time>2026-04-29T09:10:18Z</time></trkpt><trkpt lat="42.14520870681247" lon="-7.981921066800454"><ele>712.25</ele><time>2026-04-29T09:10:19Z</time></trkpt><trkpt lat="42.145130445291734" lon="-7.982039909683408"><ele>713.0</ele><time>2026-04-29T09:10:20Z</time></trkpt><trkpt lat="42.14505679422217" lon="-7.9821602497998985"><ele>713.0</ele><time>2026-04-29T09:10:21Z</time></trkpt><trkpt lat="42.14498057592248" lon="-7.982280251425515"><ele>713.0</ele><time>2026-04-29T09:10:22Z</time></trkpt><trkpt lat="42.14490999349384" lon="-7.982400466690134"><ele>713.0</ele><time>2026-04-29T09:10:23Z</time></trkpt><trkpt lat="42.144834406078246" lon="-7.9825185636485845"><ele>713.0</ele><time>2026-04-29T09:10:24Z</time></trkpt><trkpt lat="42.144762903304795" lon="-7.982640034551127"><ele>715.25</ele><time>2026-04-29T09:10:25Z</time></trkpt><trkpt lat="42.14469765478157" lon="-7.9827649992554335"><ele>717.5</ele><time>2026-04-29T09:10:26Z</time></trkpt><trkpt lat="42.144631329109544" lon="-7.9828940036458755"><ele>719.75</ele><time>2026-04-29T09:10:27Z</time></trkpt><trkpt lat="42.14457164085422" lon="-7.983018893994245"><ele>722.0</ele><time>2026-04-29T09:10:28Z</time></trkpt><trkpt lat="42.14451279427858" lon="-7.983145660391478"><ele>722.0</ele><time>2026-04-29T09:10:29Z</time></trkpt><trkpt lat="42.14445550140291" lon="-7.98327335880787"><ele>722.0</ele><time>2026-04-29T09:10:30Z</time></trkpt><trkpt lat="42.144404634802335" lon="-7.983404474664011"><ele>722.0</ele><time>2026-04-29T09:10:31Z</time></trkpt><trkpt lat="42.144358604241596" lon="-7.983535910885655"><ele>722.0</ele><time>2026-04-29T09:10:32Z</time></trkpt><trkpt lat="42.1443065835389" lon="-7.983659351456231"><ele>722.0</ele><time>2026-04-29T09:10:33Z</time></trkpt><trkpt lat="42.14426323568339" lon="-7.9837661112142335"><ele>722.5</ele><time>2026-04-29T09:10:34Z</time></trkpt><trkpt lat="42.14422766997976" lon="-7.983875201362594"><ele>723.0</ele><time>2026-04-29T09:10:36Z</time></trkpt><trkpt lat="42.14419272341028" lon="-7.983999079620957"><ele>723.5</ele><time>2026-04-29T09:10:39Z</time></trkpt><trkpt lat="42.14416480903018" lon="-7.9841039165936305"><ele>724.0</ele><time>2026-04-29T09:10:40Z</time></trkpt><trkpt lat="42.14413252711507" lon="-7.984227163452654"><ele>724.5</ele><time>2026-04-29T09:10:41Z</time></trkpt><trkpt lat="42.14410737101878" lon="-7.984332225086737"><ele>725.0</ele><time>2026-04-29T09:10:42Z</time></trkpt><trkpt lat="42.1440847701193" lon="-7.984431581069089"><ele>725.3333333333333</ele><time>2026-04-29T09:10:44Z</time></trkpt><trkpt lat="42.143824319019544" lon="-7.984285006463407"><ele>725.6666666666666</ele><time>2026-04-29T09:10:46Z</time></trkpt><trkpt lat="42.14373103241015" lon="-7.984160375864231"><ele>726.0</ele><time>2026-04-29T09:10:47Z</time></trkpt><trkpt lat="42.143635961887625" lon="-7.98402041113717"><ele>726.25</ele><time>2026-04-29T09:10:48Z</time></trkpt><trkpt lat="42.143537585411515" lon="-7.983919371922721"><ele>726.5</ele><time>2026-04-29T09:10:49Z</time></trkpt><trkpt lat="42.14342615936598" lon="-7.983818636415953"><ele>726.75</ele><time>2026-04-29T09:10:50Z</time></trkpt><trkpt lat="42.143302503158516" lon="-7.98370245909657"><ele>727.0</ele><time>2026-04-29T09:10:51Z</time></trkpt><trkpt lat="42.143197144555984" lon="-7.9835959446887115"><ele>728.0</ele><time>2026-04-29T09:10:52Z</time></trkpt><trkpt lat="42.1431201114922" lon="-7.983518842648817"><ele>729.0</ele><time>2026-04-29T09:10:53Z</time></trkpt><trkpt lat="42.143062285654025" lon="-7.983456911811813"><ele>730.0</ele><time>2026-04-29T09:10:54Z</time></trkpt><trkpt lat="42.142971575435084" lon="-7.983389132542366"><ele>731.0</ele><time>2026-04-29T09:10:57Z</time></trkpt><trkpt lat="42.14290695419136" lon="-7.983359685052285"><ele>732.0</ele><time>2026-04-29T09:10:58Z</time></trkpt><trkpt lat="42.1428228184218" lon="-7.9832500554382175"><ele>732.0</ele><time>2026-04-29T09:11:00Z</time></trkpt><trkpt lat="42.142781488405284" lon="-7.9831292231383495"><ele>732.0</ele><time>2026-04-29T09:11:02Z</time></trkpt><trkpt lat="42.142846245729736" lon="-7.982969569891054"><ele>732.0</ele><time>2026-04-29T09:11:04Z</time></trkpt><trkpt lat="42.14289210433629" lon="-7.982891585140221"><ele>732.0</ele><time>2026-04-29T09:11:05Z</time></trkpt><trkpt lat="42.142938242696815" lon="-7.9828110304594215"><ele>732.0</ele><time>2026-04-29T09:11:06Z</time></trkpt><trkpt lat="42.14299437852284" lon="-7.982727764339155"><ele>732.0</ele><time>2026-04-29T09:11:07Z</time></trkpt><trkpt lat="42.14303613425199" lon="-7.982662598495564"><ele>732.0</ele><time>2026-04-29T09:11:08Z</time></trkpt><trkpt lat="42.14308594498614" lon="-7.982560915745703"><ele>732.0</ele><time>2026-04-29T09:11:10Z</time></trkpt><trkpt lat="42.14302598377506" lon="-7.982453930431768"><ele>732.0</ele><time>2026-04-29T09:11:13Z</time></trkpt><trkpt lat="42.14296569985904" lon="-7.982427944702358"><ele>732.0</ele><time>2026-04-29T09:11:14Z</time></trkpt><trkpt lat="42.14288541789586" lon="-7.982389271461161"><ele>732.0</ele><time>2026-04-29T09:11:15Z</time></trkpt><trkpt lat="42.14283819387936" lon="-7.98233037784988"><ele>731.75</ele><time>2026-04-29T09:11:16Z</time></trkpt><trkpt lat="42.142828450869004" lon="-7.982147835896929"><ele>731.5</ele><time>2026-04-29T09:11:18Z</time></trkpt><trkpt lat="42.142838809943534" lon="-7.981995769223479"><ele>731.25</ele><time>2026-04-29T09:11:19Z</time></trkpt><trkpt lat="42.142864252382935" lon="-7.98184404666056"><ele>731.0</ele><time>2026-04-29T09:11:20Z</time></trkpt><trkpt lat="42.14288467319346" lon="-7.981694582476816"><ele>730.8333333333333</ele><time>2026-04-29T09:11:21Z</time></trkpt><trkpt lat="42.14288799050543" lon="-7.981568179216648"><ele>730.6666666666666</ele><time>2026-04-29T09:11:22Z</time></trkpt><trkpt lat="42.14288363651702" lon="-7.981461038365577"><ele>730.5</ele><time>2026-04-29T09:11:23Z</time></trkpt><trkpt lat="42.14285703395369" lon="-7.981357133556581"><ele>730.3333333333334</ele><time>2026-04-29T09:11:24Z</time></trkpt><trkpt lat="42.142816328698615" lon="-7.981271162309523"><ele>730.1666666666667</ele><time>2026-04-29T09:11:25Z</time></trkpt><trkpt lat="42.142774242675074" lon="-7.9811979907086466"><ele>730.0</ele><time>2026-04-29T09:11:26Z</time></trkpt><trkpt lat="42.14275035174696" lon="-7.981117504778654"><ele>730.0</ele><time>2026-04-29T09:11:29Z</time></trkpt><trkpt lat="42.14265772961612" lon="-7.981161542161241"><ele>730.0</ele><time>2026-04-29T09:11:33Z</time></trkpt><trkpt lat="42.14258435974168" lon="-7.981160960682057"><ele>730.0</ele><time>2026-04-29T09:11:35Z</time></trkpt><trkpt lat="42.14248151579113" lon="-7.9811940252944975"><ele>730.0</ele><time>2026-04-29T09:11:37Z</time></trkpt><trkpt lat="42.14238953642392" lon="-7.981209741524635"><ele>730.0</ele><time>2026-04-29T09:11:38Z</time></trkpt><trkpt lat="42.142275941514605" lon="-7.981219193484397"><ele>731.8</ele><time>2026-04-29T09:11:39Z</time></trkpt><trkpt lat="42.142160089684026" lon="-7.981215216491728"><ele>733.6</ele><time>2026-04-29T09:11:40Z</time></trkpt><trkpt lat="42.142072213481654" lon="-7.981163251400184"><ele>735.4000000000001</ele><time>2026-04-29T09:11:41Z</time></trkpt><trkpt lat="42.14197087247714" lon="-7.981091714829073"><ele>737.2</ele><time>2026-04-29T09:11:42Z</time></trkpt><trkpt lat="42.141869950278874" lon="-7.981009111529469"><ele>739.0</ele><time>2026-04-29T09:11:43Z</time></trkpt><trkpt lat="42.1417820272228" lon="-7.980936715973145"><ele>739.0</ele><time>2026-04-29T09:11:45Z</time></trkpt><trkpt lat="42.1416968484315" lon="-7.980903298254316"><ele>739.0</ele><time>2026-04-29T09:11:47Z</time></trkpt><trkpt lat="42.14163832108675" lon="-7.980935742115787"><ele>739.0</ele><time>2026-04-29T09:11:49Z</time></trkpt><trkpt lat="42.14155522908471" lon="-7.980925111924843"><ele>739.0</ele><time>2026-04-29T09:11:51Z</time></trkpt><trkpt lat="42.14145322350257" lon="-7.980874548762132"><ele>739.0</ele><time>2026-04-29T09:11:53Z</time></trkpt><trkpt lat="42.14129530801848" lon="-7.980811347118207"><ele>740.2</ele><time>2026-04-29T09:11:54Z</time></trkpt><trkpt lat="42.14119328248171" lon="-7.980651420728556"><ele>741.4000000000001</ele><time>2026-04-29T09:11:55Z</time></trkpt><trkpt lat="42.141092749456234" lon="-7.980567653724642"><ele>742.6</ele><time>2026-04-29T09:11:57Z</time></trkpt><trkpt lat="42.141014888660074" lon="-7.980531704695012"><ele>743.8</ele><time>2026-04-29T09:11:58Z</time></trkpt><trkpt lat="42.14094522883403" lon="-7.980519884434549"><ele>745.0</ele><time>2026-04-29T09:11:59Z</time></trkpt><trkpt lat="42.140877932196176" lon="-7.980482700645921"><ele>745.0</ele><time>2026-04-29T09:12:00Z</time></trkpt><trkpt lat="42.140790384063614" lon="-7.980357250680252"><ele>745.0</ele><time>2026-04-29T09:12:02Z</time></trkpt><trkpt lat="42.14070932308312" lon="-7.980253351880637"><ele>745.0</ele><time>2026-04-29T09:12:03Z</time></trkpt><trkpt lat="42.14063069796833" lon="-7.9801573798611205"><ele>745.0</ele><time>2026-04-29T09:12:04Z</time></trkpt><trkpt lat="42.14053932762603" lon="-7.980077648562848"><ele>744.8</ele><time>2026-04-29T09:12:05Z</time></trkpt><trkpt lat="42.14047546448457" lon="-7.980003398998372"><ele>744.6</ele><time>2026-04-29T09:12:06Z</time></trkpt><trkpt lat="42.14039078412056" lon="-7.979912609855648"><ele>744.4000000000001</ele><time>2026-04-29T09:12:07Z</time></trkpt><trkpt lat="42.140329898076544" lon="-7.979802229473232"><ele>744.2</ele><time>2026-04-29T09:12:08.001Z</time></trkpt><trkpt lat="42.14027801161306" lon="-7.979680891120703"><ele>744.0</ele><time>2026-04-29T09:12:10.001Z</time></trkpt><trkpt lat="42.140187462432216" lon="-7.979682421073722"><ele>744.0</ele><time>2026-04-29T09:12:12.001Z</time></trkpt><trkpt lat="42.14011991442377" lon="-7.9796775471410255"><ele>744.0</ele><time>2026-04-29T09:12:14Z</time></trkpt><trkpt lat="42.14010449010994" lon="-7.979766161686743"><ele>744.0</ele><time>2026-04-29T09:12:16Z</time></trkpt><trkpt lat="42.139835493898296" lon="-7.97975927706523"><ele>744.0</ele><time>2026-04-29T09:12:17Z</time></trkpt><trkpt lat="42.13976453551777" lon="-7.979821422038644"><ele>743.0</ele><time>2026-04-29T09:12:18Z</time></trkpt><trkpt lat="42.13966458016698" lon="-7.979903587432244"><ele>742.0</ele><time>2026-04-29T09:12:19Z</time></trkpt><trkpt lat="42.13959664523594" lon="-7.979958656454115"><ele>741.0</ele><time>2026-04-29T09:12:20Z</time></trkpt><trkpt lat="42.13956122941964" lon="-7.98004941058663"><ele>740.0</ele><time>2026-04-29T09:12:22Z</time></trkpt><trkpt lat="42.13953823003337" lon="-7.980132191512421"><ele>739.0</ele><time>2026-04-29T09:12:23Z</time></trkpt><trkpt lat="42.13949409746422" lon="-7.980213793138627"><ele>738.0</ele><time>2026-04-29T09:12:24Z</time></trkpt><trkpt lat="42.139400540641844" lon="-7.980236179014023"><ele>738.0</ele><time>2026-04-29T09:12:26Z</time></trkpt><trkpt lat="42.139319355033486" lon="-7.980237237662364"><ele>738.0</ele><time>2026-04-29T09:12:28Z</time></trkpt><trkpt lat="42.13925510889471" lon="-7.980250421220731"><ele>738.0</ele><time>2026-04-29T09:12:30Z</time></trkpt><trkpt lat="42.13918143786605" lon="-7.980207847385137"><ele>738.0</ele><time>2026-04-29T09:12:32Z</time></trkpt><trkpt lat="42.139096717182234" lon="-7.98019994582215"><ele>738.0</ele><time>2026-04-29T09:12:35Z</time></trkpt><trkpt lat="42.13903472843149" lon="-7.980141684468071"><ele>738.0</ele><time>2026-04-29T09:12:39Z</time></trkpt><trkpt lat="42.13903182744578" lon="-7.9800465721013705"><ele>738.0</ele><time>2026-04-29T09:12:40Z</time></trkpt><trkpt lat="42.13899480491619" lon="-7.9799710747154675"><ele>738.0</ele><time>2026-04-29T09:12:42Z</time></trkpt><trkpt lat="42.138972480478515" lon="-7.97988719586636"><ele>738.0</ele><time>2026-04-29T09:12:47Z</time></trkpt><trkpt lat="42.139039491649584" lon="-7.979886960192285"><ele>738.0</ele><time>2026-04-29T09:12:51Z</time></trkpt><trkpt lat="42.13905543145779" lon="-7.979969722350617"><ele>738.0</ele><time>2026-04-29T09:12:53Z</time></trkpt><trkpt lat="42.139004415624704" lon="-7.98003193801603"><ele>738.0</ele><time>2026-04-29T09:12:55Z</time></trkpt><trkpt lat="42.139046438055196" lon="-7.980103723241055"><ele>738.0</ele><time>2026-04-29T09:12:58Z</time></trkpt><trkpt lat="42.13909946502523" lon="-7.9802158990634"><ele>738.0</ele><time>2026-04-29T09:13:00Z</time></trkpt><trkpt lat="42.13913959543983" lon="-7.980305634853334"><ele>738.0</ele><time>2026-04-29T09:13:01Z</time></trkpt><trkpt lat="42.1391862996405" lon="-7.9804160624614875"><ele>738.0</ele><time>2026-04-29T09:13:02Z</time></trkpt><trkpt lat="42.13925309138702" lon="-7.980542847084152"><ele>738.0</ele><time>2026-04-29T09:13:03Z</time></trkpt><trkpt lat="42.139317706947566" lon="-7.980680138172351"><ele>738.0</ele><time>2026-04-29T09:13:04Z</time></trkpt><trkpt lat="42.139354898448566" lon="-7.980825746194062"><ele>739.4</ele><time>2026-04-29T09:13:05Z</time></trkpt><trkpt lat="42.139390565333876" lon="-7.980959368800854"><ele>740.8</ele><time>2026-04-29T09:13:06Z</time></trkpt><trkpt lat="42.139438864545895" lon="-7.981094411599751"><ele>742.2</ele><time>2026-04-29T09:13:07Z</time></trkpt><trkpt lat="42.13950120089992" lon="-7.9812065065051145"><ele>743.6</ele><time>2026-04-29T09:13:08Z</time></trkpt><trkpt lat="42.13957044757101" lon="-7.981313502576295"><ele>745.0</ele><time>2026-04-29T09:13:09Z</time></trkpt><trkpt lat="42.13963914492767" lon="-7.981490781899404"><ele>746.25</ele><time>2026-04-29T09:13:10Z</time></trkpt><trkpt lat="42.13969344632798" lon="-7.981683304780947"><ele>747.5</ele><time>2026-04-29T09:13:11Z</time></trkpt><trkpt lat="42.13973852075416" lon="-7.981873148484852"><ele>748.75</ele><time>2026-04-29T09:13:12Z</time></trkpt><trkpt lat="42.13977906034982" lon="-7.9820333591800345"><ele>750.0</ele><time>2026-04-29T09:13:13Z</time></trkpt><trkpt lat="42.13981327677558" lon="-7.982185188369166"><ele>750.0</ele><time>2026-04-29T09:13:14Z</time></trkpt><trkpt lat="42.13984003575636" lon="-7.982327074215489"><ele>750.0</ele><time>2026-04-29T09:13:15Z</time></trkpt><trkpt lat="42.13986198077969" lon="-7.982436029877502"><ele>750.0</ele><time>2026-04-29T09:13:16Z</time></trkpt><trkpt lat="42.139880216663066" lon="-7.982520145298605"><ele>750.0</ele><time>2026-04-29T09:13:17Z</time></trkpt><trkpt lat="42.13992502846775" lon="-7.982629612279514"><ele>750.0</ele><time>2026-04-29T09:13:19Z</time></trkpt><trkpt lat="42.13990678278319" lon="-7.982530901098769"><ele>750.0</ele><time>2026-04-29T09:13:32Z</time></trkpt><trkpt lat="42.13986553537755" lon="-7.982420594851747"><ele>750.0</ele><time>2026-04-29T09:13:35Z</time></trkpt><trkpt lat="42.139817379638934" lon="-7.9822057096864025"><ele>750.0</ele><time>2026-04-29T09:13:37Z</time></trkpt><trkpt lat="42.13977671939491" lon="-7.982051667202787"><ele>750.0</ele><time>2026-04-29T09:13:38Z</time></trkpt><trkpt lat="42.139734692590224" lon="-7.981898787742265"><ele>750.0</ele><time>2026-04-29T09:13:39Z</time></trkpt><trkpt lat="42.139684881452325" lon="-7.981735476253724"><ele>749.0</ele><time>2026-04-29T09:13:40Z</time></trkpt><trkpt lat="42.139629075049385" lon="-7.981597135653832"><ele>748.0</ele><time>2026-04-29T09:13:41Z</time></trkpt><trkpt lat="42.13959306635605" lon="-7.9814663965424835"><ele>747.0</ele><time>2026-04-29T09:13:42Z</time></trkpt><trkpt lat="42.13955466767123" lon="-7.981348128672233"><ele>746.0</ele><time>2026-04-29T09:13:43Z</time></trkpt><trkpt lat="42.13951393055049" lon="-7.9812473983728776"><ele>745.0</ele><time>2026-04-29T09:13:44Z</time></trkpt><trkpt lat="42.139472299857864" lon="-7.981148034159215"><ele>745.0</ele><time>2026-04-29T09:13:45Z</time></trkpt><trkpt lat="42.139430824938565" lon="-7.981061725837464"><ele>745.0</ele><time>2026-04-29T09:13:46Z</time></trkpt><trkpt lat="42.13937890124897" lon="-7.980965828756906"><ele>745.0</ele><time>2026-04-29T09:13:47Z</time></trkpt><trkpt lat="42.13932957600311" lon="-7.980866692876281"><ele>745.0</ele><time>2026-04-29T09:13:48Z</time></trkpt><trkpt lat="42.13929293029575" lon="-7.980763760009926"><ele>745.0</ele><time>2026-04-29T09:13:49Z</time></trkpt><trkpt lat="42.13926704809298" lon="-7.980653807171886"><ele>745.0</ele><time>2026-04-29T09:13:50Z</time></trkpt><trkpt lat="42.13925282113178" lon="-7.980553281455339"><ele>745.1666666666667</ele><time>2026-04-29T09:13:51Z</time></trkpt><trkpt lat="42.13921660793908" lon="-7.980466019630978"><ele>745.3333333333334</ele><time>2026-04-29T09:13:52Z</time></trkpt><trkpt lat="42.13916255191868" lon="-7.980366070227237"><ele>745.5</ele><time>2026-04-29T09:13:53Z</time></trkpt><trkpt lat="42.1391046796395" lon="-7.980272428283618"><ele>745.6666666666666</ele><time>2026-04-29T09:13:54Z</time></trkpt><trkpt lat="42.139066930679476" lon="-7.98019387141353"><ele>745.8333333333333</ele><time>2026-04-29T09:13:55Z</time></trkpt><trkpt lat="42.139015405685235" lon="-7.980084516581425"><ele>746.0</ele><time>2026-04-29T09:13:57Z</time></trkpt><trkpt lat="42.13898088161983" lon="-7.979975203035326"><ele>744.8</ele><time>2026-04-29T09:14:00Z</time></trkpt><trkpt lat="42.13895791480946" lon="-7.979895043178243"><ele>743.5999999999999</ele><time>2026-04-29T09:14:03Z</time></trkpt><trkpt lat="42.13901429062003" lon="-7.979851022274416"><ele>742.4</ele><time>2026-04-29T09:14:08Z</time></trkpt><trkpt lat="42.13904327838563" lon="-7.979958549909055"><ele>741.2</ele><time>2026-04-29T09:14:11Z</time></trkpt><trkpt lat="42.13907469269478" lon="-7.980241642978287"><ele>740.0</ele><time>2026-04-29T09:14:49Z</time></trkpt><trkpt lat="42.139111524850065" lon="-7.980321454978783"><ele>739.6</ele><time>2026-04-29T09:14:50Z</time></trkpt><trkpt lat="42.139279931645845" lon="-7.980301239901319"><ele>739.2</ele><time>2026-04-29T09:15:16Z</time></trkpt><trkpt lat="42.13938080970431" lon="-7.980280601067985"><ele>738.8</ele><time>2026-04-29T09:15:19Z</time></trkpt><trkpt lat="42.139448925875634" lon="-7.980267819068594"><ele>738.4</ele><time>2026-04-29T09:15:21Z</time></trkpt><trkpt lat="42.13953112299128" lon="-7.980203061480188"><ele>738.0</ele><time>2026-04-29T09:15:23Z</time></trkpt><trkpt lat="42.13957832807468" lon="-7.980127753149458"><ele>738.0</ele><time>2026-04-29T09:15:24Z</time></trkpt><trkpt lat="42.13961455690323" lon="-7.980036579675231"><ele>738.0</ele><time>2026-04-29T09:15:25Z</time></trkpt><trkpt lat="42.13967203705083" lon="-7.979936596507392"><ele>738.0</ele><time>2026-04-29T09:15:27Z</time></trkpt><trkpt lat="42.13977150996459" lon="-7.979860721135588"><ele>738.0</ele><time>2026-04-29T09:15:29Z</time></trkpt><trkpt lat="42.139829450276636" lon="-7.979822091416418"><ele>738.0</ele><time>2026-04-29T09:15:30Z</time></trkpt><trkpt lat="42.139900825529445" lon="-7.979774051726928"><ele>738.0</ele><time>2026-04-29T09:15:32Z</time></trkpt><trkpt lat="42.13996338697352" lon="-7.979742474277441"><ele>739.5</ele><time>2026-04-29T09:15:34Z</time></trkpt><trkpt lat="42.14012600050516" lon="-7.979713824334916"><ele>741.0</ele><time>2026-04-29T09:17:02Z</time></trkpt><trkpt lat="42.14021015121627" lon="-7.97970046572829"><ele>742.5</ele><time>2026-04-29T09:17:04Z</time></trkpt><trkpt lat="42.14035552644208" lon="-7.979882580022676"><ele>744.0</ele><time>2026-04-29T09:17:09Z</time></trkpt><trkpt lat="42.140411400105975" lon="-7.979969867625558"><ele>744.2</ele><time>2026-04-29T09:17:10Z</time></trkpt><trkpt lat="42.140484089648865" lon="-7.980059096566697"><ele>744.4000000000001</ele><time>2026-04-29T09:17:11Z</time></trkpt><trkpt lat="42.14054785847523" lon="-7.980119312196971"><ele>744.6</ele><time>2026-04-29T09:17:12Z</time></trkpt><trkpt lat="42.1406423452739" lon="-7.980209717847679"><ele>744.8</ele><time>2026-04-29T09:17:14Z</time></trkpt><trkpt lat="42.14069225045023" lon="-7.9802814030397915"><ele>745.0</ele><time>2026-04-29T09:17:15Z</time></trkpt><trkpt lat="42.14076020820668" lon="-7.980349666698462"><ele>745.0</ele><time>2026-04-29T09:17:16Z</time></trkpt><trkpt lat="42.14081886588701" lon="-7.980413227445276"><ele>745.0</ele><time>2026-04-29T09:17:17Z</time></trkpt><trkpt lat="42.14086949120369" lon="-7.9804850151250895"><ele>745.0</ele><time>2026-04-29T09:17:18Z</time></trkpt><trkpt lat="42.1409243175351" lon="-7.98053860270477"><ele>745.0</ele><time>2026-04-29T09:17:19Z</time></trkpt><trkpt lat="42.141024439683136" lon="-7.980562656669719"><ele>745.0</ele><time>2026-04-29T09:17:21Z</time></trkpt><trkpt lat="42.14108740081795" lon="-7.980594722553906"><ele>745.0</ele><time>2026-04-29T09:17:22Z</time></trkpt><trkpt lat="42.14114156430145" lon="-7.980642096300564"><ele>745.0</ele><time>2026-04-29T09:17:23Z</time></trkpt><trkpt lat="42.14120235256614" lon="-7.980683568823134"><ele>745.0</ele><time>2026-04-29T09:17:24Z</time></trkpt><trkpt lat="42.141257579267865" lon="-7.980728024063995"><ele>745.0</ele><time>2026-04-29T09:17:25Z</time></trkpt><trkpt lat="42.14133131841459" lon="-7.980825287035224"><ele>745.0</ele><time>2026-04-29T09:17:26Z</time></trkpt><trkpt lat="42.14142728754792" lon="-7.980905735983879"><ele>745.0</ele><time>2026-04-29T09:17:27Z</time></trkpt><trkpt lat="42.141504305976575" lon="-7.980945514645422"><ele>745.0</ele><time>2026-04-29T09:17:28Z</time></trkpt><trkpt lat="42.14160812999799" lon="-7.980942234235138"><ele>743.8</ele><time>2026-04-29T09:17:30Z</time></trkpt><trkpt lat="42.1416931904542" lon="-7.980919435892422"><ele>742.6</ele><time>2026-04-29T09:17:32Z</time></trkpt><trkpt lat="42.14177608957807" lon="-7.980925897226354"><ele>741.4000000000001</ele><time>2026-04-29T09:17:34Z</time></trkpt><trkpt lat="42.141846062896654" lon="-7.9809950375843055"><ele>740.2</ele><time>2026-04-29T09:17:38Z</time></trkpt><trkpt lat="42.141950423107495" lon="-7.98107272066335"><ele>739.0</ele><time>2026-04-29T09:17:40Z</time></trkpt><trkpt lat="42.14204032004022" lon="-7.98114259494202"><ele>739.0</ele><time>2026-04-29T09:17:41Z</time></trkpt><trkpt lat="42.142148469441146" lon="-7.981203671066253"><ele>739.0</ele><time>2026-04-29T09:17:42Z</time></trkpt><trkpt lat="42.14223331553258" lon="-7.981233768368905"><ele>739.0</ele><time>2026-04-29T09:17:43Z</time></trkpt><trkpt lat="42.1423183451276" lon="-7.981230320872764"><ele>739.0</ele><time>2026-04-29T09:17:44Z</time></trkpt><trkpt lat="42.142421828071726" lon="-7.98120757595643"><ele>739.0</ele><time>2026-04-29T09:17:45Z</time></trkpt><trkpt lat="42.14251886937779" lon="-7.981185601169021"><ele>737.5</ele><time>2026-04-29T09:17:46Z</time></trkpt><trkpt lat="42.142604252156545" lon="-7.981157098313603"><ele>736.0</ele><time>2026-04-29T09:17:48Z</time></trkpt><trkpt lat="42.142667398992046" lon="-7.9811986249166935"><ele>734.5</ele><time>2026-04-29T09:17:53Z</time></trkpt><trkpt lat="42.14266200114736" lon="-7.981298614210119"><ele>733.0</ele><time>2026-04-29T09:17:56Z</time></trkpt><trkpt lat="42.14264752440762" lon="-7.981381272846626"><ele>731.5</ele><time>2026-04-29T09:17:59Z</time></trkpt><trkpt lat="42.14260624538474" lon="-7.981460934582622"><ele>730.0</ele><time>2026-04-29T09:18:02Z</time></trkpt><trkpt lat="42.142518348098235" lon="-7.981671008697356"><ele>730.1666666666667</ele><time>2026-04-29T09:18:03Z</time></trkpt><trkpt lat="42.142511506806606" lon="-7.981770069517867"><ele>730.3333333333334</ele><time>2026-04-29T09:18:04Z</time></trkpt><trkpt lat="42.14248006765745" lon="-7.981888675742177"><ele>730.5</ele><time>2026-04-29T09:18:05Z</time></trkpt><trkpt lat="42.14244917800204" lon="-7.981977774760364"><ele>730.6666666666666</ele><time>2026-04-29T09:18:07Z</time></trkpt><trkpt lat="42.14251211968643" lon="-7.98208495969921"><ele>730.8333333333333</ele><time>2026-04-29T09:18:12Z</time></trkpt><trkpt lat="42.14254898901062" lon="-7.982180323780845"><ele>731.0</ele><time>2026-04-29T09:18:15Z</time></trkpt><trkpt lat="42.14248439615713" lon="-7.982297933617585"><ele>731.0</ele><time>2026-04-29T09:18:17Z</time></trkpt><trkpt lat="42.14247686800707" lon="-7.982394491389372"><ele>731.0</ele><time>2026-04-29T09:18:18Z</time></trkpt><trkpt lat="42.14247575946526" lon="-7.9824882932689825"><ele>731.0</ele><time>2026-04-29T09:18:19Z</time></trkpt><trkpt lat="42.142489081913205" lon="-7.982579095992701"><ele>731.0</ele><time>2026-04-29T09:18:20Z</time></trkpt><trkpt lat="42.14249478650738" lon="-7.982696918974451"><ele>731.0</ele><time>2026-04-29T09:18:21Z</time></trkpt><trkpt lat="42.14253117327987" lon="-7.982771925885419"><ele>731.0</ele><time>2026-04-29T09:18:22Z</time></trkpt><trkpt lat="42.14254164731837" lon="-7.9828945734247005"><ele>731.1999999999999</ele><time>2026-04-29T09:18:24Z</time></trkpt><trkpt lat="42.142528590942455" lon="-7.983053472755394"><ele>731.4</ele><time>2026-04-29T09:18:28Z</time></trkpt><trkpt lat="42.14248891466576" lon="-7.983213158692702"><ele>731.6</ele><time>2026-04-29T09:18:30Z</time></trkpt><trkpt lat="42.14246909652989" lon="-7.983302002381526"><ele>731.8</ele><time>2026-04-29T09:18:32Z</time></trkpt><trkpt lat="42.1424813750841" lon="-7.9833994678059135"><ele>732.0</ele><time>2026-04-29T09:18:34Z</time></trkpt><trkpt lat="42.142518899212135" lon="-7.983486045473666"><ele>732.0</ele><time>2026-04-29T09:18:36Z</time></trkpt><trkpt lat="42.14244867378934" lon="-7.983595271646969"><ele>732.0</ele><time>2026-04-29T09:18:37Z</time></trkpt><trkpt lat="42.14262573562459" lon="-7.983394723437039"><ele>732.0</ele><time>2026-04-29T09:18:39Z</time></trkpt><trkpt lat="42.142694177665184" lon="-7.9833023251922555"><ele>732.0</ele><time>2026-04-29T09:18:40Z</time></trkpt><trkpt lat="42.142767958241045" lon="-7.9831954473876"><ele>732.0</ele><time>2026-04-29T09:18:41Z</time></trkpt><trkpt lat="42.14280607465892" lon="-7.983125761751349"><ele>732.0</ele><time>2026-04-29T09:18:42Z</time></trkpt><trkpt lat="42.14282496209765" lon="-7.983017423503644"><ele>732.0</ele><time>2026-04-29T09:18:44Z</time></trkpt><trkpt lat="42.142782490117675" lon="-7.983183760106041"><ele>732.0</ele><time>2026-04-29T09:18:52Z</time></trkpt><trkpt lat="42.14282285071829" lon="-7.983275323165078"><ele>732.0</ele><time>2026-04-29T09:18:54Z</time></trkpt><trkpt lat="42.14290021897124" lon="-7.983359563885256"><ele>732.0</ele><time>2026-04-29T09:18:56Z</time></trkpt><trkpt lat="42.14296332688701" lon="-7.983415145183888"><ele>732.0</ele><time>2026-04-29T09:18:58Z</time></trkpt><trkpt lat="42.14302518704139" lon="-7.983445762286294"><ele>732.0</ele><time>2026-04-29T09:18:59Z</time></trkpt><trkpt lat="42.143110259513726" lon="-7.983504823154805"><ele>732.0</ele><time>2026-04-29T09:19:01Z</time></trkpt><trkpt lat="42.143239517723174" lon="-7.983641192207356"><ele>732.0</ele><time>2026-04-29T09:19:03Z</time></trkpt><trkpt lat="42.14332806773016" lon="-7.983740044738368"><ele>730.75</ele><time>2026-04-29T09:19:04Z</time></trkpt><trkpt lat="42.14341712178145" lon="-7.983833392398073"><ele>729.5</ele><time>2026-04-29T09:19:05Z</time></trkpt><trkpt lat="42.1435273297441" lon="-7.983945122295029"><ele>728.25</ele><time>2026-04-29T09:19:06Z</time></trkpt><trkpt lat="42.14363294568484" lon="-7.9840517931321955"><ele>727.0</ele><time>2026-04-29T09:19:07Z</time></trkpt><trkpt lat="42.14374084126709" lon="-7.984159501648992"><ele>726.8</ele><time>2026-04-29T09:19:08Z</time></trkpt><trkpt lat="42.143830679313844" lon="-7.984263095407193"><ele>726.6</ele><time>2026-04-29T09:19:09Z</time></trkpt><trkpt lat="42.143893507398644" lon="-7.984338426523008"><ele>726.4</ele><time>2026-04-29T09:19:10Z</time></trkpt><trkpt lat="42.14396619930408" lon="-7.984367305515605"><ele>726.1999999999999</ele><time>2026-04-29T09:19:12Z</time></trkpt><trkpt lat="42.14400255490343" lon="-7.984287829068484"><ele>726.0</ele><time>2026-04-29T09:19:14Z</time></trkpt><trkpt lat="42.14408315876439" lon="-7.984111186495658"><ele>725.8</ele><time>2026-04-29T09:19:16Z</time></trkpt><trkpt lat="42.144110725249895" lon="-7.984008796718129"><ele>725.5999999999999</ele><time>2026-04-29T09:19:17Z</time></trkpt><trkpt lat="42.144134328255085" lon="-7.983922023596755"><ele>725.4</ele><time>2026-04-29T09:19:18Z</time></trkpt><trkpt lat="42.14416212015384" lon="-7.983824556251239"><ele>725.2</ele><time>2026-04-29T09:19:20Z</time></trkpt><trkpt lat="42.14415220363455" lon="-7.984022152695117"><ele>725.0</ele><time>2026-04-29T09:19:28Z</time></trkpt><trkpt lat="42.144184286900455" lon="-7.984128618197626"><ele>725.1428571428571</ele><time>2026-04-29T09:19:29Z</time></trkpt><trkpt lat="42.144159209092315" lon="-7.984217341908447"><ele>725.2857142857143</ele><time>2026-04-29T09:19:30Z</time></trkpt><trkpt lat="42.14413980863393" lon="-7.984314813213338"><ele>725.4285714285713</ele><time>2026-04-29T09:19:31Z</time></trkpt><trkpt lat="42.14411592088101" lon="-7.9844193465912285"><ele>725.5714285714286</ele><time>2026-04-29T09:19:32Z</time></trkpt><trkpt lat="42.144094723089296" lon="-7.984516226880684"><ele>725.7142857142857</ele><time>2026-04-29T09:19:33Z</time></trkpt><trkpt lat="42.144077740515584" lon="-7.984611282735096"><ele>725.8571428571428</ele><time>2026-04-29T09:19:34Z</time></trkpt><trkpt lat="42.144056749601546" lon="-7.984708027015818"><ele>726.0</ele><time>2026-04-29T09:19:35Z</time></trkpt><trkpt lat="42.14403875271865" lon="-7.984812890036952"><ele>726.0</ele><time>2026-04-29T09:19:36Z</time></trkpt><trkpt lat="42.14402453000092" lon="-7.984916871910301"><ele>726.0</ele><time>2026-04-29T09:19:37Z</time></trkpt><trkpt lat="42.14401324986943" lon="-7.985024022783379"><ele>726.0</ele><time>2026-04-29T09:19:38Z</time></trkpt><trkpt lat="42.144003587656975" lon="-7.985135230809169"><ele>726.0</ele><time>2026-04-29T09:19:39Z</time></trkpt><trkpt lat="42.143990208925246" lon="-7.985242813933589"><ele>726.0</ele><time>2026-04-29T09:19:40Z</time></trkpt><trkpt lat="42.14397717792712" lon="-7.985352687861965"><ele>726.0</ele><time>2026-04-29T09:19:41Z</time></trkpt><trkpt lat="42.143963463556155" lon="-7.985459099303973"><ele>725.8333333333334</ele><time>2026-04-29T09:19:42Z</time></trkpt><trkpt lat="42.14395318865179" lon="-7.985567401429123"><ele>725.6666666666666</ele><time>2026-04-29T09:19:43Z</time></trkpt><trkpt lat="42.14394824280362" lon="-7.985669231265726"><ele>725.5</ele><time>2026-04-29T09:19:44Z</time></trkpt><trkpt lat="42.14394429959362" lon="-7.985773393094851"><ele>725.3333333333333</ele><time>2026-04-29T09:19:45Z</time></trkpt><trkpt lat="42.14394503690689" lon="-7.985870411480351"><ele>725.1666666666666</ele><time>2026-04-29T09:19:46Z</time></trkpt><trkpt lat="42.14394441536288" lon="-7.985971068612846"><ele>725.0</ele><time>2026-04-29T09:19:47Z</time></trkpt><trkpt lat="42.143943528906924" lon="-7.986083650731705"><ele>724.6666666666666</ele><time>2026-04-29T09:19:48Z</time></trkpt><trkpt lat="42.14394534682469" lon="-7.986198130420005"><ele>724.3333333333333</ele><time>2026-04-29T09:19:49Z</time></trkpt><trkpt lat="42.1439479424667" lon="-7.986314872405236"><ele>724.0</ele><time>2026-04-29T09:19:50Z</time></trkpt><trkpt lat="42.14394999112601" lon="-7.986432273288703"><ele>723.6666666666666</ele><time>2026-04-29T09:19:51Z</time></trkpt><trkpt lat="42.14395135681222" lon="-7.986550294993662"><ele>723.3333333333334</ele><time>2026-04-29T09:19:52Z</time></trkpt><trkpt lat="42.143954567516694" lon="-7.986666588221782"><ele>723.0</ele><time>2026-04-29T09:19:53Z</time></trkpt><trkpt lat="42.143956018691824" lon="-7.986782322073085"><ele>722.5</ele><time>2026-04-29T09:19:54Z</time></trkpt><trkpt lat="42.14396200140231" lon="-7.9868945626292405"><ele>722.0</ele><time>2026-04-29T09:19:55Z</time></trkpt><trkpt lat="42.14396700929199" lon="-7.9870069381658855"><ele>721.5</ele><time>2026-04-29T09:19:56Z</time></trkpt><trkpt lat="42.143972478191614" lon="-7.9871169189323785"><ele>721.0</ele><time>2026-04-29T09:19:57Z</time></trkpt><trkpt lat="42.143978032655035" lon="-7.987226521390472"><ele>720.5</ele><time>2026-04-29T09:19:58Z</time></trkpt><trkpt lat="42.143985461977664" lon="-7.987336294240098"><ele>720.0</ele><time>2026-04-29T09:19:59Z</time></trkpt><trkpt lat="42.14398817639867" lon="-7.987442247617483"><ele>719.6666666666666</ele><time>2026-04-29T09:20:00Z</time></trkpt><trkpt lat="42.14399543099034" lon="-7.987547959868432"><ele>719.3333333333334</ele><time>2026-04-29T09:20:01Z</time></trkpt><trkpt lat="42.14400178640547" lon="-7.987656486160868"><ele>719.0</ele><time>2026-04-29T09:20:02Z</time></trkpt><trkpt lat="42.14400393287284" lon="-7.987761612411045"><ele>718.6666666666667</ele><time>2026-04-29T09:20:03Z</time></trkpt><trkpt lat="42.1440122680294" lon="-7.987858781948636"><ele>718.3333333333334</ele><time>2026-04-29T09:20:04Z</time></trkpt><trkpt lat="42.144013977589054" lon="-7.987966850936895"><ele>718.0</ele><time>2026-04-29T09:20:05Z</time></trkpt><trkpt lat="42.14402241910433" lon="-7.988068683885412"><ele>718.0</ele><time>2026-04-29T09:20:06Z</time></trkpt><trkpt lat="42.144025666380315" lon="-7.988180078794345"><ele>718.0</ele><time>2026-04-29T09:20:07Z</time></trkpt><trkpt lat="42.144034389629184" lon="-7.988292464177424"><ele>718.0</ele><time>2026-04-29T09:20:08Z</time></trkpt><trkpt lat="42.14404042568749" lon="-7.988402331893889"><ele>718.0</ele><time>2026-04-29T09:20:09Z</time></trkpt><trkpt lat="42.144045810826334" lon="-7.9885148183121455"><ele>718.0</ele><time>2026-04-29T09:20:10Z</time></trkpt><trkpt lat="42.14404762506022" lon="-7.988627167920603"><ele>718.0</ele><time>2026-04-29T09:20:11Z</time></trkpt><trkpt lat="42.14405251669119" lon="-7.988737899229288"><ele>718.0</ele><time>2026-04-29T09:20:12Z</time></trkpt><trkpt lat="42.14405537632878" lon="-7.988849489693031"><ele>718.0</ele><time>2026-04-29T09:20:13Z</time></trkpt><trkpt lat="42.14406032086073" lon="-7.988965213712363"><ele>718.0</ele><time>2026-04-29T09:20:14Z</time></trkpt><trkpt lat="42.144063056764686" lon="-7.989084573630433"><ele>718.0</ele><time>2026-04-29T09:20:15Z</time></trkpt><trkpt lat="42.14406942461552" lon="-7.98920568887839"><ele>718.0</ele><time>2026-04-29T09:20:16Z</time></trkpt><trkpt lat="42.14407575856009" lon="-7.989331392292302"><ele>718.0</ele><time>2026-04-29T09:20:17Z</time></trkpt><trkpt lat="42.14408095285687" lon="-7.989462292510118"><ele>717.5999999999999</ele><time>2026-04-29T09:20:18Z</time></trkpt><trkpt lat="42.144087846345926" lon="-7.989588893887235"><ele>717.1999999999999</ele><time>2026-04-29T09:20:19Z</time></trkpt><trkpt lat="42.144091212032244" lon="-7.989717694997718"><ele>716.8</ele><time>2026-04-29T09:20:20Z</time></trkpt><trkpt lat="42.14409392599169" lon="-7.989856737417114"><ele>716.4</ele><time>2026-04-29T09:20:21Z</time></trkpt><trkpt lat="42.14409758578094" lon="-7.989991176574624"><ele>716.0</ele><time>2026-04-29T09:20:22Z</time></trkpt><trkpt lat="42.1441051236644" lon="-7.990121510068882"><ele>715.4</ele><time>2026-04-29T09:20:23Z</time></trkpt><trkpt lat="42.144112177691525" lon="-7.990248445203612"><ele>714.8</ele><time>2026-04-29T09:20:24Z</time></trkpt><trkpt lat="42.14412146180206" lon="-7.990376407029491"><ele>714.1999999999999</ele><time>2026-04-29T09:20:25Z</time></trkpt><trkpt lat="42.14412725471639" lon="-7.990507551377827"><ele>713.5999999999999</ele><time>2026-04-29T09:20:26Z</time></trkpt><trkpt lat="42.14413358204117" lon="-7.990629707783259"><ele>713.0</ele><time>2026-04-29T09:20:27Z</time></trkpt><trkpt lat="42.144135689274066" lon="-7.990768080430641"><ele>712.2</ele><time>2026-04-29T09:20:28Z</time></trkpt><trkpt lat="42.14414827471915" lon="-7.990882856119697"><ele>711.4</ele><time>2026-04-29T09:20:29Z</time></trkpt><trkpt lat="42.14415067643421" lon="-7.991011297471055"><ele>710.6</ele><time>2026-04-29T09:20:30Z</time></trkpt><trkpt lat="42.14415752487424" lon="-7.991129296651978"><ele>709.8000000000001</ele><time>2026-04-29T09:20:31Z</time></trkpt><trkpt lat="42.14416064123549" lon="-7.991256892696195"><ele>709.0</ele><time>2026-04-29T09:20:32Z</time></trkpt><trkpt lat="42.14416781256997" lon="-7.991377005717146"><ele>709.0</ele><time>2026-04-29T09:20:33Z</time></trkpt><trkpt lat="42.14417569948486" lon="-7.991494176807013"><ele>709.0</ele><time>2026-04-29T09:20:34Z</time></trkpt><trkpt lat="42.144181499703514" lon="-7.99161870690143"><ele>709.0</ele><time>2026-04-29T09:20:35Z</time></trkpt><trkpt lat="42.144186004774575" lon="-7.991734468122076"><ele>709.0</ele><time>2026-04-29T09:20:36Z</time></trkpt><trkpt lat="42.14419262228329" lon="-7.991859065450045"><ele>709.0</ele><time>2026-04-29T09:20:37Z</time></trkpt><trkpt lat="42.144197205889725" lon="-7.991983910868775"><ele>708.8000000000001</ele><time>2026-04-29T09:20:38Z</time></trkpt><trkpt lat="42.14420340666188" lon="-7.9921089159289505"><ele>708.6</ele><time>2026-04-29T09:20:39Z</time></trkpt><trkpt lat="42.14420978552262" lon="-7.992233422287423"><ele>708.4</ele><time>2026-04-29T09:20:40Z</time></trkpt><trkpt lat="42.14421455355992" lon="-7.992358611376434"><ele>708.2</ele><time>2026-04-29T09:20:41Z</time></trkpt><trkpt lat="42.14422052359833" lon="-7.9924825321666795"><ele>708.0</ele><time>2026-04-29T09:20:42Z</time></trkpt><trkpt lat="42.14421613174197" lon="-7.99260750313817"><ele>708.0</ele><time>2026-04-29T09:20:43Z</time></trkpt><trkpt lat="42.14422334764702" lon="-7.992736796051539"><ele>708.0</ele><time>2026-04-29T09:20:44Z</time></trkpt><trkpt lat="42.14423652974226" lon="-7.99286605762165"><ele>708.0</ele><time>2026-04-29T09:20:45Z</time></trkpt><trkpt lat="42.14424084903064" lon="-7.9929981264695575"><ele>708.0</ele><time>2026-04-29T09:20:46Z</time></trkpt><trkpt lat="42.14423602620218" lon="-7.993131666512496"><ele>708.0</ele><time>2026-04-29T09:20:47Z</time></trkpt><trkpt lat="42.14424294588721" lon="-7.993265485975151"><ele>708.2</ele><time>2026-04-29T09:20:48Z</time></trkpt><trkpt lat="42.14424996882721" lon="-7.993394049755303"><ele>708.4</ele><time>2026-04-29T09:20:49Z</time></trkpt><trkpt lat="42.14425872384603" lon="-7.993518858418587"><ele>708.6</ele><time>2026-04-29T09:20:50Z</time></trkpt><trkpt lat="42.14426452001055" lon="-7.99364875624142"><ele>708.8000000000001</ele><time>2026-04-29T09:20:51Z</time></trkpt><trkpt lat="42.14426968308898" lon="-7.993772110456521"><ele>709.0</ele><time>2026-04-29T09:20:52Z</time></trkpt><trkpt lat="42.144276801053486" lon="-7.993899237110787"><ele>709.0</ele><time>2026-04-29T09:20:53Z</time></trkpt><trkpt lat="42.144287355566355" lon="-7.9940218488866766"><ele>709.0</ele><time>2026-04-29T09:20:54Z</time></trkpt><trkpt lat="42.14429239924709" lon="-7.994145124090787"><ele>709.0</ele><time>2026-04-29T09:20:55Z</time></trkpt><trkpt lat="42.144295601893326" lon="-7.9942675397498295"><ele>709.0</ele><time>2026-04-29T09:20:56Z</time></trkpt><trkpt lat="42.1442986359357" lon="-7.994390902141503"><ele>709.0</ele><time>2026-04-29T09:20:57Z</time></trkpt><trkpt lat="42.14430249008237" lon="-7.994513467455403"><ele>709.6</ele><time>2026-04-29T09:20:58Z</time></trkpt><trkpt lat="42.144301456978994" lon="-7.994642730876923"><ele>710.2</ele><time>2026-04-29T09:20:59Z</time></trkpt><trkpt lat="42.14430119386737" lon="-7.994766621983465"><ele>710.8000000000001</ele><time>2026-04-29T09:21:00Z</time></trkpt><trkpt lat="42.14430020869148" lon="-7.994891718112333"><ele>711.4000000000001</ele><time>2026-04-29T09:21:01Z</time></trkpt><trkpt lat="42.14429940533851" lon="-7.9950180561134605"><ele>712.0</ele><time>2026-04-29T09:21:02Z</time></trkpt><trkpt lat="42.144300039818575" lon="-7.995140816174843"><ele>712.4000000000001</ele><time>2026-04-29T09:21:03Z</time></trkpt><trkpt lat="42.144295434145434" lon="-7.995264798278622"><ele>712.8000000000001</ele><time>2026-04-29T09:21:04Z</time></trkpt><trkpt lat="42.14429532205922" lon="-7.995388498184435"><ele>713.2</ele><time>2026-04-29T09:21:05Z</time></trkpt><trkpt lat="42.14429357339841" lon="-7.995513703299295"><ele>713.6</ele><time>2026-04-29T09:21:06Z</time></trkpt><trkpt lat="42.14428856768716" lon="-7.995636837924174"><ele>714.0</ele><time>2026-04-29T09:21:07Z</time></trkpt><trkpt lat="42.14428732837998" lon="-7.9957616277782355"><ele>713.6</ele><time>2026-04-29T09:21:08Z</time></trkpt><trkpt lat="42.14428136726907" lon="-7.995889754058357"><ele>713.2</ele><time>2026-04-29T09:21:09Z</time></trkpt><trkpt lat="42.14427904304458" lon="-7.996015149449327"><ele>712.8000000000001</ele><time>2026-04-29T09:21:10Z</time></trkpt><trkpt lat="42.14427712717246" lon="-7.996143287868727"><ele>712.4000000000001</ele><time>2026-04-29T09:21:11Z</time></trkpt><trkpt lat="42.14427441516516" lon="-7.996276358318767"><ele>712.0</ele><time>2026-04-29T09:21:12Z</time></trkpt><trkpt lat="42.14427494241942" lon="-7.996405899568388"><ele>712.0</ele><time>2026-04-29T09:21:13Z</time></trkpt><trkpt lat="42.14427458017656" lon="-7.996539646886694"><ele>712.0</ele><time>2026-04-29T09:21:14Z</time></trkpt><trkpt lat="42.144276123718846" lon="-7.996670710769893"><ele>712.0</ele><time>2026-04-29T09:21:15Z</time></trkpt><trkpt lat="42.144275258201425" lon="-7.996806352000249"><ele>712.0</ele><time>2026-04-29T09:21:16Z</time></trkpt><trkpt lat="42.1442729559746" lon="-7.996942948303905"><ele>712.0</ele><time>2026-04-29T09:21:17Z</time></trkpt><trkpt lat="42.144271642480994" lon="-7.997080070496457"><ele>711.2</ele><time>2026-04-29T09:21:18Z</time></trkpt><trkpt lat="42.14427589665576" lon="-7.997216616069143"><ele>710.4000000000001</ele><time>2026-04-29T09:21:19Z</time></trkpt><trkpt lat="42.14428043536887" lon="-7.997353917035327"><ele>709.5999999999999</ele><time>2026-04-29T09:21:20Z</time></trkpt><trkpt lat="42.14428505004601" lon="-7.997488172941383"><ele>708.8</ele><time>2026-04-29T09:21:21Z</time></trkpt><trkpt lat="42.144290639311684" lon="-7.997620476096164"><ele>708.0</ele><time>2026-04-29T09:21:22Z</time></trkpt><trkpt lat="42.14429429651928" lon="-7.9977394143272695"><ele>707.3333333333334</ele><time>2026-04-29T09:21:23Z</time></trkpt><trkpt lat="42.14429627456911" lon="-7.997846593290344"><ele>706.6666666666666</ele><time>2026-04-29T09:21:24Z</time></trkpt><trkpt lat="42.14428784208356" lon="-7.997940026738798"><ele>706.0</ele><time>2026-04-29T09:21:25Z</time></trkpt><trkpt lat="42.1442998289399" lon="-7.9980535263026935"><ele>705.3333333333333</ele><time>2026-04-29T09:21:27Z</time></trkpt><trkpt lat="42.1443450683937" lon="-7.998132700320029"><ele>704.6666666666666</ele><time>2026-04-29T09:21:30Z</time></trkpt><trkpt lat="42.14445642765501" lon="-7.998094771865662"><ele>704.0</ele><time>2026-04-29T09:21:31Z</time></trkpt><trkpt lat="42.14455633008147" lon="-7.998095808230939"><ele>704.0</ele><time>2026-04-29T09:21:33Z</time></trkpt><trkpt lat="42.1446613045221" lon="-7.998096538212995"><ele>704.0</ele><time>2026-04-29T09:21:35Z</time></trkpt><trkpt lat="42.14475243452878" lon="-7.9981524404645885"><ele>704.0</ele><time>2026-04-29T09:21:37Z</time></trkpt><trkpt lat="42.144874942484606" lon="-7.9982061835362"><ele>704.0</ele><time>2026-04-29T09:21:39Z</time></trkpt><trkpt lat="42.145147032996256" lon="-7.9982326073515715"><ele>704.5</ele><time>2026-04-29T09:21:41Z</time></trkpt><trkpt lat="42.145350119836486" lon="-7.997814755277742"><ele>705.0</ele><time>2026-04-29T09:21:42Z</time></trkpt><trkpt lat="42.14546733856477" lon="-7.997786644816261"><ele>705.0</ele><time>2026-04-29T09:21:43Z</time></trkpt><trkpt lat="42.145572071463455" lon="-7.997796556518157"><ele>705.0</ele><time>2026-04-29T09:21:44Z</time></trkpt><trkpt lat="42.145701061341" lon="-7.997861777854454"><ele>705.0</ele><time>2026-04-29T09:21:45Z</time></trkpt><trkpt lat="42.14584461583079" lon="-7.99791046897915"><ele>705.0</ele><time>2026-04-29T09:21:46Z</time></trkpt><trkpt lat="42.14600093395161" lon="-7.997930352362188"><ele>705.0</ele><time>2026-04-29T09:21:47Z</time></trkpt><trkpt lat="42.14611867803049" lon="-7.9979371443394855"><ele>705.0</ele><time>2026-04-29T09:21:48Z</time></trkpt><trkpt lat="42.14621738689753" lon="-7.997926610751683"><ele>705.0</ele><time>2026-04-29T09:21:49Z</time></trkpt><trkpt lat="42.14630504443958" lon="-7.9978851398286945"><ele>705.0</ele><time>2026-04-29T09:21:50Z</time></trkpt><trkpt lat="42.14640993896793" lon="-7.997828302340938"><ele>705.0</ele><time>2026-04-29T09:21:51Z</time></trkpt><trkpt lat="42.14652169425844" lon="-7.997747996844745"><ele>705.0</ele><time>2026-04-29T09:21:52Z</time></trkpt><trkpt lat="42.146640680608954" lon="-7.997658676647367"><ele>705.0</ele><time>2026-04-29T09:21:53Z</time></trkpt><trkpt lat="42.14677214872149" lon="-7.997584593943398"><ele>705.0</ele><time>2026-04-29T09:21:54Z</time></trkpt><trkpt lat="42.146903138460786" lon="-7.99751796630001"><ele>705.0</ele><time>2026-04-29T09:21:55Z</time></trkpt><trkpt lat="42.14704071243856" lon="-7.997469941413053"><ele>705.0</ele><time>2026-04-29T09:21:56Z</time></trkpt><trkpt lat="42.14717384817544" lon="-7.997435022769247"><ele>705.0</ele><time>2026-04-29T09:21:57Z</time></trkpt><trkpt lat="42.14731830221397" lon="-7.997404437074093"><ele>705.0</ele><time>2026-04-29T09:21:58Z</time></trkpt><trkpt lat="42.14747012170003" lon="-7.997372548125573"><ele>705.0</ele><time>2026-04-29T09:21:59Z</time></trkpt><trkpt lat="42.14761871126821" lon="-7.9973466672473315"><ele>704.25</ele><time>2026-04-29T09:22:00Z</time></trkpt><trkpt lat="42.147755162960365" lon="-7.997332733118413"><ele>703.5</ele><time>2026-04-29T09:22:01Z</time></trkpt><trkpt lat="42.14788608002253" lon="-7.997283880250569"><ele>702.75</ele><time>2026-04-29T09:22:02Z</time></trkpt><trkpt lat="42.148014300338005" lon="-7.997236451054618"><ele>702.0</ele><time>2026-04-29T09:22:03Z</time></trkpt><trkpt lat="42.14813481109941" lon="-7.997165846370769"><ele>702.4000000000001</ele><time>2026-04-29T09:22:04Z</time></trkpt><trkpt lat="42.14824215229625" lon="-7.997099654016521"><ele>702.8000000000001</ele><time>2026-04-29T09:22:05Z</time></trkpt><trkpt lat="42.14831990039606" lon="-7.9970523369104995"><ele>703.2</ele><time>2026-04-29T09:22:06Z</time></trkpt><trkpt lat="42.14844632313975" lon="-7.996941889935079"><ele>703.6</ele><time>2026-04-29T09:22:08Z</time></trkpt><trkpt lat="42.148523354308104" lon="-7.996875219394723"><ele>704.0</ele><time>2026-04-29T09:22:09Z</time></trkpt><trkpt lat="42.14860151044222" lon="-7.996801434140695"><ele>704.0</ele><time>2026-04-29T09:22:10Z</time></trkpt><trkpt lat="42.148680117989485" lon="-7.996703534003962"><ele>704.0</ele><time>2026-04-29T09:22:11Z</time></trkpt><trkpt lat="42.14874434010161" lon="-7.996596676985274"><ele>704.0</ele><time>2026-04-29T09:22:12Z</time></trkpt><trkpt lat="42.14880226913076" lon="-7.996478992712093"><ele>704.0</ele><time>2026-04-29T09:22:13Z</time></trkpt><trkpt lat="42.14884722845731" lon="-7.996353746053023"><ele>704.0</ele><time>2026-04-29T09:22:14Z</time></trkpt><trkpt lat="42.14888982133599" lon="-7.996229633047477"><ele>705.2</ele><time>2026-04-29T09:22:15Z</time></trkpt><trkpt lat="42.14893249474506" lon="-7.996097664566593"><ele>706.4000000000001</ele><time>2026-04-29T09:22:16Z</time></trkpt><trkpt lat="42.14896832190944" lon="-7.9959595262934515"><ele>707.6</ele><time>2026-04-29T09:22:17Z</time></trkpt><trkpt lat="42.149005526716" lon="-7.995824291789168"><ele>708.8</ele><time>2026-04-29T09:22:18Z</time></trkpt><trkpt lat="42.14903943653406" lon="-7.995692389834565"><ele>710.0</ele><time>2026-04-29T09:22:19Z</time></trkpt><trkpt lat="42.14907898342277" lon="-7.995566551252243"><ele>710.5</ele><time>2026-04-29T09:22:20Z</time></trkpt><trkpt lat="42.14910923790588" lon="-7.995460738707895"><ele>711.0</ele><time>2026-04-29T09:22:21Z</time></trkpt><trkpt lat="42.149131551129514" lon="-7.9953777532807795"><ele>711.5</ele><time>2026-04-29T09:22:22Z</time></trkpt><trkpt lat="42.14916203206536" lon="-7.995291117937639"><ele>712.0</ele><time>2026-04-29T09:22:23Z</time></trkpt><trkpt lat="42.14919503034762" lon="-7.995187343213357"><ele>712.5</ele><time>2026-04-29T09:22:24Z</time></trkpt><trkpt lat="42.149225213246915" lon="-7.99506992135647"><ele>713.0</ele><time>2026-04-29T09:22:25Z</time></trkpt><trkpt lat="42.1492589720763" lon="-7.994945428393897"><ele>713.8</ele><time>2026-04-29T09:22:26Z</time></trkpt><trkpt lat="42.149292447410126" lon="-7.994820324892894"><ele>714.5999999999999</ele><time>2026-04-29T09:22:27Z</time></trkpt><trkpt lat="42.149322110937376" lon="-7.994688611442375"><ele>715.4000000000001</ele><time>2026-04-29T09:22:28Z</time></trkpt><trkpt lat="42.149347651036024" lon="-7.994553311224066"><ele>716.2</ele><time>2026-04-29T09:22:29Z</time></trkpt><trkpt lat="42.1493688920132" lon="-7.994417725108215"><ele>717.0</ele><time>2026-04-29T09:22:30Z</time></trkpt><trkpt lat="42.14938172873972" lon="-7.994282496004095"><ele>717.8333333333334</ele><time>2026-04-29T09:22:31Z</time></trkpt><trkpt lat="42.149386855536015" lon="-7.994169630245526"><ele>718.6666666666666</ele><time>2026-04-29T09:22:32Z</time></trkpt><trkpt lat="42.14938167698551" lon="-7.994050457137487"><ele>719.5</ele><time>2026-04-29T09:22:33Z</time></trkpt><trkpt lat="42.149379998884235" lon="-7.99392257833391"><ele>720.3333333333333</ele><time>2026-04-29T09:22:34Z</time></trkpt><trkpt lat="42.14939131742704" lon="-7.993803116481535"><ele>721.1666666666666</ele><time>2026-04-29T09:22:35Z</time></trkpt><trkpt lat="42.149398041999795" lon="-7.993681686100182"><ele>722.0</ele><time>2026-04-29T09:22:36Z</time></trkpt><trkpt lat="42.14938900954256" lon="-7.9935480090265045"><ele>722.0</ele><time>2026-04-29T09:22:37Z</time></trkpt><trkpt lat="42.14938712307386" lon="-7.993415135861064"><ele>722.0</ele><time>2026-04-29T09:22:38Z</time></trkpt><trkpt lat="42.149391653672666" lon="-7.993278627996916"><ele>722.0</ele><time>2026-04-29T09:22:39Z</time></trkpt><trkpt lat="42.149419346668516" lon="-7.993155660000315"><ele>722.0</ele><time>2026-04-29T09:22:40Z</time></trkpt><trkpt lat="42.14946838098002" lon="-7.993072106137037"><ele>722.0</ele><time>2026-04-29T09:22:41Z</time></trkpt><trkpt lat="42.1495335013398" lon="-7.993000355240474"><ele>722.75</ele><time>2026-04-29T09:22:42Z</time></trkpt><trkpt lat="42.14961093641858" lon="-7.9929042881937695"><ele>723.5</ele><time>2026-04-29T09:22:43Z</time></trkpt><trkpt lat="42.14969513694139" lon="-7.992789665502111"><ele>724.25</ele><time>2026-04-29T09:22:44Z</time></trkpt><trkpt lat="42.14978453095712" lon="-7.9926750728034195"><ele>725.0</ele><time>2026-04-29T09:22:45Z</time></trkpt><trkpt lat="42.14987201014213" lon="-7.992557696139789"><ele>725.2</ele><time>2026-04-29T09:22:46Z</time></trkpt><trkpt lat="42.149954031018986" lon="-7.992438746057319"><ele>725.4</ele><time>2026-04-29T09:22:47Z</time></trkpt><trkpt lat="42.15003061373559" lon="-7.992323260724832"><ele>725.5999999999999</ele><time>2026-04-29T09:22:48Z</time></trkpt><trkpt lat="42.15010268848254" lon="-7.9922127408938755"><ele>725.8</ele><time>2026-04-29T09:22:49Z</time></trkpt><trkpt lat="42.15016075481487" lon="-7.992101640270236"><ele>726.0</ele><time>2026-04-29T09:22:50Z</time></trkpt><trkpt lat="42.15021339354366" lon="-7.991987339147699"><ele>726.0</ele><time>2026-04-29T09:22:51Z</time></trkpt><trkpt lat="42.15028261918003" lon="-7.991874050271916"><ele>726.0</ele><time>2026-04-29T09:22:52Z</time></trkpt><trkpt lat="42.15035899236705" lon="-7.991768250712037"><ele>726.0</ele><time>2026-04-29T09:22:53Z</time></trkpt><trkpt lat="42.1504283541315" lon="-7.991675387525789"><ele>726.0</ele><time>2026-04-29T09:22:54Z</time></trkpt><trkpt lat="42.15049009263789" lon="-7.9915951440466015"><ele>726.0</ele><time>2026-04-29T09:22:55Z</time></trkpt><trkpt lat="42.150547805435004" lon="-7.991512732996323"><ele>726.6666666666666</ele><time>2026-04-29T09:22:56Z</time></trkpt><trkpt lat="42.150597012895794" lon="-7.9914233812418916"><ele>727.3333333333334</ele><time>2026-04-29T09:22:57Z</time></trkpt><trkpt lat="42.15064619333343" lon="-7.991339153990557"><ele>728.0</ele><time>2026-04-29T09:22:58Z</time></trkpt><trkpt lat="42.150701934699065" lon="-7.9912634612931885"><ele>728.6666666666667</ele><time>2026-04-29T09:22:59Z</time></trkpt><trkpt lat="42.15076909474042" lon="-7.991179245146971"><ele>729.3333333333334</ele><time>2026-04-29T09:23:00Z</time></trkpt><trkpt lat="42.15083355312981" lon="-7.991096442742776"><ele>730.0</ele><time>2026-04-29T09:23:01Z</time></trkpt><trkpt lat="42.15089839570589" lon="-7.99101819053087"><ele>730.0</ele><time>2026-04-29T09:23:02Z</time></trkpt><trkpt lat="42.15096424083605" lon="-7.99093320067632"><ele>730.0</ele><time>2026-04-29T09:23:03Z</time></trkpt><trkpt lat="42.15103855072139" lon="-7.990844960449169"><ele>730.0</ele><time>2026-04-29T09:23:04Z</time></trkpt><trkpt lat="42.151111000383224" lon="-7.990782672861794"><ele>730.0</ele><time>2026-04-29T09:23:05Z</time></trkpt><trkpt lat="42.151168010896505" lon="-7.99073034023792"><ele>730.0</ele><time>2026-04-29T09:23:06Z</time></trkpt><trkpt lat="42.15127204498008" lon="-7.990641541812552"><ele>730.1666666666667</ele><time>2026-04-29T09:23:08Z</time></trkpt><trkpt lat="42.15132274136669" lon="-7.990589939525039"><ele>730.3333333333334</ele><time>2026-04-29T09:23:09Z</time></trkpt><trkpt lat="42.15139012737913" lon="-7.990540756425698"><ele>730.5</ele><time>2026-04-29T09:23:10Z</time></trkpt><trkpt lat="42.151460307563504" lon="-7.990480191135824"><ele>730.6666666666666</ele><time>2026-04-29T09:23:11Z</time></trkpt><trkpt lat="42.15155883862768" lon="-7.99046571153814"><ele>730.8333333333333</ele><time>2026-04-29T09:23:12Z</time></trkpt><trkpt lat="42.15166800805956" lon="-7.990481503481319"><ele>731.0</ele><time>2026-04-29T09:23:13Z</time></trkpt><trkpt lat="42.15181887204325" lon="-7.990546219002434"><ele>731.0</ele><time>2026-04-29T09:23:14Z</time></trkpt><trkpt lat="42.15195991708364" lon="-7.990588500432943"><ele>731.0</ele><time>2026-04-29T09:23:15Z</time></trkpt><trkpt lat="42.15209975990934" lon="-7.990584287276758"><ele>731.0</ele><time>2026-04-29T09:23:16Z</time></trkpt><trkpt lat="42.15222550195689" lon="-7.990584031315845"><ele>731.0</ele><time>2026-04-29T09:23:17Z</time></trkpt><trkpt lat="42.15234787239891" lon="-7.990570840854435"><ele>730.25</ele><time>2026-04-29T09:23:18Z</time></trkpt><trkpt lat="42.15250345435591" lon="-7.990555880561932"><ele>729.5</ele><time>2026-04-29T09:23:19Z</time></trkpt><trkpt lat="42.15262883498045" lon="-7.990540571271153"><ele>728.75</ele><time>2026-04-29T09:23:20Z</time></trkpt><trkpt lat="42.15275750014503" lon="-7.990545162363313"><ele>728.0</ele><time>2026-04-29T09:23:21Z</time></trkpt><trkpt lat="42.15287748479084" lon="-7.990549379472772"><ele>728.0</ele><time>2026-04-29T09:23:22Z</time></trkpt><trkpt lat="42.15299925086363" lon="-7.99054151056703"><ele>728.0</ele><time>2026-04-29T09:23:23Z</time></trkpt><trkpt lat="42.1531200810042" lon="-7.990532555913034"><ele>728.0</ele><time>2026-04-29T09:23:24Z</time></trkpt><trkpt lat="42.15322838733572" lon="-7.990504158616266"><ele>728.0</ele><time>2026-04-29T09:23:25Z</time></trkpt><trkpt lat="42.15333008864488" lon="-7.990461621041957"><ele>728.5999999999999</ele><time>2026-04-29T09:23:26Z</time></trkpt><trkpt lat="42.15340566826763" lon="-7.990391762798076"><ele>729.1999999999999</ele><time>2026-04-29T09:23:27Z</time></trkpt><trkpt lat="42.15347199569345" lon="-7.990313144612139"><ele>729.8</ele><time>2026-04-29T09:23:28Z</time></trkpt><trkpt lat="42.15354460668567" lon="-7.99019556571454"><ele>730.4</ele><time>2026-04-29T09:23:29Z</time></trkpt><trkpt lat="42.15362677053607" lon="-7.990074182840504"><ele>731.0</ele><time>2026-04-29T09:23:30Z</time></trkpt><trkpt lat="42.1537329536948" lon="-7.989953175397494"><ele>731.0</ele><time>2026-04-29T09:23:31Z</time></trkpt><trkpt lat="42.15383651578148" lon="-7.989829550139138"><ele>731.0</ele><time>2026-04-29T09:23:32Z</time></trkpt><trkpt lat="42.1539200456553" lon="-7.989710970831618"><ele>731.0</ele><time>2026-04-29T09:23:33Z</time></trkpt><trkpt lat="42.15399167367157" lon="-7.989573014184036"><ele>731.0</ele><time>2026-04-29T09:23:34Z</time></trkpt><trkpt lat="42.1540743822032" lon="-7.989431264234745"><ele>730.3333333333333</ele><time>2026-04-29T09:23:35Z</time></trkpt><trkpt lat="42.15418954283416" lon="-7.9893194497378355"><ele>729.6666666666666</ele><time>2026-04-29T09:23:36Z</time></trkpt><trkpt lat="42.15433103188813" lon="-7.989213435185809"><ele>729.0</ele><time>2026-04-29T09:23:37Z</time></trkpt><trkpt lat="42.154469970099804" lon="-7.989131992366739"><ele>729.0</ele><time>2026-04-29T09:23:38Z</time></trkpt><trkpt lat="42.15457863066356" lon="-7.989070733061147"><ele>729.0</ele><time>2026-04-29T09:23:39Z</time></trkpt><trkpt lat="42.154651696885054" lon="-7.989037983468949"><ele>729.0</ele><time>2026-04-29T09:23:40Z</time></trkpt><trkpt lat="42.154722321393834" lon="-7.989017854138439"><ele>729.0</ele><time>2026-04-29T09:23:42Z</time></trkpt><trkpt lat="42.15480427514538" lon="-7.989044358993453"><ele>729.0</ele><time>2026-04-29T09:23:44Z</time></trkpt><trkpt lat="42.15487505935404" lon="-7.989114765121549"><ele>729.0</ele><time>2026-04-29T09:23:46Z</time></trkpt><trkpt lat="42.15493900194053" lon="-7.989191777735358"><ele>729.0</ele><time>2026-04-29T09:23:49Z</time></trkpt><trkpt lat="42.15500076215834" lon="-7.989283553539048"><ele>729.0</ele><time>2026-04-29T09:23:52Z</time></trkpt><trkpt lat="42.155054986014214" lon="-7.989368537748579"><ele>729.0</ele><time>2026-04-29T09:23:54Z</time></trkpt><trkpt lat="42.15498018624795" lon="-7.989321410501888"><ele>729.0</ele><time>2026-04-29T09:24:04Z</time></trkpt><trkpt lat="42.15490760614683" lon="-7.9892148554370035"><ele>729.0</ele><time>2026-04-29T09:24:06Z</time></trkpt><trkpt lat="42.15482141349122" lon="-7.989113746552212"><ele>729.0</ele><time>2026-04-29T09:24:08Z</time></trkpt><trkpt lat="42.15475424411381" lon="-7.989054987815937"><ele>729.0</ele><time>2026-04-29T09:24:10Z</time></trkpt><trkpt lat="42.15475531967199" lon="-7.9889275680611425"><ele>729.0</ele><time>2026-04-29T09:24:13Z</time></trkpt><trkpt lat="42.154794772652856" lon="-7.988843737453408"><ele>729.0</ele><time>2026-04-29T09:24:14Z</time></trkpt><trkpt lat="42.15484246469778" lon="-7.988728143699613"><ele>729.0</ele><time>2026-04-29T09:24:15Z</time></trkpt><trkpt lat="42.15489558116839" lon="-7.98858694963765"><ele>728.0</ele><time>2026-04-29T09:24:16Z</time></trkpt><trkpt lat="42.154969166218635" lon="-7.988443649856653"><ele>727.0</ele><time>2026-04-29T09:24:17Z</time></trkpt><trkpt lat="42.15506316852188" lon="-7.9883284652083155"><ele>726.0</ele><time>2026-04-29T09:24:18Z</time></trkpt><trkpt lat="42.15516143841755" lon="-7.988220158265825"><ele>725.0</ele><time>2026-04-29T09:24:19Z</time></trkpt><trkpt lat="42.15526595999713" lon="-7.988115391544889"><ele>726.5</ele><time>2026-04-29T09:24:20Z</time></trkpt><trkpt lat="42.15537886332569" lon="-7.988021642662793"><ele>728.0</ele><time>2026-04-29T09:24:21Z</time></trkpt><trkpt lat="42.1554887797601" lon="-7.9879342294818665"><ele>729.5</ele><time>2026-04-29T09:24:22Z</time></trkpt><trkpt lat="42.15560650582883" lon="-7.987855033784276"><ele>731.0</ele><time>2026-04-29T09:24:23Z</time></trkpt><trkpt lat="42.155728644848345" lon="-7.987782603963735"><ele>731.0</ele><time>2026-04-29T09:24:24Z</time></trkpt><trkpt lat="42.155844285987946" lon="-7.987707083077207"><ele>731.0</ele><time>2026-04-29T09:24:25Z</time></trkpt><trkpt lat="42.15595949566879" lon="-7.987625156091326"><ele>731.0</ele><time>2026-04-29T09:24:26Z</time></trkpt><trkpt lat="42.15607456675433" lon="-7.98754323705005"><ele>731.0</ele><time>2026-04-29T09:24:27Z</time></trkpt><trkpt lat="42.15618416871046" lon="-7.987461727519465"><ele>732.25</ele><time>2026-04-29T09:24:28Z</time></trkpt><trkpt lat="42.15630342716927" lon="-7.987379214226389"><ele>733.5</ele><time>2026-04-29T09:24:29Z</time></trkpt><trkpt lat="42.15642485516559" lon="-7.98730087516014"><ele>734.75</ele><time>2026-04-29T09:24:30Z</time></trkpt><trkpt lat="42.156547875075574" lon="-7.987215226724847"><ele>736.0</ele><time>2026-04-29T09:24:31Z</time></trkpt><trkpt lat="42.15667099603612" lon="-7.987124348409635"><ele>736.0</ele><time>2026-04-29T09:24:32Z</time></trkpt><trkpt lat="42.156799838977946" lon="-7.987031151730372"><ele>736.0</ele><time>2026-04-29T09:24:33Z</time></trkpt><trkpt lat="42.15691746690237" lon="-7.986929766825319"><ele>736.0</ele><time>2026-04-29T09:24:34Z</time></trkpt><trkpt lat="42.15703855363888" lon="-7.986825967149245"><ele>736.0</ele><time>2026-04-29T09:24:35Z</time></trkpt><trkpt lat="42.157152729148436" lon="-7.986725625222367"><ele>735.0</ele><time>2026-04-29T09:24:36Z</time></trkpt><trkpt lat="42.15725888245876" lon="-7.986624102509943"><ele>734.0</ele><time>2026-04-29T09:24:37Z</time></trkpt><trkpt lat="42.1573562410989" lon="-7.986523001769349"><ele>733.0</ele><time>2026-04-29T09:24:38Z</time></trkpt><trkpt lat="42.157453866554185" lon="-7.986423729796815"><ele>732.0</ele><time>2026-04-29T09:24:39Z</time></trkpt><trkpt lat="42.157551579062265" lon="-7.986323157189922"><ele>732.0</ele><time>2026-04-29T09:24:40Z</time></trkpt><trkpt lat="42.15763173215436" lon="-7.986219044635776"><ele>732.0</ele><time>2026-04-29T09:24:41Z</time></trkpt><trkpt lat="42.15772089419618" lon="-7.986104605030119"><ele>732.0</ele><time>2026-04-29T09:24:42Z</time></trkpt><trkpt lat="42.15780993139986" lon="-7.985997578302941"><ele>732.0</ele><time>2026-04-29T09:24:43Z</time></trkpt><trkpt lat="42.15788023712551" lon="-7.985906476259628"><ele>732.4000000000001</ele><time>2026-04-29T09:24:44Z</time></trkpt><trkpt lat="42.15793511996631" lon="-7.985813726665431"><ele>732.8000000000001</ele><time>2026-04-29T09:24:45Z</time></trkpt><trkpt lat="42.15796672041179" lon="-7.985714069957322"><ele>733.2</ele><time>2026-04-29T09:24:46Z</time></trkpt><trkpt lat="42.15798955874282" lon="-7.9855773323109736"><ele>733.6</ele><time>2026-04-29T09:24:47Z</time></trkpt><trkpt lat="42.15800051421506" lon="-7.985434555707296"><ele>734.0</ele><time>2026-04-29T09:24:48Z</time></trkpt><trkpt lat="42.15799392766001" lon="-7.985285712700993"><ele>734.0</ele><time>2026-04-29T09:24:49Z</time></trkpt><trkpt lat="42.15798442111091" lon="-7.985144136410181"><ele>734.0</ele><time>2026-04-29T09:24:50Z</time></trkpt><trkpt lat="42.15796604841674" lon="-7.985009389355915"><ele>734.0</ele><time>2026-04-29T09:24:51Z</time></trkpt><trkpt lat="42.1579490897388" lon="-7.984873180442269"><ele>734.0</ele><time>2026-04-29T09:24:52Z</time></trkpt><trkpt lat="42.15791973428363" lon="-7.984745197721064"><ele>734.0</ele><time>2026-04-29T09:24:53Z</time></trkpt><trkpt lat="42.15787180403859" lon="-7.984623969018942"><ele>733.6</ele><time>2026-04-29T09:24:54Z</time></trkpt><trkpt lat="42.15780877844884" lon="-7.984522972224309"><ele>733.2</ele><time>2026-04-29T09:24:55Z</time></trkpt><trkpt lat="42.15773871806915" lon="-7.984438376488516"><ele>732.8000000000001</ele><time>2026-04-29T09:24:56Z</time></trkpt><trkpt lat="42.15766458347798" lon="-7.984353502325334"><ele>732.4000000000001</ele><time>2026-04-29T09:24:57Z</time></trkpt><trkpt lat="42.157603900894" lon="-7.984262430016242"><ele>732.0</ele><time>2026-04-29T09:24:58Z</time></trkpt><trkpt lat="42.15755679494711" lon="-7.984155669027854"><ele>731.2</ele><time>2026-04-29T09:24:59Z</time></trkpt><trkpt lat="42.157532154680624" lon="-7.984036763407014"><ele>730.4000000000001</ele><time>2026-04-29T09:25:00Z</time></trkpt><trkpt lat="42.157518668087" lon="-7.983915986677802"><ele>729.5999999999999</ele><time>2026-04-29T09:25:01Z</time></trkpt><trkpt lat="42.15749962845802" lon="-7.983784498576719"><ele>728.8</ele><time>2026-04-29T09:25:02Z</time></trkpt><trkpt lat="42.157462072288084" lon="-7.983655683225015"><ele>728.0</ele><time>2026-04-29T09:25:03Z</time></trkpt><trkpt lat="42.157434377653296" lon="-7.983539587074355"><ele>728.0</ele><time>2026-04-29T09:25:04Z</time></trkpt><trkpt lat="42.15741756879255" lon="-7.9834129411780514"><ele>728.0</ele><time>2026-04-29T09:25:05Z</time></trkpt><trkpt lat="42.15740317577618" lon="-7.983288921242997"><ele>728.0</ele><time>2026-04-29T09:25:06Z</time></trkpt><trkpt lat="42.157388416746905" lon="-7.983172214090659"><ele>728.0</ele><time>2026-04-29T09:25:07Z</time></trkpt><trkpt lat="42.15736690978431" lon="-7.983047689134148"><ele>728.0</ele><time>2026-04-29T09:25:08Z</time></trkpt><trkpt lat="42.15732819221643" lon="-7.9829309938192115"><ele>729.0</ele><time>2026-04-29T09:25:09Z</time></trkpt><trkpt lat="42.15727841630527" lon="-7.9828199005950085"><ele>730.0</ele><time>2026-04-29T09:25:10Z</time></trkpt><trkpt lat="42.15722382970534" lon="-7.982717024152707"><ele>731.0</ele><time>2026-04-29T09:25:11Z</time></trkpt><trkpt lat="42.157173184913134" lon="-7.9826121211000824"><ele>732.0</ele><time>2026-04-29T09:25:12Z</time></trkpt><trkpt lat="42.15713666432933" lon="-7.982489658388711"><ele>733.0</ele><time>2026-04-29T09:25:13Z</time></trkpt><trkpt lat="42.157111154544374" lon="-7.982346117123352"><ele>733.0</ele><time>2026-04-29T09:25:14Z</time></trkpt><trkpt lat="42.15710334773665" lon="-7.982200462596301"><ele>733.0</ele><time>2026-04-29T09:25:15Z</time></trkpt><trkpt lat="42.1571026793936" lon="-7.982080277294498"><ele>733.0</ele><time>2026-04-29T09:25:16Z</time></trkpt><trkpt lat="42.15709322770056" lon="-7.981979541149276"><ele>733.0</ele><time>2026-04-29T09:25:17Z</time></trkpt><trkpt lat="42.1570684961826" lon="-7.981899753441961"><ele>733.0</ele><time>2026-04-29T09:25:18Z</time></trkpt><trkpt lat="42.157021203547" lon="-7.981835207361214"><ele>733.0</ele><time>2026-04-29T09:25:19Z</time></trkpt><trkpt lat="42.156962632968096" lon="-7.9817963049193486"><ele>733.0</ele><time>2026-04-29T09:25:20Z</time></trkpt><trkpt lat="42.15690319531753" lon="-7.981766105583709"><ele>733.0</ele><time>2026-04-29T09:25:21Z</time></trkpt><trkpt lat="42.15678491384354" lon="-7.9816932960888565"><ele>733.0</ele><time>2026-04-29T09:25:23Z</time></trkpt><trkpt lat="42.1567082780944" lon="-7.981649998642457"><ele>733.0</ele><time>2026-04-29T09:25:24Z</time></trkpt><trkpt lat="42.156612533378194" lon="-7.9815918530334"><ele>733.0</ele><time>2026-04-29T09:25:25Z</time></trkpt><trkpt lat="42.156513574060185" lon="-7.981540384631726"><ele>733.4</ele><time>2026-04-29T09:25:26Z</time></trkpt><trkpt lat="42.156411342629994" lon="-7.981491846251708"><ele>733.8</ele><time>2026-04-29T09:25:27Z</time></trkpt><trkpt lat="42.15631317987654" lon="-7.981467372070772"><ele>734.2</ele><time>2026-04-29T09:25:28Z</time></trkpt><trkpt lat="42.156196048534255" lon="-7.98147029259113"><ele>734.6</ele><time>2026-04-29T09:25:29Z</time></trkpt><trkpt lat="42.15609173150615" lon="-7.98148027277246"><ele>735.0</ele><time>2026-04-29T09:25:30Z</time></trkpt><trkpt lat="42.15598965839812" lon="-7.981527035828463"><ele>735.0</ele><time>2026-04-29T09:25:32Z</time></trkpt><trkpt lat="42.15593036426847" lon="-7.981615638542881"><ele>735.0</ele><time>2026-04-29T09:25:33Z</time></trkpt><trkpt lat="42.155878229144044" lon="-7.981740261439563"><ele>735.0</ele><time>2026-04-29T09:25:34Z</time></trkpt><trkpt lat="42.155836723483205" lon="-7.9818833575308075"><ele>735.0</ele><time>2026-04-29T09:25:35Z</time></trkpt><trkpt lat="42.155797863885006" lon="-7.981995255944412"><ele>735.0</ele><time>2026-04-29T09:25:36Z</time></trkpt><trkpt lat="42.15572542373012" lon="-7.982068709700722"><ele>735.0</ele><time>2026-04-29T09:25:37Z</time></trkpt><trkpt lat="42.15560712915967" lon="-7.98214285414506"><ele>735.0</ele><time>2026-04-29T09:25:38Z</time></trkpt><trkpt lat="42.155494569782896" lon="-7.982250249767983"><ele>735.0</ele><time>2026-04-29T09:25:39Z</time></trkpt><trkpt lat="42.15542218152943" lon="-7.982330234218062"><ele>735.0</ele><time>2026-04-29T09:25:40Z</time></trkpt><trkpt lat="42.15535751551778" lon="-7.982360755789648"><ele>735.0</ele><time>2026-04-29T09:25:41Z</time></trkpt><trkpt lat="42.1552681854129" lon="-7.982344509333856"><ele>735.0</ele><time>2026-04-29T09:25:42Z</time></trkpt><trkpt lat="42.155132300042" lon="-7.982316246176933"><ele>735.0</ele><time>2026-04-29T09:25:43Z</time></trkpt><trkpt lat="42.155001895168226" lon="-7.982307473448749"><ele>735.0</ele><time>2026-04-29T09:25:44Z</time></trkpt><trkpt lat="42.15490900171294" lon="-7.982338635710269"><ele>735.0</ele><time>2026-04-29T09:25:45Z</time></trkpt><trkpt lat="42.15483307214189" lon="-7.982395292523512"><ele>735.4</ele><time>2026-04-29T09:25:46Z</time></trkpt><trkpt lat="42.15474879097874" lon="-7.982475834790858"><ele>735.8</ele><time>2026-04-29T09:25:47Z</time></trkpt><trkpt lat="42.154664767927216" lon="-7.982550707935633"><ele>736.2</ele><time>2026-04-29T09:25:48Z</time></trkpt><trkpt lat="42.15459602696078" lon="-7.982613975356139"><ele>736.6</ele><time>2026-04-29T09:25:49Z</time></trkpt><trkpt lat="42.15452096374231" lon="-7.982666711420392"><ele>737.0</ele><time>2026-04-29T09:25:50Z</time></trkpt><trkpt lat="42.1544446347834" lon="-7.982704832627005"><ele>737.0</ele><time>2026-04-29T09:25:51Z</time></trkpt><trkpt lat="42.15436896056389" lon="-7.982748300847008"><ele>737.0</ele><time>2026-04-29T09:25:52Z</time></trkpt><trkpt lat="42.15428978531887" lon="-7.982821531124021"><ele>737.0</ele><time>2026-04-29T09:25:54Z</time></trkpt><trkpt lat="42.15427299312586" lon="-7.982911393618787"><ele>737.0</ele><time>2026-04-29T09:25:56Z</time></trkpt><trkpt lat="42.15426336304911" lon="-7.982995980572631"><ele>737.0</ele><time>2026-04-29T09:25:57Z</time></trkpt><trkpt lat="42.154240177474954" lon="-7.983125014387557"><ele>737.0</ele><time>2026-04-29T09:25:58Z</time></trkpt><trkpt lat="42.1542035011372" lon="-7.983263020091904"><ele>739.6</ele><time>2026-04-29T09:25:59Z</time></trkpt><trkpt lat="42.154138916010375" lon="-7.983349392895115"><ele>742.2</ele><time>2026-04-29T09:26:00Z</time></trkpt><trkpt lat="42.15406694872896" lon="-7.983392471339448"><ele>744.8</ele><time>2026-04-29T09:26:01Z</time></trkpt><trkpt lat="42.15397938362314" lon="-7.983451771239708"><ele>747.4</ele><time>2026-04-29T09:26:03Z</time></trkpt><trkpt lat="42.15394336397226" lon="-7.983603821991419"><ele>750.0</ele><time>2026-04-29T09:26:05Z</time></trkpt><trkpt lat="42.15391963974658" lon="-7.983724886237452"><ele>751.5</ele><time>2026-04-29T09:26:06Z</time></trkpt><trkpt lat="42.153844907066194" lon="-7.983824527476276"><ele>753.0</ele><time>2026-04-29T09:26:07Z</time></trkpt><trkpt lat="42.15375828048576" lon="-7.983946815956762"><ele>754.5</ele><time>2026-04-29T09:26:08Z</time></trkpt><trkpt lat="42.15365221450008" lon="-7.984080159537436"><ele>756.0</ele><time>2026-04-29T09:26:09Z</time></trkpt><trkpt lat="42.15352868092892" lon="-7.984214746849588"><ele>756.8</ele><time>2026-04-29T09:26:10Z</time></trkpt><trkpt lat="42.15343214993691" lon="-7.984340993622233"><ele>757.5999999999999</ele><time>2026-04-29T09:26:11Z</time></trkpt><trkpt lat="42.15336955067463" lon="-7.9844273958109415"><ele>758.4</ele><time>2026-04-29T09:26:12Z</time></trkpt><trkpt lat="42.15333548512523" lon="-7.98452140785685"><ele>759.2</ele><time>2026-04-29T09:26:13Z</time></trkpt><trkpt lat="42.15330062094019" lon="-7.984661490883565"><ele>760.0</ele><time>2026-04-29T09:26:14Z</time></trkpt><trkpt lat="42.15323846306277" lon="-7.984820082523357"><ele>759.4</ele><time>2026-04-29T09:26:15Z</time></trkpt><trkpt lat="42.15316599675172" lon="-7.984921170830835"><ele>758.8</ele><time>2026-04-29T09:26:16Z</time></trkpt><trkpt lat="42.15309052974198" lon="-7.985034096914256"><ele>758.2</ele><time>2026-04-29T09:26:17Z</time></trkpt><trkpt lat="42.153032541268146" lon="-7.985138026502221"><ele>757.6</ele><time>2026-04-29T09:26:18Z</time></trkpt><trkpt lat="42.15297382024776" lon="-7.9852405683405046"><ele>757.0</ele><time>2026-04-29T09:26:19Z</time></trkpt><trkpt lat="42.15293498163068" lon="-7.985319477724227"><ele>757.0</ele><time>2026-04-29T09:26:20Z</time></trkpt><trkpt lat="42.152852223385565" lon="-7.9853673446495685"><ele>757.0</ele><time>2026-04-29T09:26:22Z</time></trkpt><trkpt lat="42.15277785278175" lon="-7.985333330274303"><ele>757.0</ele><time>2026-04-29T09:26:24Z</time></trkpt><trkpt lat="42.15273059027801" lon="-7.9852013536200435"><ele>757.0</ele><time>2026-04-29T09:26:26Z</time></trkpt><trkpt lat="42.15274398677599" lon="-7.985083890331497"><ele>757.0</ele><time>2026-04-29T09:26:27Z</time></trkpt><trkpt lat="42.15279259601325" lon="-7.984935367764531"><ele>757.0</ele><time>2026-04-29T09:26:28Z</time></trkpt><trkpt lat="42.15283761512024" lon="-7.984828462016714"><ele>757.0</ele><time>2026-04-29T09:26:29Z</time></trkpt><trkpt lat="42.15291995454762" lon="-7.984722248902608"><ele>757.0</ele><time>2026-04-29T09:26:31Z</time></trkpt><trkpt lat="42.15298685297525" lon="-7.984705064450255"><ele>757.0</ele><time>2026-04-29T09:26:32Z</time></trkpt><trkpt lat="42.1530848523517" lon="-7.984711841681523"><ele>757.0</ele><time>2026-04-29T09:26:33Z</time></trkpt><trkpt lat="42.153149146457146" lon="-7.984745670863771"><ele>757.0</ele><time>2026-04-29T09:26:34Z</time></trkpt><trkpt lat="42.15321345084855" lon="-7.9847487713804135"><ele>757.0</ele><time>2026-04-29T09:26:36Z</time></trkpt><trkpt lat="42.15318064412028" lon="-7.984647951313641"><ele>757.0</ele><time>2026-04-29T09:26:39Z</time></trkpt><trkpt lat="42.153066473720216" lon="-7.98463528334854"><ele>757.0</ele><time>2026-04-29T09:26:41Z</time></trkpt><trkpt lat="42.15299466497967" lon="-7.984581653696032"><ele>757.0</ele><time>2026-04-29T09:26:42Z</time></trkpt><trkpt lat="42.152931752610776" lon="-7.984497661647745"><ele>757.0</ele><time>2026-04-29T09:26:42.999Z</time></trkpt><trkpt lat="42.15288828352596" lon="-7.984432611649292"><ele>757.0</ele><time>2026-04-29T09:26:43.999Z</time></trkpt><trkpt lat="42.15283379314521" lon="-7.984357619771859"><ele>757.0</ele><time>2026-04-29T09:26:45.999Z</time></trkpt><trkpt lat="42.15275936759513" lon="-7.9842628944094685"><ele>757.0</ele><time>2026-04-29T09:26:47.999Z</time></trkpt><trkpt lat="42.15269683020645" lon="-7.984219516147964"><ele>757.0</ele><time>2026-04-29T09:26:48.999Z</time></trkpt><trkpt lat="42.15259858496521" lon="-7.984245813312619"><ele>757.0</ele><time>2026-04-29T09:26:51Z</time></trkpt><trkpt lat="42.15249986374797" lon="-7.984336667970585"><ele>757.0</ele><time>2026-04-29T09:26:53Z</time></trkpt><trkpt lat="42.1524501384141" lon="-7.984397111055046"><ele>757.0</ele><time>2026-04-29T09:26:54Z</time></trkpt><trkpt lat="42.15240035281951" lon="-7.98447517811105"><ele>757.0</ele><time>2026-04-29T09:26:55Z</time></trkpt><trkpt lat="42.152349746721036" lon="-7.984551677737084"><ele>757.0</ele><time>2026-04-29T09:26:56Z</time></trkpt><trkpt lat="42.15229145420055" lon="-7.984641748267234"><ele>757.0</ele><time>2026-04-29T09:26:57Z</time></trkpt><trkpt lat="42.15223987640734" lon="-7.9847170623474515"><ele>757.0</ele><time>2026-04-29T09:26:58Z</time></trkpt><trkpt lat="42.15219068907732" lon="-7.984772259689226"><ele>757.0</ele><time>2026-04-29T09:26:59Z</time></trkpt><trkpt lat="42.15207433747828" lon="-7.984887402062404"><ele>755.6666666666667</ele><time>2026-04-29T09:27:01Z</time></trkpt><trkpt lat="42.15199105517132" lon="-7.984928418603909"><ele>754.3333333333334</ele><time>2026-04-29T09:27:02Z</time></trkpt><trkpt lat="42.151907755329006" lon="-7.984969606417238"><ele>753.0</ele><time>2026-04-29T09:27:03Z</time></trkpt><trkpt lat="42.15184175418549" lon="-7.984993315142877"><ele>751.6666666666666</ele><time>2026-04-29T09:27:04Z</time></trkpt><trkpt lat="42.151764020763295" lon="-7.985034973825181"><ele>750.3333333333333</ele><time>2026-04-29T09:27:05Z</time></trkpt><trkpt lat="42.15169016308588" lon="-7.985073827492578"><ele>749.0</ele><time>2026-04-29T09:27:06Z</time></trkpt><trkpt lat="42.15162940337297" lon="-7.985104018380693"><ele>748.8333333333333</ele><time>2026-04-29T09:27:07Z</time></trkpt><trkpt lat="42.151570456205185" lon="-7.985135653324317"><ele>748.6666666666666</ele><time>2026-04-29T09:27:08Z</time></trkpt><trkpt lat="42.15148169408961" lon="-7.985147221901997"><ele>748.5</ele><time>2026-04-29T09:27:10Z</time></trkpt><trkpt lat="42.15141537031323" lon="-7.985152678780402"><ele>748.3333333333334</ele><time>2026-04-29T09:27:13Z</time></trkpt><trkpt lat="42.151329820229215" lon="-7.9851725150279576"><ele>748.1666666666667</ele><time>2026-04-29T09:27:17Z</time></trkpt><trkpt lat="42.15124096906062" lon="-7.985164081248325"><ele>748.0</ele><time>2026-04-29T09:27:19Z</time></trkpt><trkpt lat="42.15121696939271" lon="-7.985052927855938"><ele>746.5</ele><time>2026-04-29T09:27:22Z</time></trkpt><trkpt lat="42.15123406773344" lon="-7.984934396851813"><ele>745.0</ele><time>2026-04-29T09:27:23Z</time></trkpt><trkpt lat="42.15125900138277" lon="-7.984801102347805"><ele>743.5</ele><time>2026-04-29T09:27:24Z</time></trkpt><trkpt lat="42.151278702236" lon="-7.984699507370623"><ele>742.0</ele><time>2026-04-29T09:27:25Z</time></trkpt><trkpt lat="42.15131123821991" lon="-7.984602028304251"><ele>740.5</ele><time>2026-04-29T09:27:27Z</time></trkpt><trkpt lat="42.15132345783646" lon="-7.984505288664387"><ele>739.0</ele><time>2026-04-29T09:27:28Z</time></trkpt><trkpt lat="42.151347080167724" lon="-7.984360690719332"><ele>739.0</ele><time>2026-04-29T09:27:29Z</time></trkpt><trkpt lat="42.15136958069398" lon="-7.984207853880993"><ele>739.0</ele><time>2026-04-29T09:27:30Z</time></trkpt><trkpt lat="42.15140441924428" lon="-7.984044236423226"><ele>739.0</ele><time>2026-04-29T09:27:31Z</time></trkpt><trkpt lat="42.15143236184944" lon="-7.98387688226862"><ele>739.0</ele><time>2026-04-29T09:27:32Z</time></trkpt><trkpt lat="42.151445958898556" lon="-7.983724907278079"><ele>738.6</ele><time>2026-04-29T09:27:33Z</time></trkpt><trkpt lat="42.151459375408294" lon="-7.983622376315962"><ele>738.2</ele><time>2026-04-29T09:27:34Z</time></trkpt><trkpt lat="42.15148489599455" lon="-7.983502082016734"><ele>737.8000000000001</ele><time>2026-04-29T09:27:36Z</time></trkpt><trkpt lat="42.151507337104924" lon="-7.983405261291613"><ele>737.4000000000001</ele><time>2026-04-29T09:27:40Z</time></trkpt><trkpt lat="42.15157034225002" lon="-7.983174946235689"><ele>737.0</ele><time>2026-04-29T09:27:43Z</time></trkpt><trkpt lat="42.15163355566052" lon="-7.983007663814398"><ele>739.6</ele><time>2026-04-29T09:27:44Z</time></trkpt><trkpt lat="42.15169921742021" lon="-7.982926781643666"><ele>742.2</ele><time>2026-04-29T09:27:46Z</time></trkpt><trkpt lat="42.15174206101667" lon="-7.982834922393411"><ele>744.8</ele><time>2026-04-29T09:27:49Z</time></trkpt><trkpt lat="42.15178698816976" lon="-7.98290283538603"><ele>747.4</ele><time>2026-04-29T09:27:52Z</time></trkpt><trkpt lat="42.151808794093775" lon="-7.983080247675103"><ele>750.0</ele><time>2026-04-29T09:27:54Z</time></trkpt><trkpt lat="42.151838389055875" lon="-7.9832189100583895"><ele>750.0</ele><time>2026-04-29T09:27:56Z</time></trkpt><trkpt lat="42.15186658380774" lon="-7.983344790223117"><ele>750.0</ele><time>2026-04-29T09:27:58Z</time></trkpt><trkpt lat="42.1519459054901" lon="-7.983431389513767"><ele>750.0</ele><time>2026-04-29T09:28:00Z</time></trkpt><trkpt lat="42.15203995464389" lon="-7.983488227840843"><ele>750.0</ele><time>2026-04-29T09:28:02Z</time></trkpt><trkpt lat="42.15212530073269" lon="-7.983582182417707"><ele>750.0</ele><time>2026-04-29T09:28:03Z</time></trkpt><trkpt lat="42.15220546911855" lon="-7.98364137792289"><ele>750.0</ele><time>2026-04-29T09:28:04Z</time></trkpt><trkpt lat="42.15230761097893" lon="-7.983712420563747"><ele>750.0</ele><time>2026-04-29T09:28:05Z</time></trkpt><trkpt lat="42.15238531716526" lon="-7.983807388904398"><ele>750.0</ele><time>2026-04-29T09:28:06Z</time></trkpt><trkpt lat="42.15245167783077" lon="-7.983869812894951"><ele>750.0</ele><time>2026-04-29T09:28:07Z</time></trkpt><trkpt lat="42.15253097662814" lon="-7.983912178761724"><ele>750.0</ele><time>2026-04-29T09:28:08Z</time></trkpt><trkpt lat="42.15261101630923" lon="-7.983937389793516"><ele>752.2</ele><time>2026-04-29T09:28:09Z</time></trkpt><trkpt lat="42.152681504218634" lon="-7.983925465124975"><ele>754.4</ele><time>2026-04-29T09:28:10Z</time></trkpt><trkpt lat="42.15274431298639" lon="-7.983882828418654"><ele>756.5999999999999</ele><time>2026-04-29T09:28:11Z</time></trkpt><trkpt lat="42.15283795764891" lon="-7.983804850421227"><ele>758.8</ele><time>2026-04-29T09:28:12Z</time></trkpt><trkpt lat="42.15292144872128" lon="-7.983743688300913"><ele>761.0</ele><time>2026-04-29T09:28:13Z</time></trkpt><trkpt lat="42.15303772398322" lon="-7.9837476006239205"><ele>761.0</ele><time>2026-04-29T09:28:15Z</time></trkpt><trkpt lat="42.153105185719525" lon="-7.983819824241151"><ele>761.0</ele><time>2026-04-29T09:28:17Z</time></trkpt><trkpt lat="42.15314544224565" lon="-7.983901178735991"><ele>761.0</ele><time>2026-04-29T09:28:18Z</time></trkpt><trkpt lat="42.15319377576304" lon="-7.983976725976295"><ele>761.0</ele><time>2026-04-29T09:28:19Z</time></trkpt><trkpt lat="42.15327167037397" lon="-7.984036868990679"><ele>761.0</ele><time>2026-04-29T09:28:20Z</time></trkpt><trkpt lat="42.15336152531143" lon="-7.984086082584165"><ele>761.0</ele><time>2026-04-29T09:28:21Z</time></trkpt><trkpt lat="42.15343845460796" lon="-7.984124372084041"><ele>760.1666666666666</ele><time>2026-04-29T09:28:22Z</time></trkpt><trkpt lat="42.15351084097732" lon="-7.9841468157555795"><ele>759.3333333333333</ele><time>2026-04-29T09:28:23Z</time></trkpt><trkpt lat="42.15360580968958" lon="-7.984130205766431"><ele>758.5</ele><time>2026-04-29T09:28:25Z</time></trkpt><trkpt lat="42.15367331976972" lon="-7.984049902308647"><ele>757.6666666666666</ele><time>2026-04-29T09:28:27Z</time></trkpt><trkpt lat="42.15373643879991" lon="-7.9839670902107045"><ele>756.8333333333334</ele><time>2026-04-29T09:28:28Z</time></trkpt><trkpt lat="42.15380411275785" lon="-7.983892295123729"><ele>756.0</ele><time>2026-04-29T09:28:29Z</time></trkpt><trkpt lat="42.15385903455312" lon="-7.983823565489983"><ele>756.0</ele><time>2026-04-29T09:28:30Z</time></trkpt><trkpt lat="42.15390316499647" lon="-7.983745533095396"><ele>756.0</ele><time>2026-04-29T09:28:31Z</time></trkpt><trkpt lat="42.15395066753515" lon="-7.983666155489109"><ele>756.0</ele><time>2026-04-29T09:28:32Z</time></trkpt><trkpt lat="42.153978320009635" lon="-7.983576075574207"><ele>756.0</ele><time>2026-04-29T09:28:33Z</time></trkpt><trkpt lat="42.15397380964456" lon="-7.983486411783393"><ele>756.0</ele><time>2026-04-29T09:28:34Z</time></trkpt><trkpt lat="42.15402114925775" lon="-7.983385446213437"><ele>756.0</ele><time>2026-04-29T09:28:36Z</time></trkpt><trkpt lat="42.154158364786426" lon="-7.983290233795202"><ele>752.8333333333334</ele><time>2026-04-29T09:28:38Z</time></trkpt><trkpt lat="42.15421626415705" lon="-7.98323313086831"><ele>749.6666666666666</ele><time>2026-04-29T09:28:39Z</time></trkpt><trkpt lat="42.154265759198" lon="-7.983097224206461"><ele>746.5</ele><time>2026-04-29T09:28:41Z</time></trkpt><trkpt lat="42.15426305985011" lon="-7.982992120666103"><ele>743.3333333333333</ele><time>2026-04-29T09:28:43Z</time></trkpt><trkpt lat="42.15433369358152" lon="-7.982959833181617"><ele>740.1666666666666</ele><time>2026-04-29T09:28:47Z</time></trkpt><trkpt lat="42.154405471642974" lon="-7.983007044658918"><ele>737.0</ele><time>2026-04-29T09:28:49Z</time></trkpt><trkpt lat="42.15447442642074" lon="-7.9829980161573895"><ele>737.0</ele><time>2026-04-29T09:28:51Z</time></trkpt><trkpt lat="42.154532570024976" lon="-7.982905794928905"><ele>737.0</ele><time>2026-04-29T09:28:54Z</time></trkpt><trkpt lat="42.15455489697798" lon="-7.982771674632995"><ele>737.0</ele><time>2026-04-29T09:28:57Z</time></trkpt><trkpt lat="42.15453978315917" lon="-7.9826767840972686"><ele>737.0</ele><time>2026-04-29T09:29:00Z</time></trkpt><trkpt lat="42.154449807958045" lon="-7.982694944349945"><ele>737.0</ele><time>2026-04-29T09:29:03Z</time></trkpt><trkpt lat="42.15438734669391" lon="-7.98274523931537"><ele>737.0</ele><time>2026-04-29T09:29:05Z</time></trkpt><trkpt lat="42.15431225743847" lon="-7.982782938642397"><ele>737.0</ele><time>2026-04-29T09:29:09Z</time></trkpt><trkpt lat="42.15424677100543" lon="-7.982814020343465"><ele>737.0</ele><time>2026-04-29T09:29:10Z</time></trkpt><trkpt lat="42.15417207619045" lon="-7.982807400697513"><ele>737.0</ele><time>2026-04-29T09:29:12Z</time></trkpt><trkpt lat="42.15405861054079" lon="-7.98275203805508"><ele>737.0</ele><time>2026-04-29T09:29:14Z</time></trkpt><trkpt lat="42.15398408269007" lon="-7.982707042660714"><ele>737.0</ele><time>2026-04-29T09:29:17Z</time></trkpt><trkpt lat="42.1538895408155" lon="-7.982705371193102"><ele>737.0</ele><time>2026-04-29T09:29:28Z</time></trkpt><trkpt lat="42.15378819411901" lon="-7.982721907824487"><ele>736.25</ele><time>2026-04-29T09:29:30Z</time></trkpt><trkpt lat="42.15368634013191" lon="-7.982678660887172"><ele>735.5</ele><time>2026-04-29T09:29:32Z</time></trkpt><trkpt lat="42.15359048588193" lon="-7.982588914089701"><ele>734.75</ele><time>2026-04-29T09:29:34Z</time></trkpt><trkpt lat="42.153545390721476" lon="-7.982454163179858"><ele>734.0</ele><time>2026-04-29T09:29:36Z</time></trkpt><trkpt lat="42.15345252712453" lon="-7.982347092610183"><ele>734.0</ele><time>2026-04-29T09:29:38Z</time></trkpt><trkpt lat="42.15337009813414" lon="-7.982300110818403"><ele>734.0</ele><time>2026-04-29T09:29:40Z</time></trkpt><trkpt lat="42.15327193551367" lon="-7.982289835127199"><ele>734.0</ele><time>2026-04-29T09:29:42Z</time></trkpt><trkpt lat="42.1531416176401" lon="-7.9822999928098515"><ele>734.0</ele><time>2026-04-29T09:29:44Z</time></trkpt><trkpt lat="42.15304605631682" lon="-7.982282295928866"><ele>734.0</ele><time>2026-04-29T09:29:45Z</time></trkpt><trkpt lat="42.15295744944223" lon="-7.982268781455341"><ele>735.5</ele><time>2026-04-29T09:29:46Z</time></trkpt><trkpt lat="42.15288753007152" lon="-7.982251126534373"><ele>737.0</ele><time>2026-04-29T09:29:47Z</time></trkpt><trkpt lat="42.152821602246924" lon="-7.982236983585156"><ele>738.5</ele><time>2026-04-29T09:29:48Z</time></trkpt><trkpt lat="42.152757194959044" lon="-7.982210477002697"><ele>740.0</ele><time>2026-04-29T09:29:49Z</time></trkpt><trkpt lat="42.1526661266396" lon="-7.982145674102896"><ele>741.5</ele><time>2026-04-29T09:29:50Z</time></trkpt><trkpt lat="42.15255854560313" lon="-7.982085489766696"><ele>743.0</ele><time>2026-04-29T09:29:51Z</time></trkpt><trkpt lat="42.1524655797294" lon="-7.982044417631784"><ele>743.0</ele><time>2026-04-29T09:29:52Z</time></trkpt><trkpt lat="42.15239063552335" lon="-7.982023154221257"><ele>743.0</ele><time>2026-04-29T09:29:53Z</time></trkpt><trkpt lat="42.152253439563594" lon="-7.982011362412214"><ele>743.0</ele><time>2026-04-29T09:29:55Z</time></trkpt><trkpt lat="42.15216888918774" lon="-7.982016760767854"><ele>743.0</ele><time>2026-04-29T09:29:56Z</time></trkpt><trkpt lat="42.15209187788592" lon="-7.982019551707238"><ele>743.0</ele><time>2026-04-29T09:29:57Z</time></trkpt><trkpt lat="42.15200636632283" lon="-7.9820226135407095"><ele>742.6666666666666</ele><time>2026-04-29T09:29:58Z</time></trkpt><trkpt lat="42.151897244883116" lon="-7.982025680875648"><ele>742.3333333333333</ele><time>2026-04-29T09:30:00Z</time></trkpt><trkpt lat="42.15184391335457" lon="-7.9820797768206075"><ele>742.0</ele><time>2026-04-29T09:30:03Z</time></trkpt><trkpt lat="42.15180207571388" lon="-7.982198375754919"><ele>741.6666666666666</ele><time>2026-04-29T09:30:05Z</time></trkpt><trkpt lat="42.1517858100551" lon="-7.982283513509213"><ele>741.3333333333334</ele><time>2026-04-29T09:30:06Z</time></trkpt><trkpt lat="42.15177269817038" lon="-7.982385108825514"><ele>741.0</ele><time>2026-04-29T09:30:07Z</time></trkpt><trkpt lat="42.15176243335868" lon="-7.982469876934761"><ele>742.8</ele><time>2026-04-29T09:30:08Z</time></trkpt><trkpt lat="42.15174689839515" lon="-7.982601076807643"><ele>744.5999999999999</ele><time>2026-04-29T09:30:10Z</time></trkpt><trkpt lat="42.15174926132588" lon="-7.982751516263485"><ele>746.4</ele><time>2026-04-29T09:30:12Z</time></trkpt><trkpt lat="42.15177825228797" lon="-7.982934717010523"><ele>748.2</ele><time>2026-04-29T09:30:14Z</time></trkpt><trkpt lat="42.15179586356009" lon="-7.983044872597201"><ele>750.0</ele><time>2026-04-29T09:30:15Z</time></trkpt><trkpt lat="42.15181383479185" lon="-7.983153662688334"><ele>750.0</ele><time>2026-04-29T09:30:16Z</time></trkpt><trkpt lat="42.151827429968975" lon="-7.983258088121535"><ele>750.0</ele><time>2026-04-29T09:30:17Z</time></trkpt><trkpt lat="42.15184819957922" lon="-7.983338434815091"><ele>750.0</ele><time>2026-04-29T09:30:18Z</time></trkpt><trkpt lat="42.151903933599414" lon="-7.98344515606488"><ele>750.0</ele><time>2026-04-29T09:30:20Z</time></trkpt><trkpt lat="42.15201836070092" lon="-7.983496958470983"><ele>750.0</ele><time>2026-04-29T09:30:22Z</time></trkpt><trkpt lat="42.15210234772695" lon="-7.983539668383777"><ele>750.0</ele><time>2026-04-29T09:30:23Z</time></trkpt><trkpt lat="42.15219087962505" lon="-7.98360378042174"><ele>750.0</ele><time>2026-04-29T09:30:24Z</time></trkpt><trkpt lat="42.15227663147866" lon="-7.983688139865583"><ele>750.0</ele><time>2026-04-29T09:30:25Z</time></trkpt><trkpt lat="42.15235834198578" lon="-7.98377152265681"><ele>750.0</ele><time>2026-04-29T09:30:26Z</time></trkpt><trkpt lat="42.15242461530951" lon="-7.983848268743441"><ele>750.0</ele><time>2026-04-29T09:30:27Z</time></trkpt><trkpt lat="42.152493213615664" lon="-7.983903703386699"><ele>750.0</ele><time>2026-04-29T09:30:28Z</time></trkpt><trkpt lat="42.152584545537366" lon="-7.983919404456662"><ele>752.2</ele><time>2026-04-29T09:30:29Z</time></trkpt><trkpt lat="42.152664989452354" lon="-7.98391825845283"><ele>754.4</ele><time>2026-04-29T09:30:30Z</time></trkpt><trkpt lat="42.15273436832561" lon="-7.983895907220209"><ele>756.5999999999999</ele><time>2026-04-29T09:30:31Z</time></trkpt><trkpt lat="42.1528547829458" lon="-7.983842222777251"><ele>758.8</ele><time>2026-04-29T09:30:32Z</time></trkpt><trkpt lat="42.15291979663156" lon="-7.983758655888185"><ele>761.0</ele><time>2026-04-29T09:30:33Z</time></trkpt><trkpt lat="42.15302546965414" lon="-7.983758467841428"><ele>761.0</ele><time>2026-04-29T09:30:35Z</time></trkpt><trkpt lat="42.15309822148406" lon="-7.983819869899029"><ele>761.0</ele><time>2026-04-29T09:30:37Z</time></trkpt><trkpt lat="42.15316319435912" lon="-7.983951389957194"><ele>761.0</ele><time>2026-04-29T09:30:39Z</time></trkpt><trkpt lat="42.15323159717349" lon="-7.98401753739914"><ele>761.0</ele><time>2026-04-29T09:30:40Z</time></trkpt><trkpt lat="42.15334412322453" lon="-7.984088043521689"><ele>761.0</ele><time>2026-04-29T09:30:41Z</time></trkpt><trkpt lat="42.15343948299022" lon="-7.984134857108489"><ele>760.0</ele><time>2026-04-29T09:30:42Z</time></trkpt><trkpt lat="42.15351191758941" lon="-7.984164078668318"><ele>759.0</ele><time>2026-04-29T09:30:43Z</time></trkpt><trkpt lat="42.15362230609127" lon="-7.9841310259958345"><ele>758.0</ele><time>2026-04-29T09:30:45Z</time></trkpt><trkpt lat="42.15372218175033" lon="-7.983994704197548"><ele>757.0</ele><time>2026-04-29T09:30:47Z</time></trkpt><trkpt lat="42.15380444056289" lon="-7.983895748408279"><ele>756.0</ele><time>2026-04-29T09:30:48Z</time></trkpt><trkpt lat="42.153875688255226" lon="-7.983802030819516"><ele>756.0</ele><time>2026-04-29T09:30:49Z</time></trkpt><trkpt lat="42.15392365878267" lon="-7.983710534549161"><ele>756.0</ele><time>2026-04-29T09:30:50Z</time></trkpt><trkpt lat="42.15396428344604" lon="-7.983620169741482"><ele>756.0</ele><time>2026-04-29T09:30:51Z</time></trkpt><trkpt lat="42.15398278593958" lon="-7.983472294705592"><ele>756.0</ele><time>2026-04-29T09:30:53Z</time></trkpt><trkpt lat="42.154029754480995" lon="-7.983378505076129"><ele>756.0</ele><time>2026-04-29T09:30:55Z</time></trkpt><trkpt lat="42.154105394779876" lon="-7.983334500667082"><ele>756.0</ele><time>2026-04-29T09:30:56Z</time></trkpt><trkpt lat="42.154203178844696" lon="-7.983249439542876"><ele>752.8333333333334</ele><time>2026-04-29T09:30:57Z</time></trkpt><trkpt lat="42.15425787674951" lon="-7.983167787048528"><ele>749.6666666666666</ele><time>2026-04-29T09:30:58Z</time></trkpt><trkpt lat="42.154282411683134" lon="-7.983069597195223"><ele>746.5</ele><time>2026-04-29T09:30:59Z</time></trkpt><trkpt lat="42.1542844091418" lon="-7.982964485960577"><ele>743.3333333333333</ele><time>2026-04-29T09:31:00Z</time></trkpt><trkpt lat="42.154286660917016" lon="-7.982875470434268"><ele>740.1666666666666</ele><time>2026-04-29T09:31:01Z</time></trkpt><trkpt lat="42.154309860791045" lon="-7.982783571652884"><ele>737.0</ele><time>2026-04-29T09:31:03Z</time></trkpt><trkpt lat="42.154393255403065" lon="-7.982735575667383"><ele>737.0</ele><time>2026-04-29T09:31:05Z</time></trkpt><trkpt lat="42.154473307436234" lon="-7.982699257332157"><ele>737.0</ele><time>2026-04-29T09:31:06Z</time></trkpt><trkpt lat="42.15457742586737" lon="-7.9826376661268315"><ele>737.0</ele><time>2026-04-29T09:31:07Z</time></trkpt><trkpt lat="42.15468678383435" lon="-7.982554632856765"><ele>737.0</ele><time>2026-04-29T09:31:08Z</time></trkpt><trkpt lat="42.154807919963" lon="-7.982450832823842"><ele>736.5</ele><time>2026-04-29T09:31:09Z</time></trkpt><trkpt lat="42.154932457046215" lon="-7.9823476697431115"><ele>736.0</ele><time>2026-04-29T09:31:10Z</time></trkpt><trkpt lat="42.15503453228465" lon="-7.982288838451751"><ele>735.5</ele><time>2026-04-29T09:31:11Z</time></trkpt><trkpt lat="42.155127950082964" lon="-7.982265407082972"><ele>735.0</ele><time>2026-04-29T09:31:12Z</time></trkpt><trkpt lat="42.15524110506324" lon="-7.982289151245254"><ele>735.0</ele><time>2026-04-29T09:31:13Z</time></trkpt><trkpt lat="42.155381015582435" lon="-7.982317544047114"><ele>735.0</ele><time>2026-04-29T09:31:14Z</time></trkpt><trkpt lat="42.15547567085663" lon="-7.982303612015301"><ele>735.0</ele><time>2026-04-29T09:31:15Z</time></trkpt><trkpt lat="42.155543365240675" lon="-7.98224970505255"><ele>735.0</ele><time>2026-04-29T09:31:16Z</time></trkpt><trkpt lat="42.15562191558244" lon="-7.982140416280193"><ele>735.0</ele><time>2026-04-29T09:31:17Z</time></trkpt><trkpt lat="42.155729778390146" lon="-7.982014462225054"><ele>735.0</ele><time>2026-04-29T09:31:18Z</time></trkpt><trkpt lat="42.15581742881029" lon="-7.981941588850629"><ele>735.0</ele><time>2026-04-29T09:31:19Z</time></trkpt><trkpt lat="42.15587304106657" lon="-7.981877975934599"><ele>735.0</ele><time>2026-04-29T09:31:20Z</time></trkpt><trkpt lat="42.15590451372968" lon="-7.981768063780806"><ele>735.0</ele><time>2026-04-29T09:31:21Z</time></trkpt><trkpt lat="42.15594089085598" lon="-7.981622711891813"><ele>735.0</ele><time>2026-04-29T09:31:22Z</time></trkpt><trkpt lat="42.15599324015807" lon="-7.9815229009036734"><ele>735.0</ele><time>2026-04-29T09:31:23Z</time></trkpt><trkpt lat="42.15606483409026" lon="-7.981460006275077"><ele>735.0</ele><time>2026-04-29T09:31:24Z</time></trkpt><trkpt lat="42.15613675875642" lon="-7.981442351340253"><ele>735.0</ele><time>2026-04-29T09:31:25Z</time></trkpt><trkpt lat="42.15622668229778" lon="-7.98145241890532"><ele>735.0</ele><time>2026-04-29T09:31:26Z</time></trkpt><trkpt lat="42.1563204613828" lon="-7.981460902062647"><ele>735.0</ele><time>2026-04-29T09:31:27Z</time></trkpt><trkpt lat="42.156433276009025" lon="-7.9814757160068135"><ele>734.4</ele><time>2026-04-29T09:31:28Z</time></trkpt><trkpt lat="42.156558539454664" lon="-7.981528894857544"><ele>733.8</ele><time>2026-04-29T09:31:29Z</time></trkpt><trkpt lat="42.1566749600515" lon="-7.981608184319605"><ele>733.2</ele><time>2026-04-29T09:31:30Z</time></trkpt><trkpt lat="42.15675206344644" lon="-7.981665420469734"><ele>732.6</ele><time>2026-04-29T09:31:31Z</time></trkpt><trkpt lat="42.15684557036085" lon="-7.981633830770463"><ele>732.0</ele><time>2026-04-29T09:31:34Z</time></trkpt><trkpt lat="42.15691313214209" lon="-7.981507592964163"><ele>732.0</ele><time>2026-04-29T09:31:36Z</time></trkpt><trkpt lat="42.15696545552597" lon="-7.981433564679013"><ele>732.0</ele><time>2026-04-29T09:31:37Z</time></trkpt><trkpt lat="42.15703499748091" lon="-7.981362386720268"><ele>732.0</ele><time>2026-04-29T09:31:38Z</time></trkpt><trkpt lat="42.157111514217114" lon="-7.981277627029007"><ele>732.0</ele><time>2026-04-29T09:31:39Z</time></trkpt><trkpt lat="42.157194797190726" lon="-7.981190729569593"><ele>732.0</ele><time>2026-04-29T09:31:40Z</time></trkpt><trkpt lat="42.15727375517684" lon="-7.981112309977654"><ele>732.0</ele><time>2026-04-29T09:31:41Z</time></trkpt><trkpt lat="42.15733794123937" lon="-7.981051474268135"><ele>732.0</ele><time>2026-04-29T09:31:42Z</time></trkpt><trkpt lat="42.15740535069798" lon="-7.980994708373896"><ele>732.0</ele><time>2026-04-29T09:31:43Z</time></trkpt><trkpt lat="42.157470526046474" lon="-7.980947794828281"><ele>732.0</ele><time>2026-04-29T09:31:44Z</time></trkpt><trkpt lat="42.15751866251155" lon="-7.980875523468916"><ele>732.0</ele><time>2026-04-29T09:31:45Z</time></trkpt><trkpt lat="42.15755702801014" lon="-7.980795547734626"><ele>732.0</ele><time>2026-04-29T09:31:46Z</time></trkpt><trkpt lat="42.15763206967515" lon="-7.980712304536318"><ele>730.8333333333334</ele><time>2026-04-29T09:31:48Z</time></trkpt><trkpt lat="42.15770960386028" lon="-7.980627883158018"><ele>729.6666666666666</ele><time>2026-04-29T09:31:50Z</time></trkpt><trkpt lat="42.15773534042208" lon="-7.980544143183024"><ele>728.5</ele><time>2026-04-29T09:31:51Z</time></trkpt><trkpt lat="42.15778561494557" lon="-7.980440777450467"><ele>727.3333333333333</ele><time>2026-04-29T09:31:52Z</time></trkpt><trkpt lat="42.15781547418909" lon="-7.980354498756359"><ele>726.1666666666666</ele><time>2026-04-29T09:31:53Z</time></trkpt><trkpt lat="42.15785292694113" lon="-7.980284918408252"><ele>725.0</ele><time>2026-04-29T09:31:54Z</time></trkpt><trkpt lat="42.157938214333164" lon="-7.980182850222159"><ele>725.0</ele><time>2026-04-29T09:31:56Z</time></trkpt><trkpt lat="42.15799701104371" lon="-7.980101045379798"><ele>725.0</ele><time>2026-04-29T09:31:58Z</time></trkpt><trkpt lat="42.15804508105011" lon="-7.980031134159502"><ele>725.0</ele><time>2026-04-29T09:32:01Z</time></trkpt><trkpt lat="42.15812590976612" lon="-7.980008771459534"><ele>725.0</ele><time>2026-04-29T09:32:05Z</time></trkpt><trkpt lat="42.15812912543745" lon="-7.980095846082669"><ele>725.0</ele><time>2026-04-29T09:32:07Z</time></trkpt><trkpt lat="42.158116068064224" lon="-7.980190013811942"><ele>725.0</ele><time>2026-04-29T09:32:08Z</time></trkpt><trkpt lat="42.1581058333623" lon="-7.9802890186865"><ele>725.0</ele><time>2026-04-29T09:32:09Z</time></trkpt><trkpt lat="42.15810587497831" lon="-7.980401025402085"><ele>725.0</ele><time>2026-04-29T09:32:10Z</time></trkpt><trkpt lat="42.158107397275245" lon="-7.980497451342733"><ele>725.0</ele><time>2026-04-29T09:32:11Z</time></trkpt><trkpt lat="42.158137209575095" lon="-7.980615727249715"><ele>725.0</ele><time>2026-04-29T09:32:13Z</time></trkpt><trkpt lat="42.158266730342454" lon="-7.9806399869272715"><ele>725.0</ele><time>2026-04-29T09:32:16Z</time></trkpt><trkpt lat="42.15838392376091" lon="-7.980614355687704"><ele>725.0</ele><time>2026-04-29T09:32:18Z</time></trkpt><trkpt lat="42.15846062793001" lon="-7.980610677598453"><ele>720.75</ele><time>2026-04-29T09:32:19Z</time></trkpt><trkpt lat="42.158565018307655" lon="-7.9806062095359005"><ele>716.5</ele><time>2026-04-29T09:32:20Z</time></trkpt><trkpt lat="42.15867566267448" lon="-7.980587183573341"><ele>712.25</ele><time>2026-04-29T09:32:21Z</time></trkpt><trkpt lat="42.15882267245713" lon="-7.980577252230362"><ele>708.0</ele><time>2026-04-29T09:32:22Z</time></trkpt><trkpt lat="42.158968039057854" lon="-7.980561537876929"><ele>704.75</ele><time>2026-04-29T09:32:23Z</time></trkpt><trkpt lat="42.15909394227317" lon="-7.980542540375143"><ele>701.5</ele><time>2026-04-29T09:32:24Z</time></trkpt><trkpt lat="42.1592100883577" lon="-7.980538017478454"><ele>698.25</ele><time>2026-04-29T09:32:25Z</time></trkpt><trkpt lat="42.159321544943246" lon="-7.980526225804184"><ele>695.0</ele><time>2026-04-29T09:32:26Z</time></trkpt><trkpt lat="42.159439090839584" lon="-7.980513453690447"><ele>695.0</ele><time>2026-04-29T09:32:27Z</time></trkpt><trkpt lat="42.15954728951515" lon="-7.980510363531338"><ele>695.0</ele><time>2026-04-29T09:32:28Z</time></trkpt><trkpt lat="42.159647816440874" lon="-7.980508109610063"><ele>695.0</ele><time>2026-04-29T09:32:29Z</time></trkpt><trkpt lat="42.15972815423795" lon="-7.98050282524471"><ele>695.0</ele><time>2026-04-29T09:32:30Z</time></trkpt><trkpt lat="42.15981731568929" lon="-7.9805275935774675"><ele>695.0</ele><time>2026-04-29T09:32:32Z</time></trkpt><trkpt lat="42.15985717833262" lon="-7.980649463756119"><ele>695.8</ele><time>2026-04-29T09:32:35Z</time></trkpt><trkpt lat="42.15987202905925" lon="-7.980733528761555"><ele>696.6</ele><time>2026-04-29T09:32:36Z</time></trkpt><trkpt lat="42.15989468015156" lon="-7.980831248698483"><ele>697.4000000000001</ele><time>2026-04-29T09:32:37Z</time></trkpt><trkpt lat="42.15985619653345" lon="-7.981032794863187"><ele>698.2</ele><time>2026-04-29T09:32:38Z</time></trkpt><trkpt lat="42.15985852759696" lon="-7.98121212666821"><ele>699.0</ele><time>2026-04-29T09:32:39Z</time></trkpt><trkpt lat="42.1598568085833" lon="-7.981371815382835"><ele>699.0</ele><time>2026-04-29T09:32:40Z</time></trkpt><trkpt lat="42.15986426949872" lon="-7.981527970928889"><ele>699.0</ele><time>2026-04-29T09:32:41Z</time></trkpt><trkpt lat="42.159865113216846" lon="-7.981624238492929"><ele>699.0</ele><time>2026-04-29T09:32:42Z</time></trkpt><trkpt lat="42.15991075170518" lon="-7.981687242610594"><ele>699.0</ele><time>2026-04-29T09:32:44Z</time></trkpt><trkpt lat="42.15997537292752" lon="-7.981762253077642"><ele>699.0</ele><time>2026-04-29T09:32:46Z</time></trkpt><trkpt lat="42.16007189657409" lon="-7.981816660582436"><ele>699.0</ele><time>2026-04-29T09:32:48Z</time></trkpt><trkpt lat="42.16013137424305" lon="-7.981855090882965"><ele>698.5</ele><time>2026-04-29T09:32:49Z</time></trkpt><trkpt lat="42.1601900021449" lon="-7.981903740322066"><ele>698.0</ele><time>2026-04-29T09:32:50Z</time></trkpt><trkpt lat="42.160295118209916" lon="-7.98195647656"><ele>697.5</ele><time>2026-04-29T09:32:52Z</time></trkpt><trkpt lat="42.16040727624817" lon="-7.982014607571709"><ele>697.0</ele><time>2026-04-29T09:32:54Z</time></trkpt><trkpt lat="42.16047392050335" lon="-7.982028599189145"><ele>696.5</ele><time>2026-04-29T09:32:55Z</time></trkpt><trkpt lat="42.16053932171384" lon="-7.982055746621953"><ele>696.0</ele><time>2026-04-29T09:32:56Z</time></trkpt><trkpt lat="42.16061207409794" lon="-7.982090873968955"><ele>696.0</ele><time>2026-04-29T09:32:58Z</time></trkpt><trkpt lat="42.16064032548015" lon="-7.981974589490075"><ele>696.0</ele><time>2026-04-29T09:33:00Z</time></trkpt><trkpt lat="42.16064190008668" lon="-7.981879551552778"><ele>696.0</ele><time>2026-04-29T09:33:01Z</time></trkpt><trkpt lat="42.16066262284005" lon="-7.981762303951384"><ele>696.0</ele><time>2026-04-29T09:33:02Z</time></trkpt><trkpt lat="42.16067472530845" lon="-7.981668892147154"><ele>696.0</ele><time>2026-04-29T09:33:03Z</time></trkpt><trkpt lat="42.16069195115265" lon="-7.981571615617781"><ele>696.0</ele><time>2026-04-29T09:33:04Z</time></trkpt><trkpt lat="42.16073666866884" lon="-7.98145432656381"><ele>695.0</ele><time>2026-04-29T09:33:06Z</time></trkpt><trkpt lat="42.160881739075656" lon="-7.981419800362321"><ele>694.0</ele><time>2026-04-29T09:33:08Z</time></trkpt><trkpt lat="42.16095221984632" lon="-7.98141046809684"><ele>693.0</ele><time>2026-04-29T09:33:09Z</time></trkpt><trkpt lat="42.161054573783126" lon="-7.981431428264976"><ele>692.0</ele><time>2026-04-29T09:33:10Z</time></trkpt><trkpt lat="42.16113865874004" lon="-7.981443121852302"><ele>691.0</ele><time>2026-04-29T09:33:11Z</time></trkpt><trkpt lat="42.161236039889324" lon="-7.981480649581221"><ele>691.0</ele><time>2026-04-29T09:33:13Z</time></trkpt><trkpt lat="42.16132228204222" lon="-7.98152059381883"><ele>691.0</ele><time>2026-04-29T09:33:14Z</time></trkpt><trkpt lat="42.16145230490167" lon="-7.981572714595842"><ele>691.0</ele><time>2026-04-29T09:33:15Z</time></trkpt><trkpt lat="42.1615809411524" lon="-7.981556374144193"><ele>691.0</ele><time>2026-04-29T09:33:16Z</time></trkpt><trkpt lat="42.16169679028683" lon="-7.98153157886505"><ele>690.1999999999999</ele><time>2026-04-29T09:33:17Z</time></trkpt><trkpt lat="42.161814049828784" lon="-7.981518821334123"><ele>689.4</ele><time>2026-04-29T09:33:18Z</time></trkpt><trkpt lat="42.161913237261736" lon="-7.981496232783085"><ele>688.6</ele><time>2026-04-29T09:33:19Z</time></trkpt><trkpt lat="42.16198402740823" lon="-7.981472515913823"><ele>687.8</ele><time>2026-04-29T09:33:20Z</time></trkpt><trkpt lat="42.16207182564464" lon="-7.981465297637688"><ele>687.0</ele><time>2026-04-29T09:33:22Z</time></trkpt><trkpt lat="42.16212410481228" lon="-7.98154363494153"><ele>687.0</ele><time>2026-04-29T09:33:24Z</time></trkpt><trkpt lat="42.162167288586694" lon="-7.98165995380766"><ele>687.0</ele><time>2026-04-29T09:33:25Z</time></trkpt><trkpt lat="42.162198013099996" lon="-7.9818048821748535"><ele>687.0</ele><time>2026-04-29T09:33:26Z</time></trkpt><trkpt lat="42.1622383668238" lon="-7.981946785095952"><ele>687.0</ele><time>2026-04-29T09:33:27Z</time></trkpt><trkpt lat="42.16227860159218" lon="-7.982053516076417"><ele>687.0</ele><time>2026-04-29T09:33:28Z</time></trkpt><trkpt lat="42.16234809909933" lon="-7.982127777869253"><ele>685.3333333333334</ele><time>2026-04-29T09:33:29Z</time></trkpt><trkpt lat="42.16241855410764" lon="-7.982185342163182"><ele>683.6666666666666</ele><time>2026-04-29T09:33:30Z</time></trkpt><trkpt lat="42.162478332286646" lon="-7.982219590708744"><ele>682.0</ele><time>2026-04-29T09:33:31Z</time></trkpt><trkpt lat="42.162574648519914" lon="-7.982268296667847"><ele>680.3333333333333</ele><time>2026-04-29T09:33:33Z</time></trkpt><trkpt lat="42.162645347748374" lon="-7.98224043146878"><ele>678.6666666666666</ele><time>2026-04-29T09:33:34Z</time></trkpt><trkpt lat="42.16271977418044" lon="-7.982257481808824"><ele>677.0</ele><time>2026-04-29T09:33:35Z</time></trkpt><trkpt lat="42.16278241958446" lon="-7.982296346557905"><ele>677.0</ele><time>2026-04-29T09:33:36Z</time></trkpt><trkpt lat="42.16284482244726" lon="-7.982339560192923"><ele>677.0</ele><time>2026-04-29T09:33:37Z</time></trkpt><trkpt lat="42.16292143148201" lon="-7.982363613457531"><ele>677.0</ele><time>2026-04-29T09:33:38Z</time></trkpt><trkpt lat="42.16304382904577" lon="-7.9823506958575905"><ele>677.0</ele><time>2026-04-29T09:33:40Z</time></trkpt><trkpt lat="42.16310112941104" lon="-7.982285675436685"><ele>677.0</ele><time>2026-04-29T09:33:41Z</time></trkpt><trkpt lat="42.16317421939121" lon="-7.982186810670857"><ele>674.8</ele><time>2026-04-29T09:33:42Z</time></trkpt><trkpt lat="42.16324466605048" lon="-7.982071214400425"><ele>672.6</ele><time>2026-04-29T09:33:43Z</time></trkpt><trkpt lat="42.16331732272438" lon="-7.98194938325766"><ele>670.4</ele><time>2026-04-29T09:33:44Z</time></trkpt><trkpt lat="42.163402384473684" lon="-7.9818545375557015"><ele>668.1999999999999</ele><time>2026-04-29T09:33:45Z</time></trkpt><trkpt lat="42.1634614473651" lon="-7.981778971362451"><ele>666.0</ele><time>2026-04-29T09:33:46Z</time></trkpt><trkpt lat="42.163572799671876" lon="-7.981740428338058"><ele>664.8333333333334</ele><time>2026-04-29T09:33:47Z</time></trkpt><trkpt lat="42.163640915799085" lon="-7.981678903614362"><ele>663.6666666666666</ele><time>2026-04-29T09:33:48Z</time></trkpt><trkpt lat="42.16369506067525" lon="-7.981617752000728"><ele>662.5</ele><time>2026-04-29T09:33:49Z</time></trkpt><trkpt lat="42.16376184587561" lon="-7.981504386973951"><ele>661.3333333333333</ele><time>2026-04-29T09:33:51Z</time></trkpt><trkpt lat="42.16382803554835" lon="-7.981474735381546"><ele>660.1666666666666</ele><time>2026-04-29T09:33:52Z</time></trkpt><trkpt lat="42.16388690772037" lon="-7.9814061601642585"><ele>659.0</ele><time>2026-04-29T09:33:53Z</time></trkpt><trkpt lat="42.16393641526873" lon="-7.981324223284582"><ele>659.0</ele><time>2026-04-29T09:33:54Z</time></trkpt><trkpt lat="42.163981534480385" lon="-7.9812419789082885"><ele>659.0</ele><time>2026-04-29T09:33:55Z</time></trkpt><trkpt lat="42.16402382782576" lon="-7.981159951965724"><ele>659.0</ele><time>2026-04-29T09:33:56Z</time></trkpt><trkpt lat="42.16407647215069" lon="-7.981008287074197"><ele>659.0</ele><time>2026-04-29T09:33:58Z</time></trkpt><trkpt lat="42.16412122878823" lon="-7.980931730899308"><ele>659.0</ele><time>2026-04-29T09:33:59Z</time></trkpt><trkpt lat="42.16414340768792" lon="-7.980773573269217"><ele>655.5</ele><time>2026-04-29T09:34:01Z</time></trkpt><trkpt lat="42.16412935045648" lon="-7.980597692477367"><ele>652.0</ele><time>2026-04-29T09:34:03Z</time></trkpt><trkpt lat="42.164153232747424" lon="-7.980492243653961"><ele>648.5</ele><time>2026-04-29T09:34:05Z</time></trkpt><trkpt lat="42.16423467296516" lon="-7.980466941971632"><ele>645.0</ele><time>2026-04-29T09:34:06Z</time></trkpt><trkpt lat="42.164296150941645" lon="-7.980440162009285"><ele>641.5</ele><time>2026-04-29T09:34:07Z</time></trkpt><trkpt lat="42.16435349328176" lon="-7.980379807244303"><ele>638.0</ele><time>2026-04-29T09:34:09Z</time></trkpt><trkpt lat="42.164429650768774" lon="-7.9803260502288085"><ele>638.0</ele><time>2026-04-29T09:34:11Z</time></trkpt><trkpt lat="42.164488815237796" lon="-7.980286858701364"><ele>638.0</ele><time>2026-04-29T09:34:13Z</time></trkpt><trkpt lat="42.1645749819441" lon="-7.9803242632566445"><ele>638.0</ele><time>2026-04-29T09:34:15Z</time></trkpt><trkpt lat="42.16468632114574" lon="-7.980383065543323"><ele>638.0</ele><time>2026-04-29T09:34:17Z</time></trkpt><trkpt lat="42.164762490868924" lon="-7.980435756192384"><ele>638.0</ele><time>2026-04-29T09:34:19Z</time></trkpt><trkpt lat="42.16484412219664" lon="-7.980505897724965"><ele>635.1999999999999</ele><time>2026-04-29T09:34:20Z</time></trkpt><trkpt lat="42.16494924244777" lon="-7.98063101058125"><ele>632.4</ele><time>2026-04-29T09:34:22Z</time></trkpt><trkpt lat="42.164988515812674" lon="-7.980735387933662"><ele>629.5999999999999</ele><time>2026-04-29T09:34:25Z</time></trkpt><trkpt lat="42.16495748491841" lon="-7.980840232643338"><ele>626.8</ele><time>2026-04-29T09:34:29Z</time></trkpt><trkpt lat="42.164874862587844" lon="-7.980974303523734"><ele>624.0</ele><time>2026-04-29T09:34:31Z</time></trkpt><trkpt lat="42.164844306689176" lon="-7.981052391693193"><ele>624.0</ele><time>2026-04-29T09:34:32Z</time></trkpt><trkpt lat="42.16485485273995" lon="-7.981188114647832"><ele>624.0</ele><time>2026-04-29T09:34:34Z</time></trkpt><trkpt lat="42.1649301526437" lon="-7.981321350546675"><ele>624.0</ele><time>2026-04-29T09:34:36Z</time></trkpt><trkpt lat="42.16497643767112" lon="-7.9814203270581645"><ele>624.0</ele><time>2026-04-29T09:34:37Z</time></trkpt><trkpt lat="42.165044219943304" lon="-7.981526983204069"><ele>624.0</ele><time>2026-04-29T09:34:38Z</time></trkpt><trkpt lat="42.165113084272214" lon="-7.981636666282069"><ele>625.4</ele><time>2026-04-29T09:34:39Z</time></trkpt><trkpt lat="42.16517157542386" lon="-7.9817833529385185"><ele>626.8</ele><time>2026-04-29T09:34:40Z</time></trkpt><trkpt lat="42.165233762538875" lon="-7.981891606194298"><ele>628.2</ele><time>2026-04-29T09:34:41Z</time></trkpt><trkpt lat="42.165291591881626" lon="-7.981999299339567"><ele>629.6</ele><time>2026-04-29T09:34:42Z</time></trkpt><trkpt lat="42.16533620348261" lon="-7.982115250055507"><ele>631.0</ele><time>2026-04-29T09:34:43Z</time></trkpt><trkpt lat="42.1653993110063" lon="-7.9822067787384485"><ele>631.0</ele><time>2026-04-29T09:34:44Z</time></trkpt><trkpt lat="42.16544714393381" lon="-7.982270709381944"><ele>631.0</ele><time>2026-04-29T09:34:45Z</time></trkpt><trkpt lat="42.16547022202856" lon="-7.982381338490252"><ele>631.0</ele><time>2026-04-29T09:34:46Z</time></trkpt><trkpt lat="42.16549719676749" lon="-7.982474968294503"><ele>631.0</ele><time>2026-04-29T09:34:47Z</time></trkpt><trkpt lat="42.165483308405584" lon="-7.982597195603073"><ele>631.0</ele><time>2026-04-29T09:34:48Z</time></trkpt><trkpt lat="42.16548081810056" lon="-7.982708583726887"><ele>631.0</ele><time>2026-04-29T09:34:49Z</time></trkpt><trkpt lat="42.16548458308417" lon="-7.982804869879"><ele>628.8</ele><time>2026-04-29T09:34:50Z</time></trkpt><trkpt lat="42.165487648881545" lon="-7.982932238628381"><ele>626.6</ele><time>2026-04-29T09:34:51Z</time></trkpt><trkpt lat="42.16546805322379" lon="-7.983032045196702"><ele>624.4</ele><time>2026-04-29T09:34:52Z</time></trkpt><trkpt lat="42.165426161332505" lon="-7.983164325919127"><ele>622.2</ele><time>2026-04-29T09:34:53Z</time></trkpt><trkpt lat="42.1653854013631" lon="-7.983319658057214"><ele>620.0</ele><time>2026-04-29T09:34:54Z</time></trkpt><trkpt lat="42.1653329538033" lon="-7.9835258131724505"><ele>619.4</ele><time>2026-04-29T09:34:55Z</time></trkpt><trkpt lat="42.165267780336514" lon="-7.983676807358932"><ele>618.8</ele><time>2026-04-29T09:34:56Z</time></trkpt><trkpt lat="42.165221519926625" lon="-7.983780445309554"><ele>618.2</ele><time>2026-04-29T09:34:57Z</time></trkpt><trkpt lat="42.16516282917941" lon="-7.983868481165624"><ele>617.6</ele><time>2026-04-29T09:34:58Z</time></trkpt><trkpt lat="42.16512638073083" lon="-7.983940190221415"><ele>617.0</ele><time>2026-04-29T09:34:59Z</time></trkpt><trkpt lat="42.1651099605866" lon="-7.984050896445885"><ele>617.0</ele><time>2026-04-29T09:35:01Z</time></trkpt><trkpt lat="42.16515445265702" lon="-7.984137585341101"><ele>617.0</ele><time>2026-04-29T09:35:04Z</time></trkpt><trkpt lat="42.165224695054306" lon="-7.9841540892220735"><ele>617.0</ele><time>2026-04-29T09:35:07Z</time></trkpt><trkpt lat="42.16529230882455" lon="-7.9841343716274595"><ele>617.0</ele><time>2026-04-29T09:35:08Z</time></trkpt><trkpt lat="42.165369147960384" lon="-7.984134539495094"><ele>617.0</ele><time>2026-04-29T09:35:09Z</time></trkpt><trkpt lat="42.165592289760426" lon="-7.984143320616015"><ele>617.0</ele><time>2026-04-29T09:35:11Z</time></trkpt><trkpt lat="42.16568015372182" lon="-7.984122448789097"><ele>617.0</ele><time>2026-04-29T09:35:12Z</time></trkpt><trkpt lat="42.16577618715006" lon="-7.9841047639546225"><ele>617.0</ele><time>2026-04-29T09:35:12.999Z</time></trkpt><trkpt lat="42.16586900605978" lon="-7.984101709469817"><ele>617.0</ele><time>2026-04-29T09:35:14Z</time></trkpt><trkpt lat="42.165971678816035" lon="-7.9840984662160865"><ele>617.0</ele><time>2026-04-29T09:35:15Z</time></trkpt><trkpt lat="42.166060009428655" lon="-7.984090356319327"><ele>617.5</ele><time>2026-04-29T09:35:16Z</time></trkpt><trkpt lat="42.1661474868217" lon="-7.984101783471953"><ele>618.0</ele><time>2026-04-29T09:35:17Z</time></trkpt><trkpt lat="42.166253746192154" lon="-7.984154328456848"><ele>618.5</ele><time>2026-04-29T09:35:18Z</time></trkpt><trkpt lat="42.16639976448207" lon="-7.984191398281158"><ele>619.0</ele><time>2026-04-29T09:35:19Z</time></trkpt><trkpt lat="42.16657458145992" lon="-7.984275702277437"><ele>619.0</ele><time>2026-04-29T09:35:20Z</time></trkpt><trkpt lat="42.166706418648786" lon="-7.984307180306059"><ele>619.0</ele><time>2026-04-29T09:35:21Z</time></trkpt><trkpt lat="42.16677792028899" lon="-7.9843211633260465"><ele>619.0</ele><time>2026-04-29T09:35:22Z</time></trkpt><trkpt lat="42.16687348495534" lon="-7.984305715987619"><ele>619.0</ele><time>2026-04-29T09:35:23Z</time></trkpt><trkpt lat="42.166967493824835" lon="-7.984271343781522"><ele>619.0</ele><time>2026-04-29T09:35:24Z</time></trkpt><trkpt lat="42.16707755122342" lon="-7.984330504456089"><ele>619.0</ele><time>2026-04-29T09:35:26Z</time></trkpt><trkpt lat="42.167115928923586" lon="-7.984541045909791"><ele>619.0</ele><time>2026-04-29T09:35:28Z</time></trkpt><trkpt lat="42.167134338269335" lon="-7.984697729418951"><ele>619.0</ele><time>2026-04-29T09:35:29Z</time></trkpt><trkpt lat="42.16717006583945" lon="-7.984912332266423"><ele>619.0</ele><time>2026-04-29T09:35:30Z</time></trkpt><trkpt lat="42.16721758829751" lon="-7.985107034353878"><ele>618.8333333333334</ele><time>2026-04-29T09:35:31Z</time></trkpt><trkpt lat="42.1672544986573" lon="-7.9852574550126345"><ele>618.6666666666667</ele><time>2026-04-29T09:35:32Z</time></trkpt><trkpt lat="42.16726493601229" lon="-7.985393151146278"><ele>618.5</ele><time>2026-04-29T09:35:33Z</time></trkpt><trkpt lat="42.167266433361654" lon="-7.985514565886804"><ele>618.3333333333334</ele><time>2026-04-29T09:35:34Z</time></trkpt><trkpt lat="42.16726940322729" lon="-7.985613680668053"><ele>618.1666666666666</ele><time>2026-04-29T09:35:35Z</time></trkpt><trkpt lat="42.16725664944864" lon="-7.9857004934310964"><ele>618.0</ele><time>2026-04-29T09:35:36Z</time></trkpt><trkpt lat="42.167199607468746" lon="-7.98582660930148"><ele>618.5</ele><time>2026-04-29T09:35:38Z</time></trkpt><trkpt lat="42.16715436478512" lon="-7.985921206121714"><ele>619.0</ele><time>2026-04-29T09:35:39Z</time></trkpt><trkpt lat="42.16712709060701" lon="-7.986012241691338"><ele>619.5</ele><time>2026-04-29T09:35:40Z</time></trkpt><trkpt lat="42.16716024305509" lon="-7.98613340867419"><ele>620.0</ele><time>2026-04-29T09:35:42Z</time></trkpt><trkpt lat="42.16722278807477" lon="-7.986207769024121"><ele>620.5</ele><time>2026-04-29T09:35:47Z</time></trkpt><trkpt lat="42.167287479791476" lon="-7.9862068584044374"><ele>621.0</ele><time>2026-04-29T09:35:49Z</time></trkpt><trkpt lat="42.16735561769047" lon="-7.986151609707896"><ele>621.25</ele><time>2026-04-29T09:35:51Z</time></trkpt><trkpt lat="42.16741368027585" lon="-7.986116269277708"><ele>621.5</ele><time>2026-04-29T09:35:52Z</time></trkpt><trkpt lat="42.16751776248163" lon="-7.9860496253509"><ele>621.75</ele><time>2026-04-29T09:35:53Z</time></trkpt><trkpt lat="42.167667077679305" lon="-7.985993699685389"><ele>622.0</ele><time>2026-04-29T09:35:54Z</time></trkpt><trkpt lat="42.167810797767544" lon="-7.9859307823015095"><ele>622.0</ele><time>2026-04-29T09:35:55Z</time></trkpt><trkpt lat="42.16792805430996" lon="-7.985880551519592"><ele>622.0</ele><time>2026-04-29T09:35:56Z</time></trkpt><trkpt lat="42.16802937915274" lon="-7.985861574814608"><ele>622.0</ele><time>2026-04-29T09:35:57Z</time></trkpt><trkpt lat="42.16814136888022" lon="-7.985860515629545"><ele>622.0</ele><time>2026-04-29T09:35:58Z</time></trkpt><trkpt lat="42.16823709741755" lon="-7.985881471259044"><ele>622.0</ele><time>2026-04-29T09:35:59Z</time></trkpt><trkpt lat="42.168328249910886" lon="-7.985902789531245"><ele>621.6</ele><time>2026-04-29T09:36:00Z</time></trkpt><trkpt lat="42.16841528902189" lon="-7.985959655666555"><ele>621.2</ele><time>2026-04-29T09:36:01Z</time></trkpt><trkpt lat="42.16852050914483" lon="-7.9860115935433935"><ele>620.8</ele><time>2026-04-29T09:36:02Z</time></trkpt><trkpt lat="42.1686048300344" lon="-7.986019196373494"><ele>620.4</ele><time>2026-04-29T09:36:03Z</time></trkpt><trkpt lat="42.168680333904426" lon="-7.985984692834282"><ele>620.0</ele><time>2026-04-29T09:36:04Z</time></trkpt><trkpt lat="42.1687885276328" lon="-7.98593475870416"><ele>620.0</ele><time>2026-04-29T09:36:05Z</time></trkpt><trkpt lat="42.168899951442604" lon="-7.985848658205006"><ele>620.0</ele><time>2026-04-29T09:36:06Z</time></trkpt><trkpt lat="42.169005922161034" lon="-7.985760609960941"><ele>620.0</ele><time>2026-04-29T09:36:07Z</time></trkpt><trkpt lat="42.169098355050906" lon="-7.985675465032142"><ele>620.0</ele><time>2026-04-29T09:36:08Z</time></trkpt><trkpt lat="42.16920050733534" lon="-7.985599477702884"><ele>617.2</ele><time>2026-04-29T09:36:09Z</time></trkpt><trkpt lat="42.16929723459299" lon="-7.985541211129852"><ele>614.4</ele><time>2026-04-29T09:36:10Z</time></trkpt><trkpt lat="42.1694065648615" lon="-7.985482737733063"><ele>611.6</ele><time>2026-04-29T09:36:11Z</time></trkpt><trkpt lat="42.169493600381664" lon="-7.985433184319758"><ele>608.8</ele><time>2026-04-29T09:36:12Z</time></trkpt><trkpt lat="42.16961703960147" lon="-7.985447703495917"><ele>606.0</ele><time>2026-04-29T09:36:13Z</time></trkpt><trkpt lat="42.16973440795284" lon="-7.9854032827537695"><ele>606.0</ele><time>2026-04-29T09:36:15Z</time></trkpt><trkpt lat="42.16979659118781" lon="-7.985382622200853"><ele>606.0</ele><time>2026-04-29T09:36:16Z</time></trkpt><trkpt lat="42.16989153076419" lon="-7.985361545049703"><ele>606.0</ele><time>2026-04-29T09:36:17Z</time></trkpt><trkpt lat="42.16998816535558" lon="-7.985311001781096"><ele>606.0</ele><time>2026-04-29T09:36:18Z</time></trkpt><trkpt lat="42.17009005293699" lon="-7.98528368568661"><ele>606.0</ele><time>2026-04-29T09:36:19Z</time></trkpt><trkpt lat="42.17017843100397" lon="-7.985250897033948"><ele>605.0</ele><time>2026-04-29T09:36:20Z</time></trkpt><trkpt lat="42.17027517661372" lon="-7.985256820051254"><ele>604.0</ele><time>2026-04-29T09:36:21Z</time></trkpt><trkpt lat="42.170347089964906" lon="-7.98525855743334"><ele>603.0</ele><time>2026-04-29T09:36:22Z</time></trkpt><trkpt lat="42.170418600307414" lon="-7.985250928549187"><ele>602.0</ele><time>2026-04-29T09:36:23Z</time></trkpt><trkpt lat="42.17043973800826" lon="-7.985348165759672"><ele>601.0</ele><time>2026-04-29T09:36:25Z</time></trkpt><trkpt lat="42.17042667968458" lon="-7.98552268572391"><ele>600.0</ele><time>2026-04-29T09:36:27Z</time></trkpt><trkpt lat="42.1704227908915" lon="-7.985617582964993"><ele>600.0</ele><time>2026-04-29T09:36:28Z</time></trkpt><trkpt lat="42.17044131047955" lon="-7.985719672963051"><ele>600.0</ele><time>2026-04-29T09:36:29Z</time></trkpt><trkpt lat="42.1704734575846" lon="-7.9857986200008"><ele>600.0</ele><time>2026-04-29T09:36:30Z</time></trkpt><trkpt lat="42.17050099277617" lon="-7.985898132656337"><ele>600.0</ele><time>2026-04-29T09:36:31Z</time></trkpt><trkpt lat="42.17053340943266" lon="-7.986029563044976"><ele>600.0</ele><time>2026-04-29T09:36:32Z</time></trkpt><trkpt lat="42.17055611235125" lon="-7.986160882288568"><ele>600.0</ele><time>2026-04-29T09:36:33Z</time></trkpt><trkpt lat="42.17056818570922" lon="-7.986302200703835"><ele>600.5</ele><time>2026-04-29T09:36:34Z</time></trkpt><trkpt lat="42.17054373710685" lon="-7.986508265632291"><ele>601.0</ele><time>2026-04-29T09:36:35Z</time></trkpt><trkpt lat="42.17052033016192" lon="-7.986673253428398"><ele>601.5</ele><time>2026-04-29T09:36:36Z</time></trkpt><trkpt lat="42.17048378772767" lon="-7.986838508816396"><ele>602.0</ele><time>2026-04-29T09:36:37Z</time></trkpt><trkpt lat="42.17045537261827" lon="-7.987024019839914"><ele>602.0</ele><time>2026-04-29T09:36:38Z</time></trkpt><trkpt lat="42.170450759271624" lon="-7.987181263057499"><ele>602.0</ele><time>2026-04-29T09:36:39Z</time></trkpt><trkpt lat="42.170432151662084" lon="-7.987327573468012"><ele>602.0</ele><time>2026-04-29T09:36:40Z</time></trkpt><trkpt lat="42.17040645492186" lon="-7.987478172497477"><ele>602.0</ele><time>2026-04-29T09:36:41Z</time></trkpt><trkpt lat="42.170378910099636" lon="-7.987592267661914"><ele>602.0</ele><time>2026-04-29T09:36:42Z</time></trkpt><trkpt lat="42.17029739461788" lon="-7.987749773475837"><ele>600.0</ele><time>2026-04-29T09:36:43Z</time></trkpt><trkpt lat="42.17022281553728" lon="-7.987919054923318"><ele>598.0</ele><time>2026-04-29T09:36:44Z</time></trkpt><trkpt lat="42.17018933855303" lon="-7.98807499538915"><ele>596.0</ele><time>2026-04-29T09:36:45Z</time></trkpt><trkpt lat="42.1701266602714" lon="-7.988241486163689"><ele>594.0</ele><time>2026-04-29T09:36:46Z</time></trkpt><trkpt lat="42.17008434583435" lon="-7.988392478556739"><ele>595.5</ele><time>2026-04-29T09:36:47Z</time></trkpt><trkpt lat="42.1700254145536" lon="-7.988535982485034"><ele>597.0</ele><time>2026-04-29T09:36:48Z</time></trkpt><trkpt lat="42.169920095930216" lon="-7.988695018379856"><ele>598.5</ele><time>2026-04-29T09:36:49Z</time></trkpt><trkpt lat="42.169853592102406" lon="-7.988868734862802"><ele>600.0</ele><time>2026-04-29T09:36:50Z</time></trkpt><trkpt lat="42.16977768746289" lon="-7.989055380332627"><ele>598.25</ele><time>2026-04-29T09:36:51Z</time></trkpt><trkpt lat="42.169685653420196" lon="-7.989229114491677"><ele>596.5</ele><time>2026-04-29T09:36:52Z</time></trkpt><trkpt lat="42.169626921821084" lon="-7.989371786295708"><ele>594.75</ele><time>2026-04-29T09:36:53Z</time></trkpt><trkpt lat="42.16954547304327" lon="-7.989410551597168"><ele>593.0</ele><time>2026-04-29T09:36:54Z</time></trkpt><trkpt lat="42.16947537119904" lon="-7.98947531752564"><ele>593.0</ele><time>2026-04-29T09:36:55Z</time></trkpt><trkpt lat="42.169407297655845" lon="-7.989553210212016"><ele>593.0</ele><time>2026-04-29T09:36:56Z</time></trkpt><trkpt lat="42.16933970688107" lon="-7.989581989057228"><ele>593.0</ele><time>2026-04-29T09:36:57Z</time></trkpt><trkpt lat="42.169280617512584" lon="-7.989638479341532"><ele>593.0</ele><time>2026-04-29T09:36:58Z</time></trkpt><trkpt lat="42.169206982552566" lon="-7.989633704661873"><ele>593.0</ele><time>2026-04-29T09:36:59Z</time></trkpt><trkpt lat="42.16913566889926" lon="-7.989623898215688"><ele>593.0</ele><time>2026-04-29T09:37:00Z</time></trkpt><trkpt lat="42.169084283535334" lon="-7.989708326951606"><ele>593.0</ele><time>2026-04-29T09:37:02Z</time></trkpt><trkpt lat="42.169083184820316" lon="-7.9897990403697285"><ele>593.0</ele><time>2026-04-29T09:37:03Z</time></trkpt><trkpt lat="42.16917355305777" lon="-7.989966170740758"><ele>593.0</ele><time>2026-04-29T09:37:05Z</time></trkpt><trkpt lat="42.16923155036222" lon="-7.990052192375164"><ele>593.0</ele><time>2026-04-29T09:37:06Z</time></trkpt><trkpt lat="42.169291777261506" lon="-7.9901338941016595"><ele>593.0</ele><time>2026-04-29T09:37:07Z</time></trkpt><trkpt lat="42.169326557103425" lon="-7.990294008219575"><ele>592.75</ele><time>2026-04-29T09:37:07.999Z</time></trkpt><trkpt lat="42.169350643385314" lon="-7.990461109248947"><ele>592.5</ele><time>2026-04-29T09:37:08.999Z</time></trkpt><trkpt lat="42.16932063609533" lon="-7.9906159914490456"><ele>592.25</ele><time>2026-04-29T09:37:09.999Z</time></trkpt><trkpt lat="42.16929913846291" lon="-7.990753883274359"><ele>592.0</ele><time>2026-04-29T09:37:10.999Z</time></trkpt><trkpt lat="42.16926189442817" lon="-7.990891400041173"><ele>590.75</ele><time>2026-04-29T09:37:11.999Z</time></trkpt><trkpt lat="42.16919373567232" lon="-7.991046470039724"><ele>589.5</ele><time>2026-04-29T09:37:12.999Z</time></trkpt><trkpt lat="42.16911523758854" lon="-7.991199684255011"><ele>588.25</ele><time>2026-04-29T09:37:13.999Z</time></trkpt><trkpt lat="42.169061962370954" lon="-7.991334642874814"><ele>587.0</ele><time>2026-04-29T09:37:14.999Z</time></trkpt><trkpt lat="42.169029683701496" lon="-7.9914655629850495"><ele>587.0</ele><time>2026-04-29T09:37:15.999Z</time></trkpt><trkpt lat="42.16902876148217" lon="-7.991569436565646"><ele>587.0</ele><time>2026-04-29T09:37:16.999Z</time></trkpt><trkpt lat="42.16897289451602" lon="-7.991728086208745"><ele>587.0</ele><time>2026-04-29T09:37:17.999Z</time></trkpt><trkpt lat="42.16890661980817" lon="-7.99188477294346"><ele>587.0</ele><time>2026-04-29T09:37:18.999Z</time></trkpt><trkpt lat="42.16882707547474" lon="-7.992043056569166"><ele>590.0</ele><time>2026-04-29T09:37:20Z</time></trkpt><trkpt lat="42.16874730014627" lon="-7.992173734392745"><ele>593.0</ele><time>2026-04-29T09:37:21Z</time></trkpt><trkpt lat="42.168601751696826" lon="-7.99235991483004"><ele>596.0</ele><time>2026-04-29T09:37:22Z</time></trkpt><trkpt lat="42.168476407888576" lon="-7.992491527750421"><ele>595.0</ele><time>2026-04-29T09:37:23Z</time></trkpt><trkpt lat="42.16832130597567" lon="-7.992628043910554"><ele>594.0</ele><time>2026-04-29T09:37:24Z</time></trkpt><trkpt lat="42.168154746907234" lon="-7.992761235040092"><ele>593.0</ele><time>2026-04-29T09:37:25Z</time></trkpt><trkpt lat="42.16796566733054" lon="-7.99285528999044"><ele>593.0</ele><time>2026-04-29T09:37:26Z</time></trkpt><trkpt lat="42.16782238189312" lon="-7.992962149228291"><ele>593.0</ele><time>2026-04-29T09:37:27Z</time></trkpt><trkpt lat="42.16769742342962" lon="-7.993076175399454"><ele>593.0</ele><time>2026-04-29T09:37:28Z</time></trkpt><trkpt lat="42.16759731420937" lon="-7.9931657322971414"><ele>593.0</ele><time>2026-04-29T09:37:29Z</time></trkpt><trkpt lat="42.167472484558566" lon="-7.993229123828205"><ele>597.3333333333333</ele><time>2026-04-29T09:37:30Z</time></trkpt><trkpt lat="42.167328935446854" lon="-7.993321727415189"><ele>601.6666666666666</ele><time>2026-04-29T09:37:31Z</time></trkpt><trkpt lat="42.1672046640832" lon="-7.9934070319026915"><ele>606.0</ele><time>2026-04-29T09:37:32Z</time></trkpt><trkpt lat="42.16707857987363" lon="-7.993523356066837"><ele>606.0</ele><time>2026-04-29T09:37:33Z</time></trkpt><trkpt lat="42.166978256847756" lon="-7.9936386963398665"><ele>606.0</ele><time>2026-04-29T09:37:34Z</time></trkpt><trkpt lat="42.166917845844765" lon="-7.993747326652542"><ele>606.0</ele><time>2026-04-29T09:37:35Z</time></trkpt><trkpt lat="42.16695391871785" lon="-7.993861106455476"><ele>606.0</ele><time>2026-04-29T09:37:37Z</time></trkpt><trkpt lat="42.167012074428655" lon="-7.993922994171319"><ele>606.0</ele><time>2026-04-29T09:37:38Z</time></trkpt><trkpt lat="42.167078230530265" lon="-7.993991659600254"><ele>606.0</ele><time>2026-04-29T09:37:39Z</time></trkpt><trkpt lat="42.1671544886195" lon="-7.994053183825483"><ele>606.0</ele><time>2026-04-29T09:37:40Z</time></trkpt><trkpt lat="42.16725481855946" lon="-7.994144576129547"><ele>606.0</ele><time>2026-04-29T09:37:41Z</time></trkpt><trkpt lat="42.16736476969915" lon="-7.99426576687793"><ele>606.0</ele><time>2026-04-29T09:37:42Z</time></trkpt><trkpt lat="42.16748844760697" lon="-7.994369655059564"><ele>607.0</ele><time>2026-04-29T09:37:43Z</time></trkpt><trkpt lat="42.16759133691708" lon="-7.994427084356039"><ele>608.0</ele><time>2026-04-29T09:37:44Z</time></trkpt><trkpt lat="42.16771267103154" lon="-7.994440324772607"><ele>609.0</ele><time>2026-04-29T09:37:45Z</time></trkpt><trkpt lat="42.16786204478913" lon="-7.99448007688484"><ele>610.0</ele><time>2026-04-29T09:37:46Z</time></trkpt><trkpt lat="42.16800815255689" lon="-7.99451272164702"><ele>610.0</ele><time>2026-04-29T09:37:47Z</time></trkpt><trkpt lat="42.16814378844092" lon="-7.994574928573702"><ele>610.0</ele><time>2026-04-29T09:37:48Z</time></trkpt><trkpt lat="42.16828802696744" lon="-7.994649738288056"><ele>610.0</ele><time>2026-04-29T09:37:49Z</time></trkpt><trkpt lat="42.16848772267762" lon="-7.994798531407128"><ele>609.5</ele><time>2026-04-29T09:37:50Z</time></trkpt><trkpt lat="42.168619724651066" lon="-7.994877123150365"><ele>609.0</ele><time>2026-04-29T09:37:51Z</time></trkpt><trkpt lat="42.16874136304891" lon="-7.9949537689357735"><ele>608.5</ele><time>2026-04-29T09:37:52Z</time></trkpt><trkpt lat="42.16885877084315" lon="-7.995017227971817"><ele>608.0</ele><time>2026-04-29T09:37:53Z</time></trkpt><trkpt lat="42.168960039425684" lon="-7.995062841510497"><ele>608.0</ele><time>2026-04-29T09:37:54Z</time></trkpt><trkpt lat="42.16895648778717" lon="-7.995159409749715"><ele>608.0</ele><time>2026-04-29T09:37:57Z</time></trkpt><trkpt lat="42.16888394983327" lon="-7.995208691624062"><ele>608.0</ele><time>2026-04-29T09:38:00Z</time></trkpt><trkpt lat="42.168770707713165" lon="-7.995218427357921"><ele>608.0</ele><time>2026-04-29T09:38:03Z</time></trkpt><trkpt lat="42.168623271201696" lon="-7.995246376537032"><ele>608.0</ele><time>2026-04-29T09:38:05Z</time></trkpt><trkpt lat="42.168513688014954" lon="-7.99528577582888"><ele>608.0</ele><time>2026-04-29T09:38:07Z</time></trkpt><trkpt lat="42.168450270801415" lon="-7.9953082106626985"><ele>608.0</ele><time>2026-04-29T09:38:08Z</time></trkpt><trkpt lat="42.16833640095286" lon="-7.995342761733165"><ele>608.0</ele><time>2026-04-29T09:38:10Z</time></trkpt><trkpt lat="42.16823825135042" lon="-7.99539137358615"><ele>608.0</ele><time>2026-04-29T09:38:12Z</time></trkpt><trkpt lat="42.16816127827923" lon="-7.995418245819352"><ele>608.0</ele><time>2026-04-29T09:38:14Z</time></trkpt><trkpt lat="42.1681020340838" lon="-7.995475086090326"><ele>608.0</ele><time>2026-04-29T09:38:16Z</time></trkpt><trkpt lat="42.168040215458966" lon="-7.995542576160058"><ele>610.0</ele><time>2026-04-29T09:38:19Z</time></trkpt><trkpt lat="42.167958722322815" lon="-7.995589543852421"><ele>612.0</ele><time>2026-04-29T09:38:21Z</time></trkpt><trkpt lat="42.16788610095177" lon="-7.995638170131853"><ele>614.0</ele><time>2026-04-29T09:38:23Z</time></trkpt><trkpt lat="42.167825354121554" lon="-7.99566376444332"><ele>616.0</ele><time>2026-04-29T09:38:24Z</time></trkpt><trkpt lat="42.16775545138927" lon="-7.995735470764373"><ele>618.0</ele><time>2026-04-29T09:38:25Z</time></trkpt><trkpt lat="42.16767129058018" lon="-7.995837284511104"><ele>620.0</ele><time>2026-04-29T09:38:26Z</time></trkpt><trkpt lat="42.1675855138878" lon="-7.995963536453036"><ele>621.0</ele><time>2026-04-29T09:38:27Z</time></trkpt><trkpt lat="42.1675065425651" lon="-7.996101442403881"><ele>622.0</ele><time>2026-04-29T09:38:28Z</time></trkpt><trkpt lat="42.167430617463715" lon="-7.996233580152341"><ele>623.0</ele><time>2026-04-29T09:38:29Z</time></trkpt><trkpt lat="42.167343410824486" lon="-7.996411545332322"><ele>624.0</ele><time>2026-04-29T09:38:30Z</time></trkpt><trkpt lat="42.16727484215835" lon="-7.996559941213061"><ele>625.0</ele><time>2026-04-29T09:38:31Z</time></trkpt><trkpt lat="42.167239482875104" lon="-7.996669055932624"><ele>626.0</ele><time>2026-04-29T09:38:32Z</time></trkpt><trkpt lat="42.16714534747354" lon="-7.996657988180534"><ele>627.0</ele><time>2026-04-29T09:38:36Z</time></trkpt><trkpt lat="42.16710992513962" lon="-7.9965779879158925"><ele>628.0</ele><time>2026-04-29T09:38:37Z</time></trkpt><trkpt lat="42.16704271458596" lon="-7.996485815858806"><ele>629.0</ele><time>2026-04-29T09:38:38Z</time></trkpt><trkpt lat="42.16697352976531" lon="-7.996397806651611"><ele>630.0</ele><time>2026-04-29T09:38:39Z</time></trkpt><trkpt lat="42.16691003557094" lon="-7.996321931103238"><ele>630.0</ele><time>2026-04-29T09:38:40Z</time></trkpt><trkpt lat="42.16685621248439" lon="-7.996277642452386"><ele>630.0</ele><time>2026-04-29T09:38:41Z</time></trkpt><trkpt lat="42.1667845822162" lon="-7.996226060395507"><ele>630.0</ele><time>2026-04-29T09:38:42Z</time></trkpt><trkpt lat="42.166696412888726" lon="-7.996164376040098"><ele>630.0</ele><time>2026-04-29T09:38:43Z</time></trkpt><trkpt lat="42.16663288554336" lon="-7.996108195861106"><ele>630.0</ele><time>2026-04-29T09:38:44Z</time></trkpt><trkpt lat="42.166585267236854" lon="-7.996020757130589"><ele>630.0</ele><time>2026-04-29T09:38:45Z</time></trkpt><trkpt lat="42.16653053022078" lon="-7.995971713477599"><ele>633.0</ele><time>2026-04-29T09:38:46Z</time></trkpt><trkpt lat="42.166504822866344" lon="-7.995859056072658"><ele>636.0</ele><time>2026-04-29T09:38:48Z</time></trkpt><trkpt lat="42.16644803259396" lon="-7.995768706652021"><ele>639.0</ele><time>2026-04-29T09:38:50Z</time></trkpt><trkpt lat="42.166356372742605" lon="-7.995655707066829"><ele>642.0</ele><time>2026-04-29T09:38:52Z</time></trkpt><trkpt lat="42.16631739195928" lon="-7.995573183905321"><ele>645.0</ele><time>2026-04-29T09:38:53Z</time></trkpt><trkpt lat="42.16624464368608" lon="-7.995521323955377"><ele>645.0</ele><time>2026-04-29T09:38:54Z</time></trkpt><trkpt lat="42.166184034279546" lon="-7.995449330300018"><ele>645.0</ele><time>2026-04-29T09:38:55Z</time></trkpt><trkpt lat="42.166052076000085" lon="-7.995379401059826"><ele>645.0</ele><time>2026-04-29T09:38:56Z</time></trkpt><trkpt lat="42.16596723868883" lon="-7.995319727122794"><ele>645.0</ele><time>2026-04-29T09:38:57Z</time></trkpt><trkpt lat="42.16584664188363" lon="-7.995281349214862"><ele>645.0</ele><time>2026-04-29T09:38:57.999Z</time></trkpt><trkpt lat="42.16573156450086" lon="-7.995294700755634"><ele>647.8333333333334</ele><time>2026-04-29T09:38:58.999Z</time></trkpt><trkpt lat="42.16563992444865" lon="-7.995287746584665"><ele>650.6666666666666</ele><time>2026-04-29T09:38:59.999Z</time></trkpt><trkpt lat="42.16557169832318" lon="-7.995309058117298"><ele>653.5</ele><time>2026-04-29T09:39:00.999Z</time></trkpt><trkpt lat="42.165461444705" lon="-7.995344702733948"><ele>656.3333333333333</ele><time>2026-04-29T09:39:02.999Z</time></trkpt><trkpt lat="42.16537559065058" lon="-7.9953628165791795"><ele>659.1666666666666</ele><time>2026-04-29T09:39:04.999Z</time></trkpt><trkpt lat="42.16529357516249" lon="-7.995345194211048"><ele>662.0</ele><time>2026-04-29T09:39:06.999Z</time></trkpt><trkpt lat="42.165185560196825" lon="-7.9953369424885645"><ele>662.0</ele><time>2026-04-29T09:39:08.999Z</time></trkpt><trkpt lat="42.16511218772144" lon="-7.9953196960022686"><ele>662.0</ele><time>2026-04-29T09:39:09.999Z</time></trkpt><trkpt lat="42.16503027979699" lon="-7.995268706277763"><ele>662.0</ele><time>2026-04-29T09:39:11.999Z</time></trkpt><trkpt lat="42.164928309725674" lon="-7.995215457940873"><ele>662.0</ele><time>2026-04-29T09:39:13.999Z</time></trkpt><trkpt lat="42.1648694574376" lon="-7.995182257185351"><ele>662.0</ele><time>2026-04-29T09:39:14.999Z</time></trkpt><trkpt lat="42.16481532408818" lon="-7.995136307121099"><ele>662.0</ele><time>2026-04-29T09:39:15.999Z</time></trkpt><trkpt lat="42.16476222308666" lon="-7.99508503742277"><ele>664.0</ele><time>2026-04-29T09:39:16.999Z</time></trkpt><trkpt lat="42.16470947626009" lon="-7.995037971747392"><ele>666.0</ele><time>2026-04-29T09:39:17.999Z</time></trkpt><trkpt lat="42.16461152141868" lon="-7.994945443894018"><ele>668.0</ele><time>2026-04-29T09:39:19.999Z</time></trkpt><trkpt lat="42.16453922587632" lon="-7.9949151676118335"><ele>670.0</ele><time>2026-04-29T09:39:20.999Z</time></trkpt><trkpt lat="42.164456238442064" lon="-7.994938785971804"><ele>672.0</ele><time>2026-04-29T09:39:21.999Z</time></trkpt><trkpt lat="42.16435825372652" lon="-7.994931101504821"><ele>674.0</ele><time>2026-04-29T09:39:22.999Z</time></trkpt><trkpt lat="42.16426202201219" lon="-7.9949271978125465"><ele>674.0</ele><time>2026-04-29T09:39:23.999Z</time></trkpt><trkpt lat="42.16419049809714" lon="-7.994929450190844"><ele>674.0</ele><time>2026-04-29T09:39:24.999Z</time></trkpt><trkpt lat="42.164132614631946" lon="-7.994976555464839"><ele>674.0</ele><time>2026-04-29T09:39:26Z</time></trkpt><trkpt lat="42.16415904970893" lon="-7.995166355123815"><ele>674.0</ele><time>2026-04-29T09:39:28Z</time></trkpt><trkpt lat="42.16418237512254" lon="-7.995264378445723"><ele>674.0</ele><time>2026-04-29T09:39:29Z</time></trkpt><trkpt lat="42.16421347440685" lon="-7.995372650191084"><ele>674.0</ele><time>2026-04-29T09:39:30Z</time></trkpt><trkpt lat="42.16421562388651" lon="-7.995546088840567"><ele>674.6</ele><time>2026-04-29T09:39:32Z</time></trkpt><trkpt lat="42.16419346692617" lon="-7.995626489518567"><ele>675.2</ele><time>2026-04-29T09:39:33Z</time></trkpt><trkpt lat="42.1640893621241" lon="-7.995744392571749"><ele>675.8000000000001</ele><time>2026-04-29T09:39:35Z</time></trkpt><trkpt lat="42.16400178323637" lon="-7.995807762661203"><ele>676.4000000000001</ele><time>2026-04-29T09:39:36Z</time></trkpt><trkpt lat="42.16391474463094" lon="-7.995861014220847"><ele>677.0</ele><time>2026-04-29T09:39:37Z</time></trkpt><trkpt lat="42.163794224110276" lon="-7.995885886941803"><ele>678.0</ele><time>2026-04-29T09:39:38Z</time></trkpt><trkpt lat="42.163668351163814" lon="-7.995886363487274"><ele>679.0</ele><time>2026-04-29T09:39:39Z</time></trkpt><trkpt lat="42.16357173540598" lon="-7.995883926488175"><ele>680.0</ele><time>2026-04-29T09:39:40Z</time></trkpt><trkpt lat="42.16347572943751" lon="-7.995875310639909"><ele>681.0</ele><time>2026-04-29T09:39:41Z</time></trkpt><trkpt lat="42.163369291053996" lon="-7.995847425657188"><ele>682.0</ele><time>2026-04-29T09:39:42Z</time></trkpt><trkpt lat="42.16324981477646" lon="-7.995813030897367"><ele>685.4000000000001</ele><time>2026-04-29T09:39:43Z</time></trkpt><trkpt lat="42.163109386234844" lon="-7.9957845067593905"><ele>688.8000000000001</ele><time>2026-04-29T09:39:44Z</time></trkpt><trkpt lat="42.16300706681793" lon="-7.995748275073449"><ele>692.2</ele><time>2026-04-29T09:39:45Z</time></trkpt><trkpt lat="42.16291590908174" lon="-7.995712533227371"><ele>695.6</ele><time>2026-04-29T09:39:46Z</time></trkpt><trkpt lat="42.16281989988867" lon="-7.9956575791583635"><ele>699.0</ele><time>2026-04-29T09:39:47Z</time></trkpt><trkpt lat="42.16268592949231" lon="-7.9955997800020375"><ele>699.0</ele><time>2026-04-29T09:39:48Z</time></trkpt><trkpt lat="42.1625449261555" lon="-7.995541366530489"><ele>699.0</ele><time>2026-04-29T09:39:49Z</time></trkpt><trkpt lat="42.162422071114975" lon="-7.9954742641848755"><ele>699.0</ele><time>2026-04-29T09:39:50Z</time></trkpt><trkpt lat="42.16230788062503" lon="-7.99538449116435"><ele>699.0</ele><time>2026-04-29T09:39:51Z</time></trkpt><trkpt lat="42.162188651135835" lon="-7.995267762520855"><ele>701.0</ele><time>2026-04-29T09:39:52Z</time></trkpt><trkpt lat="42.162083944647755" lon="-7.995179375200741"><ele>703.0</ele><time>2026-04-29T09:39:53Z</time></trkpt><trkpt lat="42.161992330804836" lon="-7.995128622970642"><ele>705.0</ele><time>2026-04-29T09:39:54Z</time></trkpt><trkpt lat="42.16192787627421" lon="-7.995112091403104"><ele>707.0</ele><time>2026-04-29T09:39:55Z</time></trkpt><trkpt lat="42.16181801754771" lon="-7.995217800184482"><ele>709.0</ele><time>2026-04-29T09:39:57Z</time></trkpt><trkpt lat="42.16174391517098" lon="-7.9952955340703245"><ele>709.0</ele><time>2026-04-29T09:39:58Z</time></trkpt><trkpt lat="42.16167258929856" lon="-7.9953488320682204"><ele>709.0</ele><time>2026-04-29T09:39:59Z</time></trkpt><trkpt lat="42.16156837214597" lon="-7.995324520747908"><ele>709.0</ele><time>2026-04-29T09:40:00Z</time></trkpt><trkpt lat="42.161427750174" lon="-7.9952671021874275"><ele>709.0</ele><time>2026-04-29T09:40:01Z</time></trkpt><trkpt lat="42.161273493145586" lon="-7.995201242844871"><ele>709.2</ele><time>2026-04-29T09:40:02Z</time></trkpt><trkpt lat="42.16113523025636" lon="-7.995145595506936"><ele>709.4000000000001</ele><time>2026-04-29T09:40:03Z</time></trkpt><trkpt lat="42.16103817440317" lon="-7.995124071619347"><ele>709.6</ele><time>2026-04-29T09:40:04Z</time></trkpt><trkpt lat="42.16094980770899" lon="-7.995128061691245"><ele>709.8</ele><time>2026-04-29T09:40:05Z</time></trkpt><trkpt lat="42.16085175816459" lon="-7.995125135552319"><ele>710.0</ele><time>2026-04-29T09:40:06Z</time></trkpt><trkpt lat="42.16075752756605" lon="-7.9951126677028865"><ele>709.3333333333333</ele><time>2026-04-29T09:40:07Z</time></trkpt><trkpt lat="42.16067259121276" lon="-7.995089522184485"><ele>708.6666666666666</ele><time>2026-04-29T09:40:08Z</time></trkpt><trkpt lat="42.16059495100374" lon="-7.995063835990088"><ele>708.0</ele><time>2026-04-29T09:40:09Z</time></trkpt><trkpt lat="42.160530101752094" lon="-7.995025456925897"><ele>707.3333333333334</ele><time>2026-04-29T09:40:10Z</time></trkpt><trkpt lat="42.160457451783834" lon="-7.99500040777828"><ele>706.6666666666667</ele><time>2026-04-29T09:40:11Z</time></trkpt><trkpt lat="42.160381660373545" lon="-7.994993568620203"><ele>706.0</ele><time>2026-04-29T09:40:12Z</time></trkpt><trkpt lat="42.16029796526431" lon="-7.9949848845949125"><ele>706.0</ele><time>2026-04-29T09:40:13Z</time></trkpt><trkpt lat="42.16023478623478" lon="-7.9949714373238185"><ele>706.0</ele><time>2026-04-29T09:40:14Z</time></trkpt><trkpt lat="42.16015374836784" lon="-7.994943821482283"><ele>706.0</ele><time>2026-04-29T09:40:16Z</time></trkpt><trkpt lat="42.160081031172275" lon="-7.994939673212428"><ele>706.0</ele><time>2026-04-29T09:40:19Z</time></trkpt><trkpt lat="42.16009234605177" lon="-7.995043598810989"><ele>706.0</ele><time>2026-04-29T09:40:22Z</time></trkpt><trkpt lat="42.160181139266705" lon="-7.99513749704481"><ele>706.0</ele><time>2026-04-29T09:40:24Z</time></trkpt><trkpt lat="42.160271149940094" lon="-7.995223644898888"><ele>706.0</ele><time>2026-04-29T09:40:26Z</time></trkpt><trkpt lat="42.16036754571089" lon="-7.9953486782795355"><ele>706.0</ele><time>2026-04-29T09:40:28Z</time></trkpt><trkpt lat="42.16042179578218" lon="-7.995413820677402"><ele>706.0</ele><time>2026-04-29T09:40:29Z</time></trkpt><trkpt lat="42.16047388575236" lon="-7.995481674470178"><ele>706.0</ele><time>2026-04-29T09:40:30Z</time></trkpt><trkpt lat="42.16052804576639" lon="-7.995548582310403"><ele>706.0</ele><time>2026-04-29T09:40:31Z</time></trkpt><trkpt lat="42.160587735116394" lon="-7.995603205003755"><ele>706.0</ele><time>2026-04-29T09:40:32Z</time></trkpt><trkpt lat="42.16065027839216" lon="-7.995667786854357"><ele>705.4</ele><time>2026-04-29T09:40:33Z</time></trkpt><trkpt lat="42.160716039663576" lon="-7.995736487193747"><ele>704.8</ele><time>2026-04-29T09:40:34Z</time></trkpt><trkpt lat="42.160786332374784" lon="-7.995806340868792"><ele>704.1999999999999</ele><time>2026-04-29T09:40:35Z</time></trkpt><trkpt lat="42.16086813665986" lon="-7.995859261942707"><ele>703.5999999999999</ele><time>2026-04-29T09:40:36Z</time></trkpt><trkpt lat="42.16096031364638" lon="-7.995880669761509"><ele>703.0</ele><time>2026-04-29T09:40:37Z</time></trkpt><trkpt lat="42.161070228929525" lon="-7.995872912802191"><ele>703.0</ele><time>2026-04-29T09:40:38Z</time></trkpt><trkpt lat="42.161163174479526" lon="-7.995865592822486"><ele>703.0</ele><time>2026-04-29T09:40:39Z</time></trkpt><trkpt lat="42.1612362007932" lon="-7.99586828006722"><ele>703.0</ele><time>2026-04-29T09:40:40Z</time></trkpt><trkpt lat="42.1613443557395" lon="-7.995867534670734"><ele>703.0</ele><time>2026-04-29T09:40:42Z</time></trkpt><trkpt lat="42.16142073394926" lon="-7.995861517794838"><ele>703.0</ele><time>2026-04-29T09:40:44Z</time></trkpt><trkpt lat="42.16149904398736" lon="-7.9958893765203065"><ele>703.0</ele><time>2026-04-29T09:40:46Z</time></trkpt><trkpt lat="42.16156131012967" lon="-7.995946963518075"><ele>703.4285714285714</ele><time>2026-04-29T09:40:48Z</time></trkpt><trkpt lat="42.16161613223318" lon="-7.996017133279494"><ele>703.8571428571429</ele><time>2026-04-29T09:40:50Z</time></trkpt><trkpt lat="42.161665069053484" lon="-7.996084601032639"><ele>704.2857142857142</ele><time>2026-04-29T09:40:52Z</time></trkpt><trkpt lat="42.1617080738921" lon="-7.996166724709613"><ele>704.7142857142858</ele><time>2026-04-29T09:40:54Z</time></trkpt><trkpt lat="42.16174318857274" lon="-7.996254573766048"><ele>705.1428571428572</ele><time>2026-04-29T09:40:56Z</time></trkpt><trkpt lat="42.161764030522875" lon="-7.99636506750898"><ele>705.5714285714286</ele><time>2026-04-29T09:40:58Z</time></trkpt><trkpt lat="42.161779952296804" lon="-7.9964523653904696"><ele>706.0</ele><time>2026-04-29T09:41:00Z</time></trkpt><trkpt lat="42.16179579274064" lon="-7.996548775234707"><ele>706.0</ele><time>2026-04-29T09:41:03Z</time></trkpt><trkpt lat="42.161818030486316" lon="-7.996655532611953"><ele>706.0</ele><time>2026-04-29T09:41:07Z</time></trkpt><trkpt lat="42.161807315956175" lon="-7.996747362117434"><ele>706.0</ele><time>2026-04-29T09:41:10Z</time></trkpt><trkpt lat="42.1618250983644" lon="-7.996876177086153"><ele>706.0</ele><time>2026-04-29T09:44:48.999Z</time></trkpt><trkpt lat="42.16184899318438" lon="-7.9969786711678355"><ele>706.0</ele><time>2026-04-29T09:44:50.999Z</time></trkpt><trkpt lat="42.16186539695837" lon="-7.997090766216291"><ele>706.0</ele><time>2026-04-29T09:44:52.999Z</time></trkpt><trkpt lat="42.16187604400603" lon="-7.997192946768554"><ele>704.8333333333334</ele><time>2026-04-29T09:44:54.999Z</time></trkpt><trkpt lat="42.16189274441587" lon="-7.99730452796858"><ele>703.6666666666667</ele><time>2026-04-29T09:44:56.999Z</time></trkpt><trkpt lat="42.1619053611462" lon="-7.997401198432692"><ele>702.5</ele><time>2026-04-29T09:44:58.999Z</time></trkpt><trkpt lat="42.1618463584054" lon="-7.997514442816089"><ele>701.3333333333334</ele><time>2026-04-29T09:45:01.999Z</time></trkpt><trkpt lat="42.161786564470404" lon="-7.997553686226413"><ele>700.1666666666666</ele><time>2026-04-29T09:45:02.999Z</time></trkpt><trkpt lat="42.16170340283837" lon="-7.997613158691103"><ele>699.0</ele><time>2026-04-29T09:45:03.999Z</time></trkpt><trkpt lat="42.16159850907641" lon="-7.997704378603359"><ele>696.0</ele><time>2026-04-29T09:45:04.999Z</time></trkpt><trkpt lat="42.16147500254083" lon="-7.997812682011393"><ele>693.0</ele><time>2026-04-29T09:45:05.999Z</time></trkpt><trkpt lat="42.16136368204651" lon="-7.99789603836917"><ele>690.0</ele><time>2026-04-29T09:45:06.999Z</time></trkpt><trkpt lat="42.16127245512656" lon="-7.997992089044934"><ele>687.0</ele><time>2026-04-29T09:45:07.999Z</time></trkpt><trkpt lat="42.161201840922146" lon="-7.998098506380948"><ele>687.0</ele><time>2026-04-29T09:45:08.999Z</time></trkpt><trkpt lat="42.16113809376114" lon="-7.998190248756851"><ele>687.0</ele><time>2026-04-29T09:45:09.999Z</time></trkpt><trkpt lat="42.1610847224021" lon="-7.99827870189723"><ele>687.0</ele><time>2026-04-29T09:45:10.999Z</time></trkpt><trkpt lat="42.161048323358735" lon="-7.9983909804093996"><ele>687.0</ele><time>2026-04-29T09:45:11.999Z</time></trkpt><trkpt lat="42.16100408432562" lon="-7.9985022556115215"><ele>687.0</ele><time>2026-04-29T09:45:12.999Z</time></trkpt><trkpt lat="42.16095153927898" lon="-7.99859039877541"><ele>687.0</ele><time>2026-04-29T09:45:13.999Z</time></trkpt><trkpt lat="42.16088510451374" lon="-7.9986968829260965"><ele>685.2</ele><time>2026-04-29T09:45:14.999Z</time></trkpt><trkpt lat="42.160816921108584" lon="-7.998817946193956"><ele>683.4000000000001</ele><time>2026-04-29T09:45:15.999Z</time></trkpt><trkpt lat="42.16074015625021" lon="-7.99891155478988"><ele>681.5999999999999</ele><time>2026-04-29T09:45:16.999Z</time></trkpt><trkpt lat="42.16066756847552" lon="-7.999007474601637"><ele>679.8</ele><time>2026-04-29T09:45:17.999Z</time></trkpt><trkpt lat="42.16060793086509" lon="-7.999078157241971"><ele>678.0</ele><time>2026-04-29T09:45:18.999Z</time></trkpt><trkpt lat="42.160553974178626" lon="-7.99917037926908"><ele>676.75</ele><time>2026-04-29T09:45:20.999Z</time></trkpt><trkpt lat="42.160545989450824" lon="-7.999359581157279"><ele>675.5</ele><time>2026-04-29T09:45:22.999Z</time></trkpt><trkpt lat="42.16051009541751" lon="-7.999524403346572"><ele>674.25</ele><time>2026-04-29T09:45:23.999Z</time></trkpt><trkpt lat="42.16049068719056" lon="-7.9997090957861134"><ele>673.0</ele><time>2026-04-29T09:45:24.999Z</time></trkpt><trkpt lat="42.160466194309315" lon="-7.999890846380346"><ele>673.0</ele><time>2026-04-29T09:45:25.999Z</time></trkpt><trkpt lat="42.16043958954144" lon="-8.000072762960727"><ele>673.0</ele><time>2026-04-29T09:45:26.999Z</time></trkpt><trkpt lat="42.16041769808301" lon="-8.000251754120006"><ele>673.0</ele><time>2026-04-29T09:45:27.999Z</time></trkpt><trkpt lat="42.160382873472464" lon="-8.000434553941494"><ele>673.0</ele><time>2026-04-29T09:45:28.999Z</time></trkpt><trkpt lat="42.16034393517548" lon="-8.000623138627164"><ele>673.0</ele><time>2026-04-29T09:45:29.999Z</time></trkpt><trkpt lat="42.16030028856902" lon="-8.000797508840774"><ele>673.0</ele><time>2026-04-29T09:45:30.999Z</time></trkpt><trkpt lat="42.16024670845005" lon="-8.000976786562015"><ele>673.0</ele><time>2026-04-29T09:45:31.999Z</time></trkpt><trkpt lat="42.16021023728192" lon="-8.001167789034836"><ele>673.0</ele><time>2026-04-29T09:45:32.999Z</time></trkpt><trkpt lat="42.1601571037064" lon="-8.001339980695665"><ele>672.5</ele><time>2026-04-29T09:45:33.999Z</time></trkpt><trkpt lat="42.16012284971014" lon="-8.001524343207633"><ele>672.0</ele><time>2026-04-29T09:45:34.999Z</time></trkpt><trkpt lat="42.16008915221555" lon="-8.001704419511126"><ele>671.5</ele><time>2026-04-29T09:45:35.999Z</time></trkpt><trkpt lat="42.16007622216078" lon="-8.001876566879611"><ele>671.0</ele><time>2026-04-29T09:45:36.999Z</time></trkpt><trkpt lat="42.160063581660886" lon="-8.00203168409107"><ele>670.0</ele><time>2026-04-29T09:45:37.999Z</time></trkpt><trkpt lat="42.1600398152649" lon="-8.002166893715653"><ele>669.0</ele><time>2026-04-29T09:45:38.999Z</time></trkpt><trkpt lat="42.16003207237653" lon="-8.002333225280612"><ele>668.0</ele><time>2026-04-29T09:45:39.999Z</time></trkpt><trkpt lat="42.1600405633257" lon="-8.002507120821809"><ele>667.0</ele><time>2026-04-29T09:45:40.999Z</time></trkpt><trkpt lat="42.16001760944736" lon="-8.002682511453923"><ele>666.0</ele><time>2026-04-29T09:45:41.999Z</time></trkpt><trkpt lat="42.16001151725169" lon="-8.002864491327191"><ele>665.0</ele><time>2026-04-29T09:45:42.999Z</time></trkpt><trkpt lat="42.159983415013286" lon="-8.00305735882099"><ele>664.0</ele><time>2026-04-29T09:45:43.999Z</time></trkpt><trkpt lat="42.15994598097368" lon="-8.003221408381355"><ele>663.0</ele><time>2026-04-29T09:45:44.999Z</time></trkpt><trkpt lat="42.159923952442966" lon="-8.003371159179283"><ele>662.0</ele><time>2026-04-29T09:45:45.999Z</time></trkpt><trkpt lat="42.15989996019613" lon="-8.003497262090981"><ele>661.0</ele><time>2026-04-29T09:45:46.999Z</time></trkpt><trkpt lat="42.15983783122513" lon="-8.00360580196605"><ele>660.0</ele><time>2026-04-29T09:45:47.999Z</time></trkpt><trkpt lat="42.159747010117584" lon="-8.003701331573188"><ele>659.0</ele><time>2026-04-29T09:45:48.999Z</time></trkpt><trkpt lat="42.15967394151588" lon="-8.003804360984732"><ele>658.0</ele><time>2026-04-29T09:45:49.999Z</time></trkpt><trkpt lat="42.1595982404939" lon="-8.003895445329874"><ele>657.1666666666667</ele><time>2026-04-29T09:45:50.999Z</time></trkpt><trkpt lat="42.1595263852392" lon="-8.00397000938699"><ele>656.3333333333334</ele><time>2026-04-29T09:45:51.999Z</time></trkpt><trkpt lat="42.159459202311346" lon="-8.004028274275445"><ele>655.5</ele><time>2026-04-29T09:45:52.999Z</time></trkpt><trkpt lat="42.15938737774633" lon="-8.004080757554707"><ele>654.6666666666666</ele><time>2026-04-29T09:45:53.999Z</time></trkpt><trkpt lat="42.15932488966195" lon="-8.004129916263446"><ele>653.8333333333333</ele><time>2026-04-29T09:45:54.999Z</time></trkpt><trkpt lat="42.15925804942297" lon="-8.00422764892572"><ele>653.0</ele><time>2026-04-29T09:45:56.999Z</time></trkpt><trkpt lat="42.159316120132935" lon="-8.004375570628023"><ele>652.1666666666666</ele><time>2026-04-29T09:45:58.999Z</time></trkpt><trkpt lat="42.15939271430818" lon="-8.004425948580913"><ele>651.3333333333333</ele><time>2026-04-29T09:45:59.999Z</time></trkpt><trkpt lat="42.15947543777637" lon="-8.00446110764009"><ele>650.5</ele><time>2026-04-29T09:46:00.999Z</time></trkpt><trkpt lat="42.159549053312006" lon="-8.004509704649616"><ele>649.6666666666666</ele><time>2026-04-29T09:46:01.999Z</time></trkpt><trkpt lat="42.15959064861719" lon="-8.004590735587659"><ele>648.8333333333334</ele><time>2026-04-29T09:46:02.999Z</time></trkpt><trkpt lat="42.1596133955986" lon="-8.00468915238336"><ele>648.0</ele><time>2026-04-29T09:46:03.999Z</time></trkpt><trkpt lat="42.15955650369747" lon="-8.004819303003043"><ele>648.0</ele><time>2026-04-29T09:46:04.999Z</time></trkpt><trkpt lat="42.15949964755749" lon="-8.004949173020595"><ele>648.0</ele><time>2026-04-29T09:46:05.999Z</time></trkpt><trkpt lat="42.15943636667253" lon="-8.00508394792387"><ele>648.0</ele><time>2026-04-29T09:46:06.999Z</time></trkpt><trkpt lat="42.1593762645287" lon="-8.0052243345212"><ele>648.0</ele><time>2026-04-29T09:46:07.999Z</time></trkpt><trkpt lat="42.15931596549299" lon="-8.005371879018094"><ele>647.5</ele><time>2026-04-29T09:46:08.999Z</time></trkpt><trkpt lat="42.159250330871075" lon="-8.005519093189132"><ele>647.0</ele><time>2026-04-29T09:46:10Z</time></trkpt><trkpt lat="42.159186483831064" lon="-8.005670019748118"><ele>646.5</ele><time>2026-04-29T09:46:11Z</time></trkpt><trkpt lat="42.159127450098225" lon="-8.005826744906361"><ele>646.0</ele><time>2026-04-29T09:46:12Z</time></trkpt><trkpt lat="42.159056023180625" lon="-8.00598141748032"><ele>644.0</ele><time>2026-04-29T09:46:13Z</time></trkpt><trkpt lat="42.15898353481154" lon="-8.006138834185622"><ele>642.0</ele><time>2026-04-29T09:46:14Z</time></trkpt><trkpt lat="42.158909416306" lon="-8.0062965188804"><ele>640.0</ele><time>2026-04-29T09:46:15Z</time></trkpt><trkpt lat="42.15884053613696" lon="-8.006466278654058"><ele>638.0</ele><time>2026-04-29T09:46:16Z</time></trkpt><trkpt lat="42.15878455548541" lon="-8.006628422011346"><ele>638.5</ele><time>2026-04-29T09:46:17Z</time></trkpt><trkpt lat="42.158704057149116" lon="-8.00680244706938"><ele>639.0</ele><time>2026-04-29T09:46:18Z</time></trkpt><trkpt lat="42.15863335474084" lon="-8.006963824955456"><ele>639.5</ele><time>2026-04-29T09:46:19Z</time></trkpt><trkpt lat="42.15857466739712" lon="-8.007126710613678"><ele>640.0</ele><time>2026-04-29T09:46:20Z</time></trkpt><trkpt lat="42.158526165862845" lon="-8.007274822309972"><ele>640.0</ele><time>2026-04-29T09:46:21Z</time></trkpt><trkpt lat="42.158460841287294" lon="-8.007433713725398"><ele>640.0</ele><time>2026-04-29T09:46:22Z</time></trkpt><trkpt lat="42.15837594012136" lon="-8.007589025086947"><ele>640.0</ele><time>2026-04-29T09:46:23Z</time></trkpt><trkpt lat="42.158294219945425" lon="-8.007745978341449"><ele>640.0</ele><time>2026-04-29T09:46:24Z</time></trkpt><trkpt lat="42.1582044972707" lon="-8.007884080216167"><ele>639.0</ele><time>2026-04-29T09:46:25Z</time></trkpt><trkpt lat="42.15812483051919" lon="-8.00800118472341"><ele>638.0</ele><time>2026-04-29T09:46:26Z</time></trkpt><trkpt lat="42.15804402242068" lon="-8.008098161178408"><ele>637.0</ele><time>2026-04-29T09:46:27Z</time></trkpt><trkpt lat="42.157965021981575" lon="-8.008175932204717"><ele>636.0</ele><time>2026-04-29T09:46:28Z</time></trkpt><trkpt lat="42.15789418253552" lon="-8.008244469413418"><ele>635.0</ele><time>2026-04-29T09:46:29Z</time></trkpt><trkpt lat="42.157843494994694" lon="-8.008320643547592"><ele>634.6</ele><time>2026-04-29T09:46:30Z</time></trkpt><trkpt lat="42.157779217506594" lon="-8.008458002126904"><ele>634.2</ele><time>2026-04-29T09:46:32Z</time></trkpt><trkpt lat="42.15773577366483" lon="-8.008530092786668"><ele>633.8</ele><time>2026-04-29T09:46:33Z</time></trkpt><trkpt lat="42.1577322540617" lon="-8.008650941538246"><ele>633.4</ele><time>2026-04-29T09:46:34Z</time></trkpt><trkpt lat="42.15777701262349" lon="-8.008762659224049"><ele>633.0</ele><time>2026-04-29T09:46:35Z</time></trkpt><trkpt lat="42.15781951316246" lon="-8.008888448531286"><ele>633.0</ele><time>2026-04-29T09:46:36Z</time></trkpt><trkpt lat="42.15785670151955" lon="-8.009031431857697"><ele>633.0</ele><time>2026-04-29T09:46:37Z</time></trkpt><trkpt lat="42.157880993103674" lon="-8.009188209841582"><ele>633.0</ele><time>2026-04-29T09:46:38Z</time></trkpt><trkpt lat="42.15788088744448" lon="-8.009370933465398"><ele>633.0</ele><time>2026-04-29T09:46:39Z</time></trkpt><trkpt lat="42.15788094808045" lon="-8.009551823874197"><ele>631.75</ele><time>2026-04-29T09:46:40Z</time></trkpt><trkpt lat="42.15788272142559" lon="-8.009733797494919"><ele>630.5</ele><time>2026-04-29T09:46:41Z</time></trkpt><trkpt lat="42.157898998176606" lon="-8.009909365735622"><ele>629.25</ele><time>2026-04-29T09:46:42Z</time></trkpt><trkpt lat="42.15792331422742" lon="-8.01005705804408"><ele>628.0</ele><time>2026-04-29T09:46:43Z</time></trkpt><trkpt lat="42.15796536801636" lon="-8.010187018124078"><ele>628.0</ele><time>2026-04-29T09:46:44Z</time></trkpt><trkpt lat="42.158041385654585" lon="-8.010303579978547"><ele>628.0</ele><time>2026-04-29T09:46:45Z</time></trkpt><trkpt lat="42.158141792600276" lon="-8.010379927530382"><ele>628.0</ele><time>2026-04-29T09:46:46Z</time></trkpt><trkpt lat="42.158251067921" lon="-8.01044480978222"><ele>628.0</ele><time>2026-04-29T09:46:47Z</time></trkpt><trkpt lat="42.15835381596335" lon="-8.010535609423792"><ele>628.0</ele><time>2026-04-29T09:46:48Z</time></trkpt><trkpt lat="42.15844731550569" lon="-8.010655336615525"><ele>628.0</ele><time>2026-04-29T09:46:49Z</time></trkpt><trkpt lat="42.15853258683876" lon="-8.010776463574224"><ele>628.0</ele><time>2026-04-29T09:46:50Z</time></trkpt><trkpt lat="42.15859948356371" lon="-8.010892790756698"><ele>628.0</ele><time>2026-04-29T09:46:51Z</time></trkpt><trkpt lat="42.15865211240461" lon="-8.011015072403183"><ele>628.0</ele><time>2026-04-29T09:46:52Z</time></trkpt><trkpt lat="42.15868702538816" lon="-8.011153019971205"><ele>628.0</ele><time>2026-04-29T09:46:53Z</time></trkpt><trkpt lat="42.15870133566305" lon="-8.011315122631434"><ele>628.0</ele><time>2026-04-29T09:46:54Z</time></trkpt><trkpt lat="42.15870092520076" lon="-8.011498631799153"><ele>628.0</ele><time>2026-04-29T09:46:55Z</time></trkpt><trkpt lat="42.158693932983496" lon="-8.011686006240613"><ele>626.75</ele><time>2026-04-29T09:46:56Z</time></trkpt><trkpt lat="42.15870939285335" lon="-8.011870755808744"><ele>625.5</ele><time>2026-04-29T09:46:57Z</time></trkpt><trkpt lat="42.15869584821658" lon="-8.012054631975758"><ele>624.25</ele><time>2026-04-29T09:46:58Z</time></trkpt><trkpt lat="42.15868079381193" lon="-8.012231381648286"><ele>623.0</ele><time>2026-04-29T09:46:59Z</time></trkpt><trkpt lat="42.15866989045529" lon="-8.012401635137211"><ele>621.25</ele><time>2026-04-29T09:47:00Z</time></trkpt><trkpt lat="42.15865960674842" lon="-8.0125640230292"><ele>619.5</ele><time>2026-04-29T09:47:01Z</time></trkpt><trkpt lat="42.158647468380316" lon="-8.012721054313486"><ele>617.75</ele><time>2026-04-29T09:47:02Z</time></trkpt><trkpt lat="42.15863858578762" lon="-8.012874287192263"><ele>616.0</ele><time>2026-04-29T09:47:03Z</time></trkpt><trkpt lat="42.15863015090002" lon="-8.01302449627821"><ele>616.0</ele><time>2026-04-29T09:47:04Z</time></trkpt><trkpt lat="42.15862099519107" lon="-8.013168318198243"><ele>616.0</ele><time>2026-04-29T09:47:05Z</time></trkpt><trkpt lat="42.15861339164612" lon="-8.013284132535473"><ele>616.0</ele><time>2026-04-29T09:47:06Z</time></trkpt><trkpt lat="42.15861842267095" lon="-8.013393005489903"><ele>616.0</ele><time>2026-04-29T09:47:07Z</time></trkpt><trkpt lat="42.158630910985686" lon="-8.01349484988811"><ele>616.0</ele><time>2026-04-29T09:47:08Z</time></trkpt><trkpt lat="42.15871344369664" lon="-8.013568393281918"><ele>616.0</ele><time>2026-04-29T09:47:09Z</time></trkpt><trkpt lat="42.158789132373215" lon="-8.013654048006275"><ele>614.8</ele><time>2026-04-29T09:47:10Z</time></trkpt><trkpt lat="42.158880747900774" lon="-8.013725175662763"><ele>613.6</ele><time>2026-04-29T09:47:11Z</time></trkpt><trkpt lat="42.158965426920425" lon="-8.013800099367895"><ele>612.4</ele><time>2026-04-29T09:47:12Z</time></trkpt><trkpt lat="42.159033681158924" lon="-8.013875342499363"><ele>611.2</ele><time>2026-04-29T09:47:13Z</time></trkpt><trkpt lat="42.15909322224821" lon="-8.013970753869824"><ele>610.0</ele><time>2026-04-29T09:47:14Z</time></trkpt><trkpt lat="42.15912968527964" lon="-8.014109968775418"><ele>607.0</ele><time>2026-04-29T09:47:15Z</time></trkpt><trkpt lat="42.159147620520514" lon="-8.01427409306379"><ele>604.0</ele><time>2026-04-29T09:47:16Z</time></trkpt><trkpt lat="42.15916006873137" lon="-8.014455822610934"><ele>601.0</ele><time>2026-04-29T09:47:17Z</time></trkpt><trkpt lat="42.15917475511074" lon="-8.01463849609335"><ele>598.0</ele><time>2026-04-29T09:47:18Z</time></trkpt><trkpt lat="42.15919312407959" lon="-8.014807510231176"><ele>598.0</ele><time>2026-04-29T09:47:19Z</time></trkpt><trkpt lat="42.15921396474178" lon="-8.014974987066632"><ele>598.0</ele><time>2026-04-29T09:47:20Z</time></trkpt><trkpt lat="42.15923486079484" lon="-8.015137798864398"><ele>598.0</ele><time>2026-04-29T09:47:21Z</time></trkpt><trkpt lat="42.15926628933757" lon="-8.01530097869667"><ele>598.0</ele><time>2026-04-29T09:47:22Z</time></trkpt><trkpt lat="42.15931493420871" lon="-8.015472708275448"><ele>596.25</ele><time>2026-04-29T09:47:23Z</time></trkpt><trkpt lat="42.15936601466282" lon="-8.01564559920113"><ele>594.5</ele><time>2026-04-29T09:47:24Z</time></trkpt><trkpt lat="42.159412255027654" lon="-8.01581365212977"><ele>592.75</ele><time>2026-04-29T09:47:25Z</time></trkpt><trkpt lat="42.15945759276043" lon="-8.015968162160299"><ele>591.0</ele><time>2026-04-29T09:47:26Z</time></trkpt><trkpt lat="42.159501920426244" lon="-8.01611577738345"><ele>589.0</ele><time>2026-04-29T09:47:27Z</time></trkpt><trkpt lat="42.159541210296986" lon="-8.016254697316912"><ele>587.0</ele><time>2026-04-29T09:47:28Z</time></trkpt><trkpt lat="42.15958272977198" lon="-8.016393231415426"><ele>585.0</ele><time>2026-04-29T09:47:29Z</time></trkpt><trkpt lat="42.15962072726936" lon="-8.016542681508836"><ele>583.0</ele><time>2026-04-29T09:47:30Z</time></trkpt><trkpt lat="42.159653583375714" lon="-8.016693522408342"><ele>582.1666666666667</ele><time>2026-04-29T09:47:31Z</time></trkpt><trkpt lat="42.15966378639869" lon="-8.016829465910224"><ele>581.3333333333334</ele><time>2026-04-29T09:47:32Z</time></trkpt><trkpt lat="42.159655517397454" lon="-8.016959084593497"><ele>580.5</ele><time>2026-04-29T09:47:33Z</time></trkpt><trkpt lat="42.159610998222554" lon="-8.017052487362093"><ele>579.6666666666666</ele><time>2026-04-29T09:47:34Z</time></trkpt><trkpt lat="42.15956542670981" lon="-8.017177707659426"><ele>578.8333333333333</ele><time>2026-04-29T09:47:36Z</time></trkpt><trkpt lat="42.15952439760352" lon="-8.017245007605782"><ele>578.0</ele><time>2026-04-29T09:47:38Z</time></trkpt><trkpt lat="42.15968065523285" lon="-8.017351288637796"><ele>578.0</ele><time>2026-04-29T09:47:41Z</time></trkpt><trkpt lat="42.15976164135926" lon="-8.017385913529615"><ele>578.0</ele><time>2026-04-29T09:47:42Z</time></trkpt><trkpt lat="42.15985094404703" lon="-8.01739973111521"><ele>578.0</ele><time>2026-04-29T09:47:43Z</time></trkpt><trkpt lat="42.15995180124812" lon="-8.017443317809377"><ele>578.0</ele><time>2026-04-29T09:47:44Z</time></trkpt><trkpt lat="42.16005208709292" lon="-8.017489866186649"><ele>578.0</ele><time>2026-04-29T09:47:45Z</time></trkpt><trkpt lat="42.160129231717185" lon="-8.017525778135017"><ele>576.1666666666666</ele><time>2026-04-29T09:47:46Z</time></trkpt><trkpt lat="42.1602126435196" lon="-8.017565379753007"><ele>574.3333333333333</ele><time>2026-04-29T09:47:47Z</time></trkpt><trkpt lat="42.16029164050591" lon="-8.017606580219134"><ele>572.5</ele><time>2026-04-29T09:47:48Z</time></trkpt><trkpt lat="42.160367476442794" lon="-8.017638642443691"><ele>570.6666666666666</ele><time>2026-04-29T09:47:49Z</time></trkpt><trkpt lat="42.160439461121896" lon="-8.017667976688697"><ele>568.8333333333334</ele><time>2026-04-29T09:47:50Z</time></trkpt><trkpt lat="42.16051146711915" lon="-8.017701701744674"><ele>567.0</ele><time>2026-04-29T09:47:51Z</time></trkpt><trkpt lat="42.160575832100385" lon="-8.01773884895034"><ele>567.0</ele><time>2026-04-29T09:47:52Z</time></trkpt><trkpt lat="42.160658043628516" lon="-8.017758321645882"><ele>567.0</ele><time>2026-04-29T09:47:53Z</time></trkpt><trkpt lat="42.160745093126415" lon="-8.017750811332741"><ele>567.0</ele><time>2026-04-29T09:47:54Z</time></trkpt><trkpt lat="42.160832139240554" lon="-8.017754261311023"><ele>567.0</ele><time>2026-04-29T09:47:55Z</time></trkpt><trkpt lat="42.160894380228925" lon="-8.017718576865805"><ele>567.0</ele><time>2026-04-29T09:47:56Z</time></trkpt><trkpt lat="42.1610430080682" lon="-8.017581103065313"><ele>555.0</ele><time>2026-04-29T09:47:58Z</time></trkpt><trkpt lat="42.161444529355414" lon="-8.01807920281137"><ele>550.5</ele><time>2026-04-29T09:48:00Z</time></trkpt><trkpt lat="42.16156844472545" lon="-8.018143503851642"><ele>546.0</ele><time>2026-04-29T09:48:01Z</time></trkpt><trkpt lat="42.1617047710193" lon="-8.018174506885062"><ele>541.5</ele><time>2026-04-29T09:48:02Z</time></trkpt><trkpt lat="42.161821292139656" lon="-8.018234210459278"><ele>537.0</ele><time>2026-04-29T09:48:03Z</time></trkpt><trkpt lat="42.16195017298218" lon="-8.018293025661487"><ele>539.0</ele><time>2026-04-29T09:48:04Z</time></trkpt><trkpt lat="42.162108281836325" lon="-8.018353003859497"><ele>541.0</ele><time>2026-04-29T09:48:05Z</time></trkpt><trkpt lat="42.162234638956704" lon="-8.018436169654203"><ele>543.0</ele><time>2026-04-29T09:48:06Z</time></trkpt><trkpt lat="42.162362003642336" lon="-8.018521294454155"><ele>545.0</ele><time>2026-04-29T09:48:07Z</time></trkpt><trkpt lat="42.16245193732781" lon="-8.018635516500657"><ele>541.0</ele><time>2026-04-29T09:48:08Z</time></trkpt><trkpt lat="42.16258497887676" lon="-8.018748558378347"><ele>537.0</ele><time>2026-04-29T09:48:09Z</time></trkpt><trkpt lat="42.162685064254916" lon="-8.018820897794626"><ele>533.0</ele><time>2026-04-29T09:48:10Z</time></trkpt><trkpt lat="42.1627788730396" lon="-8.018929714528227"><ele>529.0</ele><time>2026-04-29T09:48:11Z</time></trkpt><trkpt lat="42.162879231702725" lon="-8.019083839551968"><ele>530.75</ele><time>2026-04-29T09:48:12Z</time></trkpt><trkpt lat="42.16298529252828" lon="-8.01922936812402"><ele>532.5</ele><time>2026-04-29T09:48:13Z</time></trkpt><trkpt lat="42.16306831088871" lon="-8.019380721628279"><ele>534.25</ele><time>2026-04-29T09:48:14Z</time></trkpt><trkpt lat="42.16314046101361" lon="-8.019520127005213"><ele>536.0</ele><time>2026-04-29T09:48:15Z</time></trkpt><trkpt lat="42.16320924244251" lon="-8.019614172173682"><ele>531.8</ele><time>2026-04-29T09:48:16Z</time></trkpt><trkpt lat="42.16329272405521" lon="-8.019693966120872"><ele>527.6</ele><time>2026-04-29T09:48:17Z</time></trkpt><trkpt lat="42.163391228738114" lon="-8.019770747482404"><ele>523.4</ele><time>2026-04-29T09:48:18Z</time></trkpt><trkpt lat="42.163488952122805" lon="-8.019815219411953"><ele>519.2</ele><time>2026-04-29T09:48:19Z</time></trkpt><trkpt lat="42.163557316807044" lon="-8.019864428458382"><ele>515.0</ele><time>2026-04-29T09:48:20Z</time></trkpt><trkpt lat="42.163631279343875" lon="-8.019881342514253"><ele>515.0</ele><time>2026-04-29T09:48:21Z</time></trkpt><trkpt lat="42.163722871225" lon="-8.01995224534531"><ele>515.0</ele><time>2026-04-29T09:48:22Z</time></trkpt><trkpt lat="42.163804933617456" lon="-8.020071375322262"><ele>515.0</ele><time>2026-04-29T09:48:23Z</time></trkpt><trkpt lat="42.16388273760529" lon="-8.020162363882333"><ele>515.0</ele><time>2026-04-29T09:48:24Z</time></trkpt><trkpt lat="42.163935769870136" lon="-8.020255062680926"><ele>515.0</ele><time>2026-04-29T09:48:25Z</time></trkpt><trkpt lat="42.16398927277952" lon="-8.020334620724043"><ele>514.5</ele><time>2026-04-29T09:48:26Z</time></trkpt><trkpt lat="42.16402476213129" lon="-8.020422017358154"><ele>514.0</ele><time>2026-04-29T09:48:28Z</time></trkpt><trkpt lat="42.164026684865476" lon="-8.020516171495066"><ele>513.5</ele><time>2026-04-29T09:48:29Z</time></trkpt><trkpt lat="42.16399016493612" lon="-8.020656929866348"><ele>513.0</ele><time>2026-04-29T09:48:31Z</time></trkpt><trkpt lat="42.163942125612756" lon="-8.020776500865667"><ele>512.5</ele><time>2026-04-29T09:48:32Z</time></trkpt><trkpt lat="42.16390162166495" lon="-8.020852970692285"><ele>512.0</ele><time>2026-04-29T09:48:33Z</time></trkpt><trkpt lat="42.163842596456114" lon="-8.020945757348292"><ele>510.0</ele><time>2026-04-29T09:48:34Z</time></trkpt><trkpt lat="42.163815071468925" lon="-8.021030590244381"><ele>508.00000000000006</ele><time>2026-04-29T09:48:35Z</time></trkpt><trkpt lat="42.16385419650598" lon="-8.021151275366917"><ele>506.00000000000006</ele><time>2026-04-29T09:48:37Z</time></trkpt><trkpt lat="42.163924241694595" lon="-8.021183142529496"><ele>504.0</ele><time>2026-04-29T09:48:38Z</time></trkpt><trkpt lat="42.16402039428825" lon="-8.021185668799717"><ele>502.0</ele><time>2026-04-29T09:48:39Z</time></trkpt><trkpt lat="42.16413879057643" lon="-8.021176928127955"><ele>498.75</ele><time>2026-04-29T09:48:40Z</time></trkpt><trkpt lat="42.1642595298828" lon="-8.02115505890247"><ele>495.5</ele><time>2026-04-29T09:48:41Z</time></trkpt><trkpt lat="42.164364405709" lon="-8.021156034644802"><ele>492.25</ele><time>2026-04-29T09:48:42Z</time></trkpt><trkpt lat="42.164482142315975" lon="-8.02115285749087"><ele>489.0</ele><time>2026-04-29T09:48:43Z</time></trkpt><trkpt lat="42.16461303291955" lon="-8.021152825100273"><ele>489.0</ele><time>2026-04-29T09:48:44Z</time></trkpt><trkpt lat="42.16474201515669" lon="-8.021167901270205"><ele>489.0</ele><time>2026-04-29T09:48:45Z</time></trkpt><trkpt lat="42.16485457423047" lon="-8.021211723198547"><ele>489.0</ele><time>2026-04-29T09:48:46Z</time></trkpt><trkpt lat="42.16497373347327" lon="-8.021201940671682"><ele>489.0</ele><time>2026-04-29T09:48:47Z</time></trkpt><trkpt lat="42.16509639004973" lon="-8.02119234079989"><ele>487.2</ele><time>2026-04-29T09:48:48Z</time></trkpt><trkpt lat="42.16521887926631" lon="-8.02118232792745"><ele>485.4</ele><time>2026-04-29T09:48:49Z</time></trkpt><trkpt lat="42.165346215492704" lon="-8.021179288880392"><ele>483.6</ele><time>2026-04-29T09:48:50Z</time></trkpt><trkpt lat="42.165441562236985" lon="-8.021158101921236"><ele>481.8</ele><time>2026-04-29T09:48:51Z</time></trkpt><trkpt lat="42.16553868647475" lon="-8.021119569213948"><ele>480.0</ele><time>2026-04-29T09:48:52Z</time></trkpt><trkpt lat="42.16561464943678" lon="-8.021057892412104"><ele>480.0</ele><time>2026-04-29T09:48:53Z</time></trkpt><trkpt lat="42.165660582407" lon="-8.02098068495275"><ele>480.0</ele><time>2026-04-29T09:48:54Z</time></trkpt><trkpt lat="42.16571563085333" lon="-8.020883638656155"><ele>480.0</ele><time>2026-04-29T09:48:56Z</time></trkpt><trkpt lat="42.165780227219884" lon="-8.02090695084835"><ele>480.0</ele><time>2026-04-29T09:48:58Z</time></trkpt><trkpt lat="42.165779815971455" lon="-8.021022512739124"><ele>480.0</ele><time>2026-04-29T09:49:00Z</time></trkpt><trkpt lat="42.1657232211506" lon="-8.02115490798151"><ele>480.0</ele><time>2026-04-29T09:49:02Z</time></trkpt><trkpt lat="42.16562935654728" lon="-8.021257901256947"><ele>480.0</ele><time>2026-04-29T09:49:03Z</time></trkpt><trkpt lat="42.16554560960074" lon="-8.021345303102857"><ele>480.0</ele><time>2026-04-29T09:49:04Z</time></trkpt><trkpt lat="42.1654349234874" lon="-8.021417698518377"><ele>480.0</ele><time>2026-04-29T09:49:05Z</time></trkpt><trkpt lat="42.165313137298504" lon="-8.0214908887784"><ele>480.0</ele><time>2026-04-29T09:49:06Z</time></trkpt><trkpt lat="42.16519965364879" lon="-8.021566926001695"><ele>480.0</ele><time>2026-04-29T09:49:07Z</time></trkpt><trkpt lat="42.16508939079567" lon="-8.021625468700048"><ele>480.0</ele><time>2026-04-29T09:49:08Z</time></trkpt><trkpt lat="42.16500937924691" lon="-8.021663322700258"><ele>480.0</ele><time>2026-04-29T09:49:09Z</time></trkpt><trkpt lat="42.164909861651466" lon="-8.02168348638652"><ele>480.0</ele><time>2026-04-29T09:49:10Z</time></trkpt><trkpt lat="42.16485417433011" lon="-8.021782994713288"><ele>480.0</ele><time>2026-04-29T09:49:11Z</time></trkpt><trkpt lat="42.164834980775645" lon="-8.021921850267999"><ele>479.0</ele><time>2026-04-29T09:49:12Z</time></trkpt><trkpt lat="42.164822640472295" lon="-8.0220382710172"><ele>478.0</ele><time>2026-04-29T09:49:13Z</time></trkpt><trkpt lat="42.164768141942155" lon="-8.02210531698409"><ele>477.0</ele><time>2026-04-29T09:49:14Z</time></trkpt><trkpt lat="42.16470956761684" lon="-8.022143807766348"><ele>476.0</ele><time>2026-04-29T09:49:15Z</time></trkpt><trkpt lat="42.16462859086533" lon="-8.02215098370457"><ele>475.0</ele><time>2026-04-29T09:49:16Z</time></trkpt><trkpt lat="42.1645274533182" lon="-8.02214016421787"><ele>474.0</ele><time>2026-04-29T09:49:17Z</time></trkpt><trkpt lat="42.16441877532708" lon="-8.022111825886597"><ele>474.0</ele><time>2026-04-29T09:49:18Z</time></trkpt><trkpt lat="42.16433492534625" lon="-8.022110001424387"><ele>474.0</ele><time>2026-04-29T09:49:19Z</time></trkpt><trkpt lat="42.164261590365875" lon="-8.022158997521757"><ele>474.0</ele><time>2026-04-29T09:49:20Z</time></trkpt><trkpt lat="42.16417839476036" lon="-8.022288733076007"><ele>474.0</ele><time>2026-04-29T09:49:21Z</time></trkpt><trkpt lat="42.164085629828534" lon="-8.022410766952968"><ele>474.0</ele><time>2026-04-29T09:49:22Z</time></trkpt><trkpt lat="42.163996998256174" lon="-8.022533877882267"><ele>474.75</ele><time>2026-04-29T09:49:23Z</time></trkpt><trkpt lat="42.16394945130696" lon="-8.022710472107914"><ele>475.5</ele><time>2026-04-29T09:49:24Z</time></trkpt><trkpt lat="42.16387716792609" lon="-8.022864599447992"><ele>476.25</ele><time>2026-04-29T09:49:25Z</time></trkpt><trkpt lat="42.16381492912933" lon="-8.02298324260645"><ele>477.0</ele><time>2026-04-29T09:49:26Z</time></trkpt><trkpt lat="42.16376690047354" lon="-8.02307081772753"><ele>477.0</ele><time>2026-04-29T09:49:27Z</time></trkpt><trkpt lat="42.16368802590302" lon="-8.02315096054024"><ele>477.00000000000006</ele><time>2026-04-29T09:49:28Z</time></trkpt><trkpt lat="42.16360781737572" lon="-8.023200576696919"><ele>477.00000000000006</ele><time>2026-04-29T09:49:29Z</time></trkpt><trkpt lat="42.16350771068578" lon="-8.023225187548205"><ele>477.0</ele><time>2026-04-29T09:49:30Z</time></trkpt><trkpt lat="42.163368991918" lon="-8.02324368700353"><ele>477.0</ele><time>2026-04-29T09:49:31Z</time></trkpt><trkpt lat="42.16322914848381" lon="-8.023259381029158"><ele>479.0</ele><time>2026-04-29T09:49:32Z</time></trkpt><trkpt lat="42.16310094528636" lon="-8.023255152338177"><ele>481.0</ele><time>2026-04-29T09:49:33Z</time></trkpt><trkpt lat="42.16298584551238" lon="-8.023212646407996"><ele>483.0</ele><time>2026-04-29T09:49:34Z</time></trkpt><trkpt lat="42.162863876260126" lon="-8.023160079548962"><ele>485.0</ele><time>2026-04-29T09:49:35Z</time></trkpt><trkpt lat="42.16274596138731" lon="-8.023127454877265"><ele>485.0</ele><time>2026-04-29T09:49:36Z</time></trkpt><trkpt lat="42.16265803782204" lon="-8.023132829677662"><ele>485.0</ele><time>2026-04-29T09:49:37Z</time></trkpt><trkpt lat="42.16257170477765" lon="-8.023198274233055"><ele>485.0</ele><time>2026-04-29T09:49:38Z</time></trkpt><trkpt lat="42.16249071063074" lon="-8.023295884545059"><ele>485.0</ele><time>2026-04-29T09:49:39Z</time></trkpt><trkpt lat="42.162386752287034" lon="-8.023399849872352"><ele>485.0</ele><time>2026-04-29T09:49:40Z</time></trkpt><trkpt lat="42.162238925676455" lon="-8.02349396734316"><ele>482.0</ele><time>2026-04-29T09:49:41Z</time></trkpt><trkpt lat="42.16208368910117" lon="-8.023590123883789"><ele>479.0</ele><time>2026-04-29T09:49:42Z</time></trkpt><trkpt lat="42.16194300717084" lon="-8.023689623255283"><ele>476.0</ele><time>2026-04-29T09:49:43Z</time></trkpt><trkpt lat="42.161816408753886" lon="-8.023763076162977"><ele>476.0</ele><time>2026-04-29T09:49:44Z</time></trkpt><trkpt lat="42.16169578220575" lon="-8.023832012263243"><ele>476.0</ele><time>2026-04-29T09:49:45Z</time></trkpt><trkpt lat="42.16157624301389" lon="-8.02387890130939"><ele>476.0</ele><time>2026-04-29T09:49:46Z</time></trkpt><trkpt lat="42.16142769211285" lon="-8.023895236010036"><ele>476.0</ele><time>2026-04-29T09:49:47Z</time></trkpt><trkpt lat="42.161257820689066" lon="-8.023943041728872"><ele>477.0</ele><time>2026-04-29T09:49:48Z</time></trkpt><trkpt lat="42.16110677345848" lon="-8.023916232141833"><ele>478.0</ele><time>2026-04-29T09:49:49Z</time></trkpt><trkpt lat="42.160967408342245" lon="-8.023921499271298"><ele>479.0</ele><time>2026-04-29T09:49:50Z</time></trkpt><trkpt lat="42.160876304863166" lon="-8.023925284341784"><ele>480.0</ele><time>2026-04-29T09:49:51Z</time></trkpt><trkpt lat="42.16073474109854" lon="-8.023972365542749"><ele>479.0</ele><time>2026-04-29T09:49:52Z</time></trkpt><trkpt lat="42.160599016654736" lon="-8.024043353551749"><ele>478.0</ele><time>2026-04-29T09:49:53Z</time></trkpt><trkpt lat="42.16050854681769" lon="-8.02407620334619"><ele>477.0</ele><time>2026-04-29T09:49:54Z</time></trkpt><trkpt lat="42.160394748288276" lon="-8.024055919341867"><ele>476.0</ele><time>2026-04-29T09:49:55Z</time></trkpt><trkpt lat="42.1602568171288" lon="-8.023978075846204"><ele>476.0</ele><time>2026-04-29T09:49:56.001Z</time></trkpt><trkpt lat="42.16008779593151" lon="-8.023905108725604"><ele>476.0</ele><time>2026-04-29T09:49:57.001Z</time></trkpt><trkpt lat="42.1599002171697" lon="-8.023833273086943"><ele>476.0</ele><time>2026-04-29T09:49:58.001Z</time></trkpt><trkpt lat="42.15976470455983" lon="-8.02377445615516"><ele>473.75</ele><time>2026-04-29T09:49:59.001Z</time></trkpt><trkpt lat="42.15966404239244" lon="-8.023717266421231"><ele>471.5</ele><time>2026-04-29T09:50:00.001Z</time></trkpt><trkpt lat="42.15955358027269" lon="-8.02365860581074"><ele>469.25</ele><time>2026-04-29T09:50:01.001Z</time></trkpt><trkpt lat="42.15941543606616" lon="-8.023603000740179"><ele>467.0</ele><time>2026-04-29T09:50:02.001Z</time></trkpt><trkpt lat="42.15927322787189" lon="-8.023534696855888"><ele>467.0</ele><time>2026-04-29T09:50:03.001Z</time></trkpt><trkpt lat="42.15910752329812" lon="-8.023462928360063"><ele>467.0</ele><time>2026-04-29T09:50:04.001Z</time></trkpt><trkpt lat="42.15894472537353" lon="-8.023385885831033"><ele>467.0</ele><time>2026-04-29T09:50:05.001Z</time></trkpt><trkpt lat="42.158795772718726" lon="-8.023320162329966"><ele>470.20000000000005</ele><time>2026-04-29T09:50:06.001Z</time></trkpt><trkpt lat="42.15867710282437" lon="-8.023247544079767"><ele>473.40000000000003</ele><time>2026-04-29T09:50:07Z</time></trkpt><trkpt lat="42.15857706420035" lon="-8.023218791166256"><ele>476.59999999999997</ele><time>2026-04-29T09:50:08Z</time></trkpt><trkpt lat="42.158462618635326" lon="-8.02321235300837"><ele>479.79999999999995</ele><time>2026-04-29T09:50:09Z</time></trkpt><trkpt lat="42.158382086250654" lon="-8.02323370516473"><ele>483.0</ele><time>2026-04-29T09:50:10Z</time></trkpt><trkpt lat="42.158305694914624" lon="-8.023272208104212"><ele>483.0</ele><time>2026-04-29T09:50:11Z</time></trkpt><trkpt lat="42.15820991878047" lon="-8.023250204241286"><ele>482.99999999999994</ele><time>2026-04-29T09:50:12Z</time></trkpt><trkpt lat="42.158105372819044" lon="-8.023203238540242"><ele>482.99999999999994</ele><time>2026-04-29T09:50:13Z</time></trkpt><trkpt lat="42.15799173482379" lon="-8.023161773968534"><ele>483.0</ele><time>2026-04-29T09:50:14Z</time></trkpt><trkpt lat="42.157878909061665" lon="-8.02310702108318"><ele>483.0</ele><time>2026-04-29T09:50:15Z</time></trkpt><trkpt lat="42.15773862647226" lon="-8.023058037614947"><ele>483.8333333333333</ele><time>2026-04-29T09:50:16Z</time></trkpt><trkpt lat="42.15760047718819" lon="-8.023027201616244"><ele>484.66666666666663</ele><time>2026-04-29T09:50:17Z</time></trkpt><trkpt lat="42.15754675893694" lon="-8.022980523543934"><ele>485.5</ele><time>2026-04-29T09:50:19Z</time></trkpt><trkpt lat="42.157484546001136" lon="-8.022942101939575"><ele>486.3333333333333</ele><time>2026-04-29T09:50:20Z</time></trkpt><trkpt lat="42.157419849910255" lon="-8.022881726017673"><ele>487.16666666666663</ele><time>2026-04-29T09:50:21Z</time></trkpt><trkpt lat="42.15736901363405" lon="-8.0228212559039"><ele>488.0</ele><time>2026-04-29T09:50:22Z</time></trkpt><trkpt lat="42.157281811114586" lon="-8.02288195282421"><ele>488.0</ele><time>2026-04-29T09:50:26Z</time></trkpt><trkpt lat="42.15723716361755" lon="-8.02299956422135"><ele>488.0</ele><time>2026-04-29T09:50:27Z</time></trkpt><trkpt lat="42.15716094833302" lon="-8.023170326987142"><ele>488.0</ele><time>2026-04-29T09:50:28Z</time></trkpt><trkpt lat="42.157139489522365" lon="-8.023376657050537"><ele>488.0</ele><time>2026-04-29T09:50:29Z</time></trkpt><trkpt lat="42.15710725050211" lon="-8.023609459296189"><ele>486.0</ele><time>2026-04-29T09:50:30Z</time></trkpt><trkpt lat="42.157077141431515" lon="-8.023781835909233"><ele>484.0</ele><time>2026-04-29T09:50:31Z</time></trkpt><trkpt lat="42.15706840530481" lon="-8.023960740826539"><ele>482.0</ele><time>2026-04-29T09:50:32Z</time></trkpt><trkpt lat="42.15705148670049" lon="-8.024110640807594"><ele>480.0</ele><time>2026-04-29T09:50:33Z</time></trkpt><trkpt lat="42.15701832095114" lon="-8.024222019970027"><ele>476.75</ele><time>2026-04-29T09:50:34Z</time></trkpt><trkpt lat="42.156954296654746" lon="-8.024315569306776"><ele>473.5</ele><time>2026-04-29T09:50:35Z</time></trkpt><trkpt lat="42.156865165992556" lon="-8.024393439605328"><ele>470.25</ele><time>2026-04-29T09:50:36Z</time></trkpt><trkpt lat="42.156740737841126" lon="-8.024466032946513"><ele>467.0</ele><time>2026-04-29T09:50:37Z</time></trkpt><trkpt lat="42.15658536818634" lon="-8.024580750599133"><ele>470.66666666666663</ele><time>2026-04-29T09:50:38Z</time></trkpt><trkpt lat="42.15642450764818" lon="-8.024676952355911"><ele>474.33333333333337</ele><time>2026-04-29T09:50:39Z</time></trkpt><trkpt lat="42.15626915012286" lon="-8.024763364832516"><ele>478.0</ele><time>2026-04-29T09:50:40Z</time></trkpt><trkpt lat="42.156159546821264" lon="-8.024798550290997"><ele>478.0</ele><time>2026-04-29T09:50:41Z</time></trkpt><trkpt lat="42.156055498008165" lon="-8.024809403133835"><ele>477.99999999999994</ele><time>2026-04-29T09:50:42Z</time></trkpt><trkpt lat="42.15595424561084" lon="-8.024776966042523"><ele>477.99999999999994</ele><time>2026-04-29T09:50:43Z</time></trkpt><trkpt lat="42.15585362748126" lon="-8.02471705490354"><ele>478.0</ele><time>2026-04-29T09:50:44Z</time></trkpt><trkpt lat="42.155733231950364" lon="-8.024670534376776"><ele>478.0</ele><time>2026-04-29T09:50:45Z</time></trkpt><trkpt lat="42.1556165271544" lon="-8.024610225801997"><ele>477.0</ele><time>2026-04-29T09:50:46Z</time></trkpt><trkpt lat="42.15550687934141" lon="-8.0245175840705"><ele>476.0</ele><time>2026-04-29T09:50:47Z</time></trkpt><trkpt lat="42.15537512157047" lon="-8.02434964222041"><ele>475.0</ele><time>2026-04-29T09:50:48Z</time></trkpt><trkpt lat="42.155249586900155" lon="-8.024241607340018"><ele>475.0</ele><time>2026-04-29T09:50:49Z</time></trkpt><trkpt lat="42.1551530264863" lon="-8.024176351283327"><ele>475.0</ele><time>2026-04-29T09:50:50Z</time></trkpt><trkpt lat="42.15504935082392" lon="-8.024156734450791"><ele>475.0</ele><time>2026-04-29T09:50:51Z</time></trkpt><trkpt lat="42.15489521390078" lon="-8.024188670367625"><ele>475.0</ele><time>2026-04-29T09:50:52Z</time></trkpt><trkpt lat="42.154732267468795" lon="-8.024187054385793"><ele>476.25</ele><time>2026-04-29T09:50:53Z</time></trkpt><trkpt lat="42.15459615928149" lon="-8.024189616270073"><ele>477.5</ele><time>2026-04-29T09:50:54Z</time></trkpt><trkpt lat="42.15445317666621" lon="-8.024211076330927"><ele>478.75</ele><time>2026-04-29T09:50:55Z</time></trkpt><trkpt lat="42.15432617237948" lon="-8.024263064060403"><ele>480.0</ele><time>2026-04-29T09:50:56Z</time></trkpt><trkpt lat="42.154204901055635" lon="-8.024314053292088"><ele>480.0</ele><time>2026-04-29T09:50:57Z</time></trkpt><trkpt lat="42.15407848148804" lon="-8.024383854526842"><ele>480.0</ele><time>2026-04-29T09:50:58Z</time></trkpt><trkpt lat="42.1539476031877" lon="-8.024446554445966"><ele>480.0</ele><time>2026-04-29T09:50:59Z</time></trkpt><trkpt lat="42.15386734268461" lon="-8.024469976584536"><ele>480.0</ele><time>2026-04-29T09:51:00Z</time></trkpt><trkpt lat="42.15381713467964" lon="-8.024544283191412"><ele>480.0</ele><time>2026-04-29T09:51:02Z</time></trkpt><trkpt lat="42.15377738548286" lon="-8.024617128828352"><ele>481.5</ele><time>2026-04-29T09:51:03Z</time></trkpt><trkpt lat="42.15375400920712" lon="-8.024698811249769"><ele>483.0</ele><time>2026-04-29T09:51:04Z</time></trkpt><trkpt lat="42.1536830239939" lon="-8.024840087842456"><ele>484.5</ele><time>2026-04-29T09:51:05Z</time></trkpt><trkpt lat="42.15359107083254" lon="-8.02497586689538"><ele>486.0</ele><time>2026-04-29T09:51:06Z</time></trkpt><trkpt lat="42.15348295931203" lon="-8.025116033633907"><ele>482.4</ele><time>2026-04-29T09:51:07Z</time></trkpt><trkpt lat="42.15341534306063" lon="-8.025168604837576"><ele>478.8</ele><time>2026-04-29T09:51:08Z</time></trkpt><trkpt lat="42.15334656509283" lon="-8.02523551465996"><ele>475.19999999999993</ele><time>2026-04-29T09:51:09Z</time></trkpt><trkpt lat="42.15327010624803" lon="-8.0252780261344"><ele>471.59999999999997</ele><time>2026-04-29T09:51:10Z</time></trkpt><trkpt lat="42.15313256797972" lon="-8.025271208391487"><ele>468.0</ele><time>2026-04-29T09:51:12Z</time></trkpt><trkpt lat="42.15304449709656" lon="-8.02521406956315"><ele>468.0</ele><time>2026-04-29T09:51:13Z</time></trkpt><trkpt lat="42.152963758257386" lon="-8.025138179619825"><ele>467.99999999999994</ele><time>2026-04-29T09:51:14Z</time></trkpt><trkpt lat="42.15291591131688" lon="-8.025010350837976"><ele>467.99999999999994</ele><time>2026-04-29T09:51:15Z</time></trkpt><trkpt lat="42.152861715482764" lon="-8.024872583198647"><ele>468.0</ele><time>2026-04-29T09:51:16Z</time></trkpt><trkpt lat="42.1527981538389" lon="-8.024760393393114"><ele>468.0</ele><time>2026-04-29T09:51:17Z</time></trkpt><trkpt lat="42.15274350081308" lon="-8.024682732857567"><ele>471.0</ele><time>2026-04-29T09:51:18Z</time></trkpt><trkpt lat="42.15271444560801" lon="-8.024594735742964"><ele>474.0</ele><time>2026-04-29T09:51:19Z</time></trkpt><trkpt lat="42.15270709437779" lon="-8.02450150077261"><ele>477.0</ele><time>2026-04-29T09:51:21Z</time></trkpt><trkpt lat="42.15263685333292" lon="-8.024582088542887"><ele>480.0</ele><time>2026-04-29T09:51:24Z</time></trkpt><trkpt lat="42.15260307535745" lon="-8.024655720088392"><ele>483.0</ele><time>2026-04-29T09:51:25Z</time></trkpt><trkpt lat="42.15256939866745" lon="-8.024750853333483"><ele>486.0</ele><time>2026-04-29T09:51:26Z</time></trkpt><trkpt lat="42.15252155175781" lon="-8.024844401873215"><ele>486.0</ele><time>2026-04-29T09:51:27Z</time></trkpt><trkpt lat="42.15247517008794" lon="-8.024938982968923"><ele>486.0</ele><time>2026-04-29T09:51:28Z</time></trkpt><trkpt lat="42.152419270377955" lon="-8.025033869596916"><ele>486.0</ele><time>2026-04-29T09:51:29Z</time></trkpt><trkpt lat="42.15235234682285" lon="-8.025123241958852"><ele>486.0</ele><time>2026-04-29T09:51:30Z</time></trkpt><trkpt lat="42.152273190088955" lon="-8.025217948001282"><ele>486.0</ele><time>2026-04-29T09:51:31Z</time></trkpt><trkpt lat="42.15220370608526" lon="-8.025280844762847"><ele>485.6</ele><time>2026-04-29T09:51:32Z</time></trkpt><trkpt lat="42.15215456580616" lon="-8.025349991021331"><ele>485.20000000000005</ele><time>2026-04-29T09:51:33Z</time></trkpt><trkpt lat="42.152146259911405" lon="-8.025480505791508"><ele>484.79999999999995</ele><time>2026-04-29T09:51:35Z</time></trkpt><trkpt lat="42.15223936217128" lon="-8.025499503535917"><ele>484.4</ele><time>2026-04-29T09:51:37Z</time></trkpt><trkpt lat="42.15234427839083" lon="-8.025406112698052"><ele>484.0</ele><time>2026-04-29T09:51:39Z</time></trkpt><trkpt lat="42.152411308739346" lon="-8.025376667343158"><ele>484.00000000000006</ele><time>2026-04-29T09:51:40Z</time></trkpt><trkpt lat="42.152472385829746" lon="-8.025401946485207"><ele>484.0</ele><time>2026-04-29T09:51:41Z</time></trkpt><trkpt lat="42.15251204587967" lon="-8.025485092360139"><ele>484.0</ele><time>2026-04-29T09:51:42Z</time></trkpt><trkpt lat="42.1525586148762" lon="-8.025567217717583"><ele>484.0</ele><time>2026-04-29T09:51:43Z</time></trkpt><trkpt lat="42.152604558591534" lon="-8.025694842416538"><ele>484.00000000000006</ele><time>2026-04-29T09:51:44Z</time></trkpt><trkpt lat="42.15261946881208" lon="-8.025827787855611"><ele>484.0</ele><time>2026-04-29T09:51:45Z</time></trkpt><trkpt lat="42.15265363215636" lon="-8.025958882659916"><ele>484.0</ele><time>2026-04-29T09:51:46Z</time></trkpt><trkpt lat="42.15269716341869" lon="-8.026071469043307"><ele>484.0</ele><time>2026-04-29T09:51:47Z</time></trkpt><trkpt lat="42.152771552051604" lon="-8.026154792934042"><ele>484.0</ele><time>2026-04-29T09:51:48Z</time></trkpt><trkpt lat="42.15285788391547" lon="-8.026182052850714"><ele>484.0</ele><time>2026-04-29T09:51:49Z</time></trkpt><trkpt lat="42.1529576933419" lon="-8.026206644475067"><ele>484.0</ele><time>2026-04-29T09:51:50Z</time></trkpt><trkpt lat="42.15308027243372" lon="-8.02622230297917"><ele>482.75</ele><time>2026-04-29T09:51:51Z</time></trkpt><trkpt lat="42.1532067190905" lon="-8.026215515627213"><ele>481.5</ele><time>2026-04-29T09:51:52Z</time></trkpt><trkpt lat="42.15334167081182" lon="-8.026182526663092"><ele>480.25</ele><time>2026-04-29T09:51:53Z</time></trkpt><trkpt lat="42.15348427012599" lon="-8.026128563485551"><ele>479.0</ele><time>2026-04-29T09:51:54Z</time></trkpt><trkpt lat="42.15364941774563" lon="-8.02606582588566"><ele>479.0</ele><time>2026-04-29T09:51:55Z</time></trkpt><trkpt lat="42.1537970507425" lon="-8.026021616695987"><ele>479.0</ele><time>2026-04-29T09:51:56Z</time></trkpt><trkpt lat="42.15395060647837" lon="-8.026005449534003"><ele>479.0</ele><time>2026-04-29T09:51:57Z</time></trkpt><trkpt lat="42.154083285105465" lon="-8.025954850784174"><ele>479.0</ele><time>2026-04-29T09:51:58Z</time></trkpt><trkpt lat="42.15423469635689" lon="-8.025929001894099"><ele>481.0</ele><time>2026-04-29T09:51:59Z</time></trkpt><trkpt lat="42.154380046165656" lon="-8.025948724610778"><ele>483.0</ele><time>2026-04-29T09:52:00Z</time></trkpt><trkpt lat="42.15454200948282" lon="-8.025963461582752"><ele>485.0</ele><time>2026-04-29T09:52:01Z</time></trkpt><trkpt lat="42.15465067611582" lon="-8.025982590737971"><ele>487.0</ele><time>2026-04-29T09:52:02.001Z</time></trkpt><trkpt lat="42.15477776040246" lon="-8.026010679477022"><ele>486.0</ele><time>2026-04-29T09:52:03.001Z</time></trkpt><trkpt lat="42.15492055942134" lon="-8.026057897016287"><ele>485.0</ele><time>2026-04-29T09:52:04.001Z</time></trkpt><trkpt lat="42.15514595920772" lon="-8.026181713424009"><ele>484.0</ele><time>2026-04-29T09:52:05.001Z</time></trkpt><trkpt lat="42.155302101864535" lon="-8.026277395538193"><ele>484.0</ele><time>2026-04-29T09:52:06.001Z</time></trkpt><trkpt lat="42.15545209110449" lon="-8.026355297758867"><ele>484.0</ele><time>2026-04-29T09:52:07.001Z</time></trkpt><trkpt lat="42.15558780816924" lon="-8.026465184654615"><ele>484.0</ele><time>2026-04-29T09:52:08.001Z</time></trkpt><trkpt lat="42.155716859647484" lon="-8.02656756725751"><ele>489.0</ele><time>2026-04-29T09:52:09.001Z</time></trkpt><trkpt lat="42.15584509950642" lon="-8.026665162216293"><ele>494.0</ele><time>2026-04-29T09:52:10.001Z</time></trkpt><trkpt lat="42.155997721022885" lon="-8.026781180544418"><ele>499.0</ele><time>2026-04-29T09:52:11.001Z</time></trkpt><trkpt lat="42.15612420934951" lon="-8.026917344472468"><ele>499.0</ele><time>2026-04-29T09:52:12.001Z</time></trkpt><trkpt lat="42.15626192379222" lon="-8.027083130080868"><ele>499.0</ele><time>2026-04-29T09:52:13.001Z</time></trkpt><trkpt lat="42.15638173973099" lon="-8.027165595649395"><ele>499.0</ele><time>2026-04-29T09:52:14.001Z</time></trkpt><trkpt lat="42.156517162645954" lon="-8.027273494477527"><ele>501.25</ele><time>2026-04-29T09:52:15.001Z</time></trkpt><trkpt lat="42.15663830289125" lon="-8.027386176865487"><ele>503.5</ele><time>2026-04-29T09:52:16.001Z</time></trkpt><trkpt lat="42.15671784741225" lon="-8.02750686823784"><ele>505.75</ele><time>2026-04-29T09:52:17.001Z</time></trkpt><trkpt lat="42.1568180086375" lon="-8.027675295892253"><ele>508.0</ele><time>2026-04-29T09:52:18.001Z</time></trkpt><trkpt lat="42.15695362103757" lon="-8.027865013504435"><ele>508.0</ele><time>2026-04-29T09:52:19Z</time></trkpt><trkpt lat="42.15704732059503" lon="-8.028074948554684"><ele>508.0</ele><time>2026-04-29T09:52:20Z</time></trkpt><trkpt lat="42.15714222778848" lon="-8.02823391058411"><ele>508.0</ele><time>2026-04-29T09:52:21Z</time></trkpt><trkpt lat="42.15721154195364" lon="-8.028415594230953"><ele>508.25</ele><time>2026-04-29T09:52:22Z</time></trkpt><trkpt lat="42.1573055696749" lon="-8.028546675281186"><ele>508.5</ele><time>2026-04-29T09:52:23Z</time></trkpt><trkpt lat="42.15737788776476" lon="-8.028703567845348"><ele>508.75</ele><time>2026-04-29T09:52:24Z</time></trkpt><trkpt lat="42.15744040610293" lon="-8.028801415356412"><ele>509.0</ele><time>2026-04-29T09:52:25Z</time></trkpt><trkpt lat="42.15746687959463" lon="-8.028918814922129"><ele>508.99999999999994</ele><time>2026-04-29T09:52:27Z</time></trkpt><trkpt lat="42.157394507146115" lon="-8.028949725917057"><ele>509.0</ele><time>2026-04-29T09:52:32Z</time></trkpt><trkpt lat="42.1574124493475" lon="-8.029070385347877"><ele>509.0</ele><time>2026-04-29T09:52:50Z</time></trkpt><trkpt lat="42.157405236534174" lon="-8.029181100293169"><ele>509.0</ele><time>2026-04-29T09:52:52Z</time></trkpt><trkpt lat="42.15748042665147" lon="-8.029297244376188"><ele>508.99999999999994</ele><time>2026-04-29T09:52:54Z</time></trkpt><trkpt lat="42.15751349413256" lon="-8.02937230027609"><ele>509.0</ele><time>2026-04-29T09:52:55Z</time></trkpt><trkpt lat="42.15753371841464" lon="-8.029461427648496"><ele>511.49999999999994</ele><time>2026-04-29T09:52:56Z</time></trkpt><trkpt lat="42.15753346945736" lon="-8.029546674165251"><ele>514.0</ele><time>2026-04-29T09:52:57Z</time></trkpt><trkpt lat="42.15749874994125" lon="-8.029627695458798"><ele>516.5</ele><time>2026-04-29T09:52:58Z</time></trkpt><trkpt lat="42.157496134212245" lon="-8.029749464929935"><ele>519.0</ele><time>2026-04-29T09:52:59Z</time></trkpt><trkpt lat="42.15744541825164" lon="-8.029827315470978"><ele>521.5</ele><time>2026-04-29T09:53:00Z</time></trkpt><trkpt lat="42.157373449707485" lon="-8.029892543881166"><ele>524.0</ele><time>2026-04-29T09:53:01Z</time></trkpt><trkpt lat="42.15729652070895" lon="-8.029912337992126"><ele>527.3333333333333</ele><time>2026-04-29T09:53:02Z</time></trkpt><trkpt lat="42.15722049678422" lon="-8.029936982646904"><ele>530.6666666666666</ele><time>2026-04-29T09:53:03Z</time></trkpt><trkpt lat="42.15715081176072" lon="-8.029990861147851"><ele>534.0</ele><time>2026-04-29T09:53:04Z</time></trkpt><trkpt lat="42.157073562815306" lon="-8.030032567811434"><ele>537.3333333333334</ele><time>2026-04-29T09:53:05Z</time></trkpt><trkpt lat="42.157010704596544" lon="-8.030090767475881"><ele>540.6666666666667</ele><time>2026-04-29T09:53:06Z</time></trkpt><trkpt lat="42.15694441903044" lon="-8.030167783928075"><ele>544.0</ele><time>2026-04-29T09:53:07Z</time></trkpt><trkpt lat="42.1568542045356" lon="-8.030236197949845"><ele>544.0</ele><time>2026-04-29T09:53:08Z</time></trkpt><trkpt lat="42.15677212261121" lon="-8.030324854188846"><ele>544.0</ele><time>2026-04-29T09:53:09Z</time></trkpt><trkpt lat="42.156701467668036" lon="-8.030420330724276"><ele>544.0</ele><time>2026-04-29T09:53:10Z</time></trkpt><trkpt lat="42.15662070175964" lon="-8.03049592747575"><ele>544.0</ele><time>2026-04-29T09:53:11Z</time></trkpt><trkpt lat="42.15656090821087" lon="-8.030540726712292"><ele>544.0</ele><time>2026-04-29T09:53:12Z</time></trkpt><trkpt lat="42.156468118738715" lon="-8.030524010111513"><ele>545.3333333333334</ele><time>2026-04-29T09:53:13Z</time></trkpt><trkpt lat="42.15638528962572" lon="-8.030535572265745"><ele>546.6666666666667</ele><time>2026-04-29T09:53:14Z</time></trkpt><trkpt lat="42.156296543122345" lon="-8.030531333899598"><ele>548.0</ele><time>2026-04-29T09:53:15Z</time></trkpt><trkpt lat="42.156199157161325" lon="-8.03052928129718"><ele>549.3333333333334</ele><time>2026-04-29T09:53:16Z</time></trkpt><trkpt lat="42.15611465261924" lon="-8.030548867307974"><ele>550.6666666666666</ele><time>2026-04-29T09:53:17Z</time></trkpt><trkpt lat="42.1560429084877" lon="-8.03057779883565"><ele>552.0</ele><time>2026-04-29T09:53:18Z</time></trkpt><trkpt lat="42.15597953311053" lon="-8.030608130352775"><ele>552.0</ele><time>2026-04-29T09:53:19Z</time></trkpt><trkpt lat="42.15592016355427" lon="-8.030644979188196"><ele>552.0</ele><time>2026-04-29T09:53:20Z</time></trkpt><trkpt lat="42.15586887509387" lon="-8.03069552640481"><ele>552.0</ele><time>2026-04-29T09:53:21Z</time></trkpt><trkpt lat="42.1558186445693" lon="-8.030763620588669"><ele>552.0</ele><time>2026-04-29T09:53:22Z</time></trkpt><trkpt lat="42.15580857961915" lon="-8.030904795527347"><ele>552.0</ele><time>2026-04-29T09:53:24Z</time></trkpt><trkpt lat="42.15581458674132" lon="-8.030992567226376"><ele>552.0</ele><time>2026-04-29T09:53:26Z</time></trkpt><trkpt lat="42.15574163507384" lon="-8.031067207891747"><ele>551.8333333333334</ele><time>2026-04-29T09:53:28Z</time></trkpt><trkpt lat="42.15574367978479" lon="-8.031172568768289"><ele>551.6666666666666</ele><time>2026-04-29T09:53:31Z</time></trkpt><trkpt lat="42.15578550568674" lon="-8.031260352734602"><ele>551.5</ele><time>2026-04-29T09:53:32Z</time></trkpt><trkpt lat="42.155796490348195" lon="-8.031360425078985"><ele>551.3333333333333</ele><time>2026-04-29T09:53:33Z</time></trkpt><trkpt lat="42.15579150191753" lon="-8.031460535530952"><ele>551.1666666666666</ele><time>2026-04-29T09:53:34Z</time></trkpt><trkpt lat="42.155783302433875" lon="-8.031562680665356"><ele>551.0</ele><time>2026-04-29T09:53:35Z</time></trkpt><trkpt lat="42.155783509383575" lon="-8.031674881613442"><ele>552.3333333333333</ele><time>2026-04-29T09:53:36Z</time></trkpt><trkpt lat="42.155840004044094" lon="-8.031782094029968"><ele>553.6666666666666</ele><time>2026-04-29T09:53:37Z</time></trkpt><trkpt lat="42.15590522929189" lon="-8.031843239936897"><ele>555.0</ele><time>2026-04-29T09:53:38Z</time></trkpt><trkpt lat="42.1561099452218" lon="-8.032742570913669"><ele>557.1666666666666</ele><time>2026-04-29T09:53:45Z</time></trkpt><trkpt lat="42.1561307845627" lon="-8.03285564609203"><ele>559.3333333333334</ele><time>2026-04-29T09:53:46Z</time></trkpt><trkpt lat="42.156164272589145" lon="-8.032946320429689"><ele>561.5</ele><time>2026-04-29T09:53:47Z</time></trkpt><trkpt lat="42.156157911688844" lon="-8.033085510290327"><ele>563.6666666666667</ele><time>2026-04-29T09:53:48Z</time></trkpt><trkpt lat="42.15616124224426" lon="-8.033193366301319"><ele>565.8333333333334</ele><time>2026-04-29T09:53:49Z</time></trkpt><trkpt lat="42.15620226921261" lon="-8.033284317363156"><ele>568.0</ele><time>2026-04-29T09:53:50Z</time></trkpt><trkpt lat="42.15627488980508" lon="-8.033416283236116"><ele>572.0</ele><time>2026-04-29T09:53:52Z</time></trkpt><trkpt lat="42.15634720707716" lon="-8.033571134500203"><ele>576.0</ele><time>2026-04-29T09:53:54Z</time></trkpt><trkpt lat="42.15638599146865" lon="-8.033696578261084"><ele>580.0</ele><time>2026-04-29T09:53:56Z</time></trkpt><trkpt lat="42.15645162541191" lon="-8.03387574780333"><ele>584.0</ele><time>2026-04-29T09:53:58Z</time></trkpt><trkpt lat="42.15645329797447" lon="-8.033995141309825"><ele>584.0</ele><time>2026-04-29T09:53:59Z</time></trkpt><trkpt lat="42.15642893774075" lon="-8.034117010274883"><ele>584.0</ele><time>2026-04-29T09:54:00Z</time></trkpt><trkpt lat="42.15642629170742" lon="-8.034238984622322"><ele>584.0</ele><time>2026-04-29T09:54:01Z</time></trkpt><trkpt lat="42.15643723120941" lon="-8.034325715423593"><ele>584.0</ele><time>2026-04-29T09:54:02Z</time></trkpt><trkpt lat="42.15652327312083" lon="-8.034476637875464"><ele>584.0</ele><time>2026-04-29T09:54:04Z</time></trkpt><trkpt lat="42.156572070242476" lon="-8.034542988176193"><ele>581.8</ele><time>2026-04-29T09:54:05Z</time></trkpt><trkpt lat="42.15666919345698" lon="-8.03462539347172"><ele>579.5999999999999</ele><time>2026-04-29T09:54:06Z</time></trkpt><trkpt lat="42.15676335831554" lon="-8.034651658085727"><ele>577.4</ele><time>2026-04-29T09:54:07Z</time></trkpt><trkpt lat="42.15684951831362" lon="-8.034610535168246"><ele>575.1999999999999</ele><time>2026-04-29T09:54:08Z</time></trkpt><trkpt lat="42.156950708225786" lon="-8.034570898378046"><ele>573.0</ele><time>2026-04-29T09:54:09Z</time></trkpt><trkpt lat="42.157065592444745" lon="-8.034503784476488"><ele>573.0</ele><time>2026-04-29T09:54:10Z</time></trkpt><trkpt lat="42.15716724054849" lon="-8.03443194412351"><ele>573.0</ele><time>2026-04-29T09:54:11Z</time></trkpt><trkpt lat="42.15726678059955" lon="-8.034381843109346"><ele>573.0</ele><time>2026-04-29T09:54:12Z</time></trkpt><trkpt lat="42.15733301131935" lon="-8.034334025813111"><ele>573.0</ele><time>2026-04-29T09:54:13Z</time></trkpt><trkpt lat="42.15740278520004" lon="-8.034247751726612"><ele>573.0</ele><time>2026-04-29T09:54:14Z</time></trkpt><trkpt lat="42.15748347032904" lon="-8.034177096284195"><ele>570.8</ele><time>2026-04-29T09:54:15Z</time></trkpt><trkpt lat="42.15754916930928" lon="-8.034096473768868"><ele>568.5999999999999</ele><time>2026-04-29T09:54:16Z</time></trkpt><trkpt lat="42.15759988541035" lon="-8.034041343861297"><ele>566.4000000000001</ele><time>2026-04-29T09:54:17Z</time></trkpt><trkpt lat="42.157691291656995" lon="-8.03397879154329"><ele>564.2</ele><time>2026-04-29T09:54:18Z</time></trkpt><trkpt lat="42.15780934089554" lon="-8.03392319085097"><ele>562.0</ele><time>2026-04-29T09:54:19Z</time></trkpt><trkpt lat="42.157899155325" lon="-8.03388439812169"><ele>562.0</ele><time>2026-04-29T09:54:20Z</time></trkpt><trkpt lat="42.15799345056965" lon="-8.033875897343174"><ele>562.0</ele><time>2026-04-29T09:54:21Z</time></trkpt><trkpt lat="42.15809348110267" lon="-8.033847608075282"><ele>562.0</ele><time>2026-04-29T09:54:22Z</time></trkpt><trkpt lat="42.158182040452346" lon="-8.03382206041863"><ele>562.0</ele><time>2026-04-29T09:54:23Z</time></trkpt><trkpt lat="42.158272013195486" lon="-8.033789340294923"><ele>562.0</ele><time>2026-04-29T09:54:24Z</time></trkpt><trkpt lat="42.158351478599734" lon="-8.033777809778545"><ele>563.4</ele><time>2026-04-29T09:54:25Z</time></trkpt><trkpt lat="42.15844174265316" lon="-8.033773251249121"><ele>564.8000000000001</ele><time>2026-04-29T09:54:26Z</time></trkpt><trkpt lat="42.15852419315568" lon="-8.033792977435443"><ele>566.2</ele><time>2026-04-29T09:54:27Z</time></trkpt><trkpt lat="42.15861073202675" lon="-8.03377641813667"><ele>567.6</ele><time>2026-04-29T09:54:28Z</time></trkpt><trkpt lat="42.15871820965627" lon="-8.033731481398693"><ele>569.0</ele><time>2026-04-29T09:54:29Z</time></trkpt><trkpt lat="42.15879569192849" lon="-8.03365508682809"><ele>569.0</ele><time>2026-04-29T09:54:30Z</time></trkpt><trkpt lat="42.15887412600606" lon="-8.033584208929708"><ele>569.0</ele><time>2026-04-29T09:54:31Z</time></trkpt><trkpt lat="42.15897416326856" lon="-8.033539943087666"><ele>569.0</ele><time>2026-04-29T09:54:32Z</time></trkpt><trkpt lat="42.159090041244006" lon="-8.033545759967453"><ele>569.0</ele><time>2026-04-29T09:54:33Z</time></trkpt><trkpt lat="42.15920462482066" lon="-8.033554745913127"><ele>569.0</ele><time>2026-04-29T09:54:34Z</time></trkpt><trkpt lat="42.15932735908073" lon="-8.03357279858647"><ele>569.25</ele><time>2026-04-29T09:54:35Z</time></trkpt><trkpt lat="42.15946850212436" lon="-8.033582657888344"><ele>569.5</ele><time>2026-04-29T09:54:36Z</time></trkpt><trkpt lat="42.15957384837755" lon="-8.033612941573297"><ele>569.75</ele><time>2026-04-29T09:54:37Z</time></trkpt><trkpt lat="42.159663602547965" lon="-8.033681513461545"><ele>570.0</ele><time>2026-04-29T09:54:38Z</time></trkpt><trkpt lat="42.15977890275062" lon="-8.033750305022098"><ele>569.0</ele><time>2026-04-29T09:54:39Z</time></trkpt><trkpt lat="42.15991261711272" lon="-8.033755961981592"><ele>568.0</ele><time>2026-04-29T09:54:40Z</time></trkpt><trkpt lat="42.16001659151408" lon="-8.033727838587765"><ele>567.0</ele><time>2026-04-29T09:54:41Z</time></trkpt><trkpt lat="42.1601064029061" lon="-8.033673192173831"><ele>566.0</ele><time>2026-04-29T09:54:42Z</time></trkpt><trkpt lat="42.16022753565731" lon="-8.03365308904612"><ele>566.0</ele><time>2026-04-29T09:54:43Z</time></trkpt><trkpt lat="42.16036069554219" lon="-8.033647844223616"><ele>566.0</ele><time>2026-04-29T09:54:44Z</time></trkpt><trkpt lat="42.1604506963388" lon="-8.03365244194842"><ele>566.0</ele><time>2026-04-29T09:54:45Z</time></trkpt><trkpt lat="42.16051429166026" lon="-8.033649912051459"><ele>566.0</ele><time>2026-04-29T09:54:46Z</time></trkpt><trkpt lat="42.16059750461502" lon="-8.033699124720998"><ele>566.0</ele><time>2026-04-29T09:54:48Z</time></trkpt><trkpt lat="42.16057707981775" lon="-8.03382742832552"><ele>566.0</ele><time>2026-04-29T09:54:52Z</time></trkpt><trkpt lat="42.160480522471396" lon="-8.033886005021756"><ele>566.0</ele><time>2026-04-29T09:54:54Z</time></trkpt><trkpt lat="42.160359080103355" lon="-8.033905720144315"><ele>566.0</ele><time>2026-04-29T09:54:56Z</time></trkpt><trkpt lat="42.16029111842306" lon="-8.033899256680595"><ele>566.0</ele><time>2026-04-29T09:54:57Z</time></trkpt><trkpt lat="42.16022535433238" lon="-8.033899167782076"><ele>566.0</ele><time>2026-04-29T09:54:58Z</time></trkpt><trkpt lat="42.160151781994294" lon="-8.033910538467097"><ele>566.0</ele><time>2026-04-29T09:54:59Z</time></trkpt><trkpt lat="42.160087072392216" lon="-8.03395393748309"><ele>566.0</ele><time>2026-04-29T09:55:00Z</time></trkpt><trkpt lat="42.15998885923533" lon="-8.033990976799014"><ele>566.0</ele><time>2026-04-29T09:55:01Z</time></trkpt><trkpt lat="42.15991036700887" lon="-8.034049518488054"><ele>566.0</ele><time>2026-04-29T09:55:02Z</time></trkpt><trkpt lat="42.15982647357068" lon="-8.034138800978695"><ele>566.0</ele><time>2026-04-29T09:55:03Z</time></trkpt><trkpt lat="42.15973423119366" lon="-8.034134434003128"><ele>566.0</ele><time>2026-04-29T09:55:04Z</time></trkpt><trkpt lat="42.15963839028353" lon="-8.034150254065956"><ele>570.1666666666666</ele><time>2026-04-29T09:55:05Z</time></trkpt><trkpt lat="42.159567921963365" lon="-8.034159665662614"><ele>574.3333333333333</ele><time>2026-04-29T09:55:06Z</time></trkpt><trkpt lat="42.15947971288692" lon="-8.034206395029031"><ele>578.5</ele><time>2026-04-29T09:55:08Z</time></trkpt><trkpt lat="42.15942808001433" lon="-8.03428895227092"><ele>582.6666666666666</ele><time>2026-04-29T09:55:10Z</time></trkpt><trkpt lat="42.15945534871578" lon="-8.034379370929821"><ele>586.8333333333334</ele><time>2026-04-29T09:55:11Z</time></trkpt><trkpt lat="42.15957779979786" lon="-8.03436653511094"><ele>591.0</ele><time>2026-04-29T09:55:12Z</time></trkpt><trkpt lat="42.159718134399846" lon="-8.034342518915379"><ele>591.0</ele><time>2026-04-29T09:55:14Z</time></trkpt><trkpt lat="42.15981628446881" lon="-8.034339488547243"><ele>591.0</ele><time>2026-04-29T09:55:15Z</time></trkpt><trkpt lat="42.159906562495074" lon="-8.034347078500877"><ele>591.0</ele><time>2026-04-29T09:55:16Z</time></trkpt><trkpt lat="42.159995502496805" lon="-8.034354580927753"><ele>591.0</ele><time>2026-04-29T09:55:17Z</time></trkpt><trkpt lat="42.160085309750684" lon="-8.034367811707282"><ele>591.0</ele><time>2026-04-29T09:55:18Z</time></trkpt><trkpt lat="42.16017337126073" lon="-8.034378775540237"><ele>591.0</ele><time>2026-04-29T09:55:19Z</time></trkpt><trkpt lat="42.16026343467443" lon="-8.034401294738847"><ele>591.0</ele><time>2026-04-29T09:55:20Z</time></trkpt><trkpt lat="42.1603171511481" lon="-8.034473790056516"><ele>591.0</ele><time>2026-04-29T09:55:21Z</time></trkpt><trkpt lat="42.160368863085324" lon="-8.034566815145485"><ele>591.0</ele><time>2026-04-29T09:55:22Z</time></trkpt><trkpt lat="42.16038653920654" lon="-8.034672223743863"><ele>591.0</ele><time>2026-04-29T09:55:24Z</time></trkpt><trkpt lat="42.160422322545955" lon="-8.034786332607581"><ele>591.0</ele><time>2026-04-29T09:55:26Z</time></trkpt><trkpt lat="42.1606456107943" lon="-8.034829954132233"><ele>589.75</ele><time>2026-04-29T09:55:27Z</time></trkpt><trkpt lat="42.16073404569566" lon="-8.034954080050984"><ele>588.5</ele><time>2026-04-29T09:55:28Z</time></trkpt><trkpt lat="42.16083534462607" lon="-8.035090859857934"><ele>587.25</ele><time>2026-04-29T09:55:29Z</time></trkpt><trkpt lat="42.16089388953223" lon="-8.035210255472132"><ele>586.0</ele><time>2026-04-29T09:55:30Z</time></trkpt><trkpt lat="42.16095485938181" lon="-8.035378674100846"><ele>589.6</ele><time>2026-04-29T09:55:31Z</time></trkpt><trkpt lat="42.16101195574543" lon="-8.035526972792086"><ele>593.2</ele><time>2026-04-29T09:55:32Z</time></trkpt><trkpt lat="42.16107683781556" lon="-8.03561757042757"><ele>596.8</ele><time>2026-04-29T09:55:33Z</time></trkpt><trkpt lat="42.16114943290115" lon="-8.03569835731768"><ele>600.4</ele><time>2026-04-29T09:55:34Z</time></trkpt><trkpt lat="42.16123099625332" lon="-8.035807202469334"><ele>604.0</ele><time>2026-04-29T09:55:35Z</time></trkpt><trkpt lat="42.16131291084165" lon="-8.03591966782866"><ele>604.5</ele><time>2026-04-29T09:55:36Z</time></trkpt><trkpt lat="42.16138112304162" lon="-8.036042683174689"><ele>605.0</ele><time>2026-04-29T09:55:37Z</time></trkpt><trkpt lat="42.16145882135158" lon="-8.036159790892606"><ele>605.5</ele><time>2026-04-29T09:55:38Z</time></trkpt><trkpt lat="42.16151494342492" lon="-8.036298099524974"><ele>606.0</ele><time>2026-04-29T09:55:39Z</time></trkpt><trkpt lat="42.16155342140095" lon="-8.036435492599548"><ele>606.0</ele><time>2026-04-29T09:55:40Z</time></trkpt><trkpt lat="42.161603177713175" lon="-8.036597269596426"><ele>606.0</ele><time>2026-04-29T09:55:41Z</time></trkpt><trkpt lat="42.16163922408903" lon="-8.036782675227345"><ele>606.0</ele><time>2026-04-29T09:55:42Z</time></trkpt><trkpt lat="42.16166553467122" lon="-8.036966935586424"><ele>606.0</ele><time>2026-04-29T09:55:43Z</time></trkpt><trkpt lat="42.16169384619084" lon="-8.037151992153598"><ele>608.75</ele><time>2026-04-29T09:55:44Z</time></trkpt><trkpt lat="42.161733300383666" lon="-8.037326844252217"><ele>611.5</ele><time>2026-04-29T09:55:45Z</time></trkpt><trkpt lat="42.16178133432926" lon="-8.037497342071173"><ele>614.25</ele><time>2026-04-29T09:55:46Z</time></trkpt><trkpt lat="42.16182244206248" lon="-8.03766564112168"><ele>617.0</ele><time>2026-04-29T09:55:47Z</time></trkpt><trkpt lat="42.16186534000521" lon="-8.037836322003736"><ele>619.75</ele><time>2026-04-29T09:55:48Z</time></trkpt><trkpt lat="42.161894264226895" lon="-8.038003369593483"><ele>622.5</ele><time>2026-04-29T09:55:49Z</time></trkpt><trkpt lat="42.16189469774021" lon="-8.03816668325862"><ele>625.25</ele><time>2026-04-29T09:55:50Z</time></trkpt><trkpt lat="42.161917361409934" lon="-8.038334582357596"><ele>628.0</ele><time>2026-04-29T09:55:51Z</time></trkpt><trkpt lat="42.16189549311672" lon="-8.038495906898016"><ele>630.25</ele><time>2026-04-29T09:55:52Z</time></trkpt><trkpt lat="42.16186550183134" lon="-8.038719656355386"><ele>632.5</ele><time>2026-04-29T09:55:53Z</time></trkpt><trkpt lat="42.161837263703006" lon="-8.038874745905868"><ele>634.75</ele><time>2026-04-29T09:55:54Z</time></trkpt><trkpt lat="42.16182663437572" lon="-8.039045343163922"><ele>637.0</ele><time>2026-04-29T09:55:55Z</time></trkpt><trkpt lat="42.16181459363035" lon="-8.039232974296592"><ele>638.5</ele><time>2026-04-29T09:55:56Z</time></trkpt><trkpt lat="42.161807538882215" lon="-8.03940290743211"><ele>640.0</ele><time>2026-04-29T09:55:57Z</time></trkpt><trkpt lat="42.1618138746494" lon="-8.03956889001887"><ele>641.5</ele><time>2026-04-29T09:55:58Z</time></trkpt><trkpt lat="42.161808181578046" lon="-8.03970682877341"><ele>643.0</ele><time>2026-04-29T09:55:59Z</time></trkpt><trkpt lat="42.16177525548311" lon="-8.039854209501364"><ele>644.75</ele><time>2026-04-29T09:56:00Z</time></trkpt><trkpt lat="42.161727979253364" lon="-8.040020269882287"><ele>646.5</ele><time>2026-04-29T09:56:01Z</time></trkpt><trkpt lat="42.161683392183356" lon="-8.040186594199703"><ele>648.25</ele><time>2026-04-29T09:56:02Z</time></trkpt><trkpt lat="42.1616263958473" lon="-8.040332794216617"><ele>650.0</ele><time>2026-04-29T09:56:03Z</time></trkpt><trkpt lat="42.161564067903676" lon="-8.040463556950364"><ele>656.5</ele><time>2026-04-29T09:56:04Z</time></trkpt><trkpt lat="42.1614728550676" lon="-8.040592505629629"><ele>663.0</ele><time>2026-04-29T09:56:05Z</time></trkpt><trkpt lat="42.16139209520664" lon="-8.040756935526135"><ele>669.5</ele><time>2026-04-29T09:56:06Z</time></trkpt><trkpt lat="42.16132806924584" lon="-8.04091895838429"><ele>676.0</ele><time>2026-04-29T09:56:07Z</time></trkpt><trkpt lat="42.16124126178394" lon="-8.041085865250087"><ele>676.0</ele><time>2026-04-29T09:56:08Z</time></trkpt><trkpt lat="42.16111784751122" lon="-8.041257325861546"><ele>676.0</ele><time>2026-04-29T09:56:09Z</time></trkpt><trkpt lat="42.16101158746102" lon="-8.041414144733283"><ele>676.0</ele><time>2026-04-29T09:56:10Z</time></trkpt><trkpt lat="42.16093297911543" lon="-8.041552561326343"><ele>678.5</ele><time>2026-04-29T09:56:11Z</time></trkpt><trkpt lat="42.160878359566055" lon="-8.041670926229987"><ele>681.0</ele><time>2026-04-29T09:56:12Z</time></trkpt><trkpt lat="42.160802031242135" lon="-8.041782006778968"><ele>683.5</ele><time>2026-04-29T09:56:13Z</time></trkpt><trkpt lat="42.16071190062636" lon="-8.041872849208827"><ele>686.0</ele><time>2026-04-29T09:56:14Z</time></trkpt><trkpt lat="42.16060695027564" lon="-8.041960349456293"><ele>686.0</ele><time>2026-04-29T09:56:15Z</time></trkpt><trkpt lat="42.16048683278687" lon="-8.04204382768457"><ele>686.0</ele><time>2026-04-29T09:56:16Z</time></trkpt><trkpt lat="42.16032891000272" lon="-8.042122367649512"><ele>686.0</ele><time>2026-04-29T09:56:17Z</time></trkpt><trkpt lat="42.16021634212679" lon="-8.042185520855641"><ele>686.0</ele><time>2026-04-29T09:56:18Z</time></trkpt><trkpt lat="42.16013531642612" lon="-8.042258369180827"><ele>686.0</ele><time>2026-04-29T09:56:19Z</time></trkpt><trkpt lat="42.1600685688716" lon="-8.042311509383811"><ele>686.0</ele><time>2026-04-29T09:56:20Z</time></trkpt><trkpt lat="42.16001085849757" lon="-8.042352965185465"><ele>686.0</ele><time>2026-04-29T09:56:21Z</time></trkpt><trkpt lat="42.15990312671082" lon="-8.042417319449488"><ele>686.0</ele><time>2026-04-29T09:56:23Z</time></trkpt><trkpt lat="42.159841117874755" lon="-8.0424430184126"><ele>686.0</ele><time>2026-04-29T09:56:24Z</time></trkpt><trkpt lat="42.15977706694463" lon="-8.042449337015993"><ele>686.0</ele><time>2026-04-29T09:56:25Z</time></trkpt><trkpt lat="42.15965909061529" lon="-8.042478713377294"><ele>687.5</ele><time>2026-04-29T09:56:27Z</time></trkpt><trkpt lat="42.15954206264244" lon="-8.042484736565395"><ele>689.0</ele><time>2026-04-29T09:56:29Z</time></trkpt><trkpt lat="42.159473159845184" lon="-8.042478429945513"><ele>690.5</ele><time>2026-04-29T09:56:30Z</time></trkpt><trkpt lat="42.15940842522327" lon="-8.042475231147277"><ele>692.0</ele><time>2026-04-29T09:56:31Z</time></trkpt><trkpt lat="42.159358418305175" lon="-8.042527641945872"><ele>693.5</ele><time>2026-04-29T09:56:33Z</time></trkpt><trkpt lat="42.159333618207356" lon="-8.042633229028064"><ele>695.0</ele><time>2026-04-29T09:56:35Z</time></trkpt><trkpt lat="42.15933221357618" lon="-8.04272345273451"><ele>695.0</ele><time>2026-04-29T09:56:36Z</time></trkpt><trkpt lat="42.15930809616617" lon="-8.042830126774598"><ele>695.0</ele><time>2026-04-29T09:56:37Z</time></trkpt><trkpt lat="42.15926684484248" lon="-8.042947927002238"><ele>695.0</ele><time>2026-04-29T09:56:38Z</time></trkpt><trkpt lat="42.15920995452183" lon="-8.043068331946014"><ele>695.0</ele><time>2026-04-29T09:56:39Z</time></trkpt><trkpt lat="42.15915543461149" lon="-8.043169669079587"><ele>695.0</ele><time>2026-04-29T09:56:40Z</time></trkpt><trkpt lat="42.159107989213396" lon="-8.043247886957168"><ele>694.5</ele><time>2026-04-29T09:56:41Z</time></trkpt><trkpt lat="42.15905280547342" lon="-8.043310374166177"><ele>694.0</ele><time>2026-04-29T09:56:42Z</time></trkpt><trkpt lat="42.1589499190109" lon="-8.043330324024561"><ele>693.5</ele><time>2026-04-29T09:56:44Z</time></trkpt><trkpt lat="42.15889505757961" lon="-8.043279749962377"><ele>693.0</ele><time>2026-04-29T09:56:45Z</time></trkpt><trkpt lat="42.15883292978038" lon="-8.043228085978907"><ele>692.5</ele><time>2026-04-29T09:56:46Z</time></trkpt><trkpt lat="42.15874345948493" lon="-8.04317537180966"><ele>692.0</ele><time>2026-04-29T09:56:47Z</time></trkpt><trkpt lat="42.15865954082669" lon="-8.043118586995801"><ele>696.2</ele><time>2026-04-29T09:56:48Z</time></trkpt><trkpt lat="42.15858645183157" lon="-8.043094088324517"><ele>700.4000000000001</ele><time>2026-04-29T09:56:50Z</time></trkpt><trkpt lat="42.15857252739117" lon="-8.043242870924006"><ele>704.5999999999999</ele><time>2026-04-29T09:56:52Z</time></trkpt><trkpt lat="42.15859325329847" lon="-8.043346179155437"><ele>708.8</ele><time>2026-04-29T09:56:53Z</time></trkpt><trkpt lat="42.158611969925914" lon="-8.043478173438581"><ele>713.0</ele><time>2026-04-29T09:56:54Z</time></trkpt><trkpt lat="42.15862517702444" lon="-8.04365135401034"><ele>714.3333333333333</ele><time>2026-04-29T09:56:55Z</time></trkpt><trkpt lat="42.15861989210791" lon="-8.043820433932334"><ele>715.6666666666666</ele><time>2026-04-29T09:56:56Z</time></trkpt><trkpt lat="42.158620269840114" lon="-8.04390937348855"><ele>717.0</ele><time>2026-04-29T09:56:57Z</time></trkpt><trkpt lat="42.158559783726744" lon="-8.043850607175141"><ele>718.3333333333334</ele><time>2026-04-29T09:57:01Z</time></trkpt><trkpt lat="42.158542545736445" lon="-8.04375648673993"><ele>719.6666666666667</ele><time>2026-04-29T09:57:02Z</time></trkpt><trkpt lat="42.15851961614339" lon="-8.04365183525659"><ele>721.0</ele><time>2026-04-29T09:57:03Z</time></trkpt><trkpt lat="42.15847616006609" lon="-8.043516399125217"><ele>721.0</ele><time>2026-04-29T09:57:04Z</time></trkpt><trkpt lat="42.1584066768646" lon="-8.043375521340105"><ele>721.0</ele><time>2026-04-29T09:57:05Z</time></trkpt><trkpt lat="42.15831794160269" lon="-8.043210655037255"><ele>721.0</ele><time>2026-04-29T09:57:06Z</time></trkpt><trkpt lat="42.15822976999183" lon="-8.043033795338788"><ele>721.0</ele><time>2026-04-29T09:57:07Z</time></trkpt><trkpt lat="42.158151697298884" lon="-8.042818125435662"><ele>727.6666666666667</ele><time>2026-04-29T09:57:08Z</time></trkpt><trkpt lat="42.15807173453079" lon="-8.042581418516216"><ele>734.3333333333334</ele><time>2026-04-29T09:57:09Z</time></trkpt><trkpt lat="42.15800872361043" lon="-8.042372324261798"><ele>741.0</ele><time>2026-04-29T09:57:10Z</time></trkpt><trkpt lat="42.15796366891548" lon="-8.04221761343096"><ele>741.0</ele><time>2026-04-29T09:57:11Z</time></trkpt><trkpt lat="42.15793763934991" lon="-8.04207086964453"><ele>741.0</ele><time>2026-04-29T09:57:12Z</time></trkpt><trkpt lat="42.157929350642945" lon="-8.041894334234598"><ele>741.0</ele><time>2026-04-29T09:57:13Z</time></trkpt><trkpt lat="42.15796283006239" lon="-8.041727994450245"><ele>741.0</ele><time>2026-04-29T09:57:14Z</time></trkpt><trkpt lat="42.15802861233658" lon="-8.041553119533646"><ele>739.6666666666666</ele><time>2026-04-29T09:57:15Z</time></trkpt><trkpt lat="42.15813684115574" lon="-8.041372086459793"><ele>738.3333333333333</ele><time>2026-04-29T09:57:16Z</time></trkpt><trkpt lat="42.15828739877611" lon="-8.04119585682199"><ele>737.0</ele><time>2026-04-29T09:57:17Z</time></trkpt><trkpt lat="42.15845058068568" lon="-8.041062608772137"><ele>736.5</ele><time>2026-04-29T09:57:18Z</time></trkpt><trkpt lat="42.15856249888959" lon="-8.040963176166704"><ele>736.0</ele><time>2026-04-29T09:57:19Z</time></trkpt><trkpt lat="42.15860825320232" lon="-8.040865537168214"><ele>735.5</ele><time>2026-04-29T09:57:20Z</time></trkpt><trkpt lat="42.15859770198792" lon="-8.040765177576214"><ele>735.0</ele><time>2026-04-29T09:57:21Z</time></trkpt><trkpt lat="42.158588559196" lon="-8.040671282107967"><ele>734.5</ele><time>2026-04-29T09:57:22Z</time></trkpt><trkpt lat="42.158563079845806" lon="-8.040564590313727"><ele>734.0</ele><time>2026-04-29T09:57:23Z</time></trkpt><trkpt lat="42.15855205938389" lon="-8.040475742800103"><ele>733.6666666666666</ele><time>2026-04-29T09:57:24Z</time></trkpt><trkpt lat="42.158598073297775" lon="-8.040350913362225"><ele>733.3333333333333</ele><time>2026-04-29T09:57:26Z</time></trkpt><trkpt lat="42.15864640561749" lon="-8.040262103769924"><ele>733.0</ele><time>2026-04-29T09:57:28Z</time></trkpt><trkpt lat="42.15868466580185" lon="-8.040192863377698"><ele>732.6666666666666</ele><time>2026-04-29T09:57:30Z</time></trkpt><trkpt lat="42.15875192186347" lon="-8.040252678494284"><ele>732.3333333333334</ele><time>2026-04-29T09:57:34Z</time></trkpt><trkpt lat="42.15867307664325" lon="-8.040337684120958"><ele>732.0</ele><time>2026-04-29T09:57:37Z</time></trkpt><trkpt lat="42.15859628752715" lon="-8.040383945460833"><ele>732.0</ele><time>2026-04-29T09:57:38Z</time></trkpt><trkpt lat="42.15851229614049" lon="-8.04044645964505"><ele>732.0</ele><time>2026-04-29T09:57:39Z</time></trkpt><trkpt lat="42.158401526938405" lon="-8.040505604444792"><ele>732.0</ele><time>2026-04-29T09:57:40Z</time></trkpt><trkpt lat="42.15828926210851" lon="-8.040567187106284"><ele>732.0</ele><time>2026-04-29T09:57:41Z</time></trkpt><trkpt lat="42.15816743634259" lon="-8.04061832473728"><ele>731.0</ele><time>2026-04-29T09:57:42Z</time></trkpt><trkpt lat="42.15804476132529" lon="-8.040662700180931"><ele>730.0</ele><time>2026-04-29T09:57:43Z</time></trkpt><trkpt lat="42.15792007799806" lon="-8.040685052400857"><ele>729.0</ele><time>2026-04-29T09:57:44Z</time></trkpt><trkpt lat="42.15780449920392" lon="-8.040720544133896"><ele>728.0</ele><time>2026-04-29T09:57:45Z</time></trkpt><trkpt lat="42.15767389205651" lon="-8.040817205498763"><ele>731.0</ele><time>2026-04-29T09:57:46Z</time></trkpt><trkpt lat="42.15753683519905" lon="-8.040937501213712"><ele>734.0</ele><time>2026-04-29T09:57:47Z</time></trkpt><trkpt lat="42.15738567462819" lon="-8.041031256097794"><ele>737.0</ele><time>2026-04-29T09:57:48Z</time></trkpt><trkpt lat="42.15721081987462" lon="-8.041108878830732"><ele>737.3333333333333</ele><time>2026-04-29T09:57:49Z</time></trkpt><trkpt lat="42.15702981388936" lon="-8.041167378427822"><ele>737.6666666666666</ele><time>2026-04-29T09:57:50Z</time></trkpt><trkpt lat="42.15688103438388" lon="-8.04126066473646"><ele>738.0</ele><time>2026-04-29T09:57:51Z</time></trkpt><trkpt lat="42.15671714988954" lon="-8.041360176043948"><ele>738.0</ele><time>2026-04-29T09:57:52Z</time></trkpt><trkpt lat="42.15654975347506" lon="-8.041436656172161"><ele>738.0</ele><time>2026-04-29T09:57:53Z</time></trkpt><trkpt lat="42.15642355446065" lon="-8.041499099842316"><ele>738.0</ele><time>2026-04-29T09:57:54Z</time></trkpt><trkpt lat="42.15631074858274" lon="-8.0415733268225"><ele>738.0</ele><time>2026-04-29T09:57:55Z</time></trkpt><trkpt lat="42.156216687784806" lon="-8.041672600804734"><ele>740.2</ele><time>2026-04-29T09:57:56Z</time></trkpt><trkpt lat="42.156135681371545" lon="-8.041800279023304"><ele>742.4</ele><time>2026-04-29T09:57:57Z</time></trkpt><trkpt lat="42.156070294452356" lon="-8.041920477783519"><ele>744.6</ele><time>2026-04-29T09:57:58Z</time></trkpt><trkpt lat="42.156028747462315" lon="-8.042036459853872"><ele>746.8000000000001</ele><time>2026-04-29T09:57:59Z</time></trkpt><trkpt lat="42.15597424099255" lon="-8.042167687844628"><ele>749.0</ele><time>2026-04-29T09:58:00Z</time></trkpt><trkpt lat="42.1559235071328" lon="-8.042322040914025"><ele>752.5</ele><time>2026-04-29T09:58:01Z</time></trkpt><trkpt lat="42.155890144843895" lon="-8.042494192798797"><ele>756.0</ele><time>2026-04-29T09:58:02Z</time></trkpt><trkpt lat="42.15585804922859" lon="-8.042661305460264"><ele>759.5</ele><time>2026-04-29T09:58:03Z</time></trkpt><trkpt lat="42.155845619257626" lon="-8.042796990642286"><ele>763.0</ele><time>2026-04-29T09:58:04Z</time></trkpt><trkpt lat="42.155844673769714" lon="-8.04294840100326"><ele>763.0</ele><time>2026-04-29T09:58:05Z</time></trkpt><trkpt lat="42.155843022853325" lon="-8.043116609694774"><ele>763.0</ele><time>2026-04-29T09:58:06Z</time></trkpt><trkpt lat="42.15584790725689" lon="-8.043299985647485"><ele>763.0</ele><time>2026-04-29T09:58:07Z</time></trkpt><trkpt lat="42.155856345763986" lon="-8.043471579447724"><ele>763.0</ele><time>2026-04-29T09:58:08Z</time></trkpt><trkpt lat="42.15586177209453" lon="-8.043679257063388"><ele>765.75</ele><time>2026-04-29T09:58:09Z</time></trkpt><trkpt lat="42.15587998211922" lon="-8.043891323914933"><ele>768.5</ele><time>2026-04-29T09:58:10Z</time></trkpt><trkpt lat="42.155905653224444" lon="-8.044070294406785"><ele>771.25</ele><time>2026-04-29T09:58:11Z</time></trkpt><trkpt lat="42.15591968078779" lon="-8.04420115387082"><ele>774.0</ele><time>2026-04-29T09:58:12Z</time></trkpt><trkpt lat="42.15592512362135" lon="-8.044324182243338"><ele>774.6666666666666</ele><time>2026-04-29T09:58:13Z</time></trkpt><trkpt lat="42.155929324916514" lon="-8.04444383325817"><ele>775.3333333333333</ele><time>2026-04-29T09:58:14Z</time></trkpt><trkpt lat="42.155918119008945" lon="-8.044556909337176"><ele>776.0</ele><time>2026-04-29T09:58:15Z</time></trkpt><trkpt lat="42.1558726809708" lon="-8.044657678188452"><ele>776.6666666666666</ele><time>2026-04-29T09:58:16Z</time></trkpt><trkpt lat="42.15581754355664" lon="-8.044758916528973"><ele>777.3333333333333</ele><time>2026-04-29T09:58:17Z</time></trkpt><trkpt lat="42.155777915325224" lon="-8.04485399767348"><ele>778.0</ele><time>2026-04-29T09:58:18Z</time></trkpt><trkpt lat="42.15572792115744" lon="-8.044969144162986"><ele>778.5999999999999</ele><time>2026-04-29T09:58:19Z</time></trkpt><trkpt lat="42.15571040980018" lon="-8.045070714535818"><ele>779.1999999999999</ele><time>2026-04-29T09:58:20Z</time></trkpt><trkpt lat="42.155691301275986" lon="-8.04519616849148"><ele>779.8</ele><time>2026-04-29T09:58:21Z</time></trkpt><trkpt lat="42.15569417568842" lon="-8.045318456838734"><ele>780.4</ele><time>2026-04-29T09:58:22Z</time></trkpt><trkpt lat="42.155694068839956" lon="-8.045488540621783"><ele>781.0</ele><time>2026-04-29T09:58:23Z</time></trkpt><trkpt lat="42.15568839065156" lon="-8.045667368445446"><ele>786.6666666666666</ele><time>2026-04-29T09:58:24Z</time></trkpt><trkpt lat="42.155642693023786" lon="-8.045867229279878"><ele>792.3333333333333</ele><time>2026-04-29T09:58:25Z</time></trkpt><trkpt lat="42.155595576261845" lon="-8.04609639807406"><ele>798.0</ele><time>2026-04-29T09:58:26Z</time></trkpt><trkpt lat="42.15557126671731" lon="-8.046307830782633"><ele>798.0</ele><time>2026-04-29T09:58:27Z</time></trkpt><trkpt lat="42.15555699654569" lon="-8.046493194694287"><ele>798.0</ele><time>2026-04-29T09:58:28Z</time></trkpt><trkpt lat="42.155536939879156" lon="-8.046637691651826"><ele>798.0</ele><time>2026-04-29T09:58:29Z</time></trkpt><trkpt lat="42.15550659076581" lon="-8.046791611502321"><ele>798.0</ele><time>2026-04-29T09:58:30Z</time></trkpt><trkpt lat="42.15545614827374" lon="-8.046953142899977"><ele>803.0</ele><time>2026-04-29T09:58:31Z</time></trkpt><trkpt lat="42.15537977062842" lon="-8.047120138953687"><ele>808.0</ele><time>2026-04-29T09:58:32Z</time></trkpt><trkpt lat="42.15529050082611" lon="-8.04731576512762"><ele>813.0</ele><time>2026-04-29T09:58:33Z</time></trkpt><trkpt lat="42.1552344454319" lon="-8.047502940017639"><ele>813.5</ele><time>2026-04-29T09:58:34Z</time></trkpt><trkpt lat="42.155204768236075" lon="-8.047641737375281"><ele>814.0</ele><time>2026-04-29T09:58:35Z</time></trkpt><trkpt lat="42.15516872618403" lon="-8.04775686127927"><ele>814.5</ele><time>2026-04-29T09:58:36Z</time></trkpt><trkpt lat="42.15513105413608" lon="-8.047827898162911"><ele>815.0</ele><time>2026-04-29T09:58:37Z</time></trkpt><trkpt lat="42.155078924650354" lon="-8.047878863919195"><ele>815.5</ele><time>2026-04-29T09:58:38Z</time></trkpt><trkpt lat="42.15504189592412" lon="-8.047963497082408"><ele>816.0</ele><time>2026-04-29T09:58:40Z</time></trkpt><trkpt lat="42.155018441464286" lon="-8.04807612736239"><ele>816.0</ele><time>2026-04-29T09:58:43Z</time></trkpt><trkpt lat="42.15497023562542" lon="-8.048144291739362"><ele>816.0</ele><time>2026-04-29T09:58:51Z</time></trkpt><trkpt lat="42.154997579643286" lon="-8.048270363732769"><ele>816.0</ele><time>2026-04-29T09:58:53Z</time></trkpt><trkpt lat="42.155013368535684" lon="-8.048415188860485"><ele>816.0</ele><time>2026-04-29T09:58:55Z</time></trkpt><trkpt lat="42.15500027227687" lon="-8.048505256755757"><ele>816.0</ele><time>2026-04-29T09:58:57Z</time></trkpt><trkpt lat="42.154967886111976" lon="-8.048648586096837"><ele>816.8</ele><time>2026-04-29T09:58:59Z</time></trkpt><trkpt lat="42.154970035266956" lon="-8.048793562475085"><ele>817.5999999999999</ele><time>2026-04-29T09:59:01Z</time></trkpt><trkpt lat="42.1549587865873" lon="-8.048897655674997"><ele>818.4</ele><time>2026-04-29T09:59:03Z</time></trkpt><trkpt lat="42.15488147680566" lon="-8.048972350171368"><ele>819.2</ele><time>2026-04-29T09:59:06Z</time></trkpt><trkpt lat="42.154862957112734" lon="-8.049069091231974"><ele>820.0</ele><time>2026-04-29T09:59:07Z</time></trkpt><trkpt lat="42.15486572004234" lon="-8.049204679747632"><ele>821.9999999999999</ele><time>2026-04-29T09:59:09Z</time></trkpt><trkpt lat="42.15485114808666" lon="-8.049291760767298"><ele>824.0</ele><time>2026-04-29T09:59:11Z</time></trkpt><trkpt lat="42.15486025946949" lon="-8.04938016663819"><ele>826.0</ele><time>2026-04-29T09:59:52Z</time></trkpt><trkpt lat="42.15487566520666" lon="-8.049467498731156"><ele>828.0</ele><time>2026-04-29T09:59:54Z</time></trkpt><trkpt lat="42.15487270737911" lon="-8.049570922412931"><ele>829.9999999999999</ele><time>2026-04-29T09:59:57Z</time></trkpt><trkpt lat="42.15489364677133" lon="-8.049730872372079"><ele>832.0</ele><time>2026-04-29T10:00:00Z</time></trkpt><trkpt lat="42.154913138555" lon="-8.049904342070578"><ele>834.6</ele><time>2026-04-29T10:00:02Z</time></trkpt><trkpt lat="42.154912492574404" lon="-8.050031701889592"><ele>837.2</ele><time>2026-04-29T10:00:04Z</time></trkpt><trkpt lat="42.154872128623985" lon="-8.050208747444374"><ele>839.8</ele><time>2026-04-29T10:00:06Z</time></trkpt><trkpt lat="42.15482827470317" lon="-8.050328371506728"><ele>842.4</ele><time>2026-04-29T10:00:07Z</time></trkpt><trkpt lat="42.154812582657115" lon="-8.050430341649617"><ele>845.0</ele><time>2026-04-29T10:00:08Z</time></trkpt><trkpt lat="42.154816758629785" lon="-8.050547743974851"><ele>846.1666666666667</ele><time>2026-04-29T10:00:09Z</time></trkpt><trkpt lat="42.15478605823959" lon="-8.050664004282448"><ele>847.3333333333334</ele><time>2026-04-29T10:00:10Z</time></trkpt><trkpt lat="42.15474801107361" lon="-8.050763124329405"><ele>848.5</ele><time>2026-04-29T10:00:11Z</time></trkpt><trkpt lat="42.15470237521362" lon="-8.050858949773888"><ele>849.6666666666667</ele><time>2026-04-29T10:00:12Z</time></trkpt><trkpt lat="42.15467659561428" lon="-8.05094337658923"><ele>850.8333333333334</ele><time>2026-04-29T10:00:13Z</time></trkpt><trkpt lat="42.15462707704057" lon="-8.05106265448012"><ele>852.0</ele><time>2026-04-29T10:00:15Z</time></trkpt><trkpt lat="42.1545827782957" lon="-8.051125932696777"><ele>852.0</ele><time>2026-04-29T10:00:16Z</time></trkpt><trkpt lat="42.15456153824712" lon="-8.051224034106436"><ele>852.0</ele><time>2026-04-29T10:00:17Z</time></trkpt><trkpt lat="42.154548955673604" lon="-8.05133246231381"><ele>852.0</ele><time>2026-04-29T10:00:18Z</time></trkpt><trkpt lat="42.1544917512769" lon="-8.05147658739853"><ele>852.0</ele><time>2026-04-29T10:00:19Z</time></trkpt><trkpt lat="42.15447835346276" lon="-8.051613461180509"><ele>852.0</ele><time>2026-04-29T10:00:20Z</time></trkpt><trkpt lat="42.15448027917035" lon="-8.051752006367936"><ele>851.8333333333334</ele><time>2026-04-29T10:00:21Z</time></trkpt><trkpt lat="42.15448260222792" lon="-8.051885649402136"><ele>851.6666666666667</ele><time>2026-04-29T10:00:22Z</time></trkpt><trkpt lat="42.154455652800124" lon="-8.052007349867186"><ele>851.5</ele><time>2026-04-29T10:00:23Z</time></trkpt><trkpt lat="42.15440496527867" lon="-8.05209527721105"><ele>851.3333333333334</ele><time>2026-04-29T10:00:24Z</time></trkpt><trkpt lat="42.15433577755416" lon="-8.05217689088945"><ele>851.1666666666667</ele><time>2026-04-29T10:00:25Z</time></trkpt><trkpt lat="42.15429094433378" lon="-8.05225174096285"><ele>851.0</ele><time>2026-04-29T10:00:26Z</time></trkpt><trkpt lat="42.15419408468314" lon="-8.052365202800395"><ele>851.0</ele><time>2026-04-29T10:00:28Z</time></trkpt><trkpt lat="42.15412416023183" lon="-8.05242697931534"><ele>851.0</ele><time>2026-04-29T10:00:29Z</time></trkpt><trkpt lat="42.154039474812954" lon="-8.052503151585952"><ele>851.0</ele><time>2026-04-29T10:00:30Z</time></trkpt><trkpt lat="42.153951697146056" lon="-8.052589449715148"><ele>851.0</ele><time>2026-04-29T10:00:31Z</time></trkpt><trkpt lat="42.1538988548855" lon="-8.052660909471966"><ele>851.0</ele><time>2026-04-29T10:00:32Z</time></trkpt><trkpt lat="42.15385852969942" lon="-8.052770283654514"><ele>851.0</ele><time>2026-04-29T10:00:33Z</time></trkpt><trkpt lat="42.153824297126974" lon="-8.052901843333219"><ele>851.0</ele><time>2026-04-29T10:00:34Z</time></trkpt><trkpt lat="42.15379765927813" lon="-8.053051868480358"><ele>851.0</ele><time>2026-04-29T10:00:35Z</time></trkpt><trkpt lat="42.15377762480113" lon="-8.053184141248499"><ele>851.0</ele><time>2026-04-29T10:00:36Z</time></trkpt><trkpt lat="42.15377900056854" lon="-8.053294045234278"><ele>851.0</ele><time>2026-04-29T10:00:37Z</time></trkpt><trkpt lat="42.15378721593968" lon="-8.053402890608353"><ele>849.5000000000001</ele><time>2026-04-29T10:00:38Z</time></trkpt><trkpt lat="42.15377711360057" lon="-8.053490126467745"><ele>848.0</ele><time>2026-04-29T10:00:40Z</time></trkpt><trkpt lat="42.153743480176985" lon="-8.053622222281941"><ele>846.5</ele><time>2026-04-29T10:00:42Z</time></trkpt><trkpt lat="42.15373072623626" lon="-8.053725418753977"><ele>845.0</ele><time>2026-04-29T10:00:43Z</time></trkpt><trkpt lat="42.15372644870799" lon="-8.053815192357023"><ele>843.5000000000001</ele><time>2026-04-29T10:00:44Z</time></trkpt><trkpt lat="42.15370751966084" lon="-8.053909442308646"><ele>842.0</ele><time>2026-04-29T10:00:45Z</time></trkpt><trkpt lat="42.15369543573469" lon="-8.054027636216894"><ele>841.4000000000001</ele><time>2026-04-29T10:00:46Z</time></trkpt><trkpt lat="42.15369680872492" lon="-8.054139856225586"><ele>840.8000000000001</ele><time>2026-04-29T10:00:47Z</time></trkpt><trkpt lat="42.153711103667" lon="-8.05424717817103"><ele>840.2</ele><time>2026-04-29T10:00:48Z</time></trkpt><trkpt lat="42.153699112932735" lon="-8.05439672133952"><ele>839.6</ele><time>2026-04-29T10:00:49Z</time></trkpt><trkpt lat="42.15368533773389" lon="-8.05454878026371"><ele>839.0</ele><time>2026-04-29T10:00:50Z</time></trkpt><trkpt lat="42.15366281977488" lon="-8.054663341639252"><ele>839.0</ele><time>2026-04-29T10:00:51Z</time></trkpt><trkpt lat="42.153653450213405" lon="-8.05475487825107"><ele>839.0</ele><time>2026-04-29T10:00:52Z</time></trkpt><trkpt lat="42.15366494880322" lon="-8.05484167507983"><ele>839.0</ele><time>2026-04-29T10:00:53Z</time></trkpt><trkpt lat="42.15367531128267" lon="-8.054987758124625"><ele>839.0</ele><time>2026-04-29T10:00:55Z</time></trkpt><trkpt lat="42.15367365281408" lon="-8.05508140677074"><ele>839.0</ele><time>2026-04-29T10:00:56Z</time></trkpt><trkpt lat="42.15376672236907" lon="-8.055282298929423"><ele>839.4000000000001</ele><time>2026-04-29T10:00:58Z</time></trkpt><trkpt lat="42.153841536670406" lon="-8.055404207387745"><ele>839.8</ele><time>2026-04-29T10:00:59Z</time></trkpt><trkpt lat="42.153910442207426" lon="-8.05549363001017"><ele>840.2</ele><time>2026-04-29T10:01:00Z</time></trkpt><trkpt lat="42.153984748979475" lon="-8.055549036455027"><ele>840.5999999999999</ele><time>2026-04-29T10:01:01Z</time></trkpt><trkpt lat="42.15403949502324" lon="-8.055607771035096"><ele>841.0</ele><time>2026-04-29T10:01:02Z</time></trkpt><trkpt lat="42.15412012755754" lon="-8.055690293850192"><ele>841.0</ele><time>2026-04-29T10:01:04Z</time></trkpt><trkpt lat="42.15422767965511" lon="-8.055768322341784"><ele>841.0</ele><time>2026-04-29T10:01:06Z</time></trkpt><trkpt lat="42.1542909483443" lon="-8.055861110082253"><ele>841.0</ele><time>2026-04-29T10:01:08Z</time></trkpt><trkpt lat="42.15437130701791" lon="-8.055923053919786"><ele>841.0</ele><time>2026-04-29T10:01:10Z</time></trkpt><trkpt lat="42.15448286788054" lon="-8.055991800354555"><ele>841.0</ele><time>2026-04-29T10:01:12Z</time></trkpt><trkpt lat="42.1545485615831" lon="-8.05606523669961"><ele>843.0</ele><time>2026-04-29T10:01:14Z</time></trkpt><trkpt lat="42.15462092812755" lon="-8.056137339941442"><ele>845.0</ele><time>2026-04-29T10:01:16Z</time></trkpt><trkpt lat="42.15469137502126" lon="-8.056219013011766"><ele>847.0</ele><time>2026-04-29T10:01:20Z</time></trkpt><trkpt lat="42.1547471581671" lon="-8.05633856718749"><ele>849.0</ele><time>2026-04-29T10:01:22Z</time></trkpt><trkpt lat="42.15474988826153" lon="-8.056467785302134"><ele>851.0</ele><time>2026-04-29T10:01:24Z</time></trkpt><trkpt lat="42.15475850558194" lon="-8.056607568102697"><ele>853.4</ele><time>2026-04-29T10:01:26Z</time></trkpt><trkpt lat="42.154831567420516" lon="-8.056774704943509"><ele>855.8</ele><time>2026-04-29T10:01:28Z</time></trkpt><trkpt lat="42.15483043791559" lon="-8.056905420644851"><ele>858.1999999999999</ele><time>2026-04-29T10:01:30Z</time></trkpt><trkpt lat="42.15479358265" lon="-8.057040521785797"><ele>860.5999999999999</ele><time>2026-04-29T10:01:32Z</time></trkpt><trkpt lat="42.15474335838072" lon="-8.057141880859946"><ele>863.0</ele><time>2026-04-29T10:01:33Z</time></trkpt><trkpt lat="42.154703301704096" lon="-8.057268009530125"><ele>863.0</ele><time>2026-04-29T10:01:34Z</time></trkpt><trkpt lat="42.15469007358838" lon="-8.057435917478069"><ele>863.0</ele><time>2026-04-29T10:01:35Z</time></trkpt><trkpt lat="42.15466585971459" lon="-8.057576954625253"><ele>863.0</ele><time>2026-04-29T10:01:36Z</time></trkpt><trkpt lat="42.15464737971156" lon="-8.057679969030215"><ele>863.0</ele><time>2026-04-29T10:01:37Z</time></trkpt><trkpt lat="42.15464407056626" lon="-8.057780492243252"><ele>863.0</ele><time>2026-04-29T10:01:38Z</time></trkpt><trkpt lat="42.15464076391415" lon="-8.057867484287668"><ele>863.3333333333334</ele><time>2026-04-29T10:01:39Z</time></trkpt><trkpt lat="42.1546629065349" lon="-8.057947973217908"><ele>863.6666666666667</ele><time>2026-04-29T10:01:40Z</time></trkpt><trkpt lat="42.15472105432166" lon="-8.05806917343202"><ele>864.0</ele><time>2026-04-29T10:01:41Z</time></trkpt><trkpt lat="42.15477990770843" lon="-8.058193005656548"><ele>864.3333333333333</ele><time>2026-04-29T10:01:42Z</time></trkpt><trkpt lat="42.15480453800784" lon="-8.058299283958416"><ele>864.6666666666666</ele><time>2026-04-29T10:01:43Z</time></trkpt><trkpt lat="42.154815170372174" lon="-8.058406666669681"><ele>865.0</ele><time>2026-04-29T10:01:44Z</time></trkpt><trkpt lat="42.154805900789114" lon="-8.058503500910065"><ele>865.0</ele><time>2026-04-29T10:01:45Z</time></trkpt><trkpt lat="42.15479402758483" lon="-8.058622692938323"><ele>865.0</ele><time>2026-04-29T10:01:46Z</time></trkpt><trkpt lat="42.154820000932396" lon="-8.058777642177503"><ele>865.0</ele><time>2026-04-29T10:01:48Z</time></trkpt><trkpt lat="42.15485447827024" lon="-8.058906995356802"><ele>865.0</ele><time>2026-04-29T10:01:49Z</time></trkpt><trkpt lat="42.15488816840326" lon="-8.059009457523436"><ele>865.0</ele><time>2026-04-29T10:01:50Z</time></trkpt><trkpt lat="42.154960725886546" lon="-8.05911296752131"><ele>863.6666666666666</ele><time>2026-04-29T10:01:52Z</time></trkpt><trkpt lat="42.15503772262068" lon="-8.059127966342306"><ele>862.3333333333333</ele><time>2026-04-29T10:01:53Z</time></trkpt><trkpt lat="42.155128245168406" lon="-8.059146737496398"><ele>861.0</ele><time>2026-04-29T10:01:54Z</time></trkpt><trkpt lat="42.155199279966496" lon="-8.05915461218082"><ele>859.6666666666667</ele><time>2026-04-29T10:01:55Z</time></trkpt><trkpt lat="42.1552896960389" lon="-8.059160511288873"><ele>858.3333333333334</ele><time>2026-04-29T10:01:56Z</time></trkpt><trkpt lat="42.15539371095849" lon="-8.059154010549337"><ele>857.0</ele><time>2026-04-29T10:01:57Z</time></trkpt><trkpt lat="42.15550646624287" lon="-8.059166748729352"><ele>857.0</ele><time>2026-04-29T10:01:58Z</time></trkpt><trkpt lat="42.155620081584914" lon="-8.059190211106094"><ele>857.0</ele><time>2026-04-29T10:01:59Z</time></trkpt><trkpt lat="42.15572424945362" lon="-8.059210012173635"><ele>857.0</ele><time>2026-04-29T10:02:00Z</time></trkpt><trkpt lat="42.15580882931323" lon="-8.059225921615637"><ele>857.0</ele><time>2026-04-29T10:02:01Z</time></trkpt><trkpt lat="42.15590494713386" lon="-8.059268608451193"><ele>857.0</ele><time>2026-04-29T10:02:03Z</time></trkpt><trkpt lat="42.15602164190486" lon="-8.059286449892653"><ele>857.0</ele><time>2026-04-29T10:02:05Z</time></trkpt><trkpt lat="42.156111099585026" lon="-8.059308546138"><ele>857.0</ele><time>2026-04-29T10:02:06Z</time></trkpt><trkpt lat="42.15621216063025" lon="-8.059361396927475"><ele>857.0</ele><time>2026-04-29T10:02:07Z</time></trkpt><trkpt lat="42.156297032601145" lon="-8.059422094249367"><ele>857.0</ele><time>2026-04-29T10:02:08Z</time></trkpt><trkpt lat="42.15639007222535" lon="-8.05949759596208"><ele>857.0</ele><time>2026-04-29T10:02:09Z</time></trkpt><trkpt lat="42.15647946075652" lon="-8.059551833291817"><ele>856.5000000000001</ele><time>2026-04-29T10:02:10Z</time></trkpt><trkpt lat="42.156545738887985" lon="-8.059552451041002"><ele>856.0</ele><time>2026-04-29T10:02:11Z</time></trkpt><trkpt lat="42.15662283576421" lon="-8.059569220903011"><ele>855.5</ele><time>2026-04-29T10:02:12Z</time></trkpt><trkpt lat="42.15673253062211" lon="-8.059570491796249"><ele>855.0</ele><time>2026-04-29T10:02:13Z</time></trkpt><trkpt lat="42.15682307144244" lon="-8.05960927428106"><ele>854.5000000000001</ele><time>2026-04-29T10:02:14Z</time></trkpt><trkpt lat="42.156904682022166" lon="-8.059650394464605"><ele>854.0</ele><time>2026-04-29T10:02:15Z</time></trkpt><trkpt lat="42.15698097887347" lon="-8.059654271632478"><ele>854.0</ele><time>2026-04-29T10:02:16Z</time></trkpt><trkpt lat="42.15706183528666" lon="-8.059735634677573"><ele>854.0000000000001</ele><time>2026-04-29T10:02:18Z</time></trkpt><trkpt lat="42.15712947160162" lon="-8.05978934195582"><ele>854.0000000000001</ele><time>2026-04-29T10:02:20Z</time></trkpt><trkpt lat="42.15722339473346" lon="-8.059828216510805"><ele>854.0</ele><time>2026-04-29T10:02:21Z</time></trkpt><trkpt lat="42.15733421005006" lon="-8.059862122906903"><ele>854.0</ele><time>2026-04-29T10:02:22Z</time></trkpt><trkpt lat="42.15743269074046" lon="-8.059857692912903"><ele>851.5</ele><time>2026-04-29T10:02:23Z</time></trkpt><trkpt lat="42.15753581221679" lon="-8.059827470630902"><ele>849.0</ele><time>2026-04-29T10:02:23.999Z</time></trkpt><trkpt lat="42.1576357477787" lon="-8.059770392107582"><ele>846.5</ele><time>2026-04-29T10:02:24.999Z</time></trkpt><trkpt lat="42.157723244503636" lon="-8.059715964628573"><ele>844.0</ele><time>2026-04-29T10:02:25.999Z</time></trkpt><trkpt lat="42.15787059573653" lon="-8.059757470737434"><ele>844.0</ele><time>2026-04-29T10:02:27.999Z</time></trkpt><trkpt lat="42.15796399643365" lon="-8.059822351009492"><ele>844.0</ele><time>2026-04-29T10:02:28.999Z</time></trkpt><trkpt lat="42.158057404199155" lon="-8.059881122917371"><ele>844.0</ele><time>2026-04-29T10:02:29.999Z</time></trkpt><trkpt lat="42.158146671706774" lon="-8.05992877896475"><ele>844.0</ele><time>2026-04-29T10:02:31Z</time></trkpt><trkpt lat="42.15820417385847" lon="-8.05998402403937"><ele>844.0</ele><time>2026-04-29T10:02:32Z</time></trkpt><trkpt lat="42.1582737369806" lon="-8.06005306015216"><ele>848.1666666666666</ele><time>2026-04-29T10:02:34Z</time></trkpt><trkpt lat="42.15834964059752" lon="-8.060088167994529"><ele>852.3333333333333</ele><time>2026-04-29T10:02:36Z</time></trkpt><trkpt lat="42.158393160434215" lon="-8.060155363349065"><ele>856.5</ele><time>2026-04-29T10:02:37Z</time></trkpt><trkpt lat="42.15846003559252" lon="-8.060209316171203"><ele>860.6666666666667</ele><time>2026-04-29T10:02:38Z</time></trkpt><trkpt lat="42.15852039033191" lon="-8.060245096949844"><ele>864.8333333333334</ele><time>2026-04-29T10:02:39Z</time></trkpt><trkpt lat="42.158625385400846" lon="-8.06034703159201"><ele>869.0</ele><time>2026-04-29T10:02:41Z</time></trkpt><trkpt lat="42.15870070455621" lon="-8.06038344201117"><ele>869.0000000000001</ele><time>2026-04-29T10:02:42Z</time></trkpt><trkpt lat="42.15877880093645" lon="-8.060386393323935"><ele>869.0</ele><time>2026-04-29T10:02:43Z</time></trkpt><trkpt lat="42.158870346581665" lon="-8.060373675039166"><ele>869.0</ele><time>2026-04-29T10:02:44Z</time></trkpt><trkpt lat="42.15894223762556" lon="-8.060362716329204"><ele>869.0</ele><time>2026-04-29T10:02:45Z</time></trkpt><trkpt lat="42.159048363952046" lon="-8.060377853282652"><ele>869.0000000000001</ele><time>2026-04-29T10:02:47Z</time></trkpt><trkpt lat="42.15911941486381" lon="-8.060382388622498"><ele>869.0</ele><time>2026-04-29T10:02:48Z</time></trkpt><trkpt lat="42.15921074969982" lon="-8.060396283416217"><ele>868.8000000000001</ele><time>2026-04-29T10:02:49Z</time></trkpt><trkpt lat="42.15929931635232" lon="-8.06039735951685"><ele>868.6000000000001</ele><time>2026-04-29T10:02:50Z</time></trkpt><trkpt lat="42.15939319056047" lon="-8.060398106137784"><ele>868.4</ele><time>2026-04-29T10:02:51Z</time></trkpt><trkpt lat="42.15948562499458" lon="-8.06043409532996"><ele>868.2</ele><time>2026-04-29T10:02:53Z</time></trkpt><trkpt lat="42.15954619677292" lon="-8.060471619795333"><ele>868.0</ele><time>2026-04-29T10:02:56Z</time></trkpt><trkpt lat="42.159652517494216" lon="-8.060489835308468"><ele>867.9999999999999</ele><time>2026-04-29T10:03:00Z</time></trkpt><trkpt lat="42.15973355675066" lon="-8.060469694208813"><ele>868.0</ele><time>2026-04-29T10:03:02Z</time></trkpt><trkpt lat="42.159820006822486" lon="-8.060466132786246"><ele>868.0</ele><time>2026-04-29T10:03:04Z</time></trkpt><trkpt lat="42.159882908101366" lon="-8.060456542531954"><ele>868.0</ele><time>2026-04-29T10:03:05Z</time></trkpt><trkpt lat="42.15994724264893" lon="-8.060487661838332"><ele>867.9999999999999</ele><time>2026-04-29T10:03:06Z</time></trkpt><trkpt lat="42.16002697881355" lon="-8.060559592363235"><ele>868.0</ele><time>2026-04-29T10:03:07Z</time></trkpt><trkpt lat="42.16013239404444" lon="-8.060654112000398"><ele>868.5999999999999</ele><time>2026-04-29T10:03:08Z</time></trkpt><trkpt lat="42.160234977738455" lon="-8.060732157671005"><ele>869.1999999999999</ele><time>2026-04-29T10:03:09Z</time></trkpt><trkpt lat="42.16031541875405" lon="-8.060790938024448"><ele>869.8</ele><time>2026-04-29T10:03:10Z</time></trkpt><trkpt lat="42.16037471890065" lon="-8.06087159116742"><ele>870.4</ele><time>2026-04-29T10:03:11Z</time></trkpt><trkpt lat="42.16041765364188" lon="-8.060970122078446"><ele>871.0</ele><time>2026-04-29T10:03:12Z</time></trkpt><trkpt lat="42.16047464986377" lon="-8.061099521622383"><ele>873.25</ele><time>2026-04-29T10:03:13Z</time></trkpt><trkpt lat="42.16056321335387" lon="-8.061276854978434"><ele>875.5</ele><time>2026-04-29T10:03:14Z</time></trkpt><trkpt lat="42.16067046856839" lon="-8.061441922814435"><ele>877.75</ele><time>2026-04-29T10:03:15Z</time></trkpt><trkpt lat="42.16074878536719" lon="-8.061577929280407"><ele>880.0</ele><time>2026-04-29T10:03:16Z</time></trkpt><trkpt lat="42.160823913117824" lon="-8.061735115679499"><ele>882.0</ele><time>2026-04-29T10:03:17Z</time></trkpt><trkpt lat="42.160888066964546" lon="-8.061884228610767"><ele>884.0</ele><time>2026-04-29T10:03:18Z</time></trkpt><trkpt lat="42.16093485256521" lon="-8.06198381784011"><ele>886.0</ele><time>2026-04-29T10:03:19Z</time></trkpt><trkpt lat="42.16096788775626" lon="-8.062057648151306"><ele>888.0</ele><time>2026-04-29T10:03:20Z</time></trkpt><trkpt lat="42.160934237817" lon="-8.062136570155312"><ele>890.0</ele><time>2026-04-29T10:03:23Z</time></trkpt><trkpt lat="42.16088447523899" lon="-8.062321911225377"><ele>890.6</ele><time>2026-04-29T10:03:25Z</time></trkpt><trkpt lat="42.160849155353574" lon="-8.062459248604116"><ele>891.2</ele><time>2026-04-29T10:03:26Z</time></trkpt><trkpt lat="42.16081607841302" lon="-8.06262669155297"><ele>891.8</ele><time>2026-04-29T10:03:27Z</time></trkpt><trkpt lat="42.16078386755723" lon="-8.062768865994936"><ele>892.4</ele><time>2026-04-29T10:03:28Z</time></trkpt><trkpt lat="42.160756090369674" lon="-8.062878346289201"><ele>893.0</ele><time>2026-04-29T10:03:29Z</time></trkpt><trkpt lat="42.1607190083087" lon="-8.06298555781757"><ele>896.5999999999999</ele><time>2026-04-29T10:03:30Z</time></trkpt><trkpt lat="42.160677564777046" lon="-8.06310465962145"><ele>900.1999999999999</ele><time>2026-04-29T10:03:31Z</time></trkpt><trkpt lat="42.16063225583215" lon="-8.063219464945506"><ele>903.8</ele><time>2026-04-29T10:03:32Z</time></trkpt><trkpt lat="42.16059866880961" lon="-8.063297837396615"><ele>907.4</ele><time>2026-04-29T10:03:33Z</time></trkpt><trkpt lat="42.160508599225665" lon="-8.063434515881253"><ele>911.0</ele><time>2026-04-29T10:03:35Z</time></trkpt><trkpt lat="42.16045345911939" lon="-8.0635493819571"><ele>911.1999999999999</ele><time>2026-04-29T10:03:36Z</time></trkpt><trkpt lat="42.16041963627824" lon="-8.063628118944068"><ele>911.3999999999999</ele><time>2026-04-29T10:03:37Z</time></trkpt><trkpt lat="42.160404321880684" lon="-8.063721832161676"><ele>911.6</ele><time>2026-04-29T10:03:40Z</time></trkpt><trkpt lat="42.16052221610352" lon="-8.063814278708046"><ele>911.8</ele><time>2026-04-29T10:36:37.001Z</time></trkpt><trkpt lat="42.16061892029801" lon="-8.063835448799795"><ele>912.0</ele><time>2026-04-29T10:36:38.001Z</time></trkpt><trkpt lat="42.160699149094256" lon="-8.063857617266866"><ele>908.4000000000001</ele><time>2026-04-29T10:36:39.001Z</time></trkpt><trkpt lat="42.160777127035274" lon="-8.06392791075143"><ele>904.8000000000001</ele><time>2026-04-29T10:36:41.001Z</time></trkpt><trkpt lat="42.1608681111404" lon="-8.063973205018938"><ele>901.2</ele><time>2026-04-29T10:36:43.001Z</time></trkpt><trkpt lat="42.16099427608295" lon="-8.06402318464874"><ele>897.6</ele><time>2026-04-29T10:36:45.001Z</time></trkpt><trkpt lat="42.16106765685515" lon="-8.064060481411106"><ele>894.0</ele><time>2026-04-29T10:36:46.001Z</time></trkpt><trkpt lat="42.16112463673737" lon="-8.064107254142769"><ele>893.8000000000001</ele><time>2026-04-29T10:36:47.001Z</time></trkpt><trkpt lat="42.16117094550043" lon="-8.064168867410134"><ele>893.6000000000001</ele><time>2026-04-29T10:36:48.001Z</time></trkpt><trkpt lat="42.16126791206333" lon="-8.064273509012848"><ele>893.4</ele><time>2026-04-29T10:36:50.001Z</time></trkpt><trkpt lat="42.16137262199853" lon="-8.064357035273234"><ele>893.2</ele><time>2026-04-29T10:36:52.001Z</time></trkpt><trkpt lat="42.161431065183514" lon="-8.06440646170726"><ele>893.0</ele><time>2026-04-29T10:36:53.001Z</time></trkpt><trkpt lat="42.16150314912064" lon="-8.064451038702558"><ele>890.3333333333334</ele><time>2026-04-29T10:36:55.001Z</time></trkpt><trkpt lat="42.161567847890765" lon="-8.06449829005094"><ele>887.6666666666667</ele><time>2026-04-29T10:36:59.001Z</time></trkpt><trkpt lat="42.16170754463811" lon="-8.06457253933727"><ele>885.0</ele><time>2026-04-29T10:37:02.001Z</time></trkpt><trkpt lat="42.16175804384615" lon="-8.064651361191565"><ele>882.3333333333333</ele><time>2026-04-29T10:37:05.001Z</time></trkpt><trkpt lat="42.16178742740977" lon="-8.06473423065101"><ele>879.6666666666666</ele><time>2026-04-29T10:37:07.001Z</time></trkpt><trkpt lat="42.16180860920415" lon="-8.064817949513913"><ele>877.0</ele><time>2026-04-29T10:37:10.001Z</time></trkpt><trkpt lat="42.161797956920324" lon="-8.06491998673945"><ele>877.2</ele><time>2026-04-29T10:37:14.002Z</time></trkpt><trkpt lat="42.161813764812045" lon="-8.06506502999044"><ele>877.4000000000001</ele><time>2026-04-29T10:37:18.002Z</time></trkpt><trkpt lat="42.16186643916661" lon="-8.065148610073551"><ele>877.5999999999999</ele><time>2026-04-29T10:37:20.002Z</time></trkpt><trkpt lat="42.161993269931855" lon="-8.065201126928956"><ele>877.8</ele><time>2026-04-29T10:37:22.002Z</time></trkpt><trkpt lat="42.16208741177316" lon="-8.065264170390204"><ele>878.0</ele><time>2026-04-29T10:37:23.002Z</time></trkpt><trkpt lat="42.16217926481988" lon="-8.06534938507599"><ele>878.0000000000001</ele><time>2026-04-29T10:37:24.002Z</time></trkpt><trkpt lat="42.16225074468516" lon="-8.065429665570507"><ele>878.0</ele><time>2026-04-29T10:37:25.002Z</time></trkpt><trkpt lat="42.162299149306925" lon="-8.065492416734449"><ele>878.0</ele><time>2026-04-29T10:37:26.002Z</time></trkpt><trkpt lat="42.16235251769334" lon="-8.065549876843052"><ele>878.0</ele><time>2026-04-29T10:37:27.002Z</time></trkpt><trkpt lat="42.16242736757305" lon="-8.065586939802007"><ele>878.0000000000001</ele><time>2026-04-29T10:37:28.002Z</time></trkpt><trkpt lat="42.16251030610557" lon="-8.065649127038858"><ele>878.0</ele><time>2026-04-29T10:37:30.002Z</time></trkpt><trkpt lat="42.16256362215436" lon="-8.065718176660742"><ele>877.2857142857142</ele><time>2026-04-29T10:37:32.002Z</time></trkpt><trkpt lat="42.16264426588696" lon="-8.065758438553907"><ele>876.5714285714286</ele><time>2026-04-29T10:37:34.002Z</time></trkpt><trkpt lat="42.16269764717374" lon="-8.065809109047677"><ele>875.8571428571429</ele><time>2026-04-29T10:37:36.002Z</time></trkpt><trkpt lat="42.1627705138124" lon="-8.065840865205157"><ele>875.1428571428571</ele><time>2026-04-29T10:37:39.002Z</time></trkpt><trkpt lat="42.16283448836071" lon="-8.065854711391303"><ele>874.4285714285714</ele><time>2026-04-29T10:37:41.002Z</time></trkpt><trkpt lat="42.16289480608818" lon="-8.065912519211214"><ele>873.7142857142857</ele><time>2026-04-29T10:37:46.002Z</time></trkpt><trkpt lat="42.16295546098417" lon="-8.06597526997912"><ele>873.0</ele><time>2026-04-29T10:38:07.003Z</time></trkpt><trkpt lat="42.16301670087206" lon="-8.066013247535624"><ele>873.0</ele><time>2026-04-29T10:38:12.003Z</time></trkpt><trkpt lat="42.16306747092541" lon="-8.06608077679725"><ele>873.0</ele><time>2026-04-29T10:38:15.002Z</time></trkpt><trkpt lat="42.16310326508893" lon="-8.066181198646031"><ele>873.0</ele><time>2026-04-29T10:38:17.002Z</time></trkpt><trkpt lat="42.1631589662751" lon="-8.066234084897909"><ele>873.0</ele><time>2026-04-29T10:38:19.002Z</time></trkpt><trkpt lat="42.163228059170315" lon="-8.066245656793742"><ele>873.0</ele><time>2026-04-29T10:38:21.002Z</time></trkpt><trkpt lat="42.16331035515471" lon="-8.06633688052635"><ele>873.0</ele><time>2026-04-29T10:38:23.001Z</time></trkpt><trkpt lat="42.16337774328325" lon="-8.06642362383093"><ele>872.6666666666666</ele><time>2026-04-29T10:38:25.001Z</time></trkpt><trkpt lat="42.1634495853955" lon="-8.066470719031022"><ele>872.3333333333333</ele><time>2026-04-29T10:38:27.001Z</time></trkpt><trkpt lat="42.16350456902142" lon="-8.066551154550186"><ele>872.0</ele><time>2026-04-29T10:38:29.001Z</time></trkpt><trkpt lat="42.16359506863878" lon="-8.066599941222643"><ele>871.6666666666666</ele><time>2026-04-29T10:38:31.001Z</time></trkpt><trkpt lat="42.163659089818125" lon="-8.066636770968612"><ele>871.3333333333333</ele><time>2026-04-29T10:38:33.001Z</time></trkpt><trkpt lat="42.16373449676981" lon="-8.066676177894589"><ele>871.0</ele><time>2026-04-29T10:38:36.001Z</time></trkpt><trkpt lat="42.16380610240761" lon="-8.066733257508703"><ele>871.0</ele><time>2026-04-29T10:38:40.001Z</time></trkpt><trkpt lat="42.16388910575025" lon="-8.066790927982932"><ele>870.9999999999999</ele><time>2026-04-29T10:38:43.001Z</time></trkpt><trkpt lat="42.1639629220665" lon="-8.066831428815325"><ele>870.9999999999999</ele><time>2026-04-29T10:38:45.001Z</time></trkpt><trkpt lat="42.164033790725014" lon="-8.06689852409928"><ele>871.0</ele><time>2026-04-29T10:38:49.001Z</time></trkpt><trkpt lat="42.16411547201233" lon="-8.066959727848795"><ele>871.0</ele><time>2026-04-29T10:38:51.001Z</time></trkpt><trkpt lat="42.164216057670124" lon="-8.067012928637247"><ele>869.4999999999999</ele><time>2026-04-29T10:38:53.001Z</time></trkpt><trkpt lat="42.16430160046451" lon="-8.067095578876055"><ele>868.0</ele><time>2026-04-29T10:38:55.001Z</time></trkpt><trkpt lat="42.16432825276077" lon="-8.067185944505097"><ele>866.5</ele><time>2026-04-29T10:38:57.001Z</time></trkpt><trkpt lat="42.16438598503778" lon="-8.067278936872132"><ele>865.0</ele><time>2026-04-29T10:38:59.001Z</time></trkpt><trkpt lat="42.16442137282795" lon="-8.067398300872611"><ele>863.4999999999999</ele><time>2026-04-29T10:39:01.001Z</time></trkpt><trkpt lat="42.16444151500988" lon="-8.06748836077093"><ele>862.0</ele><time>2026-04-29T10:39:02.001Z</time></trkpt><trkpt lat="42.16444263256746" lon="-8.067593705429806"><ele>862.0</ele><time>2026-04-29T10:39:03.001Z</time></trkpt><trkpt lat="42.16445093948118" lon="-8.067690841570938"><ele>862.0</ele><time>2026-04-29T10:39:04.001Z</time></trkpt><trkpt lat="42.16448024849263" lon="-8.067773018628639"><ele>862.0</ele><time>2026-04-29T10:39:05.001Z</time></trkpt><trkpt lat="42.16447661567124" lon="-8.067861610591846"><ele>862.0</ele><time>2026-04-29T10:39:06.001Z</time></trkpt><trkpt lat="42.164498461734425" lon="-8.067966143175846"><ele>862.0</ele><time>2026-04-29T10:39:07.001Z</time></trkpt><trkpt lat="42.16453821616931" lon="-8.068062529374544"><ele>862.0</ele><time>2026-04-29T10:39:08.001Z</time></trkpt><trkpt lat="42.164570240334314" lon="-8.06814268032692"><ele>862.0</ele><time>2026-04-29T10:39:09.001Z</time></trkpt><trkpt lat="42.164597047442776" lon="-8.068240651974392"><ele>862.1666666666666</ele><time>2026-04-29T10:39:10.001Z</time></trkpt><trkpt lat="42.164640073179505" lon="-8.068368234396129"><ele>862.3333333333333</ele><time>2026-04-29T10:39:11.001Z</time></trkpt><trkpt lat="42.1646770784434" lon="-8.068481689859583"><ele>862.5</ele><time>2026-04-29T10:39:12.001Z</time></trkpt><trkpt lat="42.16470362844847" lon="-8.068559592294955"><ele>862.6666666666667</ele><time>2026-04-29T10:39:13.001Z</time></trkpt><trkpt lat="42.16470576821279" lon="-8.068669989847276"><ele>862.8333333333334</ele><time>2026-04-29T10:39:15.001Z</time></trkpt><trkpt lat="42.16471171225698" lon="-8.068771209832102"><ele>863.0</ele><time>2026-04-29T10:39:17.001Z</time></trkpt><trkpt lat="42.16474289632645" lon="-8.06886457405208"><ele>863.0</ele><time>2026-04-29T10:39:19.001Z</time></trkpt><trkpt lat="42.1647874914887" lon="-8.068931698801727"><ele>863.0</ele><time>2026-04-29T10:39:21.001Z</time></trkpt><trkpt lat="42.16484637078873" lon="-8.069016390789166"><ele>863.0</ele><time>2026-04-29T10:39:23.001Z</time></trkpt><trkpt lat="42.164972410380756" lon="-8.069146071656068"><ele>863.0</ele><time>2026-04-29T10:39:26.002Z</time></trkpt><trkpt lat="42.16505100619303" lon="-8.069251173409821"><ele>863.0</ele><time>2026-04-29T10:39:28.002Z</time></trkpt><trkpt lat="42.16512755133607" lon="-8.069299504401139"><ele>860.6666666666667</ele><time>2026-04-29T10:39:29.002Z</time></trkpt><trkpt lat="42.165226729874156" lon="-8.06934972770548"><ele>858.3333333333334</ele><time>2026-04-29T10:39:30.002Z</time></trkpt><trkpt lat="42.16529855089709" lon="-8.069391886448459"><ele>856.0</ele><time>2026-04-29T10:39:31.002Z</time></trkpt><trkpt lat="42.16537766156202" lon="-8.06944112136494"><ele>853.6666666666667</ele><time>2026-04-29T10:39:32.002Z</time></trkpt><trkpt lat="42.16544480403598" lon="-8.069462776208873"><ele>851.3333333333334</ele><time>2026-04-29T10:39:33.002Z</time></trkpt><trkpt lat="42.16550666753901" lon="-8.069482552505114"><ele>849.0</ele><time>2026-04-29T10:39:34.002Z</time></trkpt><trkpt lat="42.165593680916956" lon="-8.069451405308094"><ele>850.0</ele><time>2026-04-29T10:39:35.002Z</time></trkpt><trkpt lat="42.165697869315366" lon="-8.069433446837802"><ele>851.0</ele><time>2026-04-29T10:39:36.002Z</time></trkpt><trkpt lat="42.16583372349142" lon="-8.069367894513778"><ele>852.0</ele><time>2026-04-29T10:39:37.002Z</time></trkpt><trkpt lat="42.165916550529516" lon="-8.06933411959768"><ele>853.0</ele><time>2026-04-29T10:39:38.002Z</time></trkpt><trkpt lat="42.16600878430682" lon="-8.069210194428338"><ele>853.0</ele><time>2026-04-29T10:39:39.002Z</time></trkpt><trkpt lat="42.16612623162791" lon="-8.069136542079638"><ele>853.0</ele><time>2026-04-29T10:39:40.002Z</time></trkpt><trkpt lat="42.16624539474918" lon="-8.06907857170877"><ele>853.0</ele><time>2026-04-29T10:39:41.002Z</time></trkpt><trkpt lat="42.166392544579054" lon="-8.069050215298068"><ele>853.0</ele><time>2026-04-29T10:39:42.002Z</time></trkpt><trkpt lat="42.16649542789814" lon="-8.068992356563049"><ele>853.0</ele><time>2026-04-29T10:39:43.002Z</time></trkpt><trkpt lat="42.166575881343014" lon="-8.068915797772036"><ele>853.0</ele><time>2026-04-29T10:39:44.002Z</time></trkpt><trkpt lat="42.166654153999716" lon="-8.068794674027714"><ele>853.0</ele><time>2026-04-29T10:39:45.002Z</time></trkpt><trkpt lat="42.16674591124545" lon="-8.06867107247198"><ele>853.0</ele><time>2026-04-29T10:39:46.002Z</time></trkpt><trkpt lat="42.16682451667732" lon="-8.068565791292253"><ele>852.9999999999999</ele><time>2026-04-29T10:39:47.002Z</time></trkpt><trkpt lat="42.16687985235177" lon="-8.068476435021934"><ele>853.0</ele><time>2026-04-29T10:39:48.002Z</time></trkpt><trkpt lat="42.16693952130108" lon="-8.068408619111054"><ele>853.0</ele><time>2026-04-29T10:39:49.002Z</time></trkpt><trkpt lat="42.167021568447005" lon="-8.068334245470384"><ele>853.0</ele><time>2026-04-29T10:39:50.002Z</time></trkpt><trkpt lat="42.16709793406642" lon="-8.068288293340531"><ele>852.9999999999999</ele><time>2026-04-29T10:39:51.002Z</time></trkpt><trkpt lat="42.167164618289064" lon="-8.068263061652575"><ele>853.0</ele><time>2026-04-29T10:39:52.002Z</time></trkpt><trkpt lat="42.16724829152774" lon="-8.06827790449046"><ele>853.0</ele><time>2026-04-29T10:39:53.002Z</time></trkpt><trkpt lat="42.16733096764522" lon="-8.068323229344715"><ele>853.0</ele><time>2026-04-29T10:39:54.002Z</time></trkpt><trkpt lat="42.167395388959335" lon="-8.068390583433622"><ele>853.0</ele><time>2026-04-29T10:39:55.002Z</time></trkpt><trkpt lat="42.16742587175057" lon="-8.068497350681973"><ele>853.0</ele><time>2026-04-29T10:39:56.002Z</time></trkpt><trkpt lat="42.167442312901336" lon="-8.068633335024625"><ele>853.0</ele><time>2026-04-29T10:39:57.002Z</time></trkpt><trkpt lat="42.167432532548155" lon="-8.068808676309697"><ele>853.0</ele><time>2026-04-29T10:39:58.002Z</time></trkpt><trkpt lat="42.16742613168986" lon="-8.06900827713116"><ele>853.0</ele><time>2026-04-29T10:39:59.002Z</time></trkpt><trkpt lat="42.16742488878964" lon="-8.069160320141801"><ele>853.0</ele><time>2026-04-29T10:40:00.002Z</time></trkpt><trkpt lat="42.16746649278409" lon="-8.069285976039907"><ele>853.0</ele><time>2026-04-29T10:40:01.002Z</time></trkpt><trkpt lat="42.16752079414588" lon="-8.069407717667383"><ele>852.6666666666666</ele><time>2026-04-29T10:40:02.002Z</time></trkpt><trkpt lat="42.1675472808263" lon="-8.069529585113662"><ele>852.3333333333333</ele><time>2026-04-29T10:40:04.002Z</time></trkpt><trkpt lat="42.167533058850495" lon="-8.069622707759578"><ele>852.0</ele><time>2026-04-29T10:40:06.002Z</time></trkpt><trkpt lat="42.167536730979165" lon="-8.069790671903219"><ele>851.6666666666667</ele><time>2026-04-29T10:40:08.002Z</time></trkpt><trkpt lat="42.16754953051171" lon="-8.069884784388519"><ele>851.3333333333334</ele><time>2026-04-29T10:40:09.002Z</time></trkpt><trkpt lat="42.16757130109774" lon="-8.069976093299658"><ele>851.0</ele><time>2026-04-29T10:40:10.002Z</time></trkpt><trkpt lat="42.16759885001537" lon="-8.070088131267674"><ele>851.0</ele><time>2026-04-29T10:40:11.002Z</time></trkpt><trkpt lat="42.167650361011425" lon="-8.070225078633966"><ele>851.0</ele><time>2026-04-29T10:40:12.002Z</time></trkpt><trkpt lat="42.16772200562132" lon="-8.070376176488754"><ele>851.0</ele><time>2026-04-29T10:40:13.002Z</time></trkpt><trkpt lat="42.16777650287855" lon="-8.07050084522542"><ele>851.0</ele><time>2026-04-29T10:40:14.002Z</time></trkpt><trkpt lat="42.16781815493846" lon="-8.070658530927135"><ele>849.0</ele><time>2026-04-29T10:40:15.002Z</time></trkpt><trkpt lat="42.16785619282016" lon="-8.070791183655238"><ele>847.0</ele><time>2026-04-29T10:40:16.002Z</time></trkpt><trkpt lat="42.16787392571005" lon="-8.070949473362683"><ele>845.0</ele><time>2026-04-29T10:40:17.002Z</time></trkpt><trkpt lat="42.16789674361606" lon="-8.071083843637322"><ele>843.0</ele><time>2026-04-29T10:40:18.003Z</time></trkpt><trkpt lat="42.16792472117491" lon="-8.071176222775115"><ele>841.0</ele><time>2026-04-29T10:40:19.002Z</time></trkpt><trkpt lat="42.16793000366263" lon="-8.071277275822169"><ele>840.9999999999999</ele><time>2026-04-29T10:40:22.001Z</time></trkpt><trkpt lat="42.16786815717911" lon="-8.071244053730446"><ele>841.0</ele><time>2026-04-29T10:40:29.001Z</time></trkpt><trkpt lat="42.16780603684172" lon="-8.071203872194207"><ele>841.0</ele><time>2026-04-29T10:40:31.001Z</time></trkpt><trkpt lat="42.167740389099116" lon="-8.071166881615541"><ele>841.0</ele><time>2026-04-29T10:40:32.001Z</time></trkpt><trkpt lat="42.16764392979189" lon="-8.07111777466707"><ele>840.9999999999999</ele><time>2026-04-29T10:40:34.001Z</time></trkpt><trkpt lat="42.16751184137447" lon="-8.07107039555714"><ele>841.0</ele><time>2026-04-29T10:40:36.001Z</time></trkpt><trkpt lat="42.167405770353554" lon="-8.071028403455696"><ele>841.5999999999999</ele><time>2026-04-29T10:40:37.001Z</time></trkpt><trkpt lat="42.167290219857136" lon="-8.070980788734468"><ele>842.2</ele><time>2026-04-29T10:40:38.001Z</time></trkpt><trkpt lat="42.167183862516026" lon="-8.070946054727877"><ele>842.8</ele><time>2026-04-29T10:40:39.001Z</time></trkpt><trkpt lat="42.167080036589375" lon="-8.070913672293772"><ele>843.4000000000001</ele><time>2026-04-29T10:40:40.001Z</time></trkpt><trkpt lat="42.16697598393437" lon="-8.070882168115826"><ele>844.0</ele><time>2026-04-29T10:40:41.001Z</time></trkpt><trkpt lat="42.16687738955636" lon="-8.070867504442885"><ele>844.0</ele><time>2026-04-29T10:40:42.001Z</time></trkpt><trkpt lat="42.16677072582799" lon="-8.07088941225351"><ele>844.0</ele><time>2026-04-29T10:40:43.001Z</time></trkpt><trkpt lat="42.16665453019167" lon="-8.070932829335034"><ele>844.0</ele><time>2026-04-29T10:40:44.001Z</time></trkpt><trkpt lat="42.166533677313666" lon="-8.071000500602533"><ele>844.0</ele><time>2026-04-29T10:40:45.001Z</time></trkpt><trkpt lat="42.16640081892103" lon="-8.071077113188943"><ele>845.75</ele><time>2026-04-29T10:40:46.001Z</time></trkpt><trkpt lat="42.16626732929381" lon="-8.071152482203422"><ele>847.5</ele><time>2026-04-29T10:40:47.001Z</time></trkpt><trkpt lat="42.16614898347373" lon="-8.071225054383298"><ele>849.25</ele><time>2026-04-29T10:40:48.001Z</time></trkpt><trkpt lat="42.16603591125168" lon="-8.071288928447421"><ele>851.0</ele><time>2026-04-29T10:40:49.001Z</time></trkpt><trkpt lat="42.16592013750659" lon="-8.071347391451377"><ele>851.0</ele><time>2026-04-29T10:40:50.001Z</time></trkpt><trkpt lat="42.16580411667599" lon="-8.071399568388365"><ele>851.0</ele><time>2026-04-29T10:40:51.001Z</time></trkpt><trkpt lat="42.16569037350589" lon="-8.071449919193252"><ele>851.0</ele><time>2026-04-29T10:40:52.001Z</time></trkpt><trkpt lat="42.165577540140724" lon="-8.071495910625174"><ele>851.0</ele><time>2026-04-29T10:40:53.001Z</time></trkpt><trkpt lat="42.16547011018235" lon="-8.071538186030114"><ele>852.25</ele><time>2026-04-29T10:40:54.001Z</time></trkpt><trkpt lat="42.16535953410084" lon="-8.071568932144528"><ele>853.5</ele><time>2026-04-29T10:40:55.001Z</time></trkpt><trkpt lat="42.16522773135293" lon="-8.071574744228284"><ele>854.75</ele><time>2026-04-29T10:40:56.001Z</time></trkpt><trkpt lat="42.16506747510134" lon="-8.071554790789476"><ele>856.0</ele><time>2026-04-29T10:40:57.001Z</time></trkpt><trkpt lat="42.16491479102116" lon="-8.071525744422457"><ele>854.8</ele><time>2026-04-29T10:40:58.001Z</time></trkpt><trkpt lat="42.16479687655073" lon="-8.071495898621002"><ele>853.5999999999999</ele><time>2026-04-29T10:40:59.001Z</time></trkpt><trkpt lat="42.16470844163838" lon="-8.071473529184935"><ele>852.4</ele><time>2026-04-29T10:41:00.001Z</time></trkpt><trkpt lat="42.1646352510872" lon="-8.07145274811438"><ele>851.2</ele><time>2026-04-29T10:41:01.001Z</time></trkpt><trkpt lat="42.16452661291522" lon="-8.071410406616007"><ele>850.0</ele><time>2026-04-29T10:41:03.001Z</time></trkpt><trkpt lat="42.1644389098295" lon="-8.071365248238928"><ele>849.9999999999999</ele><time>2026-04-29T10:41:05.001Z</time></trkpt><trkpt lat="42.164347565245734" lon="-8.071325643023137"><ele>850.0</ele><time>2026-04-29T10:41:08.001Z</time></trkpt><trkpt lat="42.16427334486036" lon="-8.071290167512936"><ele>850.0</ele><time>2026-04-29T10:41:11.001Z</time></trkpt><trkpt lat="42.164343788931575" lon="-8.071287152152617"><ele>850.0</ele><time>2026-04-29T10:41:43.001Z</time></trkpt><trkpt lat="42.164404580973404" lon="-8.07132466900585"><ele>849.9999999999999</ele><time>2026-04-29T10:41:44.001Z</time></trkpt><trkpt lat="42.16448025540781" lon="-8.071355150098245"><ele>850.0</ele><time>2026-04-29T10:41:45.001Z</time></trkpt><trkpt lat="42.16458982532796" lon="-8.071401222774691"><ele>850.0</ele><time>2026-04-29T10:41:46.002Z</time></trkpt><trkpt lat="42.164711079013976" lon="-8.071453065367962"><ele>850.0</ele><time>2026-04-29T10:41:47.002Z</time></trkpt><trkpt lat="42.16483391708931" lon="-8.071489393782626"><ele>850.0</ele><time>2026-04-29T10:41:48.002Z</time></trkpt><trkpt lat="42.164967660490525" lon="-8.071514762046139"><ele>850.0</ele><time>2026-04-29T10:41:49.002Z</time></trkpt><trkpt lat="42.165114516694246" lon="-8.071531378605338"><ele>851.5</ele><time>2026-04-29T10:41:50.002Z</time></trkpt><trkpt lat="42.16525413213311" lon="-8.071548933380587"><ele>853.0</ele><time>2026-04-29T10:41:51.002Z</time></trkpt><trkpt lat="42.16538635382936" lon="-8.071549183989816"><ele>854.5</ele><time>2026-04-29T10:41:52.002Z</time></trkpt><trkpt lat="42.16551820848488" lon="-8.071528445262018"><ele>856.0</ele><time>2026-04-29T10:41:53.002Z</time></trkpt><trkpt lat="42.1656516183435" lon="-8.07147556972152"><ele>854.75</ele><time>2026-04-29T10:41:54.002Z</time></trkpt><trkpt lat="42.16578159407706" lon="-8.071403078897932"><ele>853.5</ele><time>2026-04-29T10:41:55.002Z</time></trkpt><trkpt lat="42.16591024212102" lon="-8.071339352993789"><ele>852.25</ele><time>2026-04-29T10:41:56.002Z</time></trkpt><trkpt lat="42.16603983676556" lon="-8.071283383745865"><ele>851.0</ele><time>2026-04-29T10:41:57.002Z</time></trkpt><trkpt lat="42.16617211411262" lon="-8.071214872956832"><ele>851.0</ele><time>2026-04-29T10:41:58.002Z</time></trkpt><trkpt lat="42.166302864403235" lon="-8.071144275486443"><ele>851.0</ele><time>2026-04-29T10:41:59.002Z</time></trkpt><trkpt lat="42.16642599578267" lon="-8.071062921312151"><ele>851.0</ele><time>2026-04-29T10:42:00.002Z</time></trkpt><trkpt lat="42.1665581142164" lon="-8.070993940460546"><ele>851.0</ele><time>2026-04-29T10:42:01.002Z</time></trkpt><trkpt lat="42.16670390549983" lon="-8.07094991802926"><ele>849.5999999999999</ele><time>2026-04-29T10:42:02.002Z</time></trkpt><trkpt lat="42.166807180964994" lon="-8.070901197484805"><ele>848.2</ele><time>2026-04-29T10:42:03.002Z</time></trkpt><trkpt lat="42.166904154131934" lon="-8.070873932475932"><ele>846.8</ele><time>2026-04-29T10:42:04.002Z</time></trkpt><trkpt lat="42.167017302041145" lon="-8.07086425748811"><ele>845.4000000000001</ele><time>2026-04-29T10:42:05.002Z</time></trkpt><trkpt lat="42.16713544599205" lon="-8.070914093779493"><ele>844.0</ele><time>2026-04-29T10:42:06.002Z</time></trkpt><trkpt lat="42.16726150552249" lon="-8.070952731289168"><ele>843.25</ele><time>2026-04-29T10:42:07.002Z</time></trkpt><trkpt lat="42.16739237524211" lon="-8.071004946821283"><ele>842.5</ele><time>2026-04-29T10:42:08.002Z</time></trkpt><trkpt lat="42.167522196031655" lon="-8.071058499992505"><ele>841.75</ele><time>2026-04-29T10:42:09.002Z</time></trkpt><trkpt lat="42.16764495399066" lon="-8.071124150299351"><ele>841.0</ele><time>2026-04-29T10:42:10.002Z</time></trkpt><trkpt lat="42.1677569669605" lon="-8.071168153066163"><ele>841.0</ele><time>2026-04-29T10:42:11.002Z</time></trkpt><trkpt lat="42.16786027758946" lon="-8.071231742365384"><ele>841.0</ele><time>2026-04-29T10:42:12.002Z</time></trkpt><trkpt lat="42.16794573860978" lon="-8.07128578164408"><ele>841.0</ele><time>2026-04-29T10:42:13.002Z</time></trkpt><trkpt lat="42.16802082434003" lon="-8.071344747610702"><ele>841.0</ele><time>2026-04-29T10:42:15.002Z</time></trkpt><trkpt lat="42.16809880990698" lon="-8.071290980679747"><ele>841.0</ele><time>2026-04-29T10:42:17.002Z</time></trkpt><trkpt lat="42.16821737739666" lon="-8.071262188056133"><ele>840.0</ele><time>2026-04-29T10:42:19.002Z</time></trkpt><trkpt lat="42.168282494151164" lon="-8.07128687858367"><ele>839.0</ele><time>2026-04-29T10:42:20.002Z</time></trkpt><trkpt lat="42.16840935480359" lon="-8.071412758309698"><ele>838.0</ele><time>2026-04-29T10:42:22.002Z</time></trkpt><trkpt lat="42.16849368577982" lon="-8.071508541628523"><ele>837.0</ele><time>2026-04-29T10:42:23.002Z</time></trkpt><trkpt lat="42.168569388638424" lon="-8.071607330642047"><ele>836.0</ele><time>2026-04-29T10:42:24.002Z</time></trkpt><trkpt lat="42.16863038269787" lon="-8.071671304189382"><ele>835.5000000000001</ele><time>2026-04-29T10:42:25.001Z</time></trkpt><trkpt lat="42.16867952509754" lon="-8.07172515441829"><ele>835.0</ele><time>2026-04-29T10:42:26.001Z</time></trkpt><trkpt lat="42.16873274735003" lon="-8.07179448466809"><ele>834.5</ele><time>2026-04-29T10:42:27.001Z</time></trkpt><trkpt lat="42.168774808841604" lon="-8.071867403812437"><ele>834.0</ele><time>2026-04-29T10:42:28.001Z</time></trkpt><trkpt lat="42.16882598907765" lon="-8.071955047930512"><ele>833.5000000000001</ele><time>2026-04-29T10:42:29.001Z</time></trkpt><trkpt lat="42.16887240830023" lon="-8.07205035069794"><ele>833.0</ele><time>2026-04-29T10:42:30.001Z</time></trkpt><trkpt lat="42.16890542604002" lon="-8.07218257883155"><ele>833.0000000000001</ele><time>2026-04-29T10:42:31.001Z</time></trkpt><trkpt lat="42.16893501387647" lon="-8.072278417038858"><ele>833.0</ele><time>2026-04-29T10:42:32.001Z</time></trkpt><trkpt lat="42.16899255996415" lon="-8.07236819702779"><ele>833.0</ele><time>2026-04-29T10:42:33.001Z</time></trkpt><trkpt lat="42.16905674496088" lon="-8.072443753617117"><ele>833.0</ele><time>2026-04-29T10:42:34.001Z</time></trkpt><trkpt lat="42.16912342223693" lon="-8.072495094701837"><ele>833.0000000000001</ele><time>2026-04-29T10:42:35.001Z</time></trkpt><trkpt lat="42.169214038656676" lon="-8.072551465672847"><ele>833.0</ele><time>2026-04-29T10:42:36.001Z</time></trkpt><trkpt lat="42.169316770387944" lon="-8.072605447877141"><ele>830.5000000000001</ele><time>2026-04-29T10:42:37.001Z</time></trkpt><trkpt lat="42.16939786142947" lon="-8.072654837639718"><ele>828.0</ele><time>2026-04-29T10:42:38.001Z</time></trkpt><trkpt lat="42.16946718411042" lon="-8.07271931230109"><ele>825.5</ele><time>2026-04-29T10:42:39.001Z</time></trkpt><trkpt lat="42.1695248459228" lon="-8.072784893197625"><ele>823.0</ele><time>2026-04-29T10:42:40.001Z</time></trkpt><trkpt lat="42.169586799318104" lon="-8.072862499874306"><ele>820.5000000000001</ele><time>2026-04-29T10:42:41.001Z</time></trkpt><trkpt lat="42.169645235713766" lon="-8.072936940154591"><ele>818.0</ele><time>2026-04-29T10:42:42.001Z</time></trkpt><trkpt lat="42.16968806796519" lon="-8.073038352825215"><ele>818.0000000000001</ele><time>2026-04-29T10:42:43.001Z</time></trkpt><trkpt lat="42.16973861708428" lon="-8.073152447110754"><ele>818.0</ele><time>2026-04-29T10:42:44.001Z</time></trkpt><trkpt lat="42.169782344368244" lon="-8.073213901304081"><ele>818.0</ele><time>2026-04-29T10:42:45.001Z</time></trkpt><trkpt lat="42.16985226157531" lon="-8.073268356372447"><ele>818.0</ele><time>2026-04-29T10:42:48.001Z</time></trkpt><trkpt lat="42.16993022115138" lon="-8.07316497242484"><ele>818.0000000000001</ele><time>2026-04-29T10:42:50.001Z</time></trkpt><trkpt lat="42.16999546999127" lon="-8.073077990263544"><ele>818.0</ele><time>2026-04-29T10:42:51.001Z</time></trkpt><trkpt lat="42.170082464063384" lon="-8.07297824164787"><ele>814.8</ele><time>2026-04-29T10:42:52.001Z</time></trkpt><trkpt lat="42.170162358833686" lon="-8.072889552140504"><ele>811.5999999999999</ele><time>2026-04-29T10:42:53.001Z</time></trkpt><trkpt lat="42.170237260122434" lon="-8.0728013571087"><ele>808.4000000000001</ele><time>2026-04-29T10:42:54.001Z</time></trkpt><trkpt lat="42.17032649750719" lon="-8.072716894971807"><ele>805.2</ele><time>2026-04-29T10:42:55.001Z</time></trkpt><trkpt lat="42.17041988157709" lon="-8.072612130076026"><ele>802.0</ele><time>2026-04-29T10:42:56.001Z</time></trkpt><trkpt lat="42.17049636943874" lon="-8.072510166227884"><ele>803.2</ele><time>2026-04-29T10:42:57.001Z</time></trkpt><trkpt lat="42.17057124540862" lon="-8.072414921839188"><ele>804.4000000000001</ele><time>2026-04-29T10:42:58.001Z</time></trkpt><trkpt lat="42.17065860009351" lon="-8.072335948551764"><ele>805.5999999999999</ele><time>2026-04-29T10:42:59.001Z</time></trkpt><trkpt lat="42.170742186336" lon="-8.072260527182673"><ele>806.8</ele><time>2026-04-29T10:43:00.001Z</time></trkpt><trkpt lat="42.1708185775288" lon="-8.072164713863703"><ele>808.0</ele><time>2026-04-29T10:43:01.001Z</time></trkpt><trkpt lat="42.17087718018499" lon="-8.072073603856083"><ele>804.8</ele><time>2026-04-29T10:43:02.001Z</time></trkpt><trkpt lat="42.170931507722116" lon="-8.071988242888166"><ele>801.5999999999999</ele><time>2026-04-29T10:43:03.001Z</time></trkpt><trkpt lat="42.17100159303436" lon="-8.071896528760385"><ele>798.4000000000001</ele><time>2026-04-29T10:43:04.001Z</time></trkpt><trkpt lat="42.171073234899495" lon="-8.071807728596296"><ele>795.2</ele><time>2026-04-29T10:43:05.001Z</time></trkpt><trkpt lat="42.17113538677546" lon="-8.071709185775333"><ele>792.0</ele><time>2026-04-29T10:43:06.001Z</time></trkpt><trkpt lat="42.17120743923838" lon="-8.071587502160876"><ele>791.75</ele><time>2026-04-29T10:43:07.001Z</time></trkpt><trkpt lat="42.17127139601313" lon="-8.071473608228494"><ele>791.5</ele><time>2026-04-29T10:43:08.001Z</time></trkpt><trkpt lat="42.171325625331065" lon="-8.071348138170128"><ele>791.25</ele><time>2026-04-29T10:43:09.001Z</time></trkpt><trkpt lat="42.171389422386376" lon="-8.071218776099702"><ele>791.0</ele><time>2026-04-29T10:43:10.001Z</time></trkpt><trkpt lat="42.171463560910915" lon="-8.071083306854538"><ele>787.1999999999999</ele><time>2026-04-29T10:43:11.001Z</time></trkpt><trkpt lat="42.17153035537591" lon="-8.070957169171916"><ele>783.4</ele><time>2026-04-29T10:43:12.001Z</time></trkpt><trkpt lat="42.17159028299759" lon="-8.070849688223475"><ele>779.6</ele><time>2026-04-29T10:43:13.001Z</time></trkpt><trkpt lat="42.171656448667626" lon="-8.070724734906907"><ele>775.8</ele><time>2026-04-29T10:43:14.001Z</time></trkpt><trkpt lat="42.17172919027443" lon="-8.070636143881446"><ele>772.0</ele><time>2026-04-29T10:43:15.001Z</time></trkpt><trkpt lat="42.17180198086461" lon="-8.070555302715675"><ele>771.3333333333333</ele><time>2026-04-29T10:43:16.001Z</time></trkpt><trkpt lat="42.17185908651182" lon="-8.07044918898169"><ele>770.6666666666666</ele><time>2026-04-29T10:43:17.001Z</time></trkpt><trkpt lat="42.171902108898635" lon="-8.070336547761853"><ele>770.0</ele><time>2026-04-29T10:43:18.001Z</time></trkpt><trkpt lat="42.171937384812416" lon="-8.07023330991543"><ele>769.3333333333333</ele><time>2026-04-29T10:43:19.001Z</time></trkpt><trkpt lat="42.17196142589878" lon="-8.070123507085285"><ele>768.6666666666666</ele><time>2026-04-29T10:43:20.001Z</time></trkpt><trkpt lat="42.171978517083076" lon="-8.070021513469827"><ele>768.0</ele><time>2026-04-29T10:43:21.001Z</time></trkpt><trkpt lat="42.171992997137" lon="-8.069907196095018"><ele>765.6666666666666</ele><time>2026-04-29T10:43:22.001Z</time></trkpt><trkpt lat="42.17200151237105" lon="-8.069793190803138"><ele>763.3333333333334</ele><time>2026-04-29T10:43:23.001Z</time></trkpt><trkpt lat="42.17199168129747" lon="-8.069688688797115"><ele>761.0</ele><time>2026-04-29T10:43:24.001Z</time></trkpt><trkpt lat="42.17197084651713" lon="-8.069590897242128"><ele>758.6666666666667</ele><time>2026-04-29T10:43:25.001Z</time></trkpt><trkpt lat="42.17195475735827" lon="-8.069483603165393"><ele>756.3333333333334</ele><time>2026-04-29T10:43:26.001Z</time></trkpt><trkpt lat="42.17197048616197" lon="-8.069392368038697"><ele>754.0</ele><time>2026-04-29T10:43:27.001Z</time></trkpt><trkpt lat="42.17203995936367" lon="-8.069269254121135"><ele>754.0</ele><time>2026-04-29T10:43:29.001Z</time></trkpt><trkpt lat="42.172099520723876" lon="-8.069237885130784"><ele>754.0</ele><time>2026-04-29T10:43:30.001Z</time></trkpt><trkpt lat="42.1721663199732" lon="-8.069226295166523"><ele>754.0</ele><time>2026-04-29T10:43:31.001Z</time></trkpt><trkpt lat="42.17226280586061" lon="-8.069295073150467"><ele>754.0</ele><time>2026-04-29T10:43:33.001Z</time></trkpt><trkpt lat="42.172313536943946" lon="-8.069369556830368"><ele>754.0</ele><time>2026-04-29T10:43:34.001Z</time></trkpt><trkpt lat="42.17236865441365" lon="-8.069450952170381"><ele>754.0</ele><time>2026-04-29T10:43:35.001Z</time></trkpt><trkpt lat="42.172418807218094" lon="-8.069555320821197"><ele>753.0</ele><time>2026-04-29T10:43:36.001Z</time></trkpt><trkpt lat="42.17245879969195" lon="-8.069664116838148"><ele>752.0</ele><time>2026-04-29T10:43:37.001Z</time></trkpt><trkpt lat="42.17249699345172" lon="-8.069763368511195"><ele>751.0</ele><time>2026-04-29T10:43:38.001Z</time></trkpt><trkpt lat="42.17253098264495" lon="-8.06987230444859"><ele>750.0</ele><time>2026-04-29T10:43:39.001Z</time></trkpt><trkpt lat="42.1725818749056" lon="-8.069979992639627"><ele>749.0</ele><time>2026-04-29T10:43:40.001Z</time></trkpt><trkpt lat="42.17262671034054" lon="-8.070089088436353"><ele>748.0</ele><time>2026-04-29T10:43:41.001Z</time></trkpt><trkpt lat="42.17266716496376" lon="-8.070196359908895"><ele>748.0</ele><time>2026-04-29T10:43:42.001Z</time></trkpt><trkpt lat="42.172716818793496" lon="-8.0702992024625"><ele>748.0</ele><time>2026-04-29T10:43:43.001Z</time></trkpt><trkpt lat="42.172783715824835" lon="-8.070425995047664"><ele>748.0</ele><time>2026-04-29T10:43:44.001Z</time></trkpt><trkpt lat="42.17285004688795" lon="-8.070559938026609"><ele>748.0</ele><time>2026-04-29T10:43:45.001Z</time></trkpt><trkpt lat="42.17289717472965" lon="-8.070661096448204"><ele>748.0</ele><time>2026-04-29T10:43:46.001Z</time></trkpt><trkpt lat="42.17294958283886" lon="-8.070779284843697"><ele>748.0</ele><time>2026-04-29T10:43:47.001Z</time></trkpt><trkpt lat="42.17299401933744" lon="-8.070890235288413"><ele>748.0</ele><time>2026-04-29T10:43:48.001Z</time></trkpt><trkpt lat="42.17303010983759" lon="-8.070981016996063"><ele>748.0</ele><time>2026-04-29T10:43:49.001Z</time></trkpt><trkpt lat="42.17306833801495" lon="-8.07105414532959"><ele>748.0</ele><time>2026-04-29T10:43:50.001Z</time></trkpt><trkpt lat="42.17312792891746" lon="-8.071185188018076"><ele>748.0</ele><time>2026-04-29T10:43:52.001Z</time></trkpt><trkpt lat="42.17324089941532" lon="-8.0712479481681"><ele>742.5999999999999</ele><time>2026-04-29T10:43:54.001Z</time></trkpt><trkpt lat="42.17336320150908" lon="-8.071268992877712"><ele>737.1999999999999</ele><time>2026-04-29T10:43:56.001Z</time></trkpt><trkpt lat="42.17348830740357" lon="-8.071237969636998"><ele>731.8</ele><time>2026-04-29T10:43:58.001Z</time></trkpt><trkpt lat="42.17353737450574" lon="-8.071172617908788"><ele>726.4</ele><time>2026-04-29T10:43:59.001Z</time></trkpt><trkpt lat="42.17357520241305" lon="-8.071095728361266"><ele>721.0</ele><time>2026-04-29T10:44:00.001Z</time></trkpt><trkpt lat="42.17360172072721" lon="-8.07101130171385"><ele>721.0</ele><time>2026-04-29T10:44:01.001Z</time></trkpt><trkpt lat="42.17362056594331" lon="-8.070908929110601"><ele>721.0</ele><time>2026-04-29T10:44:02.001Z</time></trkpt><trkpt lat="42.17363555917179" lon="-8.070802873489662"><ele>721.0</ele><time>2026-04-29T10:44:03.001Z</time></trkpt><trkpt lat="42.173646305928685" lon="-8.07068195669869"><ele>721.0</ele><time>2026-04-29T10:44:04.001Z</time></trkpt><trkpt lat="42.17366245863769" lon="-8.07055650098403"><ele>721.0</ele><time>2026-04-29T10:44:05.001Z</time></trkpt><trkpt lat="42.17367160381718" lon="-8.070428435722615"><ele>721.0</ele><time>2026-04-29T10:44:06.001Z</time></trkpt><trkpt lat="42.17366775302172" lon="-8.070291987666256"><ele>721.1999999999999</ele><time>2026-04-29T10:44:07.001Z</time></trkpt><trkpt lat="42.173669881597945" lon="-8.070174418837562"><ele>721.4</ele><time>2026-04-29T10:44:08.001Z</time></trkpt><trkpt lat="42.17367772655727" lon="-8.070047725481485"><ele>721.6</ele><time>2026-04-29T10:44:09.001Z</time></trkpt><trkpt lat="42.17368641702257" lon="-8.069941537581533"><ele>721.8</ele><time>2026-04-29T10:44:10.001Z</time></trkpt><trkpt lat="42.17373857474729" lon="-8.069783252509419"><ele>722.0</ele><time>2026-04-29T10:44:12.002Z</time></trkpt><trkpt lat="42.173785207862835" lon="-8.069687617025986"><ele>721.4000000000001</ele><time>2026-04-29T10:44:13.002Z</time></trkpt><trkpt lat="42.17382577701311" lon="-8.069585242066918"><ele>720.8000000000001</ele><time>2026-04-29T10:44:14.002Z</time></trkpt><trkpt lat="42.173847829288746" lon="-8.069481618775045"><ele>720.2</ele><time>2026-04-29T10:44:15.002Z</time></trkpt><trkpt lat="42.17384855477001" lon="-8.069362523754602"><ele>719.6</ele><time>2026-04-29T10:44:16.002Z</time></trkpt><trkpt lat="42.173836149961765" lon="-8.069245147974279"><ele>719.0</ele><time>2026-04-29T10:44:17.002Z</time></trkpt><trkpt lat="42.17382416529335" lon="-8.069087030095202"><ele>717.0</ele><time>2026-04-29T10:44:18.002Z</time></trkpt><trkpt lat="42.17382794441638" lon="-8.068914011685095"><ele>715.0</ele><time>2026-04-29T10:44:19.002Z</time></trkpt><trkpt lat="42.173830985755586" lon="-8.068765213700273"><ele>713.0</ele><time>2026-04-29T10:44:20.002Z</time></trkpt><trkpt lat="42.17385032479401" lon="-8.068635296600029"><ele>711.0</ele><time>2026-04-29T10:44:21.002Z</time></trkpt><trkpt lat="42.17387233918928" lon="-8.06852240261477"><ele>709.0</ele><time>2026-04-29T10:44:22.002Z</time></trkpt><trkpt lat="42.173901695839675" lon="-8.068422392829316"><ele>706.4000000000001</ele><time>2026-04-29T10:44:23.002Z</time></trkpt><trkpt lat="42.173890605377046" lon="-8.068259425149645"><ele>703.8</ele><time>2026-04-29T10:44:25.002Z</time></trkpt><trkpt lat="42.173856975119364" lon="-8.068167828552177"><ele>701.2</ele><time>2026-04-29T10:44:26.002Z</time></trkpt><trkpt lat="42.17380901663975" lon="-8.068061704708692"><ele>698.5999999999999</ele><time>2026-04-29T10:44:27.002Z</time></trkpt><trkpt lat="42.1737690409476" lon="-8.067945090030108"><ele>696.0</ele><time>2026-04-29T10:44:28.002Z</time></trkpt><trkpt lat="42.17372447397734" lon="-8.067829129748413"><ele>696.0</ele><time>2026-04-29T10:44:29.002Z</time></trkpt><trkpt lat="42.17367214946566" lon="-8.06763602602905"><ele>696.0</ele><time>2026-04-29T10:44:31.001Z</time></trkpt><trkpt lat="42.17362711349046" lon="-8.067565516533245"><ele>696.0</ele><time>2026-04-29T10:44:32.001Z</time></trkpt><trkpt lat="42.17356685493512" lon="-8.067500394516685"><ele>696.0</ele><time>2026-04-29T10:44:33.001Z</time></trkpt><trkpt lat="42.17349021877822" lon="-8.06745235149096"><ele>696.0</ele><time>2026-04-29T10:44:34.001Z</time></trkpt><trkpt lat="42.173413157965626" lon="-8.067357022860474"><ele>694.8</ele><time>2026-04-29T10:44:35.001Z</time></trkpt><trkpt lat="42.17333783161884" lon="-8.067270050520586"><ele>693.5999999999999</ele><time>2026-04-29T10:44:36.001Z</time></trkpt><trkpt lat="42.17326688345622" lon="-8.067196084697189"><ele>692.4</ele><time>2026-04-29T10:44:37.001Z</time></trkpt><trkpt lat="42.17320731523879" lon="-8.067106562915454"><ele>691.2</ele><time>2026-04-29T10:44:38.001Z</time></trkpt><trkpt lat="42.17314328666856" lon="-8.067005207284804"><ele>690.0</ele><time>2026-04-29T10:44:39.001Z</time></trkpt><trkpt lat="42.17308711597023" lon="-8.066926454289781"><ele>690.0</ele><time>2026-04-29T10:44:40.001Z</time></trkpt><trkpt lat="42.173032176775465" lon="-8.066869736778612"><ele>690.0</ele><time>2026-04-29T10:44:41.001Z</time></trkpt><trkpt lat="42.17295752423017" lon="-8.066775925417799"><ele>690.0</ele><time>2026-04-29T10:44:43.001Z</time></trkpt><trkpt lat="42.1729260875565" lon="-8.06667620572286"><ele>690.0</ele><time>2026-04-29T10:44:45.001Z</time></trkpt><trkpt lat="42.17288421807528" lon="-8.066601899319927"><ele>690.0</ele><time>2026-04-29T10:44:48.001Z</time></trkpt><trkpt lat="42.17280574060526" lon="-8.066680708211948"><ele>690.0</ele><time>2026-04-29T10:44:51.001Z</time></trkpt><trkpt lat="42.172730721938564" lon="-8.066741328847693"><ele>690.0</ele><time>2026-04-29T10:44:53.001Z</time></trkpt><trkpt lat="42.17262598841583" lon="-8.066818327721123"><ele>690.0</ele><time>2026-04-29T10:44:55.001Z</time></trkpt><trkpt lat="42.1725421474524" lon="-8.06683564622645"><ele>690.0</ele><time>2026-04-29T10:44:57.001Z</time></trkpt><trkpt lat="42.17247153475673" lon="-8.066710686475576"><ele>690.0</ele><time>2026-04-29T10:44:59.001Z</time></trkpt><trkpt lat="42.172458485746056" lon="-8.066620137431073"><ele>690.0</ele><time>2026-04-29T10:45:00.001Z</time></trkpt><trkpt lat="42.17245220402935" lon="-8.06649529424093"><ele>689.8333333333334</ele><time>2026-04-29T10:45:01.001Z</time></trkpt><trkpt lat="42.17240318366467" lon="-8.066346383627064"><ele>689.6666666666666</ele><time>2026-04-29T10:45:02.001Z</time></trkpt><trkpt lat="42.17236352660768" lon="-8.066209393668078"><ele>689.5</ele><time>2026-04-29T10:45:03.001Z</time></trkpt><trkpt lat="42.17234199188148" lon="-8.06612320213389"><ele>689.3333333333333</ele><time>2026-04-29T10:45:04.001Z</time></trkpt><trkpt lat="42.172297373534654" lon="-8.066061636131431"><ele>689.1666666666666</ele><time>2026-04-29T10:45:05.001Z</time></trkpt><trkpt lat="42.17222783777472" lon="-8.066001975427447"><ele>689.0</ele><time>2026-04-29T10:45:06.001Z</time></trkpt><trkpt lat="42.17213719547017" lon="-8.065982705991173"><ele>689.0</ele><time>2026-04-29T10:45:07.001Z</time></trkpt><trkpt lat="42.17201280821404" lon="-8.065924214780644"><ele>689.0</ele><time>2026-04-29T10:45:08.001Z</time></trkpt><trkpt lat="42.171929710295515" lon="-8.065873059969132"><ele>689.0</ele><time>2026-04-29T10:45:09.001Z</time></trkpt><trkpt lat="42.17184750129213" lon="-8.065826035244722"><ele>689.0</ele><time>2026-04-29T10:45:10.001Z</time></trkpt><trkpt lat="42.17176400853404" lon="-8.065705175128643"><ele>689.0</ele><time>2026-04-29T10:45:11.001Z</time></trkpt><trkpt lat="42.17168257782556" lon="-8.0655671422171"><ele>690.5</ele><time>2026-04-29T10:45:12.001Z</time></trkpt><trkpt lat="42.171601785158956" lon="-8.065421127339388"><ele>692.0</ele><time>2026-04-29T10:45:13.001Z</time></trkpt><trkpt lat="42.17153719728558" lon="-8.065341237470436"><ele>693.5</ele><time>2026-04-29T10:45:14.001Z</time></trkpt><trkpt lat="42.171445256030104" lon="-8.065203717928748"><ele>695.0</ele><time>2026-04-29T10:45:16.001Z</time></trkpt><trkpt lat="42.17134069253792" lon="-8.065103013343101"><ele>695.0</ele><time>2026-04-29T10:45:18.001Z</time></trkpt><trkpt lat="42.17125898288684" lon="-8.064969930422784"><ele>695.0</ele><time>2026-04-29T10:45:20.001Z</time></trkpt><trkpt lat="42.171232145436456" lon="-8.064891436930498"><ele>695.0</ele><time>2026-04-29T10:45:21.001Z</time></trkpt><trkpt lat="42.17120895839375" lon="-8.064775103204871"><ele>695.0</ele><time>2026-04-29T10:45:22.001Z</time></trkpt><trkpt lat="42.17120472190206" lon="-8.0646633332638"><ele>695.0</ele><time>2026-04-29T10:45:23.001Z</time></trkpt><trkpt lat="42.17119129388449" lon="-8.064539586267106"><ele>693.4</ele><time>2026-04-29T10:45:24.001Z</time></trkpt><trkpt lat="42.17117276637993" lon="-8.064408984068349"><ele>691.8</ele><time>2026-04-29T10:45:25.001Z</time></trkpt><trkpt lat="42.17115557270595" lon="-8.064253266946759"><ele>690.2</ele><time>2026-04-29T10:45:26.001Z</time></trkpt><trkpt lat="42.17113470243003" lon="-8.064100820732957"><ele>688.6</ele><time>2026-04-29T10:45:27.001Z</time></trkpt><trkpt lat="42.17112303683778" lon="-8.063947043875904"><ele>687.0</ele><time>2026-04-29T10:45:28.001Z</time></trkpt><trkpt lat="42.17110284090339" lon="-8.06382443673892"><ele>684.4000000000001</ele><time>2026-04-29T10:45:29.001Z</time></trkpt><trkpt lat="42.17108220111804" lon="-8.063697564026038"><ele>681.8000000000001</ele><time>2026-04-29T10:45:30.001Z</time></trkpt><trkpt lat="42.17106609976971" lon="-8.0635619994453"><ele>679.2</ele><time>2026-04-29T10:45:31.001Z</time></trkpt><trkpt lat="42.171047005983596" lon="-8.063439191208655"><ele>676.6</ele><time>2026-04-29T10:45:32.001Z</time></trkpt><trkpt lat="42.171039336475424" lon="-8.06333781656668"><ele>674.0</ele><time>2026-04-29T10:45:33.001Z</time></trkpt><trkpt lat="42.17100846081091" lon="-8.063226944734518"><ele>674.0</ele><time>2026-04-29T10:45:35.001Z</time></trkpt><trkpt lat="42.171004682193086" lon="-8.06313005788093"><ele>674.0</ele><time>2026-04-29T10:45:40.001Z</time></trkpt><trkpt lat="42.171065730501" lon="-8.063280634612802"><ele>674.0</ele><time>2026-04-29T10:45:43.001Z</time></trkpt><trkpt lat="42.171070087443205" lon="-8.0633866982291"><ele>674.0</ele><time>2026-04-29T10:45:44.001Z</time></trkpt><trkpt lat="42.17108590296322" lon="-8.063533980667374"><ele>674.0</ele><time>2026-04-29T10:45:45.001Z</time></trkpt><trkpt lat="42.171103468405555" lon="-8.063735145471643"><ele>674.0</ele><time>2026-04-29T10:45:46.001Z</time></trkpt><trkpt lat="42.1711297349906" lon="-8.063950030177182"><ele>674.0</ele><time>2026-04-29T10:45:47.001Z</time></trkpt><trkpt lat="42.17115601199269" lon="-8.064159615263554"><ele>674.0</ele><time>2026-04-29T10:45:48.001Z</time></trkpt><trkpt lat="42.171170831404865" lon="-8.064317465470605"><ele>674.0</ele><time>2026-04-29T10:45:49.001Z</time></trkpt><trkpt lat="42.17120400395609" lon="-8.064452555207135"><ele>676.1666666666666</ele><time>2026-04-29T10:45:50.001Z</time></trkpt><trkpt lat="42.171223589416684" lon="-8.064578950143966"><ele>678.3333333333333</ele><time>2026-04-29T10:45:51.001Z</time></trkpt><trkpt lat="42.171204035468556" lon="-8.064689354338995"><ele>680.5</ele><time>2026-04-29T10:45:52.001Z</time></trkpt><trkpt lat="42.1712441602562" lon="-8.064820252778066"><ele>682.6666666666666</ele><time>2026-04-29T10:45:54.001Z</time></trkpt><trkpt lat="42.171276932218305" lon="-8.064895849764342"><ele>684.8333333333334</ele><time>2026-04-29T10:45:55.001Z</time></trkpt><trkpt lat="42.17130092345668" lon="-8.06499847935757"><ele>687.0</ele><time>2026-04-29T10:45:56.001Z</time></trkpt><trkpt lat="42.171329042372726" lon="-8.065084071005947"><ele>688.3333333333334</ele><time>2026-04-29T10:45:57.001Z</time></trkpt><trkpt lat="42.17137668266451" lon="-8.065147896008948"><ele>689.6666666666666</ele><time>2026-04-29T10:45:58.001Z</time></trkpt><trkpt lat="42.171430075113506" lon="-8.065195537129314"><ele>691.0</ele><time>2026-04-29T10:45:59.001Z</time></trkpt><trkpt lat="42.171524141827234" lon="-8.065205119907771"><ele>692.3333333333333</ele><time>2026-04-29T10:46:00.001Z</time></trkpt><trkpt lat="42.171608161367544" lon="-8.065297346825696"><ele>693.6666666666666</ele><time>2026-04-29T10:46:02.001Z</time></trkpt><trkpt lat="42.171636911287614" lon="-8.065382832203216"><ele>695.0</ele><time>2026-04-29T10:46:04.001Z</time></trkpt><trkpt lat="42.171681080885826" lon="-8.065487280446645"><ele>695.0</ele><time>2026-04-29T10:46:08.001Z</time></trkpt><trkpt lat="42.171683443385994" lon="-8.065574132748859"><ele>695.0</ele><time>2026-04-29T10:46:11.001Z</time></trkpt><trkpt lat="42.171631325851564" lon="-8.065624854806773"><ele>695.0</ele><time>2026-04-29T10:46:14.001Z</time></trkpt><trkpt lat="42.17155790043302" lon="-8.065609342529857"><ele>695.0</ele><time>2026-04-29T10:46:16.001Z</time></trkpt><trkpt lat="42.171478555804235" lon="-8.065593933868543"><ele>695.0</ele><time>2026-04-29T10:46:18.001Z</time></trkpt><trkpt lat="42.1714070343789" lon="-8.065606453754327"><ele>695.0</ele><time>2026-04-29T10:46:21.001Z</time></trkpt><trkpt lat="42.1713154239082" lon="-8.065657370131285"><ele>695.0</ele><time>2026-04-29T10:46:24.001Z</time></trkpt><trkpt lat="42.17123960704092" lon="-8.065699645271854"><ele>695.0</ele><time>2026-04-29T10:46:26.001Z</time></trkpt><trkpt lat="42.17118021967482" lon="-8.065753023461284"><ele>695.0</ele><time>2026-04-29T10:46:28.001Z</time></trkpt><trkpt lat="42.17111656701233" lon="-8.065816680642122"><ele>695.0</ele><time>2026-04-29T10:46:31.001Z</time></trkpt><trkpt lat="42.171090948089805" lon="-8.06592652804241"><ele>695.0</ele><time>2026-04-29T10:46:34.001Z</time></trkpt><trkpt lat="42.171060000796246" lon="-8.066020999091233"><ele>695.0</ele><time>2026-04-29T10:46:43.001Z</time></trkpt><trkpt lat="42.171124256615705" lon="-8.06605231491138"><ele>698.0</ele><time>2026-04-29T10:46:49.001Z</time></trkpt><trkpt lat="42.17115160095408" lon="-8.066133125402231"><ele>701.0</ele><time>2026-04-29T10:47:07.001Z</time></trkpt><trkpt lat="42.17123609468252" lon="-8.066174147536968"><ele>704.0</ele><time>2026-04-29T10:47:25.001Z</time></trkpt><trkpt lat="42.17123747399324" lon="-8.06629489876885"><ele>707.0</ele><time>2026-04-29T10:47:53.001Z</time></trkpt><trkpt lat="42.17129560340121" lon="-8.066251102294581"><ele>710.0</ele><time>2026-04-29T10:48:02.001Z</time></trkpt><trkpt lat="42.171226991152565" lon="-8.06627582101363"><ele>713.0</ele><time>2026-04-29T10:48:28.001Z</time></trkpt><trkpt lat="42.171253147172365" lon="-8.066179375788916"><ele>713.0</ele><time>2026-04-29T10:48:36.001Z</time></trkpt><trkpt lat="42.171323008735655" lon="-8.066184169487356"><ele>713.0</ele><time>2026-04-29T10:48:47.001Z</time></trkpt><trkpt lat="42.171391415545244" lon="-8.066195361250003"><ele>713.0</ele><time>2026-04-29T10:48:55.001Z</time></trkpt><trkpt lat="42.17140073484936" lon="-8.066106131423536"><ele>713.0</ele><time>2026-04-29T10:49:05Z</time></trkpt><trkpt lat="42.17135346112093" lon="-8.066016515392496"><ele>713.0</ele><time>2026-04-29T10:49:08Z</time></trkpt><trkpt lat="42.171290241841724" lon="-8.06593958331089"><ele>713.0</ele><time>2026-04-29T10:49:12Z</time></trkpt><trkpt lat="42.17124757706077" lon="-8.065854232754413"><ele>713.0</ele><time>2026-04-29T10:49:18Z</time></trkpt><trkpt lat="42.171190082033256" lon="-8.065784433819509"><ele>713.0</ele><time>2026-04-29T10:49:22Z</time></trkpt><trkpt lat="42.17112936111967" lon="-8.065840569298473"><ele>713.0</ele><time>2026-04-29T10:49:37Z</time></trkpt><trkpt lat="42.17109486232407" lon="-8.065921993374266"><ele>713.0</ele><time>2026-04-29T10:49:41Z</time></trkpt><trkpt lat="42.17107087247532" lon="-8.066006716722516"><ele>713.0</ele><time>2026-04-29T10:50:09Z</time></trkpt><trkpt lat="42.171184446126475" lon="-8.066049098733078"><ele>713.0</ele><time>2026-04-29T10:50:51Z</time></trkpt><trkpt lat="42.17123362687225" lon="-8.065994273830091"><ele>713.0</ele><time>2026-04-29T10:50:55Z</time></trkpt><trkpt lat="42.17122339132814" lon="-8.06589765225462"><ele>713.0</ele><time>2026-04-29T10:50:59Z</time></trkpt><trkpt lat="42.171175325786" lon="-8.065807114392934"><ele>713.0</ele><time>2026-04-29T10:51:03Z</time></trkpt><trkpt lat="42.171129703925054" lon="-8.065733818330779"><ele>713.0</ele><time>2026-04-29T10:51:08Z</time></trkpt><trkpt lat="42.171064708633295" lon="-8.06577341782668"><ele>713.0</ele><time>2026-04-29T10:51:18Z</time></trkpt><trkpt lat="42.17112064205558" lon="-8.065815618776186"><ele>713.0</ele><time>2026-04-29T10:52:38Z</time></trkpt><trkpt lat="42.17106594238146" lon="-8.065876452836557"><ele>713.0</ele><time>2026-04-29T10:52:41Z</time></trkpt><trkpt lat="42.170991233800095" lon="-8.06593141142066"><ele>713.0</ele><time>2026-04-29T10:52:44Z</time></trkpt><trkpt lat="42.170909748574275" lon="-8.065943060986495"><ele>713.0</ele><time>2026-04-29T10:52:47Z</time></trkpt><trkpt lat="42.17085265294139" lon="-8.065861002323851"><ele>713.0</ele><time>2026-04-29T10:52:54Z</time></trkpt><trkpt lat="42.17081723977979" lon="-8.065779949977584"><ele>713.0</ele><time>2026-04-29T10:53:25Z</time></trkpt><trkpt lat="42.17073945633367" lon="-8.065722607671246"><ele>713.0</ele><time>2026-04-29T10:53:27Z</time></trkpt><trkpt lat="42.170664485160174" lon="-8.06562886224426"><ele>713.0</ele><time>2026-04-29T10:53:29Z</time></trkpt><trkpt lat="42.17058211284796" lon="-8.065544213493597"><ele>713.0</ele><time>2026-04-29T10:53:31Z</time></trkpt><trkpt lat="42.170531892455564" lon="-8.065483401650997"><ele>712.2857142857142</ele><time>2026-04-29T10:53:33Z</time></trkpt><trkpt lat="42.17048769123937" lon="-8.065417813120915"><ele>711.5714285714287</ele><time>2026-04-29T10:53:36Z</time></trkpt><trkpt lat="42.17047477508113" lon="-8.065333206907386"><ele>710.8571428571429</ele><time>2026-04-29T10:53:38Z</time></trkpt><trkpt lat="42.170465188528375" lon="-8.065247400449753"><ele>710.1428571428571</ele><time>2026-04-29T10:53:40Z</time></trkpt><trkpt lat="42.17046868432471" lon="-8.065145572415124"><ele>709.4285714285713</ele><time>2026-04-29T10:53:42Z</time></trkpt><trkpt lat="42.17045713575837" lon="-8.06504676103131"><ele>708.7142857142858</ele><time>2026-04-29T10:53:44Z</time></trkpt><trkpt lat="42.17041263400929" lon="-8.064948883270635"><ele>708.0</ele><time>2026-04-29T10:53:46Z</time></trkpt><trkpt lat="42.17032962955387" lon="-8.06487741130875"><ele>708.0</ele><time>2026-04-29T10:53:48Z</time></trkpt><trkpt lat="42.17027311060974" lon="-8.064816561408641"><ele>708.0</ele><time>2026-04-29T10:53:50Z</time></trkpt><trkpt lat="42.170280272855194" lon="-8.064687679461406"><ele>708.0</ele><time>2026-04-29T10:53:52Z</time></trkpt><trkpt lat="42.170306858289884" lon="-8.064596838393586"><ele>708.0</ele><time>2026-04-29T10:53:54Z</time></trkpt><trkpt lat="42.17030163866716" lon="-8.064495093972875"><ele>708.0</ele><time>2026-04-29T10:53:56Z</time></trkpt><trkpt lat="42.17027633142965" lon="-8.064402617521397"><ele>708.0</ele><time>2026-04-29T10:53:58Z</time></trkpt><trkpt lat="42.170202320773036" lon="-8.064314694326177"><ele>708.0</ele><time>2026-04-29T10:54:00Z</time></trkpt><trkpt lat="42.17009393971495" lon="-8.064200174749384"><ele>708.0</ele><time>2026-04-29T10:54:02Z</time></trkpt><trkpt lat="42.17001904204459" lon="-8.064144677777"><ele>708.0</ele><time>2026-04-29T10:54:03Z</time></trkpt><trkpt lat="42.16992963024202" lon="-8.064051467729913"><ele>708.0</ele><time>2026-04-29T10:54:04Z</time></trkpt><trkpt lat="42.16986914182688" lon="-8.06396709623541"><ele>708.0</ele><time>2026-04-29T10:54:05Z</time></trkpt><trkpt lat="42.16982322698205" lon="-8.063880360532295"><ele>704.1666666666666</ele><time>2026-04-29T10:54:06Z</time></trkpt><trkpt lat="42.169778422328164" lon="-8.063791917660431"><ele>700.3333333333334</ele><time>2026-04-29T10:54:07Z</time></trkpt><trkpt lat="42.16969671400377" lon="-8.063716598542486"><ele>696.5</ele><time>2026-04-29T10:54:09Z</time></trkpt><trkpt lat="42.16961364885587" lon="-8.063711147940639"><ele>692.6666666666667</ele><time>2026-04-29T10:54:11Z</time></trkpt><trkpt lat="42.16953727713834" lon="-8.063680942616077"><ele>688.8333333333334</ele><time>2026-04-29T10:54:13Z</time></trkpt><trkpt lat="42.169447400434905" lon="-8.063705268203922"><ele>685.0</ele><time>2026-04-29T10:54:15Z</time></trkpt><trkpt lat="42.169325447841054" lon="-8.063750640552145"><ele>685.0</ele><time>2026-04-29T10:54:17Z</time></trkpt><trkpt lat="42.16924124236665" lon="-8.063779217100038"><ele>685.0</ele><time>2026-04-29T10:54:18Z</time></trkpt><trkpt lat="42.169147635760645" lon="-8.063824012518605"><ele>685.0</ele><time>2026-04-29T10:54:19Z</time></trkpt><trkpt lat="42.16904513044423" lon="-8.063853868785571"><ele>685.0</ele><time>2026-04-29T10:54:20Z</time></trkpt><trkpt lat="42.16892866310233" lon="-8.063905305046932"><ele>685.0</ele><time>2026-04-29T10:54:21Z</time></trkpt><trkpt lat="42.16883574644858" lon="-8.06397778063602"><ele>689.2</ele><time>2026-04-29T10:54:22Z</time></trkpt><trkpt lat="42.16874626599041" lon="-8.064043781274835"><ele>693.4</ele><time>2026-04-29T10:54:23Z</time></trkpt><trkpt lat="42.16865494840766" lon="-8.06408245613416"><ele>697.5999999999999</ele><time>2026-04-29T10:54:24Z</time></trkpt><trkpt lat="42.16857936851213" lon="-8.064121064446267"><ele>701.8</ele><time>2026-04-29T10:54:25Z</time></trkpt><trkpt lat="42.168475803712454" lon="-8.06416152265304"><ele>706.0</ele><time>2026-04-29T10:54:27Z</time></trkpt><trkpt lat="42.16839152158062" lon="-8.064043051312941"><ele>706.0</ele><time>2026-04-29T10:54:29Z</time></trkpt><trkpt lat="42.16834269867047" lon="-8.06396216253349"><ele>706.0</ele><time>2026-04-29T10:54:30Z</time></trkpt><trkpt lat="42.168307402069836" lon="-8.063856270745525"><ele>706.0</ele><time>2026-04-29T10:54:31Z</time></trkpt><trkpt lat="42.16826528472391" lon="-8.063761865153749"><ele>706.0</ele><time>2026-04-29T10:54:32Z</time></trkpt><trkpt lat="42.168243744076655" lon="-8.06363893518322"><ele>706.0</ele><time>2026-04-29T10:54:33Z</time></trkpt><trkpt lat="42.16820419494829" lon="-8.063478564196888"><ele>705.5</ele><time>2026-04-29T10:54:34Z</time></trkpt><trkpt lat="42.16817774041314" lon="-8.063361404041963"><ele>705.0</ele><time>2026-04-29T10:54:35Z</time></trkpt><trkpt lat="42.16812976157763" lon="-8.063276020383626"><ele>704.5</ele><time>2026-04-29T10:54:36Z</time></trkpt><trkpt lat="42.16808176361973" lon="-8.063202479075557"><ele>704.0</ele><time>2026-04-29T10:54:37Z</time></trkpt><trkpt lat="42.1680035260836" lon="-8.063159470620715"><ele>703.5</ele><time>2026-04-29T10:54:38Z</time></trkpt><trkpt lat="42.16791247278525" lon="-8.063134241171312"><ele>703.0</ele><time>2026-04-29T10:54:39Z</time></trkpt><trkpt lat="42.16782751727336" lon="-8.063098124590601"><ele>703.0</ele><time>2026-04-29T10:54:40Z</time></trkpt><trkpt lat="42.167740016740325" lon="-8.063057038255547"><ele>703.0</ele><time>2026-04-29T10:54:41Z</time></trkpt><trkpt lat="42.16765566676754" lon="-8.063041197510177"><ele>703.0</ele><time>2026-04-29T10:54:42Z</time></trkpt><trkpt lat="42.167559988977054" lon="-8.063015453738972"><ele>703.0</ele><time>2026-04-29T10:54:43Z</time></trkpt><trkpt lat="42.167445260894006" lon="-8.062992330256812"><ele>703.0</ele><time>2026-04-29T10:54:44Z</time></trkpt><trkpt lat="42.16734707153831" lon="-8.062996901219972"><ele>707.8</ele><time>2026-04-29T10:54:45Z</time></trkpt><trkpt lat="42.16725219325975" lon="-8.062998657929048"><ele>712.5999999999999</ele><time>2026-04-29T10:54:46Z</time></trkpt><trkpt lat="42.16713092252632" lon="-8.06298270436107"><ele>717.4000000000001</ele><time>2026-04-29T10:54:47Z</time></trkpt><trkpt lat="42.16702772686183" lon="-8.063017289544002"><ele>722.2</ele><time>2026-04-29T10:54:48Z</time></trkpt><trkpt lat="42.166928717974415" lon="-8.063035475383353"><ele>727.0</ele><time>2026-04-29T10:54:49Z</time></trkpt><trkpt lat="42.16683663761068" lon="-8.063082608126333"><ele>727.0</ele><time>2026-04-29T10:54:50Z</time></trkpt><trkpt lat="42.16673952165732" lon="-8.063092961361617"><ele>727.0</ele><time>2026-04-29T10:54:51Z</time></trkpt><trkpt lat="42.16661443312962" lon="-8.063076586547469"><ele>727.0</ele><time>2026-04-29T10:54:52Z</time></trkpt><trkpt lat="42.166537462755315" lon="-8.063107803998719"><ele>727.0</ele><time>2026-04-29T10:54:53Z</time></trkpt><trkpt lat="42.1664686441659" lon="-8.063129497959201"><ele>727.0</ele><time>2026-04-29T10:54:54Z</time></trkpt><trkpt lat="42.166402702017784" lon="-8.063122563522239"><ele>727.0</ele><time>2026-04-29T10:54:55Z</time></trkpt><trkpt lat="42.16631419969382" lon="-8.062998088875776"><ele>734.6</ele><time>2026-04-29T10:54:57Z</time></trkpt><trkpt lat="42.166288248839116" lon="-8.062908088824727"><ele>742.2</ele><time>2026-04-29T10:54:58Z</time></trkpt><trkpt lat="42.16628150290276" lon="-8.062775763845917"><ele>749.8</ele><time>2026-04-29T10:54:59Z</time></trkpt><trkpt lat="42.16632853037884" lon="-8.062657132307878"><ele>757.4</ele><time>2026-04-29T10:55:00Z</time></trkpt><trkpt lat="42.166371244043496" lon="-8.062478717338657"><ele>765.0</ele><time>2026-04-29T10:55:01Z</time></trkpt><trkpt lat="42.166413681099016" lon="-8.06230060095037"><ele>765.4</ele><time>2026-04-29T10:55:02Z</time></trkpt><trkpt lat="42.16644841646068" lon="-8.06216519947396"><ele>765.8</ele><time>2026-04-29T10:55:03Z</time></trkpt><trkpt lat="42.16647885124568" lon="-8.06202694651842"><ele>766.2</ele><time>2026-04-29T10:55:04Z</time></trkpt><trkpt lat="42.16650677447998" lon="-8.061894682765296"><ele>766.6</ele><time>2026-04-29T10:55:05Z</time></trkpt><trkpt lat="42.16654583627717" lon="-8.06175159574327"><ele>767.0</ele><time>2026-04-29T10:55:06Z</time></trkpt><trkpt lat="42.166586865107384" lon="-8.061612717313169"><ele>758.5</ele><time>2026-04-29T10:55:07Z</time></trkpt><trkpt lat="42.166632224174904" lon="-8.061507434398548"><ele>750.0</ele><time>2026-04-29T10:55:08Z</time></trkpt><trkpt lat="42.16664820710112" lon="-8.061415062910559"><ele>741.5</ele><time>2026-04-29T10:55:09Z</time></trkpt><trkpt lat="42.166657162160966" lon="-8.061320805214024"><ele>733.0</ele><time>2026-04-29T10:55:10Z</time></trkpt><trkpt lat="42.1666532883974" lon="-8.061233105729412"><ele>724.5</ele><time>2026-04-29T10:55:11Z</time></trkpt><trkpt lat="42.16661513408815" lon="-8.061083287231247"><ele>716.0</ele><time>2026-04-29T10:55:13Z</time></trkpt><trkpt lat="42.16657384456991" lon="-8.061003073359615"><ele>719.4</ele><time>2026-04-29T10:55:14Z</time></trkpt><trkpt lat="42.166522639260236" lon="-8.060902695382511"><ele>722.8</ele><time>2026-04-29T10:55:15Z</time></trkpt><trkpt lat="42.16646962223367" lon="-8.060820995306859"><ele>726.1999999999999</ele><time>2026-04-29T10:55:16Z</time></trkpt><trkpt lat="42.16639372580841" lon="-8.060762359739641"><ele>729.5999999999999</ele><time>2026-04-29T10:55:17Z</time></trkpt><trkpt lat="42.1663106639899" lon="-8.06068183354658"><ele>733.0</ele><time>2026-04-29T10:55:18Z</time></trkpt><trkpt lat="42.1662084171941" lon="-8.060606868409224"><ele>733.0</ele><time>2026-04-29T10:55:19Z</time></trkpt><trkpt lat="42.16614012772054" lon="-8.060512562319621"><ele>733.0</ele><time>2026-04-29T10:55:20Z</time></trkpt><trkpt lat="42.16608449406205" lon="-8.060419330306203"><ele>733.0</ele><time>2026-04-29T10:55:21Z</time></trkpt><trkpt lat="42.16601315013043" lon="-8.060286593702543"><ele>733.0</ele><time>2026-04-29T10:55:22Z</time></trkpt><trkpt lat="42.16594562889614" lon="-8.060071121016621"><ele>728.0</ele><time>2026-04-29T10:55:24Z</time></trkpt><trkpt lat="42.165915069987186" lon="-8.059926386505333"><ele>723.0</ele><time>2026-04-29T10:55:25Z</time></trkpt><trkpt lat="42.16588689025791" lon="-8.059738154244632"><ele>718.0</ele><time>2026-04-29T10:55:26Z</time></trkpt><trkpt lat="42.165887168694695" lon="-8.05963271766988"><ele>713.0</ele><time>2026-04-29T10:55:27Z</time></trkpt><trkpt lat="42.165844609084374" lon="-8.059519904746583"><ele>708.0</ele><time>2026-04-29T10:55:28Z</time></trkpt><trkpt lat="42.165770811972" lon="-8.05942951453568"><ele>708.0</ele><time>2026-04-29T10:55:29Z</time></trkpt><trkpt lat="42.1656959184907" lon="-8.059308711262736"><ele>708.0</ele><time>2026-04-29T10:55:30Z</time></trkpt><trkpt lat="42.165626469643435" lon="-8.05919959967677"><ele>708.0</ele><time>2026-04-29T10:55:31Z</time></trkpt><trkpt lat="42.16555461146988" lon="-8.059096331708368"><ele>708.0</ele><time>2026-04-29T10:55:32Z</time></trkpt><trkpt lat="42.165483761551485" lon="-8.05902949963015"><ele>708.0</ele><time>2026-04-29T10:55:33Z</time></trkpt><trkpt lat="42.16541489525961" lon="-8.059027634745904"><ele>712.8333333333334</ele><time>2026-04-29T10:55:34Z</time></trkpt><trkpt lat="42.165335691278095" lon="-8.058980537944192"><ele>717.6666666666666</ele><time>2026-04-29T10:55:35Z</time></trkpt><trkpt lat="42.16528555374051" lon="-8.058862633956133"><ele>722.5</ele><time>2026-04-29T10:55:37Z</time></trkpt><trkpt lat="42.16530445291483" lon="-8.05877453643688"><ele>727.3333333333333</ele><time>2026-04-29T10:55:38Z</time></trkpt><trkpt lat="42.16533420586734" lon="-8.058697313142668"><ele>732.1666666666666</ele><time>2026-04-29T10:55:39Z</time></trkpt><trkpt lat="42.16539184492812" lon="-8.058613211929032"><ele>737.0</ele><time>2026-04-29T10:55:40Z</time></trkpt><trkpt lat="42.16549440741128" lon="-8.058491346135638"><ele>737.0</ele><time>2026-04-29T10:55:41Z</time></trkpt><trkpt lat="42.16561181874718" lon="-8.058360302103035"><ele>737.0</ele><time>2026-04-29T10:55:42Z</time></trkpt><trkpt lat="42.16568155054073" lon="-8.058252230580866"><ele>737.0</ele><time>2026-04-29T10:55:43Z</time></trkpt><trkpt lat="42.16577443373447" lon="-8.05813610320209"><ele>737.0</ele><time>2026-04-29T10:55:44Z</time></trkpt><trkpt lat="42.165844738806776" lon="-8.057984478720211"><ele>730.2</ele><time>2026-04-29T10:55:45Z</time></trkpt><trkpt lat="42.16588920783077" lon="-8.057839178542368"><ele>723.4000000000001</ele><time>2026-04-29T10:55:46Z</time></trkpt><trkpt lat="42.16593439019215" lon="-8.057678234653054"><ele>716.5999999999999</ele><time>2026-04-29T10:55:47Z</time></trkpt><trkpt lat="42.16595860906237" lon="-8.057524776673246"><ele>709.8</ele><time>2026-04-29T10:55:48Z</time></trkpt><trkpt lat="42.16597681855167" lon="-8.05741837930071"><ele>703.0</ele><time>2026-04-29T10:55:49Z</time></trkpt><trkpt lat="42.165992362075215" lon="-8.05733347816701"><ele>704.5999999999999</ele><time>2026-04-29T10:55:50Z</time></trkpt><trkpt lat="42.1659326204247" lon="-8.057221671415366"><ele>706.1999999999999</ele><time>2026-04-29T10:55:52Z</time></trkpt><trkpt lat="42.165820923334934" lon="-8.057103170990183"><ele>707.8</ele><time>2026-04-29T10:55:54Z</time></trkpt><trkpt lat="42.165749155594135" lon="-8.057023495108698"><ele>709.4</ele><time>2026-04-29T10:55:55Z</time></trkpt><trkpt lat="42.16567240733601" lon="-8.056944450302586"><ele>711.0</ele><time>2026-04-29T10:55:56Z</time></trkpt><trkpt lat="42.16557290572825" lon="-8.056865304294178"><ele>711.0</ele><time>2026-04-29T10:55:57Z</time></trkpt><trkpt lat="42.165439524516124" lon="-8.0568003441248"><ele>711.0</ele><time>2026-04-29T10:55:58Z</time></trkpt><trkpt lat="42.165326206701735" lon="-8.056738542997625"><ele>711.0</ele><time>2026-04-29T10:55:59Z</time></trkpt><trkpt lat="42.16525113795985" lon="-8.056705482508649"><ele>711.0</ele><time>2026-04-29T10:56:00Z</time></trkpt><trkpt lat="42.165151214191134" lon="-8.056703036476549"><ele>711.0</ele><time>2026-04-29T10:56:01Z</time></trkpt><trkpt lat="42.165075018407784" lon="-8.056711331355126"><ele>711.0</ele><time>2026-04-29T10:56:02Z</time></trkpt><trkpt lat="42.16498234865436" lon="-8.056697921678168"><ele>711.0</ele><time>2026-04-29T10:56:03Z</time></trkpt><trkpt lat="42.164892876227285" lon="-8.056716216696909"><ele>711.0</ele><time>2026-04-29T10:56:04Z</time></trkpt><trkpt lat="42.16481610550334" lon="-8.056703443282405"><ele>711.0</ele><time>2026-04-29T10:56:05Z</time></trkpt><trkpt lat="42.1647120930532" lon="-8.056685238071372"><ele>711.0</ele><time>2026-04-29T10:56:07Z</time></trkpt><trkpt lat="42.1646117957904" lon="-8.056655201648825"><ele>712.0</ele><time>2026-04-29T10:56:09Z</time></trkpt><trkpt lat="42.16451161895846" lon="-8.05663796678711"><ele>713.0</ele><time>2026-04-29T10:56:11Z</time></trkpt><trkpt lat="42.164455170147605" lon="-8.05669563483349"><ele>714.0</ele><time>2026-04-29T10:56:13Z</time></trkpt><trkpt lat="42.16448683130631" lon="-8.056791767340929"><ele>715.0</ele><time>2026-04-29T10:56:15Z</time></trkpt><trkpt lat="42.16455085400452" lon="-8.056808036257273"><ele>716.0</ele><time>2026-04-29T10:56:17Z</time></trkpt><trkpt lat="42.16462318231604" lon="-8.05681630295261"><ele>717.0</ele><time>2026-04-29T10:56:19Z</time></trkpt><trkpt lat="42.16469535073787" lon="-8.056825000016772"><ele>717.0</ele><time>2026-04-29T10:56:21Z</time></trkpt><trkpt lat="42.16478579206177" lon="-8.056894422584177"><ele>717.0</ele><time>2026-04-29T10:56:23Z</time></trkpt><trkpt lat="42.1648350226683" lon="-8.056957025200193"><ele>717.0</ele><time>2026-04-29T10:56:24Z</time></trkpt><trkpt lat="42.164902224926024" lon="-8.057025531210135"><ele>717.0</ele><time>2026-04-29T10:56:25Z</time></trkpt><trkpt lat="42.16495213198936" lon="-8.05708522745109"><ele>717.0</ele><time>2026-04-29T10:56:26Z</time></trkpt><trkpt lat="42.16501344209435" lon="-8.057166913102293"><ele>717.0</ele><time>2026-04-29T10:56:27Z</time></trkpt><trkpt lat="42.16505237189021" lon="-8.057245226350696"><ele>716.0</ele><time>2026-04-29T10:56:28Z</time></trkpt><trkpt lat="42.16510663409317" lon="-8.05735345156221"><ele>715.0</ele><time>2026-04-29T10:56:30Z</time></trkpt><trkpt lat="42.16504968967714" lon="-8.05745122476904"><ele>714.0</ele><time>2026-04-29T10:56:34Z</time></trkpt><trkpt lat="42.164992392629564" lon="-8.0575154531988"><ele>713.0</ele><time>2026-04-29T10:56:37Z</time></trkpt><trkpt lat="42.16496360978131" lon="-8.057610327353048"><ele>712.0</ele><time>2026-04-29T10:56:39Z</time></trkpt><trkpt lat="42.16497080997134" lon="-8.057705522541001"><ele>711.0</ele><time>2026-04-29T10:56:41Z</time></trkpt><trkpt lat="42.16493483777118" lon="-8.057810647661269"><ele>714.4285714285714</ele><time>2026-04-29T10:56:43Z</time></trkpt><trkpt lat="42.164899933401" lon="-8.057888456074146"><ele>717.8571428571429</ele><time>2026-04-29T10:56:45Z</time></trkpt><trkpt lat="42.16488790964091" lon="-8.05798087961684"><ele>721.2857142857142</ele><time>2026-04-29T10:56:47Z</time></trkpt><trkpt lat="42.164854325939636" lon="-8.058081325553331"><ele>724.7142857142858</ele><time>2026-04-29T10:56:48Z</time></trkpt><trkpt lat="42.164816358855006" lon="-8.058150184067626"><ele>728.1428571428571</ele><time>2026-04-29T10:56:49Z</time></trkpt><trkpt lat="42.16479538304229" lon="-8.05824212309484"><ele>731.5714285714286</ele><time>2026-04-29T10:56:50Z</time></trkpt><trkpt lat="42.164741937879676" lon="-8.058343670274782"><ele>735.0</ele><time>2026-04-29T10:56:54Z</time></trkpt><trkpt lat="42.16467832376165" lon="-8.058331880274599"><ele>738.1666666666666</ele><time>2026-04-29T10:56:56Z</time></trkpt><trkpt lat="42.16460306084187" lon="-8.058337699788051"><ele>741.3333333333334</ele><time>2026-04-29T10:56:59Z</time></trkpt><trkpt lat="42.16455169357425" lon="-8.058397816890565"><ele>744.5</ele><time>2026-04-29T10:57:01Z</time></trkpt><trkpt lat="42.16449642666107" lon="-8.058350501109032"><ele>747.6666666666667</ele><time>2026-04-29T10:57:04Z</time></trkpt><trkpt lat="42.1644402181514" lon="-8.058218498649591"><ele>750.8333333333334</ele><time>2026-04-29T10:57:08Z</time></trkpt><trkpt lat="42.16438558214322" lon="-8.058155466664932"><ele>754.0</ele><time>2026-04-29T10:57:10Z</time></trkpt><trkpt lat="42.16431239727742" lon="-8.058097597730079"><ele>754.0</ele><time>2026-04-29T10:57:13Z</time></trkpt><trkpt lat="42.16424437263462" lon="-8.05810415351809"><ele>754.0</ele><time>2026-04-29T10:57:15Z</time></trkpt><trkpt lat="42.16420909829354" lon="-8.058222152281845"><ele>754.0</ele><time>2026-04-29T10:57:18Z</time></trkpt><trkpt lat="42.16420717750151" lon="-8.058307140790255"><ele>754.0</ele><time>2026-04-29T10:57:21Z</time></trkpt><trkpt lat="42.16418057339074" lon="-8.05839511503367"><ele>754.0</ele><time>2026-04-29T10:57:23Z</time></trkpt><trkpt lat="42.164154999121145" lon="-8.058484782802061"><ele>754.0</ele><time>2026-04-29T10:57:25Z</time></trkpt><trkpt lat="42.16410016130947" lon="-8.058587863847647"><ele>756.3333333333334</ele><time>2026-04-29T10:57:28Z</time></trkpt><trkpt lat="42.16407879579109" lon="-8.058681697486382"><ele>758.6666666666667</ele><time>2026-04-29T10:57:30Z</time></trkpt><trkpt lat="42.16405837947582" lon="-8.058778166308535"><ele>761.0</ele><time>2026-04-29T10:57:33Z</time></trkpt><trkpt lat="42.16401916241548" lon="-8.058858783702984"><ele>763.3333333333334</ele><time>2026-04-29T10:57:36Z</time></trkpt><trkpt lat="42.16394815121215" lon="-8.058895105633633"><ele>765.6666666666666</ele><time>2026-04-29T10:57:40Z</time></trkpt><trkpt lat="42.163892179539545" lon="-8.058781464157603"><ele>768.0</ele><time>2026-04-29T10:57:44Z</time></trkpt><trkpt lat="42.16384376139288" lon="-8.058722961088908"><ele>772.0</ele><time>2026-04-29T10:57:46Z</time></trkpt><trkpt lat="42.16378545715756" lon="-8.058654714208597"><ele>776.0</ele><time>2026-04-29T10:57:47Z</time></trkpt><trkpt lat="42.16370477964355" lon="-8.058568994678875"><ele>780.0</ele><time>2026-04-29T10:57:51Z</time></trkpt><trkpt lat="42.16360948116201" lon="-8.058557134272423"><ele>784.0</ele><time>2026-04-29T10:57:53Z</time></trkpt><trkpt lat="42.16352595245257" lon="-8.05857842747425"><ele>788.0</ele><time>2026-04-29T10:57:56Z</time></trkpt><trkpt lat="42.16353172835184" lon="-8.058682164579144"><ele>792.0</ele><time>2026-04-29T10:57:59Z</time></trkpt><trkpt lat="42.16352585851193" lon="-8.05881232620494"><ele>792.0</ele><time>2026-04-29T10:58:02Z</time></trkpt><trkpt lat="42.163489565316006" lon="-8.058933304757533"><ele>792.0</ele><time>2026-04-29T10:58:04Z</time></trkpt><trkpt lat="42.163448509924066" lon="-8.059055087995723"><ele>792.0</ele><time>2026-04-29T10:58:06Z</time></trkpt><trkpt lat="42.16341153720043" lon="-8.059156015192274"><ele>792.0</ele><time>2026-04-29T10:58:08Z</time></trkpt><trkpt lat="42.16337061137331" lon="-8.059258296522053"><ele>792.0</ele><time>2026-04-29T10:58:10Z</time></trkpt><trkpt lat="42.16332886843876" lon="-8.059364760516237"><ele>795.8333333333334</ele><time>2026-04-29T10:58:12Z</time></trkpt><trkpt lat="42.16332405778333" lon="-8.059476152992719"><ele>799.6666666666667</ele><time>2026-04-29T10:58:14Z</time></trkpt><trkpt lat="42.16328392941653" lon="-8.059543409587299"><ele>803.5</ele><time>2026-04-29T10:58:15Z</time></trkpt><trkpt lat="42.163300253138544" lon="-8.059672803565736"><ele>807.3333333333334</ele><time>2026-04-29T10:58:17Z</time></trkpt><trkpt lat="42.163290691430554" lon="-8.05979919139731"><ele>811.1666666666667</ele><time>2026-04-29T10:58:19Z</time></trkpt><trkpt lat="42.163286895696686" lon="-8.05994047587824"><ele>815.0</ele><time>2026-04-29T10:58:21Z</time></trkpt><trkpt lat="42.163256634634834" lon="-8.060104359351872"><ele>817.0</ele><time>2026-04-29T10:58:23Z</time></trkpt><trkpt lat="42.16326227591776" lon="-8.060245212749086"><ele>819.0</ele><time>2026-04-29T10:58:25Z</time></trkpt><trkpt lat="42.1632754620793" lon="-8.06033345478787"><ele>821.0</ele><time>2026-04-29T10:58:26Z</time></trkpt><trkpt lat="42.16327780220698" lon="-8.06042281818473"><ele>823.0</ele><time>2026-04-29T10:58:27Z</time></trkpt><trkpt lat="42.16325699628748" lon="-8.060579313649088"><ele>825.0</ele><time>2026-04-29T10:58:29Z</time></trkpt><trkpt lat="42.163252911911314" lon="-8.060722323054009"><ele>827.6</ele><time>2026-04-29T10:58:31Z</time></trkpt><trkpt lat="42.16321278259364" lon="-8.060900382831433"><ele>830.2</ele><time>2026-04-29T10:58:33Z</time></trkpt><trkpt lat="42.16318029881057" lon="-8.061020934379851"><ele>832.8</ele><time>2026-04-29T10:58:34Z</time></trkpt><trkpt lat="42.16316389116103" lon="-8.061111472420194"><ele>835.4</ele><time>2026-04-29T10:58:35Z</time></trkpt><trkpt lat="42.163158940795526" lon="-8.061208420579936"><ele>838.0</ele><time>2026-04-29T10:58:37Z</time></trkpt><trkpt lat="42.16315379519245" lon="-8.06131613362165"><ele>841.0</ele><time>2026-04-29T10:58:39Z</time></trkpt><trkpt lat="42.16311262929359" lon="-8.06148384041131"><ele>844.0</ele><time>2026-04-29T10:58:41Z</time></trkpt><trkpt lat="42.163093380653976" lon="-8.061585867172967"><ele>847.0</ele><time>2026-04-29T10:58:42Z</time></trkpt><trkpt lat="42.163049078424194" lon="-8.061746699497387"><ele>850.0</ele><time>2026-04-29T10:58:44Z</time></trkpt><trkpt lat="42.163016776240966" lon="-8.061837828650845"><ele>853.0</ele><time>2026-04-29T10:58:47Z</time></trkpt><trkpt lat="42.16301149929989" lon="-8.061934462796385"><ele>853.7142857142857</ele><time>2026-04-29T10:58:49Z</time></trkpt><trkpt lat="42.163016224610985" lon="-8.062020459484625"><ele>854.4285714285714</ele><time>2026-04-29T10:58:52Z</time></trkpt><trkpt lat="42.1630210327062" lon="-8.062126841374555"><ele>855.1428571428571</ele><time>2026-04-29T10:58:55Z</time></trkpt><trkpt lat="42.16300708114923" lon="-8.062222571710652"><ele>855.8571428571429</ele><time>2026-04-29T11:06:38Z</time></trkpt><trkpt lat="42.1630056418354" lon="-8.06235303616863"><ele>856.5714285714287</ele><time>2026-04-29T11:06:40Z</time></trkpt><trkpt lat="42.163016082645335" lon="-8.06243812195287"><ele>857.2857142857143</ele><time>2026-04-29T11:06:42Z</time></trkpt><trkpt lat="42.163033392372775" lon="-8.062521655005295"><ele>858.0</ele><time>2026-04-29T11:06:44Z</time></trkpt><trkpt lat="42.163038734704514" lon="-8.062624710428146"><ele>858.0</ele><time>2026-04-29T11:06:49Z</time></trkpt><trkpt lat="42.16299994742824" lon="-8.062750339322278"><ele>858.0</ele><time>2026-04-29T11:06:53Z</time></trkpt><trkpt lat="42.16296073160312" lon="-8.062833610229102"><ele>858.0</ele><time>2026-04-29T11:06:57Z</time></trkpt><trkpt lat="42.16292500594079" lon="-8.06290436980329"><ele>858.0</ele><time>2026-04-29T11:07:00Z</time></trkpt><trkpt lat="42.16287353534717" lon="-8.06296677109607"><ele>858.0</ele><time>2026-04-29T11:07:02Z</time></trkpt><trkpt lat="42.1628166667388" lon="-8.063045801910484"><ele>858.0</ele><time>2026-04-29T11:07:04Z</time></trkpt><trkpt lat="42.16277674333049" lon="-8.063148652289094"><ele>858.0</ele><time>2026-04-29T11:07:07Z</time></trkpt><trkpt lat="42.16274456667704" lon="-8.063259486086901"><ele>858.0</ele><time>2026-04-29T11:07:09Z</time></trkpt><trkpt lat="42.162713971687694" lon="-8.063346469982834"><ele>858.0</ele><time>2026-04-29T11:07:10Z</time></trkpt><trkpt lat="42.162685502137634" lon="-8.063429729211586"><ele>858.0</ele><time>2026-04-29T11:07:11Z</time></trkpt><trkpt lat="42.162624510181516" lon="-8.063511164970189"><ele>858.0</ele><time>2026-04-29T11:07:13Z</time></trkpt><trkpt lat="42.16256165026328" lon="-8.063574780134482"><ele>858.0</ele><time>2026-04-29T11:07:14Z</time></trkpt><trkpt lat="42.16250694482618" lon="-8.063663800884987"><ele>859.0</ele><time>2026-04-29T11:07:15Z</time></trkpt><trkpt lat="42.1624665471615" lon="-8.063765575942497"><ele>860.0</ele><time>2026-04-29T11:07:16Z</time></trkpt><trkpt lat="42.1624250702542" lon="-8.063877366795206"><ele>861.0</ele><time>2026-04-29T11:07:17Z</time></trkpt><trkpt lat="42.1623838683729" lon="-8.063997232759828"><ele>862.0</ele><time>2026-04-29T11:07:18Z</time></trkpt><trkpt lat="42.162349968357" lon="-8.06409477409534"><ele>863.0</ele><time>2026-04-29T11:07:19Z</time></trkpt><trkpt lat="42.162308778251024" lon="-8.064185970866701"><ele>864.0</ele><time>2026-04-29T11:07:20Z</time></trkpt><trkpt lat="42.16224985753748" lon="-8.064262241489114"><ele>866.1666666666666</ele><time>2026-04-29T11:07:21Z</time></trkpt><trkpt lat="42.16218529172689" lon="-8.06433852490171"><ele>868.3333333333333</ele><time>2026-04-29T11:07:22Z</time></trkpt><trkpt lat="42.16211180269229" lon="-8.064413314176031"><ele>870.5</ele><time>2026-04-29T11:07:23Z</time></trkpt><trkpt lat="42.16203152204926" lon="-8.06447134228332"><ele>872.6666666666666</ele><time>2026-04-29T11:07:24Z</time></trkpt><trkpt lat="42.16197383534305" lon="-8.06452261547861"><ele>874.8333333333333</ele><time>2026-04-29T11:07:26Z</time></trkpt><trkpt lat="42.16188493720384" lon="-8.064578032210823"><ele>877.0</ele><time>2026-04-29T11:07:29Z</time></trkpt><trkpt lat="42.16183338382852" lon="-8.06466362517662"><ele>876.9999999999999</ele><time>2026-04-29T11:07:32Z</time></trkpt><trkpt lat="42.161769325869706" lon="-8.064678901649128"><ele>877.0</ele><time>2026-04-29T11:07:36Z</time></trkpt><trkpt lat="42.16171841269335" lon="-8.064569422763148"><ele>877.0</ele><time>2026-04-29T11:07:38.998Z</time></trkpt><trkpt lat="42.16164972222521" lon="-8.06450193441951"><ele>877.0</ele><time>2026-04-29T11:07:40.998Z</time></trkpt><trkpt lat="42.16156200984631" lon="-8.064455029928776"><ele>876.9999999999999</ele><time>2026-04-29T11:07:42.998Z</time></trkpt><trkpt lat="42.16149313506394" lon="-8.064392301524304"><ele>877.0</ele><time>2026-04-29T11:07:44.998Z</time></trkpt><trkpt lat="42.16137334972982" lon="-8.064302048720457"><ele>879.6666666666666</ele><time>2026-04-29T11:07:46.999Z</time></trkpt><trkpt lat="42.16130122007096" lon="-8.064241825567203"><ele>882.3333333333333</ele><time>2026-04-29T11:07:47.999Z</time></trkpt><trkpt lat="42.161208113788305" lon="-8.064168286123163"><ele>885.0</ele><time>2026-04-29T11:07:49.999Z</time></trkpt><trkpt lat="42.161149596075106" lon="-8.06412641196057"><ele>887.6666666666667</ele><time>2026-04-29T11:07:50.999Z</time></trkpt><trkpt lat="42.16109866190928" lon="-8.06407241815211"><ele>890.3333333333334</ele><time>2026-04-29T11:07:51.999Z</time></trkpt><trkpt lat="42.161043664599" lon="-8.064009141496607"><ele>893.0</ele><time>2026-04-29T11:07:52.999Z</time></trkpt><trkpt lat="42.160982660723924" lon="-8.063970211214794"><ele>893.2</ele><time>2026-04-29T11:07:53.999Z</time></trkpt><trkpt lat="42.160872515247945" lon="-8.063945958408103"><ele>893.4</ele><time>2026-04-29T11:07:55.999Z</time></trkpt><trkpt lat="42.160780572704816" lon="-8.063904867162153"><ele>893.6000000000001</ele><time>2026-04-29T11:07:57.999Z</time></trkpt><trkpt lat="42.160688448278385" lon="-8.063839789029236"><ele>893.8000000000001</ele><time>2026-04-29T11:07:59.999Z</time></trkpt><trkpt lat="42.160577680435566" lon="-8.0637921298471"><ele>894.0</ele><time>2026-04-29T11:08:01.999Z</time></trkpt><trkpt lat="42.16050417463048" lon="-8.063781008080898"><ele>897.6</ele><time>2026-04-29T11:08:02.999Z</time></trkpt><trkpt lat="42.16042426070262" lon="-8.063764535568696"><ele>901.2</ele><time>2026-04-29T11:08:03.999Z</time></trkpt><trkpt lat="42.160392220699656" lon="-8.063679632745453"><ele>904.8000000000001</ele><time>2026-04-29T11:08:05.999Z</time></trkpt><trkpt lat="42.16042280792978" lon="-8.063592389628337"><ele>908.4000000000001</ele><time>2026-04-29T11:08:06.999Z</time></trkpt><trkpt lat="42.16049101128716" lon="-8.063462002444936"><ele>912.0</ele><time>2026-04-29T11:08:07.999Z</time></trkpt><trkpt lat="42.16056233952191" lon="-8.063329101313306"><ele>911.8</ele><time>2026-04-29T11:08:08.999Z</time></trkpt><trkpt lat="42.160625057524335" lon="-8.06321689794654"><ele>911.6</ele><time>2026-04-29T11:08:10Z</time></trkpt><trkpt lat="42.16066911477562" lon="-8.06311368204194"><ele>911.3999999999999</ele><time>2026-04-29T11:08:11Z</time></trkpt><trkpt lat="42.16069885650401" lon="-8.063004333398856"><ele>911.1999999999999</ele><time>2026-04-29T11:08:12Z</time></trkpt><trkpt lat="42.16074019040286" lon="-8.06285905709369"><ele>911.0</ele><time>2026-04-29T11:08:13Z</time></trkpt><trkpt lat="42.16078481000883" lon="-8.062717494750625"><ele>907.4</ele><time>2026-04-29T11:08:14Z</time></trkpt><trkpt lat="42.16082015440267" lon="-8.062590534560833"><ele>903.8</ele><time>2026-04-29T11:08:15Z</time></trkpt><trkpt lat="42.16084552624558" lon="-8.062471107169552"><ele>900.1999999999999</ele><time>2026-04-29T11:08:16Z</time></trkpt><trkpt lat="42.160868940399965" lon="-8.062348259189688"><ele>896.5999999999999</ele><time>2026-04-29T11:08:17Z</time></trkpt><trkpt lat="42.16090000975105" lon="-8.062216421665656"><ele>893.0</ele><time>2026-04-29T11:08:18Z</time></trkpt><trkpt lat="42.16094319430564" lon="-8.062085433455712"><ele>892.4</ele><time>2026-04-29T11:08:19Z</time></trkpt><trkpt lat="42.160946093845745" lon="-8.06195472792477"><ele>891.8</ele><time>2026-04-29T11:08:21Z</time></trkpt><trkpt lat="42.160866646253076" lon="-8.061829535840241"><ele>891.2</ele><time>2026-04-29T11:08:23Z</time></trkpt><trkpt lat="42.160813662001225" lon="-8.06172176058097"><ele>890.6</ele><time>2026-04-29T11:08:24Z</time></trkpt><trkpt lat="42.16074776931712" lon="-8.06159116273426"><ele>890.0</ele><time>2026-04-29T11:08:25Z</time></trkpt><trkpt lat="42.16067738929316" lon="-8.06144488978211"><ele>890.0</ele><time>2026-04-29T11:08:26Z</time></trkpt><trkpt lat="42.16060670246957" lon="-8.061320372774725"><ele>890.0</ele><time>2026-04-29T11:08:27Z</time></trkpt><trkpt lat="42.16054358376095" lon="-8.061210748195492"><ele>890.0</ele><time>2026-04-29T11:08:28Z</time></trkpt><trkpt lat="42.160473065023936" lon="-8.061102502123335"><ele>890.0</ele><time>2026-04-29T11:08:29Z</time></trkpt><trkpt lat="42.16040000868128" lon="-8.06096170520161"><ele>890.0</ele><time>2026-04-29T11:08:30Z</time></trkpt><trkpt lat="42.160332661337605" lon="-8.060828336281466"><ele>890.0</ele><time>2026-04-29T11:08:31Z</time></trkpt><trkpt lat="42.16028031636861" lon="-8.060745097950608"><ele>890.0</ele><time>2026-04-29T11:08:32Z</time></trkpt><trkpt lat="42.160213399559005" lon="-8.060682508000502"><ele>890.0</ele><time>2026-04-29T11:08:33Z</time></trkpt><trkpt lat="42.1601326621912" lon="-8.060645983326399"><ele>890.0</ele><time>2026-04-29T11:08:34Z</time></trkpt><trkpt lat="42.16002700299535" lon="-8.060569091893102"><ele>886.8333333333334</ele><time>2026-04-29T11:08:35Z</time></trkpt><trkpt lat="42.15993919668329" lon="-8.06049736202774"><ele>883.6666666666667</ele><time>2026-04-29T11:08:36Z</time></trkpt><trkpt lat="42.159850738529066" lon="-8.060448112286148"><ele>880.5</ele><time>2026-04-29T11:08:38Z</time></trkpt><trkpt lat="42.15976875145641" lon="-8.060478069349628"><ele>877.3333333333333</ele><time>2026-04-29T11:08:40Z</time></trkpt><trkpt lat="42.15969904018477" lon="-8.060486139245684"><ele>874.1666666666666</ele><time>2026-04-29T11:08:43Z</time></trkpt><trkpt lat="42.15962187125087" lon="-8.060518776170808"><ele>871.0</ele><time>2026-04-29T11:08:47Z</time></trkpt><trkpt lat="42.15955205915152" lon="-8.060489072912983"><ele>870.25</ele><time>2026-04-29T11:08:51Z</time></trkpt><trkpt lat="42.15946975061219" lon="-8.060441248369395"><ele>869.5</ele><time>2026-04-29T11:08:55Z</time></trkpt><trkpt lat="42.15938354755774" lon="-8.060417510127321"><ele>868.75</ele><time>2026-04-29T11:08:59Z</time></trkpt><trkpt lat="42.159290499816855" lon="-8.060400141667738"><ele>868.0</ele><time>2026-04-29T11:09:01.001Z</time></trkpt><trkpt lat="42.15910806622115" lon="-8.060400605294406"><ele>868.2</ele><time>2026-04-29T11:09:03.001Z</time></trkpt><trkpt lat="42.15900234436954" lon="-8.060374998895776"><ele>868.4</ele><time>2026-04-29T11:09:04.001Z</time></trkpt><trkpt lat="42.15888785626985" lon="-8.060362868923681"><ele>868.6000000000001</ele><time>2026-04-29T11:09:06.001Z</time></trkpt><trkpt lat="42.15880995510414" lon="-8.060372546699881"><ele>868.8000000000001</ele><time>2026-04-29T11:09:07.001Z</time></trkpt><trkpt lat="42.15871948180592" lon="-8.060371054137892"><ele>869.0</ele><time>2026-04-29T11:09:08.001Z</time></trkpt><trkpt lat="42.158643109909086" lon="-8.060367425355228"><ele>869.0000000000001</ele><time>2026-04-29T11:09:09.001Z</time></trkpt><trkpt lat="42.15852984826389" lon="-8.06029492217441"><ele>869.0</ele><time>2026-04-29T11:09:11.001Z</time></trkpt><trkpt lat="42.15845930768206" lon="-8.060220171038628"><ele>869.0</ele><time>2026-04-29T11:09:12.001Z</time></trkpt><trkpt lat="42.158403382468094" lon="-8.060167345292458"><ele>869.0</ele><time>2026-04-29T11:09:13.001Z</time></trkpt><trkpt lat="42.15833491607041" lon="-8.060129288807191"><ele>869.0000000000001</ele><time>2026-04-29T11:09:14.001Z</time></trkpt><trkpt lat="42.15827007803374" lon="-8.060072947382812"><ele>869.0</ele><time>2026-04-29T11:09:15.001Z</time></trkpt><trkpt lat="42.15822703783585" lon="-8.060009165366502"><ele>869.4000000000001</ele><time>2026-04-29T11:09:16.001Z</time></trkpt><trkpt lat="42.15814063171386" lon="-8.059975164784847"><ele>869.8000000000001</ele><time>2026-04-29T11:09:19.001Z</time></trkpt><trkpt lat="42.158032234220215" lon="-8.05985957875772"><ele>870.1999999999999</ele><time>2026-04-29T11:09:21.001Z</time></trkpt><trkpt lat="42.15792195101073" lon="-8.05980044585396"><ele>870.5999999999999</ele><time>2026-04-29T11:09:22.001Z</time></trkpt><trkpt lat="42.157852371375405" lon="-8.059759657609312"><ele>871.0</ele><time>2026-04-29T11:09:23.001Z</time></trkpt><trkpt lat="42.15779152286252" lon="-8.059732585753924"><ele>867.5999999999999</ele><time>2026-04-29T11:09:24.001Z</time></trkpt><trkpt lat="42.15766359899598" lon="-8.059713814798368"><ele>864.1999999999999</ele><time>2026-04-29T11:09:26.001Z</time></trkpt><trkpt lat="42.15758859572439" lon="-8.059745946379538"><ele>860.8000000000001</ele><time>2026-04-29T11:09:27.001Z</time></trkpt><trkpt lat="42.15748501194134" lon="-8.059820925039656"><ele>857.4000000000001</ele><time>2026-04-29T11:09:28.001Z</time></trkpt><trkpt lat="42.157375373919926" lon="-8.059856554403055"><ele>854.0</ele><time>2026-04-29T11:09:29.001Z</time></trkpt><trkpt lat="42.15728703277477" lon="-8.059852577617798"><ele>854.0</ele><time>2026-04-29T11:09:30.001Z</time></trkpt><trkpt lat="42.15717938739661" lon="-8.059821818351976"><ele>854.0000000000001</ele><time>2026-04-29T11:09:31.001Z</time></trkpt><trkpt lat="42.157102951491204" lon="-8.059783095104782"><ele>854.0000000000001</ele><time>2026-04-29T11:09:32.001Z</time></trkpt><trkpt lat="42.15702118951206" lon="-8.059722343935354"><ele>854.0</ele><time>2026-04-29T11:09:34.001Z</time></trkpt><trkpt lat="42.156930316769305" lon="-8.0596244212826"><ele>854.0</ele><time>2026-04-29T11:09:37.001Z</time></trkpt><trkpt lat="42.1568359542424" lon="-8.059611297861322"><ele>854.0000000000001</ele><time>2026-04-29T11:09:38.001Z</time></trkpt><trkpt lat="42.156746937250965" lon="-8.05960134130475"><ele>854.0</ele><time>2026-04-29T11:09:39.001Z</time></trkpt><trkpt lat="42.156683700449655" lon="-8.059567528874993"><ele>854.0</ele><time>2026-04-29T11:09:40.001Z</time></trkpt><trkpt lat="42.15660912255125" lon="-8.059544334817923"><ele>854.0</ele><time>2026-04-29T11:09:41.001Z</time></trkpt><trkpt lat="42.15652264488551" lon="-8.05953918474821"><ele>854.0000000000001</ele><time>2026-04-29T11:09:42.001Z</time></trkpt><trkpt lat="42.15644611820662" lon="-8.059534064700895"><ele>854.0</ele><time>2026-04-29T11:09:43Z</time></trkpt><trkpt lat="42.156372705251066" lon="-8.059490516713774"><ele>854.6</ele><time>2026-04-29T11:09:44Z</time></trkpt><trkpt lat="42.156297429200826" lon="-8.05944189066921"><ele>855.2</ele><time>2026-04-29T11:09:45Z</time></trkpt><trkpt lat="42.15621162417833" lon="-8.05936418214597"><ele>855.8000000000001</ele><time>2026-04-29T11:09:46Z</time></trkpt><trkpt lat="42.156148856045306" lon="-8.059316027115882"><ele>856.4000000000001</ele><time>2026-04-29T11:09:47Z</time></trkpt><trkpt lat="42.156053792963974" lon="-8.059274260744406"><ele>857.0</ele><time>2026-04-29T11:09:48Z</time></trkpt><trkpt lat="42.15594449502277" lon="-8.05924749219663"><ele>857.0</ele><time>2026-04-29T11:09:49Z</time></trkpt><trkpt lat="42.15588130421312" lon="-8.059239738318267"><ele>857.0</ele><time>2026-04-29T11:09:50Z</time></trkpt><trkpt lat="42.155772039031106" lon="-8.0592141083356"><ele>857.0</ele><time>2026-04-29T11:09:52Z</time></trkpt><trkpt lat="42.15568405471797" lon="-8.05918994295227"><ele>857.0</ele><time>2026-04-29T11:09:53Z</time></trkpt><trkpt lat="42.155585438967734" lon="-8.059191330590489"><ele>857.0</ele><time>2026-04-29T11:09:54Z</time></trkpt><trkpt lat="42.15548117901" lon="-8.059179770406708"><ele>857.0</ele><time>2026-04-29T11:09:55Z</time></trkpt><trkpt lat="42.155378055977415" lon="-8.059157431695501"><ele>857.0</ele><time>2026-04-29T11:09:56Z</time></trkpt><trkpt lat="42.15528943882556" lon="-8.059144131957213"><ele>857.0</ele><time>2026-04-29T11:09:57Z</time></trkpt><trkpt lat="42.155168870846815" lon="-8.059141450748996"><ele>857.0</ele><time>2026-04-29T11:09:58Z</time></trkpt><trkpt lat="42.15509023247726" lon="-8.059145392015981"><ele>857.0</ele><time>2026-04-29T11:09:59Z</time></trkpt><trkpt lat="42.155022519917694" lon="-8.059115061408646"><ele>856.8</ele><time>2026-04-29T11:10:00Z</time></trkpt><trkpt lat="42.154944202354564" lon="-8.059084628356414"><ele>856.6</ele><time>2026-04-29T11:10:01Z</time></trkpt><trkpt lat="42.1548711691764" lon="-8.059026802886944"><ele>856.3999999999999</ele><time>2026-04-29T11:10:03Z</time></trkpt><trkpt lat="42.154825239735914" lon="-8.058862384987247"><ele>856.1999999999999</ele><time>2026-04-29T11:10:05Z</time></trkpt><trkpt lat="42.15479746622392" lon="-8.058749644194945"><ele>856.0</ele><time>2026-04-29T11:10:06Z</time></trkpt><trkpt lat="42.15478180738443" lon="-8.058643865090515"><ele>857.8</ele><time>2026-04-29T11:10:07Z</time></trkpt><trkpt lat="42.15476157851897" lon="-8.058505052249584"><ele>859.5999999999999</ele><time>2026-04-29T11:10:09.001Z</time></trkpt><trkpt lat="42.154781225749666" lon="-8.058337190574546"><ele>861.4</ele><time>2026-04-29T11:10:11.001Z</time></trkpt><trkpt lat="42.15477233985171" lon="-8.058224860905288"><ele>863.2</ele><time>2026-04-29T11:10:12.001Z</time></trkpt><trkpt lat="42.15474235440874" lon="-8.058119577586472"><ele>865.0</ele><time>2026-04-29T11:10:13.001Z</time></trkpt><trkpt lat="42.15470550355066" lon="-8.058023235223466"><ele>865.2</ele><time>2026-04-29T11:10:14.001Z</time></trkpt><trkpt lat="42.15465721319453" lon="-8.057904110429424"><ele>865.4</ele><time>2026-04-29T11:10:15.001Z</time></trkpt><trkpt lat="42.15463246277243" lon="-8.057799476286318"><ele>865.5999999999999</ele><time>2026-04-29T11:10:16.001Z</time></trkpt><trkpt lat="42.1546546593796" lon="-8.057601458016702"><ele>865.8</ele><time>2026-04-29T11:10:18.001Z</time></trkpt><trkpt lat="42.15467594464502" lon="-8.057474611693287"><ele>866.0</ele><time>2026-04-29T11:10:19.001Z</time></trkpt><trkpt lat="42.15470448180049" lon="-8.057344342387205"><ele>865.5000000000001</ele><time>2026-04-29T11:10:20.001Z</time></trkpt><trkpt lat="42.154712132220396" lon="-8.05722281932077"><ele>865.0</ele><time>2026-04-29T11:10:21.001Z</time></trkpt><trkpt lat="42.15472602772515" lon="-8.0571053661001"><ele>864.5</ele><time>2026-04-29T11:10:22.001Z</time></trkpt><trkpt lat="42.15476136746019" lon="-8.057007214607077"><ele>864.0</ele><time>2026-04-29T11:10:23.001Z</time></trkpt><trkpt lat="42.15480858921049" lon="-8.056902713303966"><ele>863.5000000000001</ele><time>2026-04-29T11:10:25.001Z</time></trkpt><trkpt lat="42.154801980302004" lon="-8.056798006973363"><ele>863.0</ele><time>2026-04-29T11:10:27.001Z</time></trkpt><trkpt lat="42.154763673155074" lon="-8.056625270703694"><ele>861.0000000000001</ele><time>2026-04-29T11:10:29.001Z</time></trkpt><trkpt lat="42.154718752531465" lon="-8.05651924549275"><ele>859.0</ele><time>2026-04-29T11:10:30.001Z</time></trkpt><trkpt lat="42.15471547978907" lon="-8.056400627601704"><ele>857.0</ele><time>2026-04-29T11:10:32.001Z</time></trkpt><trkpt lat="42.15471290626989" lon="-8.056313618980377"><ele>855.0</ele><time>2026-04-29T11:10:34.001Z</time></trkpt><trkpt lat="42.154692584563556" lon="-8.056223725344472"><ele>853.0000000000001</ele><time>2026-04-29T11:10:36.001Z</time></trkpt><trkpt lat="42.15464010380038" lon="-8.056162799093704"><ele>851.0</ele><time>2026-04-29T11:10:38.001Z</time></trkpt><trkpt lat="42.15456071557614" lon="-8.056087164716828"><ele>851.0000000000001</ele><time>2026-04-29T11:10:41.001Z</time></trkpt><trkpt lat="42.15450565496934" lon="-8.05602850174949"><ele>851.0</ele><time>2026-04-29T11:10:42.001Z</time></trkpt><trkpt lat="42.15444317434443" lon="-8.055966235740284"><ele>851.0</ele><time>2026-04-29T11:10:44.001Z</time></trkpt><trkpt lat="42.15438412985159" lon="-8.055918452046383"><ele>851.0</ele><time>2026-04-29T11:10:45.001Z</time></trkpt><trkpt lat="42.15430660082949" lon="-8.055866511096546"><ele>851.0000000000001</ele><time>2026-04-29T11:10:47.001Z</time></trkpt><trkpt lat="42.15423767200847" lon="-8.05580371638272"><ele>851.0</ele><time>2026-04-29T11:10:49.001Z</time></trkpt><trkpt lat="42.154187657245544" lon="-8.055726002109102"><ele>849.1999999999999</ele><time>2026-04-29T11:10:51.001Z</time></trkpt><trkpt lat="42.15409003027231" lon="-8.055663253743312"><ele>847.4</ele><time>2026-04-29T11:10:53.001Z</time></trkpt><trkpt lat="42.15403876828096" lon="-8.055613125681637"><ele>845.6</ele><time>2026-04-29T11:10:54.001Z</time></trkpt><trkpt lat="42.15396256405453" lon="-8.055540773584164"><ele>843.8</ele><time>2026-04-29T11:10:55.001Z</time></trkpt><trkpt lat="42.15388115793965" lon="-8.05544811193066"><ele>842.0</ele><time>2026-04-29T11:10:56.001Z</time></trkpt><trkpt lat="42.15381230442129" lon="-8.055370094464081"><ele>842.0000000000001</ele><time>2026-04-29T11:10:57.001Z</time></trkpt><trkpt lat="42.15376199180181" lon="-8.055291155134077"><ele>842.0</ele><time>2026-04-29T11:10:58.001Z</time></trkpt><trkpt lat="42.153714224228615" lon="-8.055195104981493"><ele>842.0</ele><time>2026-04-29T11:10:59.001Z</time></trkpt><trkpt lat="42.15367874903349" lon="-8.055097893406876"><ele>842.0</ele><time>2026-04-29T11:11:00.001Z</time></trkpt><trkpt lat="42.15365126094408" lon="-8.055014986241014"><ele>842.0000000000001</ele><time>2026-04-29T11:11:01.001Z</time></trkpt><trkpt lat="42.153656087127345" lon="-8.054877765178606"><ele>842.0</ele><time>2026-04-29T11:11:03.001Z</time></trkpt><trkpt lat="42.15366692360233" lon="-8.054723322984344"><ele>842.0</ele><time>2026-04-29T11:11:05.001Z</time></trkpt><trkpt lat="42.15366119582659" lon="-8.05453843783492"><ele>842.0</ele><time>2026-04-29T11:11:07.001Z</time></trkpt><trkpt lat="42.153682285812685" lon="-8.054401044958672"><ele>842.0</ele><time>2026-04-29T11:11:08.001Z</time></trkpt><trkpt lat="42.153696705985055" lon="-8.054252419851398"><ele>842.0</ele><time>2026-04-29T11:11:09.001Z</time></trkpt><trkpt lat="42.15369835276082" lon="-8.0541330649606"><ele>842.0</ele><time>2026-04-29T11:11:10.001Z</time></trkpt><trkpt lat="42.15368946703189" lon="-8.05402276293323"><ele>842.0</ele><time>2026-04-29T11:11:11.001Z</time></trkpt><trkpt lat="42.1536888361835" lon="-8.053918813419576"><ele>842.0</ele><time>2026-04-29T11:11:12.001Z</time></trkpt><trkpt lat="42.153701948312474" lon="-8.053805915673193"><ele>842.0</ele><time>2026-04-29T11:11:13.001Z</time></trkpt><trkpt lat="42.15373896182304" lon="-8.0536752922271"><ele>842.0</ele><time>2026-04-29T11:11:15.001Z</time></trkpt><trkpt lat="42.15375569392064" lon="-8.053537826159845"><ele>842.0</ele><time>2026-04-29T11:11:17.001Z</time></trkpt><trkpt lat="42.153789397202644" lon="-8.053411659665308"><ele>842.0</ele><time>2026-04-29T11:11:19.001Z</time></trkpt><trkpt lat="42.153791048679786" lon="-8.05331354884566"><ele>842.0</ele><time>2026-04-29T11:11:21.001Z</time></trkpt><trkpt lat="42.153785905388546" lon="-8.05321119100546"><ele>842.0</ele><time>2026-04-29T11:11:23.002Z</time></trkpt><trkpt lat="42.15380082445525" lon="-8.053023573342484"><ele>842.0</ele><time>2026-04-29T11:11:25.002Z</time></trkpt><trkpt lat="42.153826862698814" lon="-8.052887924093705"><ele>842.0</ele><time>2026-04-29T11:11:26.002Z</time></trkpt><trkpt lat="42.15386363731048" lon="-8.052774796914534"><ele>842.0000000000001</ele><time>2026-04-29T11:11:27.002Z</time></trkpt><trkpt lat="42.15389572875184" lon="-8.052683142984407"><ele>842.0</ele><time>2026-04-29T11:11:28.002Z</time></trkpt><trkpt lat="42.15393805819598" lon="-8.052603889550737"><ele>842.0</ele><time>2026-04-29T11:11:29.002Z</time></trkpt><trkpt lat="42.15399079087508" lon="-8.052526310240184"><ele>842.0</ele><time>2026-04-29T11:11:30.002Z</time></trkpt><trkpt lat="42.15406833663851" lon="-8.052457869422186"><ele>842.0000000000001</ele><time>2026-04-29T11:11:31.002Z</time></trkpt><trkpt lat="42.154146158494115" lon="-8.052391476185463"><ele>842.0</ele><time>2026-04-29T11:11:32.002Z</time></trkpt><trkpt lat="42.154204307008165" lon="-8.052342230687039"><ele>843.5000000000001</ele><time>2026-04-29T11:11:33.002Z</time></trkpt><trkpt lat="42.15428602297745" lon="-8.052259272790995"><ele>845.0</ele><time>2026-04-29T11:11:35.002Z</time></trkpt><trkpt lat="42.154338240136475" lon="-8.052156962826539"><ele>846.5</ele><time>2026-04-29T11:11:37.002Z</time></trkpt><trkpt lat="42.154395292309964" lon="-8.052052228623753"><ele>848.0</ele><time>2026-04-29T11:11:39.002Z</time></trkpt><trkpt lat="42.15443909193241" lon="-8.05198271915248"><ele>849.5000000000001</ele><time>2026-04-29T11:11:40.002Z</time></trkpt><trkpt lat="42.1544725907865" lon="-8.05189320564888"><ele>851.0</ele><time>2026-04-29T11:11:41.002Z</time></trkpt><trkpt lat="42.15448837392671" lon="-8.051766608087629"><ele>851.1999999999999</ele><time>2026-04-29T11:11:42.002Z</time></trkpt><trkpt lat="42.15448244179229" lon="-8.05161982180495"><ele>851.4</ele><time>2026-04-29T11:11:43.002Z</time></trkpt><trkpt lat="42.15447491291317" lon="-8.051490431387016"><ele>851.6</ele><time>2026-04-29T11:11:44.002Z</time></trkpt><trkpt lat="42.15449718776586" lon="-8.051378723160203"><ele>851.8</ele><time>2026-04-29T11:11:45.002Z</time></trkpt><trkpt lat="42.154530431559664" lon="-8.05127343933433"><ele>852.0</ele><time>2026-04-29T11:11:46.002Z</time></trkpt><trkpt lat="42.15457215539759" lon="-8.05116643845865"><ele>852.0</ele><time>2026-04-29T11:11:47.002Z</time></trkpt><trkpt lat="42.15461337740431" lon="-8.051063636117698"><ele>852.0</ele><time>2026-04-29T11:11:48.002Z</time></trkpt><trkpt lat="42.154679051406895" lon="-8.050963414381592"><ele>852.0</ele><time>2026-04-29T11:11:50.001Z</time></trkpt><trkpt lat="42.15472953496209" lon="-8.050789435638018"><ele>852.0</ele><time>2026-04-29T11:11:52.001Z</time></trkpt><trkpt lat="42.1547652200732" lon="-8.050659413900151"><ele>852.0</ele><time>2026-04-29T11:11:53.001Z</time></trkpt><trkpt lat="42.154815214600305" lon="-8.050538394314623"><ele>852.0</ele><time>2026-04-29T11:11:54.001Z</time></trkpt><trkpt lat="42.154833508264886" lon="-8.050442900298314"><ele>852.0</ele><time>2026-04-29T11:11:55.001Z</time></trkpt><trkpt lat="42.154832392532086" lon="-8.050317678211757"><ele>852.0</ele><time>2026-04-29T11:11:56.001Z</time></trkpt><trkpt lat="42.154839305172004" lon="-8.050206941119074"><ele>852.0</ele><time>2026-04-29T11:11:57.001Z</time></trkpt><trkpt lat="42.154874353311506" lon="-8.05011174807538"><ele>852.0</ele><time>2026-04-29T11:11:58.001Z</time></trkpt><trkpt lat="42.1549045912008" lon="-8.050003164729635"><ele>852.0</ele><time>2026-04-29T11:11:59.001Z</time></trkpt><trkpt lat="42.15489460606126" lon="-8.049880938288547"><ele>850.1666666666666</ele><time>2026-04-29T11:12:01.001Z</time></trkpt><trkpt lat="42.15487075392754" lon="-8.049713479985229"><ele>848.3333333333333</ele><time>2026-04-29T11:12:03.001Z</time></trkpt><trkpt lat="42.15486384423341" lon="-8.049628136759626"><ele>846.5</ele><time>2026-04-29T11:12:04.001Z</time></trkpt><trkpt lat="42.15484237559777" lon="-8.049496664205442"><ele>844.6666666666666</ele><time>2026-04-29T11:12:06.001Z</time></trkpt><trkpt lat="42.154842849462014" lon="-8.049408282061915"><ele>842.8333333333333</ele><time>2026-04-29T11:12:08.001Z</time></trkpt><trkpt lat="42.15482525514591" lon="-8.049310334582161"><ele>841.0</ele><time>2026-04-29T11:12:11.001Z</time></trkpt><trkpt lat="42.15483505890191" lon="-8.049206836960973"><ele>839.4</ele><time>2026-04-29T11:12:14.001Z</time></trkpt><trkpt lat="42.154843417034826" lon="-8.04906097936725"><ele>837.8</ele><time>2026-04-29T11:12:16.001Z</time></trkpt><trkpt lat="42.154861531909425" lon="-8.048967997990177"><ele>836.1999999999999</ele><time>2026-04-29T11:12:17.001Z</time></trkpt><trkpt lat="42.15492279234035" lon="-8.04888965217137"><ele>834.5999999999999</ele><time>2026-04-29T11:12:19.001Z</time></trkpt><trkpt lat="42.15494941493378" lon="-8.048754610878431"><ele>833.0</ele><time>2026-04-29T11:12:22.001Z</time></trkpt><trkpt lat="42.15494774537165" lon="-8.048586054236168"><ele>830.8333333333334</ele><time>2026-04-29T11:12:24.001Z</time></trkpt><trkpt lat="42.15497692659828" lon="-8.048457917037956"><ele>828.6666666666667</ele><time>2026-04-29T11:12:26.001Z</time></trkpt><trkpt lat="42.15500134353112" lon="-8.04836598482041"><ele>826.5</ele><time>2026-04-29T11:12:28.001Z</time></trkpt><trkpt lat="42.15498233513104" lon="-8.048211371145094"><ele>824.3333333333333</ele><time>2026-04-29T11:12:30.001Z</time></trkpt><trkpt lat="42.15495723979887" lon="-8.048122721857581"><ele>822.1666666666666</ele><time>2026-04-29T11:12:32.001Z</time></trkpt><trkpt lat="42.1550044233578" lon="-8.048055093100562"><ele>820.0</ele><time>2026-04-29T11:12:35.001Z</time></trkpt><trkpt lat="42.15501964067813" lon="-8.047937792018681"><ele>819.2</ele><time>2026-04-29T11:12:38.001Z</time></trkpt><trkpt lat="42.155072953710764" lon="-8.047880248067413"><ele>818.4</ele><time>2026-04-29T11:12:40.001Z</time></trkpt><trkpt lat="42.15512959794758" lon="-8.047826788184107"><ele>817.5999999999999</ele><time>2026-04-29T11:12:42.001Z</time></trkpt><trkpt lat="42.15517824727581" lon="-8.047739123157237"><ele>816.8</ele><time>2026-04-29T11:12:44.001Z</time></trkpt><trkpt lat="42.15521978204315" lon="-8.047541470377512"><ele>816.0</ele><time>2026-04-29T11:12:46.001Z</time></trkpt><trkpt lat="42.15525970655" lon="-8.047355146607137"><ele>815.25</ele><time>2026-04-29T11:12:47.001Z</time></trkpt><trkpt lat="42.1553258201774" lon="-8.047138837446093"><ele>814.5</ele><time>2026-04-29T11:12:48.001Z</time></trkpt><trkpt lat="42.155397830073554" lon="-8.046968543966734"><ele>813.75</ele><time>2026-04-29T11:12:49.001Z</time></trkpt><trkpt lat="42.15545737777989" lon="-8.046844981615472"><ele>813.0</ele><time>2026-04-29T11:12:50.001Z</time></trkpt><trkpt lat="42.15549587887989" lon="-8.046742999914086"><ele>809.25</ele><time>2026-04-29T11:12:51.001Z</time></trkpt><trkpt lat="42.15552288104704" lon="-8.046610072439908"><ele>805.5</ele><time>2026-04-29T11:12:52.001Z</time></trkpt><trkpt lat="42.15554268162834" lon="-8.046467445756283"><ele>801.75</ele><time>2026-04-29T11:12:53.001Z</time></trkpt><trkpt lat="42.15555610671855" lon="-8.046300313175546"><ele>798.0</ele><time>2026-04-29T11:12:54.001Z</time></trkpt><trkpt lat="42.155574020848746" lon="-8.04612984696339"><ele>798.0</ele><time>2026-04-29T11:12:55.001Z</time></trkpt><trkpt lat="42.155582534854965" lon="-8.045956696060122"><ele>798.0</ele><time>2026-04-29T11:12:56.001Z</time></trkpt><trkpt lat="42.15560363638676" lon="-8.045781715932153"><ele>798.0</ele><time>2026-04-29T11:12:57.001Z</time></trkpt><trkpt lat="42.15563246714256" lon="-8.045622681786076"><ele>798.0</ele><time>2026-04-29T11:12:58.001Z</time></trkpt><trkpt lat="42.15565739204778" lon="-8.045507647833874"><ele>794.5999999999999</ele><time>2026-04-29T11:12:59.001Z</time></trkpt><trkpt lat="42.15566927389044" lon="-8.045383050085073"><ele>791.1999999999999</ele><time>2026-04-29T11:13:00.001Z</time></trkpt><trkpt lat="42.15566363788884" lon="-8.04526534502848"><ele>787.8</ele><time>2026-04-29T11:13:01.001Z</time></trkpt><trkpt lat="42.15565546470411" lon="-8.04514096937939"><ele>784.4</ele><time>2026-04-29T11:13:02.001Z</time></trkpt><trkpt lat="42.15566978742592" lon="-8.045004896776227"><ele>781.0</ele><time>2026-04-29T11:13:03.001Z</time></trkpt><trkpt lat="42.15570285777093" lon="-8.044863005711171"><ele>780.4</ele><time>2026-04-29T11:13:04.001Z</time></trkpt><trkpt lat="42.15575305355726" lon="-8.044706474491399"><ele>779.8</ele><time>2026-04-29T11:13:05.001Z</time></trkpt><trkpt lat="42.155817920440825" lon="-8.044570578690674"><ele>779.1999999999999</ele><time>2026-04-29T11:13:06.001Z</time></trkpt><trkpt lat="42.15586415096501" lon="-8.044466575766581"><ele>778.5999999999999</ele><time>2026-04-29T11:13:07.001Z</time></trkpt><trkpt lat="42.15589875640947" lon="-8.044378430139115"><ele>778.0</ele><time>2026-04-29T11:13:08.001Z</time></trkpt><trkpt lat="42.15590517312874" lon="-8.044269600738962"><ele>777.0</ele><time>2026-04-29T11:13:09.001Z</time></trkpt><trkpt lat="42.155877912493395" lon="-8.044123829778366"><ele>776.0</ele><time>2026-04-29T11:13:10.001Z</time></trkpt><trkpt lat="42.15585942021671" lon="-8.043947084396306"><ele>775.0</ele><time>2026-04-29T11:13:11.001Z</time></trkpt><trkpt lat="42.15585235104453" lon="-8.043786496440335"><ele>774.0</ele><time>2026-04-29T11:13:12.001Z</time></trkpt><trkpt lat="42.15583210703084" lon="-8.043626306957504"><ele>774.0</ele><time>2026-04-29T11:13:13.001Z</time></trkpt><trkpt lat="42.15581053288157" lon="-8.043439497954562"><ele>774.0</ele><time>2026-04-29T11:13:14.001Z</time></trkpt><trkpt lat="42.15580287175803" lon="-8.043252847306295"><ele>774.0</ele><time>2026-04-29T11:13:15.001Z</time></trkpt><trkpt lat="42.15579622202311" lon="-8.043087334692501"><ele>774.0</ele><time>2026-04-29T11:13:16.001Z</time></trkpt><trkpt lat="42.15578958369026" lon="-8.042940716409532"><ele>771.8000000000001</ele><time>2026-04-29T11:13:17.001Z</time></trkpt><trkpt lat="42.155789232648445" lon="-8.042790769032054"><ele>769.6</ele><time>2026-04-29T11:13:18.001Z</time></trkpt><trkpt lat="42.15579552635923" lon="-8.042659098417523"><ele>767.4</ele><time>2026-04-29T11:13:19.001Z</time></trkpt><trkpt lat="42.155823856285444" lon="-8.042511715785754"><ele>765.2</ele><time>2026-04-29T11:13:20.001Z</time></trkpt><trkpt lat="42.155873796837525" lon="-8.042358195268319"><ele>763.0</ele><time>2026-04-29T11:13:21.001Z</time></trkpt><trkpt lat="42.15592216562318" lon="-8.042224813998372"><ele>760.2</ele><time>2026-04-29T11:13:22.001Z</time></trkpt><trkpt lat="42.15596946095635" lon="-8.04209088833952"><ele>757.4</ele><time>2026-04-29T11:13:23.001Z</time></trkpt><trkpt lat="42.15601242727392" lon="-8.041952792838664"><ele>754.6</ele><time>2026-04-29T11:13:24.001Z</time></trkpt><trkpt lat="42.156067582016625" lon="-8.04183312042235"><ele>751.8000000000001</ele><time>2026-04-29T11:13:25.001Z</time></trkpt><trkpt lat="42.15612824452425" lon="-8.041735329384155"><ele>749.0</ele><time>2026-04-29T11:13:26.001Z</time></trkpt><trkpt lat="42.15622077974275" lon="-8.04163110781504"><ele>746.25</ele><time>2026-04-29T11:13:27.001Z</time></trkpt><trkpt lat="42.15632977990817" lon="-8.04153966504979"><ele>743.5</ele><time>2026-04-29T11:13:28.001Z</time></trkpt><trkpt lat="42.15644791982959" lon="-8.041460028885401"><ele>740.75</ele><time>2026-04-29T11:13:29.001Z</time></trkpt><trkpt lat="42.156581609762476" lon="-8.041393970328743"><ele>738.0</ele><time>2026-04-29T11:13:30.002Z</time></trkpt><trkpt lat="42.15671160058913" lon="-8.041332714992786"><ele>738.0</ele><time>2026-04-29T11:13:31.002Z</time></trkpt><trkpt lat="42.1568604402461" lon="-8.041266978578372"><ele>738.0</ele><time>2026-04-29T11:13:32.002Z</time></trkpt><trkpt lat="42.156996444524836" lon="-8.041194245291"><ele>738.0</ele><time>2026-04-29T11:13:33.002Z</time></trkpt><trkpt lat="42.157114750571985" lon="-8.04111358546136"><ele>738.0</ele><time>2026-04-29T11:13:34.002Z</time></trkpt><trkpt lat="42.15723524234384" lon="-8.041051449017877"><ele>738.0</ele><time>2026-04-29T11:13:35.002Z</time></trkpt><trkpt lat="42.15736145121515" lon="-8.041000168100748"><ele>738.0</ele><time>2026-04-29T11:13:36.002Z</time></trkpt><trkpt lat="42.15749212059166" lon="-8.040951217488232"><ele>738.0</ele><time>2026-04-29T11:13:37.002Z</time></trkpt><trkpt lat="42.1576095031067" lon="-8.040877163076452"><ele>738.0</ele><time>2026-04-29T11:13:38.002Z</time></trkpt><trkpt lat="42.15771209852096" lon="-8.040797937137446"><ele>735.5</ele><time>2026-04-29T11:13:39.002Z</time></trkpt><trkpt lat="42.157822359325294" lon="-8.040730979367858"><ele>733.0</ele><time>2026-04-29T11:13:40.002Z</time></trkpt><trkpt lat="42.1579130897914" lon="-8.040672429595107"><ele>730.5</ele><time>2026-04-29T11:13:41.002Z</time></trkpt><trkpt lat="42.158024419152206" lon="-8.040631079301393"><ele>728.0</ele><time>2026-04-29T11:13:42.002Z</time></trkpt><trkpt lat="42.15814877071651" lon="-8.04059918277852"><ele>728.8</ele><time>2026-04-29T11:13:43.002Z</time></trkpt><trkpt lat="42.15826958542029" lon="-8.040558041685825"><ele>729.5999999999999</ele><time>2026-04-29T11:13:44.002Z</time></trkpt><trkpt lat="42.15836707611521" lon="-8.040527054268876"><ele>730.4000000000001</ele><time>2026-04-29T11:13:45.002Z</time></trkpt><trkpt lat="42.158440050068194" lon="-8.040481125893416"><ele>731.2</ele><time>2026-04-29T11:13:46.002Z</time></trkpt><trkpt lat="42.15851904223916" lon="-8.040496259983962"><ele>732.0</ele><time>2026-04-29T11:13:48.002Z</time></trkpt><trkpt lat="42.158552103302505" lon="-8.040580186358662"><ele>732.0</ele><time>2026-04-29T11:13:50.002Z</time></trkpt><trkpt lat="42.15857167476275" lon="-8.04069269705091"><ele>732.0</ele><time>2026-04-29T11:13:51.002Z</time></trkpt><trkpt lat="42.158579990300524" lon="-8.040814853449737"><ele>732.0</ele><time>2026-04-29T11:13:52.002Z</time></trkpt><trkpt lat="42.15856696470888" lon="-8.040920386801286"><ele>732.0</ele><time>2026-04-29T11:13:53.002Z</time></trkpt><trkpt lat="42.158527944918056" lon="-8.041002143393682"><ele>732.0</ele><time>2026-04-29T11:13:54.002Z</time></trkpt><trkpt lat="42.15844476838491" lon="-8.041097193769149"><ele>732.0</ele><time>2026-04-29T11:13:55.001Z</time></trkpt><trkpt lat="42.158324122793836" lon="-8.041218308281474"><ele>733.25</ele><time>2026-04-29T11:13:56.001Z</time></trkpt><trkpt lat="42.15820030818305" lon="-8.04133837210016"><ele>734.5</ele><time>2026-04-29T11:13:57.001Z</time></trkpt><trkpt lat="42.15810533622701" lon="-8.04145856801199"><ele>735.75</ele><time>2026-04-29T11:13:58.001Z</time></trkpt><trkpt lat="42.15803487988138" lon="-8.041578544657193"><ele>737.0</ele><time>2026-04-29T11:13:59.001Z</time></trkpt><trkpt lat="42.15797452415383" lon="-8.041726636599424"><ele>737.8</ele><time>2026-04-29T11:14:00.001Z</time></trkpt><trkpt lat="42.157936474006675" lon="-8.04184883892345"><ele>738.6</ele><time>2026-04-29T11:14:01.001Z</time></trkpt><trkpt lat="42.15793158098692" lon="-8.041974524950446"><ele>739.4</ele><time>2026-04-29T11:14:02.001Z</time></trkpt><trkpt lat="42.15794690771845" lon="-8.042126953769456"><ele>740.1999999999999</ele><time>2026-04-29T11:14:03.001Z</time></trkpt><trkpt lat="42.157984487460354" lon="-8.042299298028256"><ele>741.0</ele><time>2026-04-29T11:14:04.001Z</time></trkpt><trkpt lat="42.158033918037425" lon="-8.042458812238634"><ele>742.0</ele><time>2026-04-29T11:14:05.001Z</time></trkpt><trkpt lat="42.158095507420974" lon="-8.04264136434228"><ele>743.0</ele><time>2026-04-29T11:14:06.001Z</time></trkpt><trkpt lat="42.158159933929035" lon="-8.042824163627898"><ele>744.0</ele><time>2026-04-29T11:14:07.001Z</time></trkpt><trkpt lat="42.15822144158954" lon="-8.04297822142229"><ele>745.0</ele><time>2026-04-29T11:14:08.001Z</time></trkpt><trkpt lat="42.15828037461761" lon="-8.043127628134558"><ele>739.0</ele><time>2026-04-29T11:14:09.001Z</time></trkpt><trkpt lat="42.158335115240014" lon="-8.04323437553325"><ele>733.0</ele><time>2026-04-29T11:14:10.001Z</time></trkpt><trkpt lat="42.15839321519927" lon="-8.043347587591818"><ele>727.0</ele><time>2026-04-29T11:14:11.001Z</time></trkpt><trkpt lat="42.15845518331867" lon="-8.043481296324083"><ele>721.0</ele><time>2026-04-29T11:14:12.001Z</time></trkpt><trkpt lat="42.15851784605795" lon="-8.04364330895442"><ele>721.0</ele><time>2026-04-29T11:14:13.001Z</time></trkpt><trkpt lat="42.158563801187505" lon="-8.04379113030809"><ele>721.0</ele><time>2026-04-29T11:14:14.001Z</time></trkpt><trkpt lat="42.158584977885404" lon="-8.043873664539722"><ele>721.0</ele><time>2026-04-29T11:14:15.001Z</time></trkpt><trkpt lat="42.15863221790423" lon="-8.043762066627181"><ele>721.0</ele><time>2026-04-29T11:14:20.001Z</time></trkpt><trkpt lat="42.15861909996682" lon="-8.043657351293673"><ele>721.0</ele><time>2026-04-29T11:14:21.001Z</time></trkpt><trkpt lat="42.15861445044237" lon="-8.04350289157115"><ele>721.0</ele><time>2026-04-29T11:14:22.001Z</time></trkpt><trkpt lat="42.15860208947715" lon="-8.043357889770814"><ele>721.0</ele><time>2026-04-29T11:14:23.001Z</time></trkpt><trkpt lat="42.15859242560493" lon="-8.043249278035637"><ele>721.0</ele><time>2026-04-29T11:14:24.001Z</time></trkpt><trkpt lat="42.15857939869427" lon="-8.043161027741592"><ele>721.0</ele><time>2026-04-29T11:14:25.001Z</time></trkpt><trkpt lat="42.15866190917569" lon="-8.043109252533895"><ele>721.0</ele><time>2026-04-29T11:14:29.001Z</time></trkpt><trkpt lat="42.15878277023408" lon="-8.043192327440188"><ele>721.0</ele><time>2026-04-29T11:14:31.001Z</time></trkpt><trkpt lat="42.15885118111948" lon="-8.043237585020073"><ele>721.0</ele><time>2026-04-29T11:14:32.001Z</time></trkpt><trkpt lat="42.158922406717146" lon="-8.043274575279572"><ele>721.0</ele><time>2026-04-29T11:14:33.001Z</time></trkpt><trkpt lat="42.15898295039264" lon="-8.043302959945207"><ele>721.0</ele><time>2026-04-29T11:14:34.001Z</time></trkpt><trkpt lat="42.159052671584405" lon="-8.043333846572315"><ele>721.0</ele><time>2026-04-29T11:14:36.001Z</time></trkpt><trkpt lat="42.1591436108629" lon="-8.043217155057588"><ele>721.0</ele><time>2026-04-29T11:14:38.001Z</time></trkpt><trkpt lat="42.159221087886976" lon="-8.043090544220927"><ele>716.6666666666667</ele><time>2026-04-29T11:14:40.001Z</time></trkpt><trkpt lat="42.15926626472934" lon="-8.043006651155766"><ele>712.3333333333334</ele><time>2026-04-29T11:14:41.001Z</time></trkpt><trkpt lat="42.15930417053295" lon="-8.04292355994463"><ele>708.0</ele><time>2026-04-29T11:14:42.001Z</time></trkpt><trkpt lat="42.15933342102198" lon="-8.042844128019132"><ele>703.6666666666666</ele><time>2026-04-29T11:14:43.001Z</time></trkpt><trkpt lat="42.159358658524454" lon="-8.042749349922156"><ele>699.3333333333333</ele><time>2026-04-29T11:14:45.001Z</time></trkpt><trkpt lat="42.15936977813717" lon="-8.042634121986842"><ele>695.0</ele><time>2026-04-29T11:14:47.001Z</time></trkpt><trkpt lat="42.15939803882303" lon="-8.042531701973086"><ele>695.0</ele><time>2026-04-29T11:14:49.001Z</time></trkpt><trkpt lat="42.159502032029806" lon="-8.04251857408114"><ele>695.0</ele><time>2026-04-29T11:14:52.001Z</time></trkpt><trkpt lat="42.15959322781126" lon="-8.042525332020798"><ele>695.0</ele><time>2026-04-29T11:14:53.001Z</time></trkpt><trkpt lat="42.15972368754186" lon="-8.04252043338734"><ele>695.0</ele><time>2026-04-29T11:14:55.001Z</time></trkpt><trkpt lat="42.15982791675975" lon="-8.042495617915922"><ele>695.0</ele><time>2026-04-29T11:14:56.001Z</time></trkpt><trkpt lat="42.15991994125263" lon="-8.04246684652886"><ele>693.2</ele><time>2026-04-29T11:14:57.001Z</time></trkpt><trkpt lat="42.15999711734888" lon="-8.042427194962203"><ele>691.4</ele><time>2026-04-29T11:14:58.001Z</time></trkpt><trkpt lat="42.16007463024074" lon="-8.042370302931804"><ele>689.5999999999999</ele><time>2026-04-29T11:14:59.001Z</time></trkpt><trkpt lat="42.16016049009146" lon="-8.042283243007594"><ele>687.8</ele><time>2026-04-29T11:15:00.001Z</time></trkpt><trkpt lat="42.16022638415809" lon="-8.042200506503596"><ele>686.0</ele><time>2026-04-29T11:15:01.001Z</time></trkpt><trkpt lat="42.160301304335206" lon="-8.042128734142304"><ele>686.0</ele><time>2026-04-29T11:15:02.001Z</time></trkpt><trkpt lat="42.160389956827274" lon="-8.042066724171777"><ele>686.0</ele><time>2026-04-29T11:15:03.001Z</time></trkpt><trkpt lat="42.16049686268461" lon="-8.042004876493777"><ele>686.0</ele><time>2026-04-29T11:15:04.001Z</time></trkpt><trkpt lat="42.16061130354585" lon="-8.041950718329131"><ele>686.0</ele><time>2026-04-29T11:15:05.001Z</time></trkpt><trkpt lat="42.16069838214237" lon="-8.0418759118147"><ele>686.0</ele><time>2026-04-29T11:15:06.001Z</time></trkpt><trkpt lat="42.160779660115566" lon="-8.041779613053704"><ele>684.0</ele><time>2026-04-29T11:15:07.001Z</time></trkpt><trkpt lat="42.16086215826775" lon="-8.041675329629618"><ele>682.0</ele><time>2026-04-29T11:15:08.001Z</time></trkpt><trkpt lat="42.16091944521501" lon="-8.04157344837248"><ele>680.0</ele><time>2026-04-29T11:15:09.001Z</time></trkpt><trkpt lat="42.160981394609756" lon="-8.041464678499098"><ele>678.0</ele><time>2026-04-29T11:15:10.001Z</time></trkpt><trkpt lat="42.16104339771858" lon="-8.041334445770751"><ele>676.0</ele><time>2026-04-29T11:15:11.001Z</time></trkpt><trkpt lat="42.161125175371694" lon="-8.041204871720163"><ele>676.0</ele><time>2026-04-29T11:15:12.001Z</time></trkpt><trkpt lat="42.16120705256024" lon="-8.041090130319562"><ele>676.0</ele><time>2026-04-29T11:15:13.001Z</time></trkpt><trkpt lat="42.161291130894554" lon="-8.04097314695289"><ele>676.0</ele><time>2026-04-29T11:15:14.001Z</time></trkpt><trkpt lat="42.16136317094289" lon="-8.04085524310681"><ele>676.0</ele><time>2026-04-29T11:15:15.001Z</time></trkpt><trkpt lat="42.161425856500465" lon="-8.040718953745028"><ele>677.5999999999999</ele><time>2026-04-29T11:15:16.001Z</time></trkpt><trkpt lat="42.161477697758954" lon="-8.04059125896834"><ele>679.2</ele><time>2026-04-29T11:15:17.001Z</time></trkpt><trkpt lat="42.161509902786015" lon="-8.040481977190057"><ele>680.8</ele><time>2026-04-29T11:15:18.001Z</time></trkpt><trkpt lat="42.1615758435977" lon="-8.040385592646954"><ele>682.4000000000001</ele><time>2026-04-29T11:15:19.001Z</time></trkpt><trkpt lat="42.1616377181722" lon="-8.040281660006828"><ele>684.0</ele><time>2026-04-29T11:15:20.001Z</time></trkpt><trkpt lat="42.16168158345004" lon="-8.040177253231722"><ele>677.2</ele><time>2026-04-29T11:15:21.001Z</time></trkpt><trkpt lat="42.16172148818521" lon="-8.040043993851606"><ele>670.4000000000001</ele><time>2026-04-29T11:15:22.001Z</time></trkpt><trkpt lat="42.16175044249096" lon="-8.039899810374788"><ele>663.6</ele><time>2026-04-29T11:15:23.001Z</time></trkpt><trkpt lat="42.161777156888064" lon="-8.039763328111409"><ele>656.8</ele><time>2026-04-29T11:15:24.001Z</time></trkpt><trkpt lat="42.16179830626788" lon="-8.039627209649158"><ele>650.0</ele><time>2026-04-29T11:15:25.001Z</time></trkpt><trkpt lat="42.161803677011406" lon="-8.039486950561997"><ele>648.6</ele><time>2026-04-29T11:15:26.001Z</time></trkpt><trkpt lat="42.16180430460017" lon="-8.039361031453641"><ele>647.2</ele><time>2026-04-29T11:15:27.001Z</time></trkpt><trkpt lat="42.161810418229216" lon="-8.039228838503806"><ele>645.8</ele><time>2026-04-29T11:15:28.001Z</time></trkpt><trkpt lat="42.16180546899801" lon="-8.039067527215817"><ele>644.4</ele><time>2026-04-29T11:15:29.001Z</time></trkpt><trkpt lat="42.16179528237429" lon="-8.038943916581825"><ele>643.0</ele><time>2026-04-29T11:15:30.001Z</time></trkpt><trkpt lat="42.161798267505645" lon="-8.038830166356645"><ele>641.5</ele><time>2026-04-29T11:15:31.001Z</time></trkpt><trkpt lat="42.16181120502525" lon="-8.038686212648882"><ele>640.0</ele><time>2026-04-29T11:15:32.001Z</time></trkpt><trkpt lat="42.16184104032207" lon="-8.038520602852001"><ele>638.5</ele><time>2026-04-29T11:15:33.001Z</time></trkpt><trkpt lat="42.16185123162686" lon="-8.038363860198395"><ele>637.0</ele><time>2026-04-29T11:15:34.001Z</time></trkpt><trkpt lat="42.16186110341897" lon="-8.038229767084001"><ele>635.2</ele><time>2026-04-29T11:15:35.001Z</time></trkpt><trkpt lat="42.161857110238415" lon="-8.038098230592942"><ele>633.4000000000001</ele><time>2026-04-29T11:15:36.001Z</time></trkpt><trkpt lat="42.16183873319045" lon="-8.037975410134555"><ele>631.5999999999999</ele><time>2026-04-29T11:15:37.001Z</time></trkpt><trkpt lat="42.161814510431135" lon="-8.037830576245371"><ele>629.8</ele><time>2026-04-29T11:15:38.001Z</time></trkpt><trkpt lat="42.16178685704914" lon="-8.037677579120416"><ele>628.0</ele><time>2026-04-29T11:15:39.001Z</time></trkpt><trkpt lat="42.1617562651668" lon="-8.037534011593534"><ele>625.8</ele><time>2026-04-29T11:15:40.001Z</time></trkpt><trkpt lat="42.16172569851483" lon="-8.03740140291904"><ele>623.5999999999999</ele><time>2026-04-29T11:15:41.001Z</time></trkpt><trkpt lat="42.16169713478923" lon="-8.037271828006888"><ele>621.4000000000001</ele><time>2026-04-29T11:15:42.001Z</time></trkpt><trkpt lat="42.16166162546618" lon="-8.03713764531837"><ele>619.2</ele><time>2026-04-29T11:15:43.001Z</time></trkpt><trkpt lat="42.161624709357945" lon="-8.036996318655536"><ele>617.0</ele><time>2026-04-29T11:15:44.001Z</time></trkpt><trkpt lat="42.161602742783174" lon="-8.036868424385318"><ele>617.0</ele><time>2026-04-29T11:15:45.001Z</time></trkpt><trkpt lat="42.161586718723974" lon="-8.036697864723221"><ele>617.0</ele><time>2026-04-29T11:15:46.001Z</time></trkpt><trkpt lat="42.16156618835579" lon="-8.03651623776501"><ele>617.0</ele><time>2026-04-29T11:15:47.001Z</time></trkpt><trkpt lat="42.16153282772849" lon="-8.03637629010782"><ele>617.0</ele><time>2026-04-29T11:15:48.001Z</time></trkpt><trkpt lat="42.16149120890414" lon="-8.036250038683256"><ele>618.2</ele><time>2026-04-29T11:15:49.001Z</time></trkpt><trkpt lat="42.16142696229982" lon="-8.036127165694277"><ele>619.4000000000001</ele><time>2026-04-29T11:15:50.001Z</time></trkpt><trkpt lat="42.161356421440395" lon="-8.036039705367177"><ele>620.5999999999999</ele><time>2026-04-29T11:15:51.001Z</time></trkpt><trkpt lat="42.16129415441378" lon="-8.035928808735303"><ele>621.8</ele><time>2026-04-29T11:15:52.002Z</time></trkpt><trkpt lat="42.16122475577743" lon="-8.035812861092198"><ele>623.0</ele><time>2026-04-29T11:15:53.002Z</time></trkpt><trkpt lat="42.16114878529016" lon="-8.035703040593436"><ele>618.25</ele><time>2026-04-29T11:15:54.002Z</time></trkpt><trkpt lat="42.16105392568143" lon="-8.035583565101545"><ele>613.5</ele><time>2026-04-29T11:15:55.002Z</time></trkpt><trkpt lat="42.16096005769747" lon="-8.035448995116596"><ele>608.75</ele><time>2026-04-29T11:15:56.002Z</time></trkpt><trkpt lat="42.16089113657651" lon="-8.035335229432075"><ele>604.0</ele><time>2026-04-29T11:15:57.002Z</time></trkpt><trkpt lat="42.160849867395626" lon="-8.035224095599872"><ele>604.0</ele><time>2026-04-29T11:15:58.002Z</time></trkpt><trkpt lat="42.16081362892846" lon="-8.035116665836506"><ele>604.0</ele><time>2026-04-29T11:15:59.002Z</time></trkpt><trkpt lat="42.16075331473451" lon="-8.035005064939583"><ele>604.0</ele><time>2026-04-29T11:16:00.002Z</time></trkpt><trkpt lat="42.16067980202561" lon="-8.034929264460777"><ele>604.0</ele><time>2026-04-29T11:16:01.001Z</time></trkpt><trkpt lat="42.16061515571256" lon="-8.034850671381815"><ele>604.0</ele><time>2026-04-29T11:16:02.001Z</time></trkpt><trkpt lat="42.16054978438363" lon="-8.034774128886308"><ele>601.8333333333334</ele><time>2026-04-29T11:16:03.001Z</time></trkpt><trkpt lat="42.160498444309404" lon="-8.034713517190205"><ele>599.6666666666667</ele><time>2026-04-29T11:16:04.001Z</time></trkpt><trkpt lat="42.16043668231401" lon="-8.034668589753215"><ele>597.5</ele><time>2026-04-29T11:16:05.001Z</time></trkpt><trkpt lat="42.16037317912171" lon="-8.034567638478453"><ele>595.3333333333334</ele><time>2026-04-29T11:16:07.001Z</time></trkpt><trkpt lat="42.160303183922146" lon="-8.03452982468955"><ele>593.1666666666666</ele><time>2026-04-29T11:16:09.001Z</time></trkpt><trkpt lat="42.1602689394997" lon="-8.034446230158215"><ele>591.0</ele><time>2026-04-29T11:16:10.001Z</time></trkpt><trkpt lat="42.16019674359012" lon="-8.034419252771094"><ele>591.0</ele><time>2026-04-29T11:16:11.001Z</time></trkpt><trkpt lat="42.16011602399395" lon="-8.034433308751982"><ele>591.0</ele><time>2026-04-29T11:16:12.001Z</time></trkpt><trkpt lat="42.16002064110036" lon="-8.034420401620167"><ele>591.0</ele><time>2026-04-29T11:16:13.001Z</time></trkpt><trkpt lat="42.159927074175876" lon="-8.034420638255543"><ele>591.0</ele><time>2026-04-29T11:16:14.001Z</time></trkpt><trkpt lat="42.15983516624327" lon="-8.03442493602382"><ele>591.0</ele><time>2026-04-29T11:16:15.001Z</time></trkpt><trkpt lat="42.159714193753516" lon="-8.034430385629426"><ele>591.0</ele><time>2026-04-29T11:16:16.001Z</time></trkpt><trkpt lat="42.15961971250923" lon="-8.034433513370653"><ele>591.0</ele><time>2026-04-29T11:16:17.001Z</time></trkpt><trkpt lat="42.15953988470204" lon="-8.034433682454734"><ele>591.0</ele><time>2026-04-29T11:16:18.001Z</time></trkpt><trkpt lat="42.15946100332708" lon="-8.034428561563034"><ele>591.0</ele><time>2026-04-29T11:16:20.001Z</time></trkpt><trkpt lat="42.15938666002321" lon="-8.034351446215238"><ele>591.0</ele><time>2026-04-29T11:16:21.001Z</time></trkpt><trkpt lat="42.15938344114577" lon="-8.03420714431302"><ele>585.75</ele><time>2026-04-29T11:16:22.001Z</time></trkpt><trkpt lat="42.15946459542679" lon="-8.034100003213354"><ele>580.5</ele><time>2026-04-29T11:16:23.001Z</time></trkpt><trkpt lat="42.15959025526208" lon="-8.034087918640514"><ele>575.25</ele><time>2026-04-29T11:16:24.001Z</time></trkpt><trkpt lat="42.159702126313526" lon="-8.034089817531118"><ele>570.0</ele><time>2026-04-29T11:16:25.001Z</time></trkpt><trkpt lat="42.1598242031091" lon="-8.034106831475881"><ele>569.2</ele><time>2026-04-29T11:16:26.001Z</time></trkpt><trkpt lat="42.15992856361512" lon="-8.034059470988405"><ele>568.4</ele><time>2026-04-29T11:16:27.001Z</time></trkpt><trkpt lat="42.160029430669155" lon="-8.03399501161909"><ele>567.6</ele><time>2026-04-29T11:16:28.001Z</time></trkpt><trkpt lat="42.160111113519434" lon="-8.03393906424305"><ele>566.8</ele><time>2026-04-29T11:16:29.001Z</time></trkpt><trkpt lat="42.16020412809219" lon="-8.033899039208098"><ele>566.0</ele><time>2026-04-29T11:16:30.001Z</time></trkpt><trkpt lat="42.16030028077385" lon="-8.033886522802273"><ele>566.0</ele><time>2026-04-29T11:16:31.001Z</time></trkpt><trkpt lat="42.1603644415678" lon="-8.033829071206974"><ele>566.0</ele><time>2026-04-29T11:16:32.001Z</time></trkpt><trkpt lat="42.16044516394588" lon="-8.033784346649574"><ele>566.0</ele><time>2026-04-29T11:16:34.001Z</time></trkpt><trkpt lat="42.16052530947805" lon="-8.03374066411653"><ele>566.0</ele><time>2026-04-29T11:16:36.001Z</time></trkpt><trkpt lat="42.16040131200953" lon="-8.033656006273889"><ele>566.0</ele><time>2026-04-29T11:16:41.001Z</time></trkpt><trkpt lat="42.16030636963485" lon="-8.033683811100355"><ele>566.0</ele><time>2026-04-29T11:16:42.001Z</time></trkpt><trkpt lat="42.16019956859939" lon="-8.03367488957179"><ele>566.0</ele><time>2026-04-29T11:16:43.001Z</time></trkpt><trkpt lat="42.16010689763481" lon="-8.033683544419816"><ele>566.0</ele><time>2026-04-29T11:16:44.001Z</time></trkpt><trkpt lat="42.16002041164311" lon="-8.033722050846825"><ele>566.0</ele><time>2026-04-29T11:16:45.001Z</time></trkpt><trkpt lat="42.1599345457812" lon="-8.033752486321454"><ele>566.0</ele><time>2026-04-29T11:16:46.001Z</time></trkpt><trkpt lat="42.159847673879284" lon="-8.033764747060554"><ele>567.0</ele><time>2026-04-29T11:16:47.001Z</time></trkpt><trkpt lat="42.15974309607709" lon="-8.03374241141203"><ele>568.0</ele><time>2026-04-29T11:16:48.001Z</time></trkpt><trkpt lat="42.159625848325554" lon="-8.033694220862959"><ele>569.0</ele><time>2026-04-29T11:16:49.001Z</time></trkpt><trkpt lat="42.15952068438112" lon="-8.033644171340312"><ele>570.0</ele><time>2026-04-29T11:16:50.001Z</time></trkpt><trkpt lat="42.159408304256736" lon="-8.033604104683851"><ele>570.0</ele><time>2026-04-29T11:16:51.001Z</time></trkpt><trkpt lat="42.159306505376215" lon="-8.033621726236005"><ele>570.0</ele><time>2026-04-29T11:16:52.001Z</time></trkpt><trkpt lat="42.159205334300864" lon="-8.033607741852903"><ele>570.0</ele><time>2026-04-29T11:16:53.001Z</time></trkpt><trkpt lat="42.15908614269957" lon="-8.033599021384909"><ele>570.0</ele><time>2026-04-29T11:16:54.001Z</time></trkpt><trkpt lat="42.158977868179264" lon="-8.03359453591829"><ele>570.0</ele><time>2026-04-29T11:16:55.001Z</time></trkpt><trkpt lat="42.158878332095284" lon="-8.033583570652798"><ele>569.8333333333334</ele><time>2026-04-29T11:16:56.001Z</time></trkpt><trkpt lat="42.15880042560149" lon="-8.033614441021351"><ele>569.6666666666666</ele><time>2026-04-29T11:16:57.001Z</time></trkpt><trkpt lat="42.15872904683789" lon="-8.033667735130752"><ele>569.5</ele><time>2026-04-29T11:16:58.001Z</time></trkpt><trkpt lat="42.15863616896326" lon="-8.033750406339184"><ele>569.3333333333333</ele><time>2026-04-29T11:16:59.001Z</time></trkpt><trkpt lat="42.15855564943646" lon="-8.033796309922414"><ele>569.1666666666666</ele><time>2026-04-29T11:17:00.001Z</time></trkpt><trkpt lat="42.15848222025128" lon="-8.033828799647152"><ele>569.0</ele><time>2026-04-29T11:17:01.001Z</time></trkpt><trkpt lat="42.15840867346086" lon="-8.033833932079801"><ele>569.0</ele><time>2026-04-29T11:17:02.001Z</time></trkpt><trkpt lat="42.15834445405304" lon="-8.033857721341843"><ele>569.0</ele><time>2026-04-29T11:17:03.001Z</time></trkpt><trkpt lat="42.15826462635888" lon="-8.03383514191154"><ele>569.0</ele><time>2026-04-29T11:17:04.001Z</time></trkpt><trkpt lat="42.158165863960534" lon="-8.033833859255335"><ele>569.0</ele><time>2026-04-29T11:17:05.001Z</time></trkpt><trkpt lat="42.158064811104346" lon="-8.033861528568016"><ele>569.0</ele><time>2026-04-29T11:17:06.001Z</time></trkpt><trkpt lat="42.157960864491436" lon="-8.033885099188455"><ele>567.6</ele><time>2026-04-29T11:17:07.001Z</time></trkpt><trkpt lat="42.15786143832113" lon="-8.033918857463023"><ele>566.2</ele><time>2026-04-29T11:17:08.001Z</time></trkpt><trkpt lat="42.15778886700721" lon="-8.033952081575437"><ele>564.8000000000001</ele><time>2026-04-29T11:17:09.001Z</time></trkpt><trkpt lat="42.15772068176355" lon="-8.034007064466964"><ele>563.4</ele><time>2026-04-29T11:17:10.001Z</time></trkpt><trkpt lat="42.15763286161829" lon="-8.034068580638724"><ele>562.0</ele><time>2026-04-29T11:17:11.001Z</time></trkpt><trkpt lat="42.15752895508405" lon="-8.0341511041885"><ele>564.2</ele><time>2026-04-29T11:17:12.001Z</time></trkpt><trkpt lat="42.157422211121904" lon="-8.03424190541957"><ele>566.4000000000001</ele><time>2026-04-29T11:17:13.001Z</time></trkpt><trkpt lat="42.15731916405333" lon="-8.034313451300198"><ele>568.5999999999999</ele><time>2026-04-29T11:17:14.001Z</time></trkpt><trkpt lat="42.15724472584462" lon="-8.034387049655743"><ele>570.8</ele><time>2026-04-29T11:17:15.001Z</time></trkpt><trkpt lat="42.1571605912926" lon="-8.034444613046183"><ele>573.0</ele><time>2026-04-29T11:17:16.001Z</time></trkpt><trkpt lat="42.15705352580071" lon="-8.034477576068722"><ele>573.0</ele><time>2026-04-29T11:17:17.001Z</time></trkpt><trkpt lat="42.15694227323108" lon="-8.034516642584673"><ele>573.0</ele><time>2026-04-29T11:17:18.001Z</time></trkpt><trkpt lat="42.15684760134022" lon="-8.034543389528071"><ele>573.0</ele><time>2026-04-29T11:17:19.001Z</time></trkpt><trkpt lat="42.156764970812816" lon="-8.034572116361293"><ele>573.0</ele><time>2026-04-29T11:17:20.001Z</time></trkpt><trkpt lat="42.156693662135226" lon="-8.034593848398197"><ele>573.0</ele><time>2026-04-29T11:17:21.001Z</time></trkpt><trkpt lat="42.15663047193263" lon="-8.034600261854703"><ele>573.0</ele><time>2026-04-29T11:17:22.001Z</time></trkpt><trkpt lat="42.15652624304253" lon="-8.03453819619485"><ele>574.8333333333334</ele><time>2026-04-29T11:17:24.001Z</time></trkpt><trkpt lat="42.156485081174615" lon="-8.034463514976595"><ele>576.6666666666666</ele><time>2026-04-29T11:17:25.001Z</time></trkpt><trkpt lat="42.15647723857527" lon="-8.034326644282888"><ele>578.5</ele><time>2026-04-29T11:17:27.001Z</time></trkpt><trkpt lat="42.15645940441173" lon="-8.034237651888914"><ele>580.3333333333333</ele><time>2026-04-29T11:17:28.001Z</time></trkpt><trkpt lat="42.156453387663674" lon="-8.034151895881294"><ele>582.1666666666666</ele><time>2026-04-29T11:17:29.001Z</time></trkpt><trkpt lat="42.156470128570916" lon="-8.03403409442138"><ele>584.0</ele><time>2026-04-29T11:17:30.001Z</time></trkpt><trkpt lat="42.15649031279001" lon="-8.03393318031857"><ele>584.0</ele><time>2026-04-29T11:17:31.001Z</time></trkpt><trkpt lat="42.15646666443475" lon="-8.033791532033352"><ele>584.0</ele><time>2026-04-29T11:17:33.001Z</time></trkpt><trkpt lat="42.156441452149714" lon="-8.033710578581061"><ele>584.0</ele><time>2026-04-29T11:17:34.001Z</time></trkpt><trkpt lat="42.156340212782126" lon="-8.033537881757848"><ele>584.0</ele><time>2026-04-29T11:17:36.001Z</time></trkpt><trkpt lat="42.156282925080845" lon="-8.033457593831894"><ele>584.0</ele><time>2026-04-29T11:17:37.001Z</time></trkpt><trkpt lat="42.156236609002015" lon="-8.033349922018207"><ele>580.8</ele><time>2026-04-29T11:17:38.001Z</time></trkpt><trkpt lat="42.15616175654253" lon="-8.033224893549805"><ele>577.5999999999999</ele><time>2026-04-29T11:17:40.001Z</time></trkpt><trkpt lat="42.15616355251442" lon="-8.033058343369365"><ele>574.4</ele><time>2026-04-29T11:17:42.001Z</time></trkpt><trkpt lat="42.156138051837736" lon="-8.032938581850269"><ele>571.1999999999999</ele><time>2026-04-29T11:17:43.001Z</time></trkpt><trkpt lat="42.156114930704035" lon="-8.032815614826728"><ele>568.0</ele><time>2026-04-29T11:17:44.001Z</time></trkpt><trkpt lat="42.15607869638756" lon="-8.032709439357877"><ele>568.0</ele><time>2026-04-29T11:17:45.001Z</time></trkpt><trkpt lat="42.156046852754415" lon="-8.03262873250706"><ele>568.0</ele><time>2026-04-29T11:17:46.001Z</time></trkpt><trkpt lat="42.15601375489901" lon="-8.032540270195486"><ele>568.0</ele><time>2026-04-29T11:17:47.001Z</time></trkpt><trkpt lat="42.155940257501896" lon="-8.032384871610452"><ele>568.0</ele><time>2026-04-29T11:17:49.001Z</time></trkpt><trkpt lat="42.15589181975477" lon="-8.032245420051147"><ele>568.0</ele><time>2026-04-29T11:17:50.001Z</time></trkpt><trkpt lat="42.15585583284913" lon="-8.032134244966878"><ele>565.8333333333334</ele><time>2026-04-29T11:17:51.001Z</time></trkpt><trkpt lat="42.15582541951956" lon="-8.032028982793703"><ele>563.6666666666667</ele><time>2026-04-29T11:17:52.001Z</time></trkpt><trkpt lat="42.155806408230575" lon="-8.031913488941589"><ele>561.5</ele><time>2026-04-29T11:17:53.001Z</time></trkpt><trkpt lat="42.15578537824222" lon="-8.031783205665588"><ele>559.3333333333334</ele><time>2026-04-29T11:17:54.001Z</time></trkpt><trkpt lat="42.15575571268212" lon="-8.031696684203398"><ele>557.1666666666666</ele><time>2026-04-29T11:17:55.001Z</time></trkpt><trkpt lat="42.155738965569654" lon="-8.031589220236555"><ele>555.0</ele><time>2026-04-29T11:17:56.001Z</time></trkpt><trkpt lat="42.155747590329874" lon="-8.031458292991493"><ele>554.5</ele><time>2026-04-29T11:17:57.001Z</time></trkpt><trkpt lat="42.15576510952603" lon="-8.031348645252493"><ele>554.0</ele><time>2026-04-29T11:17:58.001Z</time></trkpt><trkpt lat="42.15575379803595" lon="-8.031258699734666"><ele>553.5</ele><time>2026-04-29T11:17:59.001Z</time></trkpt><trkpt lat="42.15570362627749" lon="-8.03111925370374"><ele>553.0</ele><time>2026-04-29T11:18:01.001Z</time></trkpt><trkpt lat="42.155750375055185" lon="-8.031018740639125"><ele>552.5</ele><time>2026-04-29T11:18:04.001Z</time></trkpt><trkpt lat="42.15580900801806" lon="-8.030957874064246"><ele>552.0</ele><time>2026-04-29T11:18:06.001Z</time></trkpt><trkpt lat="42.15578645319625" lon="-8.030796700136884"><ele>552.0</ele><time>2026-04-29T11:18:08.001Z</time></trkpt><trkpt lat="42.15582344797668" lon="-8.030699018714728"><ele>552.0</ele><time>2026-04-29T11:18:09.001Z</time></trkpt><trkpt lat="42.155868542875524" lon="-8.030638010955231"><ele>552.0</ele><time>2026-04-29T11:18:10.001Z</time></trkpt><trkpt lat="42.15593354808507" lon="-8.030587890801812"><ele>552.0</ele><time>2026-04-29T11:18:11.001Z</time></trkpt><trkpt lat="42.15602067130051" lon="-8.030547296182379"><ele>552.0</ele><time>2026-04-29T11:18:12.001Z</time></trkpt><trkpt lat="42.15612847370078" lon="-8.03051135673568"><ele>552.0</ele><time>2026-04-29T11:18:13.001Z</time></trkpt><trkpt lat="42.15624668929868" lon="-8.030499169089719"><ele>552.0</ele><time>2026-04-29T11:18:14.001Z</time></trkpt><trkpt lat="42.15635217376062" lon="-8.030508342388382"><ele>552.0</ele><time>2026-04-29T11:18:15.001Z</time></trkpt><trkpt lat="42.15645009331743" lon="-8.030496116176804"><ele>552.0</ele><time>2026-04-29T11:18:16.001Z</time></trkpt><trkpt lat="42.15652973626219" lon="-8.03049837578084"><ele>552.0</ele><time>2026-04-29T11:18:17.001Z</time></trkpt><trkpt lat="42.1565954319332" lon="-8.030475269950784"><ele>552.0</ele><time>2026-04-29T11:18:18.001Z</time></trkpt><trkpt lat="42.156657834179796" lon="-8.03041373611103"><ele>552.0</ele><time>2026-04-29T11:18:19.001Z</time></trkpt><trkpt lat="42.15673440415614" lon="-8.030330157313045"><ele>550.25</ele><time>2026-04-29T11:18:20.001Z</time></trkpt><trkpt lat="42.1568295610893" lon="-8.030232413657542"><ele>548.5</ele><time>2026-04-29T11:18:21.001Z</time></trkpt><trkpt lat="42.15691957514238" lon="-8.030137247660404"><ele>546.75</ele><time>2026-04-29T11:18:22.001Z</time></trkpt><trkpt lat="42.15701834665966" lon="-8.03004771259374"><ele>545.0</ele><time>2026-04-29T11:18:23.001Z</time></trkpt><trkpt lat="42.157098814995976" lon="-8.029959781645456"><ele>545.0</ele><time>2026-04-29T11:18:24.001Z</time></trkpt><trkpt lat="42.15720004595463" lon="-8.029939698904306"><ele>545.0</ele><time>2026-04-29T11:18:25.001Z</time></trkpt><trkpt lat="42.15730976278046" lon="-8.029892014433946"><ele>545.0</ele><time>2026-04-29T11:18:26.001Z</time></trkpt><trkpt lat="42.157393037776394" lon="-8.029822899029433"><ele>545.0</ele><time>2026-04-29T11:18:27.001Z</time></trkpt><trkpt lat="42.157461383183005" lon="-8.029739069038463"><ele>545.0</ele><time>2026-04-29T11:18:28.001Z</time></trkpt><trkpt lat="42.15751923833096" lon="-8.029621792048653"><ele>540.8</ele><time>2026-04-29T11:18:29.001Z</time></trkpt><trkpt lat="42.157559375226334" lon="-8.029500626670735"><ele>536.6</ele><time>2026-04-29T11:18:30.001Z</time></trkpt><trkpt lat="42.15758547035482" lon="-8.029407722225805"><ele>532.4</ele><time>2026-04-29T11:18:31.001Z</time></trkpt><trkpt lat="42.15752450258481" lon="-8.029167782795142"><ele>528.2</ele><time>2026-04-29T11:18:33.001Z</time></trkpt><trkpt lat="42.157485280406924" lon="-8.029098295141885"><ele>524.0</ele><time>2026-04-29T11:18:34.001Z</time></trkpt><trkpt lat="42.157438561470144" lon="-8.029015521836447"><ele>525.2</ele><time>2026-04-29T11:18:36.001Z</time></trkpt><trkpt lat="42.1574469778136" lon="-8.028907608609874"><ele>526.4</ele><time>2026-04-29T11:18:38.001Z</time></trkpt><trkpt lat="42.157417077474676" lon="-8.028806684415974"><ele>527.6</ele><time>2026-04-29T11:18:40.001Z</time></trkpt><trkpt lat="42.15738186369361" lon="-8.028729048429476"><ele>528.8</ele><time>2026-04-29T11:18:41.001Z</time></trkpt><trkpt lat="42.15731173350081" lon="-8.028617919973321"><ele>530.0</ele><time>2026-04-29T11:18:42.001Z</time></trkpt><trkpt lat="42.15723683903514" lon="-8.028487180656947"><ele>530.0</ele><time>2026-04-29T11:18:43.001Z</time></trkpt><trkpt lat="42.15714446277322" lon="-8.028339488331445"><ele>530.0</ele><time>2026-04-29T11:18:44.001Z</time></trkpt><trkpt lat="42.1570641598875" lon="-8.028186447377202"><ele>530.0</ele><time>2026-04-29T11:18:45.001Z</time></trkpt><trkpt lat="42.15700479984631" lon="-8.028010196849987"><ele>530.0</ele><time>2026-04-29T11:18:46Z</time></trkpt><trkpt lat="42.15692583190536" lon="-8.027891677949478"><ele>524.5</ele><time>2026-04-29T11:18:47Z</time></trkpt><trkpt lat="42.15684870659418" lon="-8.027757088109615"><ele>519.0</ele><time>2026-04-29T11:18:48Z</time></trkpt><trkpt lat="42.156760195864955" lon="-8.027613726768662"><ele>513.5</ele><time>2026-04-29T11:18:49Z</time></trkpt><trkpt lat="42.156684243630906" lon="-8.02748859534055"><ele>508.0</ele><time>2026-04-29T11:18:50Z</time></trkpt><trkpt lat="42.15659998060068" lon="-8.027374607207395"><ele>505.0</ele><time>2026-04-29T11:18:51Z</time></trkpt><trkpt lat="42.15648424506358" lon="-8.027299411037252"><ele>502.0</ele><time>2026-04-29T11:18:52Z</time></trkpt><trkpt lat="42.15633391757638" lon="-8.027195688389623"><ele>499.0</ele><time>2026-04-29T11:18:53Z</time></trkpt><trkpt lat="42.15619737101506" lon="-8.027074410195059"><ele>499.0</ele><time>2026-04-29T11:18:54Z</time></trkpt><trkpt lat="42.15607363297119" lon="-8.026925985142446"><ele>499.0</ele><time>2026-04-29T11:18:55Z</time></trkpt><trkpt lat="42.15592483931176" lon="-8.026775566308142"><ele>499.0</ele><time>2026-04-29T11:18:56Z</time></trkpt><trkpt lat="42.15577943198232" lon="-8.026663245700206"><ele>495.25</ele><time>2026-04-29T11:18:57Z</time></trkpt><trkpt lat="42.155652119422584" lon="-8.02656901235776"><ele>491.5</ele><time>2026-04-29T11:18:58Z</time></trkpt><trkpt lat="42.155530244882264" lon="-8.026475506359354"><ele>487.75</ele><time>2026-04-29T11:18:59Z</time></trkpt><trkpt lat="42.15541804442225" lon="-8.026366115027276"><ele>484.0</ele><time>2026-04-29T11:19:00Z</time></trkpt><trkpt lat="42.15529316460398" lon="-8.026283695379599"><ele>484.0</ele><time>2026-04-29T11:19:01Z</time></trkpt><trkpt lat="42.15515355282015" lon="-8.02622625725754"><ele>484.0</ele><time>2026-04-29T11:19:02Z</time></trkpt><trkpt lat="42.15502700651212" lon="-8.026168714332528"><ele>484.0</ele><time>2026-04-29T11:19:03Z</time></trkpt><trkpt lat="42.15489637820566" lon="-8.026092273061975"><ele>484.0</ele><time>2026-04-29T11:19:04Z</time></trkpt><trkpt lat="42.1547618715939" lon="-8.026053915510243"><ele>484.75</ele><time>2026-04-29T11:19:05Z</time></trkpt><trkpt lat="42.15462996535357" lon="-8.026031276379825"><ele>485.5</ele><time>2026-04-29T11:19:06Z</time></trkpt><trkpt lat="42.154494573208474" lon="-8.02602601799212"><ele>486.25</ele><time>2026-04-29T11:19:07Z</time></trkpt><trkpt lat="42.15435215968281" lon="-8.025992504769947"><ele>487.0</ele><time>2026-04-29T11:19:08Z</time></trkpt><trkpt lat="42.15421457749081" lon="-8.025992173674494"><ele>487.0</ele><time>2026-04-29T11:19:09Z</time></trkpt><trkpt lat="42.15407590795577" lon="-8.026029516809032"><ele>487.0</ele><time>2026-04-29T11:19:10Z</time></trkpt><trkpt lat="42.153939923697784" lon="-8.026034992925423"><ele>487.0</ele><time>2026-04-29T11:19:11Z</time></trkpt><trkpt lat="42.15375968115617" lon="-8.026082383166466"><ele>485.0</ele><time>2026-04-29T11:19:12Z</time></trkpt><trkpt lat="42.15363927643801" lon="-8.026118865894137"><ele>483.0</ele><time>2026-04-29T11:19:13Z</time></trkpt><trkpt lat="42.153502114543365" lon="-8.026158698022565"><ele>481.0</ele><time>2026-04-29T11:19:14Z</time></trkpt><trkpt lat="42.15336923358399" lon="-8.02620074627753"><ele>479.0</ele><time>2026-04-29T11:19:15Z</time></trkpt><trkpt lat="42.15324808076549" lon="-8.02626555484619"><ele>480.0</ele><time>2026-04-29T11:19:16Z</time></trkpt><trkpt lat="42.15313570758842" lon="-8.026268136225692"><ele>481.0</ele><time>2026-04-29T11:19:17Z</time></trkpt><trkpt lat="42.153017863171634" lon="-8.026263319522062"><ele>482.0</ele><time>2026-04-29T11:19:18Z</time></trkpt><trkpt lat="42.152889233130026" lon="-8.026233841448274"><ele>483.0</ele><time>2026-04-29T11:19:19Z</time></trkpt><trkpt lat="42.152807381825056" lon="-8.026201842479278"><ele>484.0</ele><time>2026-04-29T11:19:20Z</time></trkpt><trkpt lat="42.152715321572835" lon="-8.026139505056529"><ele>484.0</ele><time>2026-04-29T11:19:21Z</time></trkpt><trkpt lat="42.15264669685106" lon="-8.0260740390361"><ele>484.0</ele><time>2026-04-29T11:19:22Z</time></trkpt><trkpt lat="42.15261458782803" lon="-8.025937340009685"><ele>484.0</ele><time>2026-04-29T11:19:23Z</time></trkpt><trkpt lat="42.15256134964103" lon="-8.025810447057163"><ele>484.0</ele><time>2026-04-29T11:19:24Z</time></trkpt><trkpt lat="42.15252659566765" lon="-8.02569533982226"><ele>484.0</ele><time>2026-04-29T11:19:25Z</time></trkpt><trkpt lat="42.152502371219086" lon="-8.025584313867355"><ele>484.0</ele><time>2026-04-29T11:19:26Z</time></trkpt><trkpt lat="42.15247539834134" lon="-8.02548023298819"><ele>484.0</ele><time>2026-04-29T11:19:27Z</time></trkpt><trkpt lat="42.15238840123943" lon="-8.025378807880534"><ele>484.0</ele><time>2026-04-29T11:19:29Z</time></trkpt><trkpt lat="42.15225896502166" lon="-8.025476474761076"><ele>484.0</ele><time>2026-04-29T11:19:31Z</time></trkpt><trkpt lat="42.152187889182365" lon="-8.025485871922031"><ele>484.0</ele><time>2026-04-29T11:19:32Z</time></trkpt><trkpt lat="42.152115211643256" lon="-8.025492562618568"><ele>484.0</ele><time>2026-04-29T11:19:34Z</time></trkpt><trkpt lat="42.15213533975234" lon="-8.025360353076186"><ele>484.0</ele><time>2026-04-29T11:19:36Z</time></trkpt><trkpt lat="42.15219864917152" lon="-8.025255474049063"><ele>484.0</ele><time>2026-04-29T11:19:37Z</time></trkpt><trkpt lat="42.1522697214956" lon="-8.02515401957963"><ele>484.0</ele><time>2026-04-29T11:19:38Z</time></trkpt><trkpt lat="42.15233950016307" lon="-8.025054412500927"><ele>484.0</ele><time>2026-04-29T11:19:39Z</time></trkpt><trkpt lat="42.1524383198434" lon="-8.024924859717418"><ele>484.33333333333337</ele><time>2026-04-29T11:19:41Z</time></trkpt><trkpt lat="42.15249464603183" lon="-8.024827669267012"><ele>484.6666666666667</ele><time>2026-04-29T11:19:42Z</time></trkpt><trkpt lat="42.15253591087382" lon="-8.024720879310104"><ele>485.0</ele><time>2026-04-29T11:19:43Z</time></trkpt><trkpt lat="42.152577601641724" lon="-8.02464493792287"><ele>485.33333333333337</ele><time>2026-04-29T11:19:44Z</time></trkpt><trkpt lat="42.15264148016454" lon="-8.024554938719263"><ele>485.6666666666667</ele><time>2026-04-29T11:19:46Z</time></trkpt><trkpt lat="42.15271101552199" lon="-8.024502507622113"><ele>486.0</ele><time>2026-04-29T11:20:01.001Z</time></trkpt><trkpt lat="42.1527422202111" lon="-8.024381346230411"><ele>486.0</ele><time>2026-04-29T11:20:03.001Z</time></trkpt><trkpt lat="42.152739061087495" lon="-8.024278881473881"><ele>486.0</ele><time>2026-04-29T11:20:05.001Z</time></trkpt><trkpt lat="42.15266947045766" lon="-8.024208831736514"><ele>486.0</ele><time>2026-04-29T11:21:22Z</time></trkpt><trkpt lat="42.152606990242326" lon="-8.02419375387421"><ele>486.0</ele><time>2026-04-29T11:21:24Z</time></trkpt><trkpt lat="42.15251958544698" lon="-8.024168533312857"><ele>486.0</ele><time>2026-04-29T11:21:27Z</time></trkpt><trkpt lat="42.1525083042529" lon="-8.024056313221415"><ele>486.0</ele><time>2026-04-29T11:21:31Z</time></trkpt><trkpt lat="42.15254336561228" lon="-8.023967460748166"><ele>489.5</ele><time>2026-04-29T11:21:33Z</time></trkpt><trkpt lat="42.15255715607715" lon="-8.023870968254977"><ele>493.0</ele><time>2026-04-29T11:21:35Z</time></trkpt><trkpt lat="42.15258729223682" lon="-8.023749961199487"><ele>496.5</ele><time>2026-04-29T11:21:37Z</time></trkpt><trkpt lat="42.152602842647205" lon="-8.023629471192624"><ele>500.0</ele><time>2026-04-29T11:21:40Z</time></trkpt><trkpt lat="42.15260185059006" lon="-8.02352991655001"><ele>503.5</ele><time>2026-04-29T11:21:42Z</time></trkpt><trkpt lat="42.15259055295426" lon="-8.023428939648074"><ele>507.0</ele><time>2026-04-29T11:21:44Z</time></trkpt><trkpt lat="42.15262635839953" lon="-8.023322331924769"><ele>510.40000000000003</ele><time>2026-04-29T11:21:46Z</time></trkpt><trkpt lat="42.152683676825504" lon="-8.023282160135723"><ele>513.8000000000001</ele><time>2026-04-29T11:21:47Z</time></trkpt><trkpt lat="42.152711771813564" lon="-8.023174991957278"><ele>517.2</ele><time>2026-04-29T11:21:50Z</time></trkpt><trkpt lat="42.152740769293196" lon="-8.023021230346647"><ele>520.6</ele><time>2026-04-29T11:21:52Z</time></trkpt><trkpt lat="42.15275838105415" lon="-8.022857970676265"><ele>524.0</ele><time>2026-04-29T11:21:54Z</time></trkpt><trkpt lat="42.15277728476325" lon="-8.022774945990061"><ele>524.0</ele><time>2026-04-29T11:21:55Z</time></trkpt><trkpt lat="42.15280849225824" lon="-8.022650647081809"><ele>524.0</ele><time>2026-04-29T11:21:57Z</time></trkpt><trkpt lat="42.15283810763459" lon="-8.022573500922817"><ele>524.0</ele><time>2026-04-29T11:21:58Z</time></trkpt><trkpt lat="42.152911871827044" lon="-8.022473440629328"><ele>524.0</ele><time>2026-04-29T11:22:00Z</time></trkpt><trkpt lat="42.15301344111307" lon="-8.022333311157823"><ele>524.0</ele><time>2026-04-29T11:22:02Z</time></trkpt><trkpt lat="42.15306068568512" lon="-8.022253195268378"><ele>525.7142857142858</ele><time>2026-04-29T11:22:03Z</time></trkpt><trkpt lat="42.1531122871015" lon="-8.022179414715836"><ele>527.4285714285714</ele><time>2026-04-29T11:22:04Z</time></trkpt><trkpt lat="42.15312370225654" lon="-8.022090336949447"><ele>529.1428571428571</ele><time>2026-04-29T11:22:05Z</time></trkpt><trkpt lat="42.153156879019406" lon="-8.022002247980906"><ele>530.8571428571429</ele><time>2026-04-29T11:22:06Z</time></trkpt><trkpt lat="42.153160259961695" lon="-8.02189723143249"><ele>532.5714285714286</ele><time>2026-04-29T11:22:07Z</time></trkpt><trkpt lat="42.153168661528206" lon="-8.021797963714697"><ele>534.2857142857143</ele><time>2026-04-29T11:22:08Z</time></trkpt><trkpt lat="42.15318920876098" lon="-8.021697436404848"><ele>536.0</ele><time>2026-04-29T11:22:09Z</time></trkpt><trkpt lat="42.15320944379325" lon="-8.021588911458627"><ele>536.0</ele><time>2026-04-29T11:22:10Z</time></trkpt><trkpt lat="42.15324472987437" lon="-8.021480147994392"><ele>536.0</ele><time>2026-04-29T11:22:11Z</time></trkpt><trkpt lat="42.15329315932022" lon="-8.02139813611451"><ele>536.0</ele><time>2026-04-29T11:22:12Z</time></trkpt><trkpt lat="42.15333376814797" lon="-8.021310723705684"><ele>536.0</ele><time>2026-04-29T11:22:14Z</time></trkpt><trkpt lat="42.15336566099206" lon="-8.021204131496482"><ele>536.0</ele><time>2026-04-29T11:22:17Z</time></trkpt><trkpt lat="42.15343074641167" lon="-8.021124147737845"><ele>536.0</ele><time>2026-04-29T11:22:19.001Z</time></trkpt><trkpt lat="42.15350323081464" lon="-8.021061289902326"><ele>536.0</ele><time>2026-04-29T11:22:21.001Z</time></trkpt><trkpt lat="42.15360890607244" lon="-8.020974544530011"><ele>536.0</ele><time>2026-04-29T11:22:23.001Z</time></trkpt><trkpt lat="42.15365172986343" lon="-8.020911576889663"><ele>536.0</ele><time>2026-04-29T11:22:24.001Z</time></trkpt><trkpt lat="42.15373047817809" lon="-8.02080253194948"><ele>536.0</ele><time>2026-04-29T11:22:26.001Z</time></trkpt><trkpt lat="42.15379291151446" lon="-8.020755857969649"><ele>536.0</ele><time>2026-04-29T11:22:27.001Z</time></trkpt><trkpt lat="42.15385492704467" lon="-8.020700475655445"><ele>536.0</ele><time>2026-04-29T11:22:28.001Z</time></trkpt><trkpt lat="42.1539385476775" lon="-8.020606297657789"><ele>536.6666666666666</ele><time>2026-04-29T11:22:29.001Z</time></trkpt><trkpt lat="42.1540028526372" lon="-8.020520873176356"><ele>537.3333333333333</ele><time>2026-04-29T11:22:30.001Z</time></trkpt><trkpt lat="42.15406037198793" lon="-8.020417583633026"><ele>538.0</ele><time>2026-04-29T11:22:31Z</time></trkpt><trkpt lat="42.15409040032595" lon="-8.020319103308907"><ele>538.6666666666666</ele><time>2026-04-29T11:22:32Z</time></trkpt><trkpt lat="42.15410438283365" lon="-8.02016657529723"><ele>539.3333333333334</ele><time>2026-04-29T11:22:34Z</time></trkpt><trkpt lat="42.15410066844874" lon="-8.020072583749116"><ele>540.0</ele><time>2026-04-29T11:22:35Z</time></trkpt><trkpt lat="42.15409397820412" lon="-8.01998074309734"><ele>537.8571428571429</ele><time>2026-04-29T11:22:36Z</time></trkpt><trkpt lat="42.15408753970367" lon="-8.019888752355733"><ele>535.7142857142857</ele><time>2026-04-29T11:22:37Z</time></trkpt><trkpt lat="42.154085131530614" lon="-8.019788560323974"><ele>533.5714285714286</ele><time>2026-04-29T11:22:38Z</time></trkpt><trkpt lat="42.154074115415625" lon="-8.019686064988283"><ele>531.4285714285714</ele><time>2026-04-29T11:22:39Z</time></trkpt><trkpt lat="42.154053033044754" lon="-8.019597047762764"><ele>529.2857142857142</ele><time>2026-04-29T11:22:40Z</time></trkpt><trkpt lat="42.15405050373015" lon="-8.01948102768019"><ele>527.1428571428571</ele><time>2026-04-29T11:22:42Z</time></trkpt><trkpt lat="42.154103138876266" lon="-8.019415998813283"><ele>525.0</ele><time>2026-04-29T11:22:44Z</time></trkpt><trkpt lat="42.15424959100597" lon="-8.019432254988942"><ele>525.0</ele><time>2026-04-29T11:22:46Z</time></trkpt><trkpt lat="42.15438477055657" lon="-8.019493219809249"><ele>525.0</ele><time>2026-04-29T11:22:47Z</time></trkpt><trkpt lat="42.15448454227289" lon="-8.019541125992287"><ele>525.0</ele><time>2026-04-29T11:22:48Z</time></trkpt><trkpt lat="42.15455561516519" lon="-8.019561137615728"><ele>525.0</ele><time>2026-04-29T11:22:49Z</time></trkpt><trkpt lat="42.15467953350269" lon="-8.019540246582377"><ele>525.0</ele><time>2026-04-29T11:22:51Z</time></trkpt><trkpt lat="42.154740726593516" lon="-8.019505992442088"><ele>525.0</ele><time>2026-04-29T11:22:52Z</time></trkpt><trkpt lat="42.1548056007515" lon="-8.019439253259566"><ele>525.0</ele><time>2026-04-29T11:22:53Z</time></trkpt><trkpt lat="42.15485727959641" lon="-8.01932520609224"><ele>525.0</ele><time>2026-04-29T11:22:54Z</time></trkpt><trkpt lat="42.154905691569645" lon="-8.019231116606262"><ele>525.0</ele><time>2026-04-29T11:22:55Z</time></trkpt><trkpt lat="42.15497385497711" lon="-8.019192701231647"><ele>525.0</ele><time>2026-04-29T11:22:56Z</time></trkpt><trkpt lat="42.15507945266807" lon="-8.019166824568202"><ele>525.0</ele><time>2026-04-29T11:22:57Z</time></trkpt><trkpt lat="42.15518284676133" lon="-8.019162098459011"><ele>524.6</ele><time>2026-04-29T11:22:58Z</time></trkpt><trkpt lat="42.15525037913438" lon="-8.01919047315264"><ele>524.2</ele><time>2026-04-29T11:22:59Z</time></trkpt><trkpt lat="42.15529794717221" lon="-8.019256764304584"><ele>523.8</ele><time>2026-04-29T11:23:00Z</time></trkpt><trkpt lat="42.15534371979257" lon="-8.019347488278461"><ele>523.4</ele><time>2026-04-29T11:23:01Z</time></trkpt><trkpt lat="42.15540399283405" lon="-8.019500287228135"><ele>523.0</ele><time>2026-04-29T11:23:02Z</time></trkpt><trkpt lat="42.155465671212134" lon="-8.01964555381229"><ele>523.0</ele><time>2026-04-29T11:23:03Z</time></trkpt><trkpt lat="42.15553139788957" lon="-8.01974316148985"><ele>523.0</ele><time>2026-04-29T11:23:04Z</time></trkpt><trkpt lat="42.15561652058615" lon="-8.019826727026357"><ele>523.0</ele><time>2026-04-29T11:23:05Z</time></trkpt><trkpt lat="42.15570337919239" lon="-8.019896529880103"><ele>523.0</ele><time>2026-04-29T11:23:06Z</time></trkpt><trkpt lat="42.15575214734133" lon="-8.019969196410944"><ele>523.0</ele><time>2026-04-29T11:23:07Z</time></trkpt><trkpt lat="42.15578343036259" lon="-8.02005395100163"><ele>523.0</ele><time>2026-04-29T11:23:08Z</time></trkpt><trkpt lat="42.1558134020666" lon="-8.020151779473068"><ele>523.3333333333334</ele><time>2026-04-29T11:23:09Z</time></trkpt><trkpt lat="42.15584527454797" lon="-8.02025150736815"><ele>523.6666666666667</ele><time>2026-04-29T11:23:10Z</time></trkpt><trkpt lat="42.15588773886077" lon="-8.020358057193404"><ele>524.0</ele><time>2026-04-29T11:23:12Z</time></trkpt><trkpt lat="42.15594944942755" lon="-8.020377187910528"><ele>524.3333333333334</ele><time>2026-04-29T11:23:14Z</time></trkpt><trkpt lat="42.15606088347161" lon="-8.020334263188255"><ele>524.6666666666666</ele><time>2026-04-29T11:23:16Z</time></trkpt><trkpt lat="42.15615349898584" lon="-8.020340918998656"><ele>525.0</ele><time>2026-04-29T11:23:18Z</time></trkpt><trkpt lat="42.15624677707136" lon="-8.020329500651641"><ele>525.0</ele><time>2026-04-29T11:23:20Z</time></trkpt><trkpt lat="42.15633958503362" lon="-8.020239776341523"><ele>525.0</ele><time>2026-04-29T11:23:22Z</time></trkpt><trkpt lat="42.15637924900099" lon="-8.020172861909407"><ele>525.0</ele><time>2026-04-29T11:23:23Z</time></trkpt><trkpt lat="42.156460845669706" lon="-8.020094113865575"><ele>525.0</ele><time>2026-04-29T11:23:25Z</time></trkpt><trkpt lat="42.15649880417009" lon="-8.01999490756416"><ele>525.0</ele><time>2026-04-29T11:23:27Z</time></trkpt><trkpt lat="42.15649362844615" lon="-8.019848978210568"><ele>525.8333333333334</ele><time>2026-04-29T11:23:29Z</time></trkpt><trkpt lat="42.15647625778947" lon="-8.019680655306644"><ele>526.6666666666666</ele><time>2026-04-29T11:23:31Z</time></trkpt><trkpt lat="42.15644162416582" lon="-8.0196001734183"><ele>527.5</ele><time>2026-04-29T11:23:32Z</time></trkpt><trkpt lat="42.15642574648687" lon="-8.019509381058445"><ele>528.3333333333333</ele><time>2026-04-29T11:23:33Z</time></trkpt><trkpt lat="42.156423616855335" lon="-8.01942079898792"><ele>529.1666666666666</ele><time>2026-04-29T11:23:34Z</time></trkpt><trkpt lat="42.15643191533339" lon="-8.019320563248971"><ele>530.0</ele><time>2026-04-29T11:23:36Z</time></trkpt><trkpt lat="42.15634840762904" lon="-8.019256424980027"><ele>531.5</ele><time>2026-04-29T11:23:39Z</time></trkpt><trkpt lat="42.156263497718" lon="-8.019130256355364"><ele>533.0</ele><time>2026-04-29T11:23:41Z</time></trkpt><trkpt lat="42.15621038080648" lon="-8.019057145049741"><ele>534.5</ele><time>2026-04-29T11:23:42Z</time></trkpt><trkpt lat="42.1561567283374" lon="-8.018982127601738"><ele>536.0</ele><time>2026-04-29T11:23:43Z</time></trkpt><trkpt lat="42.15610220348726" lon="-8.018908981244465"><ele>537.5</ele><time>2026-04-29T11:23:44Z</time></trkpt><trkpt lat="42.156030365640405" lon="-8.018858418954444"><ele>539.0</ele><time>2026-04-29T11:23:45Z</time></trkpt><trkpt lat="42.15596547153779" lon="-8.018793530265695"><ele>539.0</ele><time>2026-04-29T11:23:46Z</time></trkpt><trkpt lat="42.15590927169653" lon="-8.018735738222405"><ele>539.0</ele><time>2026-04-29T11:23:47Z</time></trkpt><trkpt lat="42.1558570525003" lon="-8.018678911656979"><ele>539.0</ele><time>2026-04-29T11:23:48Z</time></trkpt><trkpt lat="42.155799351613325" lon="-8.018616119325268"><ele>539.0</ele><time>2026-04-29T11:23:49Z</time></trkpt><trkpt lat="42.15573577342413" lon="-8.018546931441547"><ele>539.0</ele><time>2026-04-29T11:23:50Z</time></trkpt><trkpt lat="42.1556701356104" lon="-8.018476411169043"><ele>539.0</ele><time>2026-04-29T11:23:51Z</time></trkpt><trkpt lat="42.15560124531433" lon="-8.018405962536152"><ele>538.2</ele><time>2026-04-29T11:23:52Z</time></trkpt><trkpt lat="42.15553322964449" lon="-8.018338808527648"><ele>537.4</ele><time>2026-04-29T11:23:53Z</time></trkpt><trkpt lat="42.15546343490229" lon="-8.018263563965998"><ele>536.6</ele><time>2026-04-29T11:23:54Z</time></trkpt><trkpt lat="42.15540353443537" lon="-8.018171115868332"><ele>535.8</ele><time>2026-04-29T11:23:55Z</time></trkpt><trkpt lat="42.15536358163649" lon="-8.018033156301819"><ele>535.0</ele><time>2026-04-29T11:23:56Z</time></trkpt><trkpt lat="42.15530477052505" lon="-8.017913773806246"><ele>535.0</ele><time>2026-04-29T11:23:57Z</time></trkpt><trkpt lat="42.15525900602119" lon="-8.017780557058082"><ele>535.0</ele><time>2026-04-29T11:23:58Z</time></trkpt><trkpt lat="42.15521399716725" lon="-8.01764711013516"><ele>535.0</ele><time>2026-04-29T11:23:59Z</time></trkpt><trkpt lat="42.155169072797115" lon="-8.017517877056122"><ele>535.0</ele><time>2026-04-29T11:24:00Z</time></trkpt><trkpt lat="42.15512646640949" lon="-8.017391938576935"><ele>535.0</ele><time>2026-04-29T11:24:01Z</time></trkpt><trkpt lat="42.155101084783226" lon="-8.01725819456428"><ele>536.4</ele><time>2026-04-29T11:24:02Z</time></trkpt><trkpt lat="42.155083746177596" lon="-8.017137061697344"><ele>537.8</ele><time>2026-04-29T11:24:03Z</time></trkpt><trkpt lat="42.155114278223635" lon="-8.017040779306477"><ele>539.2</ele><time>2026-04-29T11:24:04Z</time></trkpt><trkpt lat="42.15505707442117" lon="-8.016949500299233"><ele>540.6</ele><time>2026-04-29T11:24:06Z</time></trkpt><trkpt lat="42.154970329117624" lon="-8.016860224836604"><ele>542.0</ele><time>2026-04-29T11:24:08Z</time></trkpt><trkpt lat="42.15486503457654" lon="-8.016758374967823"><ele>542.0</ele><time>2026-04-29T11:24:10Z</time></trkpt><trkpt lat="42.15477943377826" lon="-8.016673973972257"><ele>542.0</ele><time>2026-04-29T11:24:12Z</time></trkpt><trkpt lat="42.15471699159305" lon="-8.016689697818109"><ele>542.0</ele><time>2026-04-29T11:24:14Z</time></trkpt><trkpt lat="42.15465709555843" lon="-8.016737410869634"><ele>542.0</ele><time>2026-04-29T11:24:15Z</time></trkpt><trkpt lat="42.154590584955145" lon="-8.016753826585292"><ele>542.0</ele><time>2026-04-29T11:24:16Z</time></trkpt><trkpt lat="42.15451493930571" lon="-8.016753951310768"><ele>542.0</ele><time>2026-04-29T11:24:17Z</time></trkpt><trkpt lat="42.15442929548354" lon="-8.016708152270077"><ele>542.8000000000001</ele><time>2026-04-29T11:24:18Z</time></trkpt><trkpt lat="42.15435366172797" lon="-8.016630893734835"><ele>543.6</ele><time>2026-04-29T11:24:19Z</time></trkpt><trkpt lat="42.154277228225304" lon="-8.016545018539945"><ele>544.4000000000001</ele><time>2026-04-29T11:24:20Z</time></trkpt><trkpt lat="42.154199676950576" lon="-8.01645569254913"><ele>545.2</ele><time>2026-04-29T11:24:21Z</time></trkpt><trkpt lat="42.15412830836207" lon="-8.016342525515313"><ele>546.0</ele><time>2026-04-29T11:24:22Z</time></trkpt><trkpt lat="42.154029185629426" lon="-8.016263192529253"><ele>546.0</ele><time>2026-04-29T11:24:23Z</time></trkpt><trkpt lat="42.15394330777665" lon="-8.016173469271703"><ele>546.0</ele><time>2026-04-29T11:24:24Z</time></trkpt><trkpt lat="42.153882800496355" lon="-8.016090003259384"><ele>546.0</ele><time>2026-04-29T11:24:25Z</time></trkpt><trkpt lat="42.15380819304223" lon="-8.016030694518516"><ele>546.0</ele><time>2026-04-29T11:24:26Z</time></trkpt><trkpt lat="42.15373987493133" lon="-8.015995689655979"><ele>546.0</ele><time>2026-04-29T11:24:27Z</time></trkpt><trkpt lat="42.153666525337044" lon="-8.015980990272787"><ele>546.0</ele><time>2026-04-29T11:24:28Z</time></trkpt><trkpt lat="42.153588315234714" lon="-8.016014425923357"><ele>546.0</ele><time>2026-04-29T11:24:29Z</time></trkpt><trkpt lat="42.15351324553408" lon="-8.016063612443485"><ele>546.0</ele><time>2026-04-29T11:24:30Z</time></trkpt><trkpt lat="42.15343164594831" lon="-8.01611762744553"><ele>546.0</ele><time>2026-04-29T11:24:31Z</time></trkpt><trkpt lat="42.1533513420194" lon="-8.016171244146728"><ele>546.0</ele><time>2026-04-29T11:24:32Z</time></trkpt><trkpt lat="42.153262556354946" lon="-8.016215075948063"><ele>546.0</ele><time>2026-04-29T11:24:33Z</time></trkpt><trkpt lat="42.15317936808143" lon="-8.01627415613024"><ele>547.0</ele><time>2026-04-29T11:24:34Z</time></trkpt><trkpt lat="42.1530968411294" lon="-8.016327702888498"><ele>548.0</ele><time>2026-04-29T11:24:35Z</time></trkpt><trkpt lat="42.153009499469675" lon="-8.016371644226355"><ele>549.0</ele><time>2026-04-29T11:24:36Z</time></trkpt><trkpt lat="42.15292193016683" lon="-8.016398310355326"><ele>550.0</ele><time>2026-04-29T11:24:37Z</time></trkpt><trkpt lat="42.15283027383522" lon="-8.01638950951281"><ele>551.0</ele><time>2026-04-29T11:24:38Z</time></trkpt><trkpt lat="42.1527416569254" lon="-8.016350111319209"><ele>551.0</ele><time>2026-04-29T11:24:39Z</time></trkpt><trkpt lat="42.1526703661257" lon="-8.016275085502775"><ele>551.0</ele><time>2026-04-29T11:24:40Z</time></trkpt><trkpt lat="42.152615800189544" lon="-8.016192774911548"><ele>551.0</ele><time>2026-04-29T11:24:41Z</time></trkpt><trkpt lat="42.15255685466422" lon="-8.016152740642974"><ele>551.0</ele><time>2026-04-29T11:24:42Z</time></trkpt><trkpt lat="42.15257372798866" lon="-8.015882192759179"><ele>551.0</ele><time>2026-04-29T11:24:44Z</time></trkpt><trkpt lat="42.15261057738927" lon="-8.015758155877347"><ele>551.8</ele><time>2026-04-29T11:24:45Z</time></trkpt><trkpt lat="42.15263448130261" lon="-8.015619369384824"><ele>552.6</ele><time>2026-04-29T11:24:46Z</time></trkpt><trkpt lat="42.15264598320362" lon="-8.015513290553834"><ele>553.4</ele><time>2026-04-29T11:24:47Z</time></trkpt><trkpt lat="42.152637906609115" lon="-8.015396786637847"><ele>554.2</ele><time>2026-04-29T11:24:48Z</time></trkpt><trkpt lat="42.152590359859985" lon="-8.01528833965474"><ele>555.0</ele><time>2026-04-29T11:24:49Z</time></trkpt><trkpt lat="42.15254412494197" lon="-8.015174946263734"><ele>555.0</ele><time>2026-04-29T11:24:50Z</time></trkpt><trkpt lat="42.15249082122067" lon="-8.015049727863337"><ele>555.0</ele><time>2026-04-29T11:24:51Z</time></trkpt><trkpt lat="42.15243961727608" lon="-8.014923424892844"><ele>555.0</ele><time>2026-04-29T11:24:52Z</time></trkpt><trkpt lat="42.15239005408305" lon="-8.014789594792452"><ele>555.0</ele><time>2026-04-29T11:24:53Z</time></trkpt><trkpt lat="42.15234948492043" lon="-8.01465824806526"><ele>555.0</ele><time>2026-04-29T11:24:54Z</time></trkpt><trkpt lat="42.152314162996106" lon="-8.014538208768272"><ele>556.3333333333334</ele><time>2026-04-29T11:24:55Z</time></trkpt><trkpt lat="42.15227466418273" lon="-8.014436222262132"><ele>557.6666666666666</ele><time>2026-04-29T11:24:56Z</time></trkpt><trkpt lat="42.15223332465315" lon="-8.014346105496772"><ele>559.0</ele><time>2026-04-29T11:24:57Z</time></trkpt><trkpt lat="42.152172202144435" lon="-8.014309403725395"><ele>560.3333333333333</ele><time>2026-04-29T11:24:58Z</time></trkpt><trkpt lat="42.15209497955689" lon="-8.014282509480324"><ele>561.6666666666666</ele><time>2026-04-29T11:24:59Z</time></trkpt><trkpt lat="42.1520203736085" lon="-8.014259001618818"><ele>563.0</ele><time>2026-04-29T11:25:00Z</time></trkpt><trkpt lat="42.15195603055323" lon="-8.014245783300572"><ele>563.0</ele><time>2026-04-29T11:25:01Z</time></trkpt><trkpt lat="42.15185023313885" lon="-8.014188628254756"><ele>563.0</ele><time>2026-04-29T11:25:03Z</time></trkpt><trkpt lat="42.15184244723523" lon="-8.013742981950024"><ele>563.0</ele><time>2026-04-29T11:25:04Z</time></trkpt><trkpt lat="42.15179075707325" lon="-8.013586055704438"><ele>561.5</ele><time>2026-04-29T11:25:05Z</time></trkpt><trkpt lat="42.15173850865933" lon="-8.013427982743021"><ele>560.0</ele><time>2026-04-29T11:25:06Z</time></trkpt><trkpt lat="42.15168957054106" lon="-8.013264361898955"><ele>558.5</ele><time>2026-04-29T11:25:07Z</time></trkpt><trkpt lat="42.1516443805909" lon="-8.013098091817358"><ele>557.0</ele><time>2026-04-29T11:25:08Z</time></trkpt><trkpt lat="42.15160304879728" lon="-8.012949487181649"><ele>557.1666666666666</ele><time>2026-04-29T11:25:09Z</time></trkpt><trkpt lat="42.151572965339334" lon="-8.012845283682527"><ele>557.3333333333333</ele><time>2026-04-29T11:25:10Z</time></trkpt><trkpt lat="42.15155607438227" lon="-8.012732739122372"><ele>557.5</ele><time>2026-04-29T11:25:12Z</time></trkpt><trkpt lat="42.15159991295469" lon="-8.012665115364223"><ele>557.6666666666666</ele><time>2026-04-29T11:25:13Z</time></trkpt><trkpt lat="42.151657711647935" lon="-8.012590156427"><ele>557.8333333333334</ele><time>2026-04-29T11:25:14Z</time></trkpt><trkpt lat="42.15175561948925" lon="-8.012529950430087"><ele>558.0</ele><time>2026-04-29T11:25:15Z</time></trkpt><trkpt lat="42.151878472777696" lon="-8.012485442233604"><ele>558.0</ele><time>2026-04-29T11:25:16Z</time></trkpt><trkpt lat="42.15197457230748" lon="-8.012451345226294"><ele>558.0</ele><time>2026-04-29T11:25:17Z</time></trkpt><trkpt lat="42.15202635024877" lon="-8.012400714916335"><ele>558.0</ele><time>2026-04-29T11:25:18Z</time></trkpt><trkpt lat="42.152067316629456" lon="-8.01230469144556"><ele>558.0</ele><time>2026-04-29T11:25:19Z</time></trkpt><trkpt lat="42.15208831295133" lon="-8.012170481027855"><ele>558.0</ele><time>2026-04-29T11:25:20Z</time></trkpt><trkpt lat="42.15211390039672" lon="-8.012034438826351"><ele>558.0</ele><time>2026-04-29T11:25:21Z</time></trkpt><trkpt lat="42.15214620543902" lon="-8.011892037827598"><ele>558.0</ele><time>2026-04-29T11:25:22Z</time></trkpt><trkpt lat="42.15217996821036" lon="-8.011747447887382"><ele>558.0</ele><time>2026-04-29T11:25:23Z</time></trkpt><trkpt lat="42.15221006352068" lon="-8.011614883312216"><ele>558.0</ele><time>2026-04-29T11:25:24Z</time></trkpt><trkpt lat="42.152225771851" lon="-8.011500500385994"><ele>558.0</ele><time>2026-04-29T11:25:25Z</time></trkpt><trkpt lat="42.152263617208305" lon="-8.011424576641275"><ele>557.5</ele><time>2026-04-29T11:25:26Z</time></trkpt><trkpt lat="42.1523662743707" lon="-8.011361710591043"><ele>557.0</ele><time>2026-04-29T11:25:28Z</time></trkpt><trkpt lat="42.15246601822108" lon="-8.01134887395128"><ele>556.5</ele><time>2026-04-29T11:25:29Z</time></trkpt><trkpt lat="42.15260138967784" lon="-8.011336823284772"><ele>556.0</ele><time>2026-04-29T11:25:30Z</time></trkpt><trkpt lat="42.15276528169487" lon="-8.011314536743452"><ele>556.0</ele><time>2026-04-29T11:25:31Z</time></trkpt><trkpt lat="42.15291339222812" lon="-8.011284314413498"><ele>556.0</ele><time>2026-04-29T11:25:32Z</time></trkpt><trkpt lat="42.153037034998896" lon="-8.011271948798637"><ele>556.0</ele><time>2026-04-29T11:25:33Z</time></trkpt><trkpt lat="42.1531392642916" lon="-8.0112587127888"><ele>556.0</ele><time>2026-04-29T11:25:34Z</time></trkpt><trkpt lat="42.153221103117886" lon="-8.011238819528973"><ele>556.4</ele><time>2026-04-29T11:25:35Z</time></trkpt><trkpt lat="42.15330106808941" lon="-8.011213952248927"><ele>556.8</ele><time>2026-04-29T11:25:36Z</time></trkpt><trkpt lat="42.15335737986604" lon="-8.011161747074594"><ele>557.1999999999999</ele><time>2026-04-29T11:25:37Z</time></trkpt><trkpt lat="42.1533985296306" lon="-8.011078915001317"><ele>557.6</ele><time>2026-04-29T11:25:38Z</time></trkpt><trkpt lat="42.15342710212386" lon="-8.010930508087034"><ele>558.0</ele><time>2026-04-29T11:25:39Z</time></trkpt><trkpt lat="42.15344899807997" lon="-8.010756884703568"><ele>558.75</ele><time>2026-04-29T11:25:40Z</time></trkpt><trkpt lat="42.15346297006646" lon="-8.010571737030572"><ele>559.5</ele><time>2026-04-29T11:25:41Z</time></trkpt><trkpt lat="42.15345855593174" lon="-8.010441579246972"><ele>560.25</ele><time>2026-04-29T11:25:42Z</time></trkpt><trkpt lat="42.15342300321501" lon="-8.01031128330855"><ele>561.0</ele><time>2026-04-29T11:25:43Z</time></trkpt><trkpt lat="42.15336614223691" lon="-8.010155442742468"><ele>561.75</ele><time>2026-04-29T11:25:44Z</time></trkpt><trkpt lat="42.153302147490976" lon="-8.009973506593747"><ele>562.5</ele><time>2026-04-29T11:25:45Z</time></trkpt><trkpt lat="42.15326002935873" lon="-8.009803979422863"><ele>563.25</ele><time>2026-04-29T11:25:46Z</time></trkpt><trkpt lat="42.1532331426077" lon="-8.009642417985901"><ele>564.0</ele><time>2026-04-29T11:25:47Z</time></trkpt><trkpt lat="42.15321953944609" lon="-8.009495248477897"><ele>564.0</ele><time>2026-04-29T11:25:48Z</time></trkpt><trkpt lat="42.153224236336726" lon="-8.009362379882196"><ele>564.0</ele><time>2026-04-29T11:25:49Z</time></trkpt><trkpt lat="42.15326161566416" lon="-8.009238393614677"><ele>564.0</ele><time>2026-04-29T11:25:50Z</time></trkpt><trkpt lat="42.153290709225786" lon="-8.00909987771756"><ele>564.0</ele><time>2026-04-29T11:25:51Z</time></trkpt><trkpt lat="42.15328244146086" lon="-8.008969543013977"><ele>564.0</ele><time>2026-04-29T11:25:52Z</time></trkpt><trkpt lat="42.15325029922103" lon="-8.008814227172623"><ele>565.25</ele><time>2026-04-29T11:25:53Z</time></trkpt><trkpt lat="42.15321580368397" lon="-8.008662676692117"><ele>566.5</ele><time>2026-04-29T11:25:54Z</time></trkpt><trkpt lat="42.15321792107408" lon="-8.008509595196573"><ele>567.75</ele><time>2026-04-29T11:25:55Z</time></trkpt><trkpt lat="42.15323457146722" lon="-8.00835280148654"><ele>569.0</ele><time>2026-04-29T11:25:56Z</time></trkpt><trkpt lat="42.15326654576589" lon="-8.008197153895688"><ele>570.6</ele><time>2026-04-29T11:25:57Z</time></trkpt><trkpt lat="42.153268457211425" lon="-8.008041686121821"><ele>572.2</ele><time>2026-04-29T11:25:58Z</time></trkpt><trkpt lat="42.15329380294475" lon="-8.007916893261596"><ele>573.8000000000001</ele><time>2026-04-29T11:25:59Z</time></trkpt><trkpt lat="42.15333549288844" lon="-8.007795137320826"><ele>575.4</ele><time>2026-04-29T11:26:00Z</time></trkpt><trkpt lat="42.15336593198974" lon="-8.007683832926695"><ele>577.0</ele><time>2026-04-29T11:26:01Z</time></trkpt><trkpt lat="42.15339514128447" lon="-8.00760008397644"><ele>577.8000000000001</ele><time>2026-04-29T11:26:02Z</time></trkpt><trkpt lat="42.15343147094496" lon="-8.007446971815463"><ele>578.6</ele><time>2026-04-29T11:26:04Z</time></trkpt><trkpt lat="42.153412361908586" lon="-8.007330662746604"><ele>579.4000000000001</ele><time>2026-04-29T11:26:05Z</time></trkpt><trkpt lat="42.15338667627488" lon="-8.00717165159268"><ele>580.2</ele><time>2026-04-29T11:26:06Z</time></trkpt><trkpt lat="42.153374925696184" lon="-8.007062403978408"><ele>581.0</ele><time>2026-04-29T11:26:07Z</time></trkpt><trkpt lat="42.15339159158734" lon="-8.00683987625795"><ele>581.0</ele><time>2026-04-29T11:26:09Z</time></trkpt><trkpt lat="42.15339292318744" lon="-8.006709990640909"><ele>581.0</ele><time>2026-04-29T11:26:10Z</time></trkpt><trkpt lat="42.15342412095893" lon="-8.00657898942892"><ele>581.0</ele><time>2026-04-29T11:26:11Z</time></trkpt><trkpt lat="42.153436595604234" lon="-8.006450415283412"><ele>581.0</ele><time>2026-04-29T11:26:12Z</time></trkpt><trkpt lat="42.15345592862528" lon="-8.006354150068699"><ele>581.0</ele><time>2026-04-29T11:26:13Z</time></trkpt><trkpt lat="42.15345317168252" lon="-8.006236290992572"><ele>581.8</ele><time>2026-04-29T11:26:14Z</time></trkpt><trkpt lat="42.153446791187456" lon="-8.006115734151384"><ele>582.6</ele><time>2026-04-29T11:26:15Z</time></trkpt><trkpt lat="42.15344651721644" lon="-8.005927053518745"><ele>583.4</ele><time>2026-04-29T11:26:17Z</time></trkpt><trkpt lat="42.153434083287216" lon="-8.005814744642562"><ele>584.2</ele><time>2026-04-29T11:26:18Z</time></trkpt><trkpt lat="42.15343143442199" lon="-8.005685652154243"><ele>585.0</ele><time>2026-04-29T11:26:19Z</time></trkpt><trkpt lat="42.15340665408739" lon="-8.005562786919228"><ele>585.0</ele><time>2026-04-29T11:26:20Z</time></trkpt><trkpt lat="42.153419293993736" lon="-8.005457558802378"><ele>585.0</ele><time>2026-04-29T11:26:21Z</time></trkpt><trkpt lat="42.15345294166959" lon="-8.0053524032784"><ele>585.0</ele><time>2026-04-29T11:26:22Z</time></trkpt><trkpt lat="42.15349291389529" lon="-8.005267628574693"><ele>585.0</ele><time>2026-04-29T11:26:23Z</time></trkpt><trkpt lat="42.153538687382145" lon="-8.005180015495899"><ele>585.0</ele><time>2026-04-29T11:26:24Z</time></trkpt><trkpt lat="42.15353998180352" lon="-8.00506824693558"><ele>585.0</ele><time>2026-04-29T11:26:25Z</time></trkpt><trkpt lat="42.15355152491188" lon="-8.004976042034631"><ele>586.4</ele><time>2026-04-29T11:26:26Z</time></trkpt><trkpt lat="42.1535912141201" lon="-8.004892728593639"><ele>587.8</ele><time>2026-04-29T11:26:27Z</time></trkpt><trkpt lat="42.153676699740736" lon="-8.004792084857858"><ele>589.2</ele><time>2026-04-29T11:26:28Z</time></trkpt><trkpt lat="42.153747579472366" lon="-8.00467829340781"><ele>590.6</ele><time>2026-04-29T11:26:29Z</time></trkpt><trkpt lat="42.15379485886185" lon="-8.00456497823637"><ele>592.0</ele><time>2026-04-29T11:26:30Z</time></trkpt><trkpt lat="42.15382576544717" lon="-8.004487245083267"><ele>592.0</ele><time>2026-04-29T11:26:31Z</time></trkpt><trkpt lat="42.153794800327695" lon="-8.004377322052923"><ele>592.0</ele><time>2026-04-29T11:26:32Z</time></trkpt><trkpt lat="42.153794705198656" lon="-8.00425472731156"><ele>592.0</ele><time>2026-04-29T11:26:33Z</time></trkpt><trkpt lat="42.15381287694756" lon="-8.004140106006137"><ele>592.0</ele><time>2026-04-29T11:26:34Z</time></trkpt><trkpt lat="42.15385991447541" lon="-8.003999813055987"><ele>592.0</ele><time>2026-04-29T11:26:35Z</time></trkpt><trkpt lat="42.15391611298118" lon="-8.00389904574034"><ele>594.6</ele><time>2026-04-29T11:26:36Z</time></trkpt><trkpt lat="42.1539374998537" lon="-8.003750286321337"><ele>597.2</ele><time>2026-04-29T11:26:37Z</time></trkpt><trkpt lat="42.1539125295136" lon="-8.003609391022552"><ele>599.8</ele><time>2026-04-29T11:26:38Z</time></trkpt><trkpt lat="42.15388265788799" lon="-8.003464225235712"><ele>602.4</ele><time>2026-04-29T11:26:39Z</time></trkpt><trkpt lat="42.15385456422082" lon="-8.003327004154126"><ele>605.0</ele><time>2026-04-29T11:26:40Z</time></trkpt><trkpt lat="42.153856720411675" lon="-8.003184542635175"><ele>608.0</ele><time>2026-04-29T11:26:41Z</time></trkpt><trkpt lat="42.153869205097784" lon="-8.003027794924929"><ele>611.0</ele><time>2026-04-29T11:26:42Z</time></trkpt><trkpt lat="42.15388840566718" lon="-8.002871527178225"><ele>614.0</ele><time>2026-04-29T11:26:43Z</time></trkpt><trkpt lat="42.153920782992124" lon="-8.002735730313713"><ele>617.0</ele><time>2026-04-29T11:26:44Z</time></trkpt><trkpt lat="42.15395720093981" lon="-8.00263238052134"><ele>620.0</ele><time>2026-04-29T11:26:45Z</time></trkpt><trkpt lat="42.15400450524197" lon="-8.002563606692819"><ele>619.2</ele><time>2026-04-29T11:26:46Z</time></trkpt><trkpt lat="42.154091178559185" lon="-8.002471889025303"><ele>618.4</ele><time>2026-04-29T11:26:47Z</time></trkpt><trkpt lat="42.15417444769422" lon="-8.002396247494023"><ele>617.6</ele><time>2026-04-29T11:26:48Z</time></trkpt><trkpt lat="42.15428067746321" lon="-8.002334056487197"><ele>616.8</ele><time>2026-04-29T11:26:49Z</time></trkpt><trkpt lat="42.154381452250675" lon="-8.002270875913752"><ele>616.0</ele><time>2026-04-29T11:26:50Z</time></trkpt><trkpt lat="42.15447135835147" lon="-8.002211181344997"><ele>616.0</ele><time>2026-04-29T11:26:51Z</time></trkpt><trkpt lat="42.154542274369774" lon="-8.002177670449905"><ele>616.0</ele><time>2026-04-29T11:26:52Z</time></trkpt><trkpt lat="42.1546474263097" lon="-8.002198238933657"><ele>616.0</ele><time>2026-04-29T11:26:54Z</time></trkpt><trkpt lat="42.15471924883865" lon="-8.002241819715906"><ele>616.0</ele><time>2026-04-29T11:26:55Z</time></trkpt><trkpt lat="42.15477957968473" lon="-8.002320006360467"><ele>616.0</ele><time>2026-04-29T11:26:56Z</time></trkpt><trkpt lat="42.15483219418821" lon="-8.002434137714374"><ele>616.0</ele><time>2026-04-29T11:26:57Z</time></trkpt><trkpt lat="42.1548738212655" lon="-8.002554993542025"><ele>611.25</ele><time>2026-04-29T11:26:58Z</time></trkpt><trkpt lat="42.1548869027385" lon="-8.002688717569127"><ele>606.5</ele><time>2026-04-29T11:26:59Z</time></trkpt><trkpt lat="42.15490097247549" lon="-8.0028452491556"><ele>601.75</ele><time>2026-04-29T11:27:00Z</time></trkpt><trkpt lat="42.15491686514483" lon="-8.003042525813804"><ele>597.0</ele><time>2026-04-29T11:27:01Z</time></trkpt><trkpt lat="42.15494224771704" lon="-8.003266189334923"><ele>597.25</ele><time>2026-04-29T11:27:02Z</time></trkpt><trkpt lat="42.15497672871625" lon="-8.003457741472701"><ele>597.5</ele><time>2026-04-29T11:27:03Z</time></trkpt><trkpt lat="42.15499863125786" lon="-8.003585167999121"><ele>597.75</ele><time>2026-04-29T11:27:04Z</time></trkpt><trkpt lat="42.1550339625073" lon="-8.003714821684762"><ele>598.0</ele><time>2026-04-29T11:27:06Z</time></trkpt><trkpt lat="42.155087228291116" lon="-8.003582290017366"><ele>597.75</ele><time>2026-04-29T11:27:11Z</time></trkpt><trkpt lat="42.1550105978236" lon="-8.003303121935659"><ele>597.5</ele><time>2026-04-29T11:27:13Z</time></trkpt><trkpt lat="42.15500845597519" lon="-8.00315145439588"><ele>597.25</ele><time>2026-04-29T11:27:14Z</time></trkpt><trkpt lat="42.15500598044038" lon="-8.00300497214083"><ele>597.0</ele><time>2026-04-29T11:27:15Z</time></trkpt><trkpt lat="42.155017220436235" lon="-8.002857676681973"><ele>597.0</ele><time>2026-04-29T11:27:16Z</time></trkpt><trkpt lat="42.15503765306214" lon="-8.002709128496926"><ele>597.0</ele><time>2026-04-29T11:27:17Z</time></trkpt><trkpt lat="42.15506514437301" lon="-8.00254753734057"><ele>597.0</ele><time>2026-04-29T11:27:18Z</time></trkpt><trkpt lat="42.15508633770278" lon="-8.002378238194588"><ele>597.0</ele><time>2026-04-29T11:27:19Z</time></trkpt><trkpt lat="42.15509977725062" lon="-8.002209141437541"><ele>598.0</ele><time>2026-04-29T11:27:20Z</time></trkpt><trkpt lat="42.15513093908434" lon="-8.002047941465426"><ele>599.0</ele><time>2026-04-29T11:27:21Z</time></trkpt><trkpt lat="42.15517048071703" lon="-8.001905435070723"><ele>600.0</ele><time>2026-04-29T11:27:22Z</time></trkpt><trkpt lat="42.155212447224756" lon="-8.00177430681369"><ele>601.0</ele><time>2026-04-29T11:27:23Z</time></trkpt><trkpt lat="42.15525783536704" lon="-8.001661208950113"><ele>602.0</ele><time>2026-04-29T11:27:24Z</time></trkpt><trkpt lat="42.15531029078025" lon="-8.00155241675614"><ele>603.6</ele><time>2026-04-29T11:27:25Z</time></trkpt><trkpt lat="42.155352671342065" lon="-8.00145805820196"><ele>605.2</ele><time>2026-04-29T11:27:26Z</time></trkpt><trkpt lat="42.155362328460576" lon="-8.001365923952262"><ele>606.8</ele><time>2026-04-29T11:27:27Z</time></trkpt><trkpt lat="42.1553558338824" lon="-8.001228348594601"><ele>608.4</ele><time>2026-04-29T11:27:28Z</time></trkpt><trkpt lat="42.15533879356164" lon="-8.001045028965725"><ele>610.0</ele><time>2026-04-29T11:27:29Z</time></trkpt><trkpt lat="42.15532032181952" lon="-8.000871000198472"><ele>612.8</ele><time>2026-04-29T11:27:30Z</time></trkpt><trkpt lat="42.155325489866534" lon="-8.000769846538914"><ele>615.6</ele><time>2026-04-29T11:27:31Z</time></trkpt><trkpt lat="42.155350563722905" lon="-8.000668820869071"><ele>618.4</ele><time>2026-04-29T11:27:32Z</time></trkpt><trkpt lat="42.155379049914366" lon="-8.000526393474715"><ele>621.2</ele><time>2026-04-29T11:27:33Z</time></trkpt><trkpt lat="42.15538932802632" lon="-8.00041154124689"><ele>624.0</ele><time>2026-04-29T11:27:34Z</time></trkpt><trkpt lat="42.15538003958948" lon="-8.000273937259918"><ele>624.0</ele><time>2026-04-29T11:27:36Z</time></trkpt><trkpt lat="42.15540056781882" lon="-8.000135575645512"><ele>624.0</ele><time>2026-04-29T11:27:38Z</time></trkpt><trkpt lat="42.15544251820772" lon="-8.00001405645614"><ele>624.0</ele><time>2026-04-29T11:27:39Z</time></trkpt><trkpt lat="42.15547757736438" lon="-7.99989468687445"><ele>624.0</ele><time>2026-04-29T11:27:40Z</time></trkpt><trkpt lat="42.15549114504494" lon="-7.999787139037763"><ele>624.0</ele><time>2026-04-29T11:27:41Z</time></trkpt><trkpt lat="42.15551963649087" lon="-7.999666564677018"><ele>624.0</ele><time>2026-04-29T11:27:42Z</time></trkpt><trkpt lat="42.15549896404039" lon="-7.999514652786983"><ele>624.0</ele><time>2026-04-29T11:27:43Z</time></trkpt><trkpt lat="42.15552925602134" lon="-7.9993836736817014"><ele>624.0</ele><time>2026-04-29T11:27:44Z</time></trkpt><trkpt lat="42.155602062951644" lon="-7.999273847213759"><ele>624.0</ele><time>2026-04-29T11:27:45Z</time></trkpt><trkpt lat="42.15568079561516" lon="-7.999135612399019"><ele>623.4</ele><time>2026-04-29T11:27:46Z</time></trkpt><trkpt lat="42.155733927157414" lon="-7.998995946323431"><ele>622.8</ele><time>2026-04-29T11:27:47Z</time></trkpt><trkpt lat="42.15578588633712" lon="-7.998860670232071"><ele>622.2</ele><time>2026-04-29T11:27:48Z</time></trkpt><trkpt lat="42.15582421987454" lon="-7.9987259680327645"><ele>621.6</ele><time>2026-04-29T11:27:49Z</time></trkpt><trkpt lat="42.15587276607821" lon="-7.998602787622962"><ele>621.0</ele><time>2026-04-29T11:27:50Z</time></trkpt><trkpt lat="42.155924590618795" lon="-7.998492921253257"><ele>621.0</ele><time>2026-04-29T11:27:51Z</time></trkpt><trkpt lat="42.15594810090759" lon="-7.99838847792926"><ele>621.0</ele><time>2026-04-29T11:27:52Z</time></trkpt><trkpt lat="42.15598878820258" lon="-7.998272537405091"><ele>621.0</ele><time>2026-04-29T11:27:54Z</time></trkpt><trkpt lat="42.15595600122817" lon="-7.998192982300412"><ele>621.0</ele><time>2026-04-29T11:27:56Z</time></trkpt><trkpt lat="42.155917605488256" lon="-7.998069563066595"><ele>621.0</ele><time>2026-04-29T11:27:58Z</time></trkpt><trkpt lat="42.15593458011141" lon="-7.9978932057858"><ele>623.0</ele><time>2026-04-29T11:28:00Z</time></trkpt><trkpt lat="42.15598638272523" lon="-7.997762947337993"><ele>625.0</ele><time>2026-04-29T11:28:01Z</time></trkpt><trkpt lat="42.1560705389564" lon="-7.997601535978698"><ele>627.0</ele><time>2026-04-29T11:28:02Z</time></trkpt><trkpt lat="42.15612197741666" lon="-7.997473725525023"><ele>629.0</ele><time>2026-04-29T11:28:03Z</time></trkpt><trkpt lat="42.15616923702387" lon="-7.997360335752513"><ele>631.0</ele><time>2026-04-29T11:28:04Z</time></trkpt><trkpt lat="42.1562076126249" lon="-7.997203046061236"><ele>633.0</ele><time>2026-04-29T11:28:06Z</time></trkpt><trkpt lat="42.15619176507809" lon="-7.9970855181235425"><ele>635.0</ele><time>2026-04-29T11:28:07Z</time></trkpt><trkpt lat="42.15617577893749" lon="-7.99692863762523"><ele>637.0</ele><time>2026-04-29T11:28:08Z</time></trkpt><trkpt lat="42.15613776765293" lon="-7.996786100736576"><ele>639.0</ele><time>2026-04-29T11:28:09Z</time></trkpt><trkpt lat="42.15608217504296" lon="-7.9966523231782265"><ele>639.6</ele><time>2026-04-29T11:28:10Z</time></trkpt><trkpt lat="42.156046012617416" lon="-7.996558238499177"><ele>640.2</ele><time>2026-04-29T11:28:11Z</time></trkpt><trkpt lat="42.15600058579629" lon="-7.996470692694888"><ele>640.8000000000001</ele><time>2026-04-29T11:28:12Z</time></trkpt><trkpt lat="42.15590781621494" lon="-7.996371135565887"><ele>641.4</ele><time>2026-04-29T11:28:13Z</time></trkpt><trkpt lat="42.15581660213618" lon="-7.996264352074998"><ele>642.0</ele><time>2026-04-29T11:28:14Z</time></trkpt><trkpt lat="42.15571108342601" lon="-7.996174085779385"><ele>646.25</ele><time>2026-04-29T11:28:15Z</time></trkpt><trkpt lat="42.15560669448157" lon="-7.996080901470764"><ele>650.5</ele><time>2026-04-29T11:28:16Z</time></trkpt><trkpt lat="42.15548543776964" lon="-7.996000999450213"><ele>654.75</ele><time>2026-04-29T11:28:17Z</time></trkpt><trkpt lat="42.15538984880943" lon="-7.995930931563963"><ele>659.0</ele><time>2026-04-29T11:28:18Z</time></trkpt><trkpt lat="42.15529596372443" lon="-7.995832641265766"><ele>659.0</ele><time>2026-04-29T11:28:19Z</time></trkpt><trkpt lat="42.15520503327255" lon="-7.9957493554002"><ele>659.0</ele><time>2026-04-29T11:28:20Z</time></trkpt><trkpt lat="42.155090403418676" lon="-7.9956532978019945"><ele>659.0</ele><time>2026-04-29T11:28:21Z</time></trkpt><trkpt lat="42.154986117933156" lon="-7.995570486073581"><ele>659.0</ele><time>2026-04-29T11:28:22Z</time></trkpt><trkpt lat="42.15488388798169" lon="-7.9954958907026965"><ele>662.2</ele><time>2026-04-29T11:28:23Z</time></trkpt><trkpt lat="42.15477540319035" lon="-7.995403019383422"><ele>665.4000000000001</ele><time>2026-04-29T11:28:24Z</time></trkpt><trkpt lat="42.15466913619347" lon="-7.995334715182784"><ele>668.6</ele><time>2026-04-29T11:28:25Z</time></trkpt><trkpt lat="42.154584992388685" lon="-7.995276028124348"><ele>671.8</ele><time>2026-04-29T11:28:26Z</time></trkpt><trkpt lat="42.15452241832533" lon="-7.995229090865541"><ele>675.0</ele><time>2026-04-29T11:28:27Z</time></trkpt><trkpt lat="42.154470735553595" lon="-7.99511801717055"><ele>675.0</ele><time>2026-04-29T11:28:29Z</time></trkpt><trkpt lat="42.15452700445068" lon="-7.995048363746514"><ele>675.0</ele><time>2026-04-29T11:28:31Z</time></trkpt><trkpt lat="42.15461901891943" lon="-7.99501298153699"><ele>675.0</ele><time>2026-04-29T11:28:33Z</time></trkpt><trkpt lat="42.1547627552449" lon="-7.994954575495828"><ele>675.0</ele><time>2026-04-29T11:28:35Z</time></trkpt><trkpt lat="42.154849425645125" lon="-7.994971937993058"><ele>675.0</ele><time>2026-04-29T11:28:36Z</time></trkpt><trkpt lat="42.15498871680224" lon="-7.994995211953932"><ele>672.3333333333334</ele><time>2026-04-29T11:28:37Z</time></trkpt><trkpt lat="42.15509533217847" lon="-7.9950154472457235"><ele>669.6666666666666</ele><time>2026-04-29T11:28:38Z</time></trkpt><trkpt lat="42.15519780990023" lon="-7.995038396289912"><ele>667.0</ele><time>2026-04-29T11:28:39Z</time></trkpt><trkpt lat="42.155269428261285" lon="-7.9950528962819005"><ele>664.3333333333333</ele><time>2026-04-29T11:28:40Z</time></trkpt><trkpt lat="42.1553518346186" lon="-7.9950848874255245"><ele>661.6666666666666</ele><time>2026-04-29T11:28:41Z</time></trkpt><trkpt lat="42.155405577343586" lon="-7.995157881480215"><ele>659.0</ele><time>2026-04-29T11:28:42Z</time></trkpt><trkpt lat="42.15547863838854" lon="-7.995182928727997"><ele>659.0</ele><time>2026-04-29T11:28:43Z</time></trkpt><trkpt lat="42.155580623625625" lon="-7.995184910159537"><ele>659.0</ele><time>2026-04-29T11:28:45Z</time></trkpt><trkpt lat="42.15565258293433" lon="-7.995180684761953"><ele>659.0</ele><time>2026-04-29T11:28:46Z</time></trkpt><trkpt lat="42.15572896312669" lon="-7.99518321809355"><ele>659.0</ele><time>2026-04-29T11:28:47Z</time></trkpt><trkpt lat="42.155823114035606" lon="-7.995147218016263"><ele>659.0</ele><time>2026-04-29T11:28:48Z</time></trkpt><trkpt lat="42.15592060955752" lon="-7.995085765048926"><ele>659.4000000000001</ele><time>2026-04-29T11:28:49Z</time></trkpt><trkpt lat="42.15602694968109" lon="-7.995007884111871"><ele>659.8</ele><time>2026-04-29T11:28:50Z</time></trkpt><trkpt lat="42.15611789406981" lon="-7.994937185356228"><ele>660.2</ele><time>2026-04-29T11:28:51Z</time></trkpt><trkpt lat="42.15618557382384" lon="-7.9948666751890025"><ele>660.5999999999999</ele><time>2026-04-29T11:28:52Z</time></trkpt><trkpt lat="42.15624312648596" lon="-7.994777835379999"><ele>661.0</ele><time>2026-04-29T11:28:53Z</time></trkpt><trkpt lat="42.15630831336891" lon="-7.994655359546307"><ele>661.0</ele><time>2026-04-29T11:28:54Z</time></trkpt><trkpt lat="42.156377082362305" lon="-7.99450539402369"><ele>661.0</ele><time>2026-04-29T11:28:55Z</time></trkpt><trkpt lat="42.1564506109341" lon="-7.994347801054988"><ele>661.0</ele><time>2026-04-29T11:28:56Z</time></trkpt><trkpt lat="42.156518254826786" lon="-7.994200628054608"><ele>661.0</ele><time>2026-04-29T11:28:57Z</time></trkpt><trkpt lat="42.15658540538779" lon="-7.994072066116612"><ele>662.0</ele><time>2026-04-29T11:28:58Z</time></trkpt><trkpt lat="42.15664761868427" lon="-7.993943112807329"><ele>663.0</ele><time>2026-04-29T11:28:59Z</time></trkpt><trkpt lat="42.156711965053525" lon="-7.993821220169028"><ele>664.0</ele><time>2026-04-29T11:29:00Z</time></trkpt><trkpt lat="42.156773400362994" lon="-7.993701167019834"><ele>665.0</ele><time>2026-04-29T11:29:01Z</time></trkpt><trkpt lat="42.15683404903659" lon="-7.993585993673771"><ele>666.0</ele><time>2026-04-29T11:29:02Z</time></trkpt><trkpt lat="42.15690504178631" lon="-7.99348092020248"><ele>666.0</ele><time>2026-04-29T11:29:03Z</time></trkpt><trkpt lat="42.156975956722" lon="-7.993387314615133"><ele>666.0</ele><time>2026-04-29T11:29:04Z</time></trkpt><trkpt lat="42.1570351098539" lon="-7.993320014992367"><ele>666.0</ele><time>2026-04-29T11:29:05Z</time></trkpt><trkpt lat="42.15708278063833" lon="-7.993218090307939"><ele>666.0</ele><time>2026-04-29T11:29:07Z</time></trkpt><trkpt lat="42.15702077743822" lon="-7.993120725998509"><ele>666.0</ele><time>2026-04-29T11:29:10Z</time></trkpt><trkpt lat="42.156911636659565" lon="-7.99309190195125"><ele>668.1999999999999</ele><time>2026-04-29T11:29:12Z</time></trkpt><trkpt lat="42.156792095984784" lon="-7.993067868454897"><ele>670.4</ele><time>2026-04-29T11:29:14Z</time></trkpt><trkpt lat="42.156678495357866" lon="-7.99301185490548"><ele>672.6</ele><time>2026-04-29T11:29:16Z</time></trkpt><trkpt lat="42.15661459105566" lon="-7.9929764379236"><ele>674.8</ele><time>2026-04-29T11:29:17Z</time></trkpt><trkpt lat="42.15653825237126" lon="-7.992978215335846"><ele>677.0</ele><time>2026-04-29T11:29:18Z</time></trkpt><trkpt lat="42.15647121455494" lon="-7.9929336688744685"><ele>677.8333333333333</ele><time>2026-04-29T11:29:19Z</time></trkpt><trkpt lat="42.15640345115281" lon="-7.992886010506668"><ele>678.6666666666666</ele><time>2026-04-29T11:29:20Z</time></trkpt><trkpt lat="42.156336753445366" lon="-7.992835901507197"><ele>679.5</ele><time>2026-04-29T11:29:21Z</time></trkpt><trkpt lat="42.15628595891126" lon="-7.9927568358148875"><ele>680.3333333333334</ele><time>2026-04-29T11:29:22Z</time></trkpt><trkpt lat="42.15626115286544" lon="-7.992657454121157"><ele>681.1666666666667</ele><time>2026-04-29T11:29:23Z</time></trkpt><trkpt lat="42.15621647945778" lon="-7.992490148727137"><ele>682.0</ele><time>2026-04-29T11:29:25Z</time></trkpt><trkpt lat="42.15619413093216" lon="-7.992395219128406"><ele>683.8</ele><time>2026-04-29T11:29:26Z</time></trkpt><trkpt lat="42.15617944659113" lon="-7.992261120039557"><ele>685.6</ele><time>2026-04-29T11:29:28Z</time></trkpt><trkpt lat="42.1562083682026" lon="-7.992160024050563"><ele>687.4</ele><time>2026-04-29T11:29:30Z</time></trkpt><trkpt lat="42.15618358102209" lon="-7.992064043626136"><ele>689.1999999999999</ele><time>2026-04-29T11:29:32Z</time></trkpt><trkpt lat="42.156120948659336" lon="-7.992002095364016"><ele>691.0</ele><time>2026-04-29T11:29:34Z</time></trkpt><trkpt lat="42.15602838656773" lon="-7.991904709206867"><ele>691.0</ele><time>2026-04-29T11:29:36Z</time></trkpt><trkpt lat="42.155969196174404" lon="-7.991818617617252"><ele>691.0</ele><time>2026-04-29T11:29:38Z</time></trkpt><trkpt lat="42.1559649049204" lon="-7.991675108460652"><ele>691.0</ele><time>2026-04-29T11:29:40Z</time></trkpt><trkpt lat="42.15594564423392" lon="-7.991562715014068"><ele>691.0</ele><time>2026-04-29T11:29:42Z</time></trkpt><trkpt lat="42.1559292264079" lon="-7.9914307469249115"><ele>691.0</ele><time>2026-04-29T11:29:44Z</time></trkpt><trkpt lat="42.15592178026962" lon="-7.991310859851904"><ele>692.3333333333334</ele><time>2026-04-29T11:29:46Z</time></trkpt><trkpt lat="42.15588323784441" lon="-7.99121892328478"><ele>693.6666666666667</ele><time>2026-04-29T11:29:48Z</time></trkpt><trkpt lat="42.15579277983824" lon="-7.991145382609576"><ele>695.0</ele><time>2026-04-29T11:29:50Z</time></trkpt><trkpt lat="42.1557223703652" lon="-7.9911132524819415"><ele>696.3333333333334</ele><time>2026-04-29T11:29:52Z</time></trkpt><trkpt lat="42.15565212949949" lon="-7.991120281442003"><ele>697.6666666666666</ele><time>2026-04-29T11:29:54Z</time></trkpt><trkpt lat="42.15560095919954" lon="-7.991067986361802"><ele>699.0</ele><time>2026-04-29T11:29:58Z</time></trkpt><trkpt lat="42.15565055925293" lon="-7.990984499147324"><ele>699.0</ele><time>2026-04-29T11:30:01Z</time></trkpt><trkpt lat="42.15573095849063" lon="-7.990944001851674"><ele>699.0</ele><time>2026-04-29T11:30:03Z</time></trkpt><trkpt lat="42.15576656923993" lon="-7.9908408968425775"><ele>699.0</ele><time>2026-04-29T11:30:06Z</time></trkpt><trkpt lat="42.155764121443006" lon="-7.990735914546898"><ele>699.0</ele><time>2026-04-29T11:30:08Z</time></trkpt><trkpt lat="42.15576477329194" lon="-7.990619901960893"><ele>699.0</ele><time>2026-04-29T11:30:11Z</time></trkpt><trkpt lat="42.1557334321151" lon="-7.990537714452725"><ele>699.0</ele><time>2026-04-29T11:30:14Z</time></trkpt><trkpt lat="42.15571388145809" lon="-7.990414893199399"><ele>702.4000000000001</ele><time>2026-04-29T11:30:17Z</time></trkpt><trkpt lat="42.155668290411114" lon="-7.990321499521512"><ele>705.8</ele><time>2026-04-29T11:30:19Z</time></trkpt><trkpt lat="42.15559498493635" lon="-7.990250793808947"><ele>709.2</ele><time>2026-04-29T11:30:21Z</time></trkpt><trkpt lat="42.15546816372467" lon="-7.9901962234891135"><ele>712.5999999999999</ele><time>2026-04-29T11:30:23Z</time></trkpt><trkpt lat="42.155373997710605" lon="-7.990108292741328"><ele>716.0</ele><time>2026-04-29T11:30:24Z</time></trkpt><trkpt lat="42.155305734334696" lon="-7.989980031159937"><ele>716.75</ele><time>2026-04-29T11:30:25Z</time></trkpt><trkpt lat="42.15522193102292" lon="-7.989810733356159"><ele>717.5</ele><time>2026-04-29T11:30:26Z</time></trkpt><trkpt lat="42.15513774835373" lon="-7.989639891537743"><ele>718.25</ele><time>2026-04-29T11:30:27Z</time></trkpt><trkpt lat="42.155085426041495" lon="-7.989515486383232"><ele>719.0</ele><time>2026-04-29T11:30:28Z</time></trkpt><trkpt lat="42.15503365371616" lon="-7.989392578849511"><ele>719.0</ele><time>2026-04-29T11:30:29Z</time></trkpt><trkpt lat="42.15497508271562" lon="-7.98925349377148"><ele>719.0</ele><time>2026-04-29T11:30:30Z</time></trkpt><trkpt lat="42.15491857720887" lon="-7.989165011425721"><ele>719.0</ele><time>2026-04-29T11:30:31Z</time></trkpt><trkpt lat="42.154863028665744" lon="-7.989082937429955"><ele>719.0</ele><time>2026-04-29T11:30:32Z</time></trkpt><trkpt lat="42.15477913175195" lon="-7.989001143197852"><ele>719.0</ele><time>2026-04-29T11:30:34Z</time></trkpt><trkpt lat="42.154799894239744" lon="-7.98887833667125"><ele>720.0</ele><time>2026-04-29T11:30:36Z</time></trkpt><trkpt lat="42.154829682147145" lon="-7.988757676772515"><ele>721.0</ele><time>2026-04-29T11:30:37Z</time></trkpt><trkpt lat="42.15487619553" lon="-7.988630891727145"><ele>722.0</ele><time>2026-04-29T11:30:38Z</time></trkpt><trkpt lat="42.15492106013474" lon="-7.988545143371106"><ele>723.0</ele><time>2026-04-29T11:30:39Z</time></trkpt><trkpt lat="42.154966163123724" lon="-7.98847660189414"><ele>724.0</ele><time>2026-04-29T11:30:40Z</time></trkpt><trkpt lat="42.155018863258746" lon="-7.988408280340248"><ele>725.0</ele><time>2026-04-29T11:30:41Z</time></trkpt><trkpt lat="42.155076937982" lon="-7.988335130483744"><ele>726.5</ele><time>2026-04-29T11:30:42Z</time></trkpt><trkpt lat="42.15514582731563" lon="-7.988256078691647"><ele>728.0</ele><time>2026-04-29T11:30:43Z</time></trkpt><trkpt lat="42.155213823996455" lon="-7.988177487190173"><ele>729.5</ele><time>2026-04-29T11:30:44Z</time></trkpt><trkpt lat="42.155288328195766" lon="-7.988107310936964"><ele>731.0</ele><time>2026-04-29T11:30:45Z</time></trkpt><trkpt lat="42.155362243744165" lon="-7.988037801004626"><ele>732.5</ele><time>2026-04-29T11:30:46Z</time></trkpt><trkpt lat="42.155438272381424" lon="-7.987981083030703"><ele>734.0</ele><time>2026-04-29T11:30:47Z</time></trkpt><trkpt lat="42.1555231459882" lon="-7.98792215901564"><ele>734.0</ele><time>2026-04-29T11:30:48Z</time></trkpt><trkpt lat="42.15561003761936" lon="-7.987863726873462"><ele>734.0</ele><time>2026-04-29T11:30:49Z</time></trkpt><trkpt lat="42.15569062538282" lon="-7.98780765527875"><ele>734.0</ele><time>2026-04-29T11:30:50Z</time></trkpt><trkpt lat="42.15577121398572" lon="-7.98775283753603"><ele>734.0</ele><time>2026-04-29T11:30:51Z</time></trkpt><trkpt lat="42.15585023910002" lon="-7.987696058987911"><ele>734.0</ele><time>2026-04-29T11:30:52Z</time></trkpt><trkpt lat="42.15593150668566" lon="-7.98764487908308"><ele>733.4000000000001</ele><time>2026-04-29T11:30:53Z</time></trkpt><trkpt lat="42.15603544656046" lon="-7.987571362608783"><ele>732.8</ele><time>2026-04-29T11:30:55Z</time></trkpt><trkpt lat="42.15609977246698" lon="-7.98753424732553"><ele>732.2</ele><time>2026-04-29T11:30:56Z</time></trkpt><trkpt lat="42.15616585047597" lon="-7.987482611505157"><ele>731.5999999999999</ele><time>2026-04-29T11:30:57Z</time></trkpt><trkpt lat="42.15629004901724" lon="-7.987394708240764"><ele>731.0</ele><time>2026-04-29T11:30:59Z</time></trkpt><trkpt lat="42.15636223975704" lon="-7.987341186254386"><ele>731.8333333333333</ele><time>2026-04-29T11:31:00Z</time></trkpt><trkpt lat="42.15643900369493" lon="-7.98729304613084"><ele>732.6666666666666</ele><time>2026-04-29T11:31:01Z</time></trkpt><trkpt lat="42.156511857903446" lon="-7.987242241055448"><ele>733.5</ele><time>2026-04-29T11:31:02Z</time></trkpt><trkpt lat="42.15658808477987" lon="-7.987191996513175"><ele>734.3333333333334</ele><time>2026-04-29T11:31:03Z</time></trkpt><trkpt lat="42.15665347219501" lon="-7.987146603184628"><ele>735.1666666666667</ele><time>2026-04-29T11:31:04Z</time></trkpt><trkpt lat="42.156716642734914" lon="-7.9870948661297225"><ele>736.0</ele><time>2026-04-29T11:31:05Z</time></trkpt><trkpt lat="42.156783953143695" lon="-7.987041391143997"><ele>736.0</ele><time>2026-04-29T11:31:06Z</time></trkpt><trkpt lat="42.15684143966148" lon="-7.986992303222633"><ele>736.0</ele><time>2026-04-29T11:31:07Z</time></trkpt><trkpt lat="42.156911330271605" lon="-7.986929566547538"><ele>736.0</ele><time>2026-04-29T11:31:09Z</time></trkpt><trkpt lat="42.15696611541238" lon="-7.986885525057796"><ele>736.0</ele><time>2026-04-29T11:31:12Z</time></trkpt><trkpt lat="42.15702659235122" lon="-7.986836526039253"><ele>736.0</ele><time>2026-04-29T11:31:28Z</time></trkpt><trkpt lat="42.15708549770014" lon="-7.986784457924806"><ele>736.0</ele><time>2026-04-29T11:31:29Z</time></trkpt><trkpt lat="42.15714737154467" lon="-7.9867264192274625"><ele>736.0</ele><time>2026-04-29T11:31:30Z</time></trkpt><trkpt lat="42.157202502446026" lon="-7.986670993645502"><ele>735.0</ele><time>2026-04-29T11:31:31Z</time></trkpt><trkpt lat="42.15728877373504" lon="-7.986578661686892"><ele>734.0</ele><time>2026-04-29T11:31:32Z</time></trkpt><trkpt lat="42.15739392409199" lon="-7.98647785810543"><ele>733.0</ele><time>2026-04-29T11:31:33Z</time></trkpt><trkpt lat="42.15747536807734" lon="-7.986393292107161"><ele>732.0</ele><time>2026-04-29T11:31:34Z</time></trkpt><trkpt lat="42.157561426228376" lon="-7.986301779814164"><ele>732.0</ele><time>2026-04-29T11:31:35Z</time></trkpt><trkpt lat="42.15765580655848" lon="-7.98620741885233"><ele>732.0</ele><time>2026-04-29T11:31:36Z</time></trkpt><trkpt lat="42.157734565372124" lon="-7.986109469764103"><ele>732.0</ele><time>2026-04-29T11:31:37Z</time></trkpt><trkpt lat="42.15779904419283" lon="-7.986018324019768"><ele>732.0</ele><time>2026-04-29T11:31:38Z</time></trkpt><trkpt lat="42.15786366730426" lon="-7.985932510448116"><ele>732.0</ele><time>2026-04-29T11:31:39Z</time></trkpt><trkpt lat="42.15790802466734" lon="-7.985863371731467"><ele>732.3333333333334</ele><time>2026-04-29T11:31:40Z</time></trkpt><trkpt lat="42.15793910532972" lon="-7.985788813451149"><ele>732.6666666666666</ele><time>2026-04-29T11:31:41Z</time></trkpt><trkpt lat="42.15797220254986" lon="-7.98570063928536"><ele>733.0</ele><time>2026-04-29T11:31:42Z</time></trkpt><trkpt lat="42.15799249964356" lon="-7.98559257401567"><ele>733.3333333333333</ele><time>2026-04-29T11:31:43Z</time></trkpt><trkpt lat="42.15800411297066" lon="-7.985475263647721"><ele>733.6666666666666</ele><time>2026-04-29T11:31:44Z</time></trkpt><trkpt lat="42.15800512278383" lon="-7.985339642272532"><ele>734.0</ele><time>2026-04-29T11:31:45Z</time></trkpt><trkpt lat="42.15799319337737" lon="-7.985188368191045"><ele>734.0</ele><time>2026-04-29T11:31:46Z</time></trkpt><trkpt lat="42.157975284222616" lon="-7.9850287869339"><ele>734.0</ele><time>2026-04-29T11:31:47Z</time></trkpt><trkpt lat="42.15795388472243" lon="-7.98486561018173"><ele>734.0</ele><time>2026-04-29T11:31:48Z</time></trkpt><trkpt lat="42.15792179947637" lon="-7.984718449165754"><ele>734.0</ele><time>2026-04-29T11:31:49Z</time></trkpt><trkpt lat="42.15787262329457" lon="-7.984590822139433"><ele>733.6</ele><time>2026-04-29T11:31:50Z</time></trkpt><trkpt lat="42.15779341851919" lon="-7.984478611496865"><ele>733.2</ele><time>2026-04-29T11:31:51Z</time></trkpt><trkpt lat="42.157705143324776" lon="-7.984373686125343"><ele>732.8000000000001</ele><time>2026-04-29T11:31:52Z</time></trkpt><trkpt lat="42.15763585550549" lon="-7.984280720440785"><ele>732.4000000000001</ele><time>2026-04-29T11:31:53Z</time></trkpt><trkpt lat="42.15757994534171" lon="-7.9841838871085855"><ele>732.0</ele><time>2026-04-29T11:31:54Z</time></trkpt><trkpt lat="42.15754421092246" lon="-7.984063859405633"><ele>731.2</ele><time>2026-04-29T11:31:55Z</time></trkpt><trkpt lat="42.157523283108205" lon="-7.98393775131648"><ele>730.4000000000001</ele><time>2026-04-29T11:31:56Z</time></trkpt><trkpt lat="42.15750541236384" lon="-7.983804735503162"><ele>729.5999999999999</ele><time>2026-04-29T11:31:57Z</time></trkpt><trkpt lat="42.15747927871955" lon="-7.983700223593763"><ele>728.8</ele><time>2026-04-29T11:31:58Z</time></trkpt><trkpt lat="42.157442979481104" lon="-7.983551828553116"><ele>728.0</ele><time>2026-04-29T11:31:59Z</time></trkpt><trkpt lat="42.15741948278338" lon="-7.98338292528262"><ele>728.0</ele><time>2026-04-29T11:32:00Z</time></trkpt><trkpt lat="42.15739543536702" lon="-7.983200045031623"><ele>728.0</ele><time>2026-04-29T11:32:01Z</time></trkpt><trkpt lat="42.15736924459158" lon="-7.983043506854445"><ele>728.0</ele><time>2026-04-29T11:32:02Z</time></trkpt><trkpt lat="42.15732811765226" lon="-7.982896180916942"><ele>728.0</ele><time>2026-04-29T11:32:03Z</time></trkpt><trkpt lat="42.157262203154666" lon="-7.982755582755422"><ele>729.25</ele><time>2026-04-29T11:32:04Z</time></trkpt><trkpt lat="42.157191652653054" lon="-7.982617345559374"><ele>730.5</ele><time>2026-04-29T11:32:05Z</time></trkpt><trkpt lat="42.157144970371775" lon="-7.982448385875949"><ele>731.75</ele><time>2026-04-29T11:32:06Z</time></trkpt><trkpt lat="42.15711834349091" lon="-7.982304713348018"><ele>733.0</ele><time>2026-04-29T11:32:07Z</time></trkpt><trkpt lat="42.15711078111689" lon="-7.982145582525193"><ele>733.0</ele><time>2026-04-29T11:32:08Z</time></trkpt><trkpt lat="42.15710644601235" lon="-7.98200259770232"><ele>733.0</ele><time>2026-04-29T11:32:09Z</time></trkpt><trkpt lat="42.15708917016364" lon="-7.981908770282906"><ele>733.0</ele><time>2026-04-29T11:32:10Z</time></trkpt><trkpt lat="42.157056198213525" lon="-7.981835815647404"><ele>733.0</ele><time>2026-04-29T11:32:11Z</time></trkpt><trkpt lat="42.156944839895246" lon="-7.981753108991801"><ele>733.0</ele><time>2026-04-29T11:32:13Z</time></trkpt><trkpt lat="42.15686750380169" lon="-7.981702417591844"><ele>732.8333333333334</ele><time>2026-04-29T11:32:14Z</time></trkpt><trkpt lat="42.15682167183173" lon="-7.98163932989622"><ele>732.6666666666667</ele><time>2026-04-29T11:32:15Z</time></trkpt><trkpt lat="42.15685124623692" lon="-7.9815465364151725"><ele>732.5</ele><time>2026-04-29T11:32:17Z</time></trkpt><trkpt lat="42.15690223547961" lon="-7.981479626824201"><ele>732.3333333333334</ele><time>2026-04-29T11:32:18Z</time></trkpt><trkpt lat="42.15698479628459" lon="-7.981403425629145"><ele>732.1666666666666</ele><time>2026-04-29T11:32:19Z</time></trkpt><trkpt lat="42.15707225700698" lon="-7.981312381801654"><ele>732.0</ele><time>2026-04-29T11:32:20Z</time></trkpt><trkpt lat="42.15716015610127" lon="-7.981200034921461"><ele>732.0</ele><time>2026-04-29T11:32:21Z</time></trkpt><trkpt lat="42.15723794009758" lon="-7.9811242224599495"><ele>732.0</ele><time>2026-04-29T11:32:22Z</time></trkpt><trkpt lat="42.15730643222312" lon="-7.981056337864158"><ele>732.0</ele><time>2026-04-29T11:32:23Z</time></trkpt><trkpt lat="42.15737470241727" lon="-7.981005410129261"><ele>732.0</ele><time>2026-04-29T11:32:24Z</time></trkpt><trkpt lat="42.157444874572604" lon="-7.980955980676139"><ele>732.0</ele><time>2026-04-29T11:32:25Z</time></trkpt><trkpt lat="42.15749751451904" lon="-7.980907088510517"><ele>732.0</ele><time>2026-04-29T11:32:26Z</time></trkpt><trkpt lat="42.157531623390234" lon="-7.980818993155657"><ele>730.8333333333334</ele><time>2026-04-29T11:32:27Z</time></trkpt><trkpt lat="42.15756493122365" lon="-7.98074684201354"><ele>729.6666666666666</ele><time>2026-04-29T11:32:28Z</time></trkpt><trkpt lat="42.1576204812306" lon="-7.980695391549477"><ele>728.5</ele><time>2026-04-29T11:32:29Z</time></trkpt><trkpt lat="42.157684679931606" lon="-7.980690714046939"><ele>727.3333333333333</ele><time>2026-04-29T11:32:30Z</time></trkpt><trkpt lat="42.15774623894089" lon="-7.980648383831055"><ele>726.1666666666666</ele><time>2026-04-29T11:32:31Z</time></trkpt><trkpt lat="42.15781862809016" lon="-7.980516520725259"><ele>725.0</ele><time>2026-04-29T11:32:33Z</time></trkpt><trkpt lat="42.157912210622094" lon="-7.980315233401395"><ele>725.0</ele><time>2026-04-29T11:32:35Z</time></trkpt><trkpt lat="42.15795447789712" lon="-7.980238462445745"><ele>725.0</ele><time>2026-04-29T11:32:36Z</time></trkpt><trkpt lat="42.15801361008414" lon="-7.980173930059016"><ele>725.0</ele><time>2026-04-29T11:32:37Z</time></trkpt><trkpt lat="42.15807192255601" lon="-7.980079537064323"><ele>725.0</ele><time>2026-04-29T11:32:39Z</time></trkpt><trkpt lat="42.15812617981988" lon="-7.979961581604518"><ele>725.0</ele><time>2026-04-29T11:32:42Z</time></trkpt><trkpt lat="42.15810385155308" lon="-7.979858464910088"><ele>725.0</ele><time>2026-04-29T11:32:43Z</time></trkpt><trkpt lat="42.15812485415338" lon="-7.979758561905831"><ele>725.2</ele><time>2026-04-29T11:32:44Z</time></trkpt><trkpt lat="42.158149120794064" lon="-7.979655623326389"><ele>725.4</ele><time>2026-04-29T11:32:45Z</time></trkpt><trkpt lat="42.158188697998916" lon="-7.979515086716989"><ele>725.5999999999999</ele><time>2026-04-29T11:32:47Z</time></trkpt><trkpt lat="42.15824519670504" lon="-7.979346170446712"><ele>725.8</ele><time>2026-04-29T11:32:49Z</time></trkpt><trkpt lat="42.1582754856074" lon="-7.979270849285266"><ele>726.0</ele><time>2026-04-29T11:32:50Z</time></trkpt><trkpt lat="42.158311614781496" lon="-7.979187695866386"><ele>722.8333333333334</ele><time>2026-04-29T11:32:51Z</time></trkpt><trkpt lat="42.15835157472599" lon="-7.979095724072516"><ele>719.6666666666666</ele><time>2026-04-29T11:32:52Z</time></trkpt><trkpt lat="42.15838380982102" lon="-7.979004798051693"><ele>716.5</ele><time>2026-04-29T11:32:53Z</time></trkpt><trkpt lat="42.158410757361814" lon="-7.978854039933443"><ele>713.3333333333333</ele><time>2026-04-29T11:32:55Z</time></trkpt><trkpt lat="42.1584263857201" lon="-7.978770282453079"><ele>710.1666666666666</ele><time>2026-04-29T11:32:56Z</time></trkpt><trkpt lat="42.15844482857817" lon="-7.978669806639957"><ele>707.0</ele><time>2026-04-29T11:32:57Z</time></trkpt><trkpt lat="42.158492084836595" lon="-7.978504793767922"><ele>707.0</ele><time>2026-04-29T11:32:59Z</time></trkpt><trkpt lat="42.158513638403456" lon="-7.978418099950065"><ele>707.0</ele><time>2026-04-29T11:33:00Z</time></trkpt><trkpt lat="42.158562113447886" lon="-7.978264881406942"><ele>707.0</ele><time>2026-04-29T11:33:02Z</time></trkpt><trkpt lat="42.15914838090409" lon="-7.978159384850071"><ele>705.0</ele><time>2026-04-29T11:33:04Z</time></trkpt><trkpt lat="42.1591917377105" lon="-7.9780571690387765"><ele>703.0</ele><time>2026-04-29T11:33:05Z</time></trkpt><trkpt lat="42.15922368533621" lon="-7.977954040843029"><ele>701.0</ele><time>2026-04-29T11:33:06Z</time></trkpt><trkpt lat="42.15927370603716" lon="-7.9778587468424895"><ele>699.0</ele><time>2026-04-29T11:33:07Z</time></trkpt><trkpt lat="42.15932727638245" lon="-7.9777680910232815"><ele>697.0</ele><time>2026-04-29T11:33:08Z</time></trkpt><trkpt lat="42.15936650801402" lon="-7.977682169731175"><ele>695.0</ele><time>2026-04-29T11:33:09Z</time></trkpt><trkpt lat="42.159397264687165" lon="-7.977586996121151"><ele>693.8333333333333</ele><time>2026-04-29T11:33:10Z</time></trkpt><trkpt lat="42.15943381852432" lon="-7.977489088923299"><ele>692.6666666666666</ele><time>2026-04-29T11:33:11Z</time></trkpt><trkpt lat="42.15947715259938" lon="-7.977390022105077"><ele>691.5</ele><time>2026-04-29T11:33:12Z</time></trkpt><trkpt lat="42.159522355976826" lon="-7.977282545681295"><ele>690.3333333333334</ele><time>2026-04-29T11:33:13Z</time></trkpt><trkpt lat="42.159568527912796" lon="-7.977186832354767"><ele>689.1666666666667</ele><time>2026-04-29T11:33:14Z</time></trkpt><trkpt lat="42.15961606514757" lon="-7.977089965423595"><ele>688.0</ele><time>2026-04-29T11:33:15Z</time></trkpt><trkpt lat="42.15968507468023" lon="-7.9770142168423295"><ele>688.0</ele><time>2026-04-29T11:33:16Z</time></trkpt><trkpt lat="42.159755269631994" lon="-7.976952431348037"><ele>688.0</ele><time>2026-04-29T11:33:17Z</time></trkpt><trkpt lat="42.1598135013544" lon="-7.976893982273366"><ele>688.0</ele><time>2026-04-29T11:33:18Z</time></trkpt><trkpt lat="42.15981718089675" lon="-7.97680535593247"><ele>688.0</ele><time>2026-04-29T11:33:19Z</time></trkpt><trkpt lat="42.159797322444035" lon="-7.976715995108757"><ele>688.0</ele><time>2026-04-29T11:33:20Z</time></trkpt><trkpt lat="42.15974930766891" lon="-7.976647206064217"><ele>688.0</ele><time>2026-04-29T11:33:21Z</time></trkpt><trkpt lat="42.159733289649886" lon="-7.976524363076746"><ele>683.0</ele><time>2026-04-29T11:33:23Z</time></trkpt><trkpt lat="42.15979127197477" lon="-7.976487298598123"><ele>683.0</ele><time>2026-04-29T11:33:26Z</time></trkpt><trkpt lat="42.15977461687898" lon="-7.976579496348519"><ele>683.0</ele><time>2026-04-29T11:34:14Z</time></trkpt><trkpt lat="42.15980889732324" lon="-7.9764990840858285"><ele>683.0</ele><time>2026-04-29T11:34:49Z</time></trkpt><trkpt lat="42.15977527751424" lon="-7.976420235685151"><ele>683.0</ele><time>2026-04-29T11:35:32Z</time></trkpt><trkpt lat="42.159809158367864" lon="-7.976321403459847"><ele>683.0</ele><time>2026-04-29T11:37:53Z</time></trkpt><trkpt lat="42.15985275250462" lon="-7.976394905867856"><ele>683.0</ele><time>2026-04-29T11:38:19Z</time></trkpt></trkseg></trk></gpx>